<?xml version="1.0" encoding="UTF-8" standalone="no" ?>
<gpx xmlns="http://www.topografix.com/GPX/1/1" xmlns:xsi="http://www.w3.org/2001/XMLSchema-instance" xsi:schemaLocation="http://www.topografix.com/GPX/1/1 http://www.topografix.com/GPX/1/1/gpx.xsd" version="1.1" creator="VisuGPX - https://www.visugpx.com">
  <metadata>
    <name>Trek Bretagne Etape 4 Le Dresnay - Botshorel</name>
    <desc><![CDATA[Quatrième jour de trek
Attention au tracé, beaucoup de hors piste]]></desc>
  </metadata>
  <trk>
    <name><![CDATA[SityTrail - Botsorhel.22072021]]></name>
    <trkseg>
      <trkpt lat="48.50264" lon="-3.44883">
        <ele>181</ele>
        <time>2021-07-22T06:59:37.612Z</time>
      </trkpt>
      <trkpt lat="48.50265" lon="-3.44888">
        <ele>181</ele>
        <time>2021-07-22T06:59:38.248Z</time>
      </trkpt>
      <trkpt lat="48.50264" lon="-3.44888">
        <ele>181</ele>
        <time>2021-07-22T06:59:43.285Z</time>
      </trkpt>
      <trkpt lat="48.50265" lon="-3.44893">
        <ele>181</ele>
        <time>2021-07-22T06:59:48.280Z</time>
      </trkpt>
      <trkpt lat="48.50266" lon="-3.449">
        <ele>181</ele>
        <time>2021-07-22T06:59:52.286Z</time>
      </trkpt>
      <trkpt lat="48.50268" lon="-3.44909">
        <ele>182</ele>
        <time>2021-07-22T06:59:57.285Z</time>
      </trkpt>
      <trkpt lat="48.5027" lon="-3.44917">
        <ele>182</ele>
        <time>2021-07-22T07:00:02.279Z</time>
      </trkpt>
      <trkpt lat="48.50273" lon="-3.44922">
        <ele>182</ele>
        <time>2021-07-22T07:00:07.253Z</time>
      </trkpt>
      <trkpt lat="48.50277" lon="-3.44924">
        <ele>182</ele>
        <time>2021-07-22T07:00:12.271Z</time>
      </trkpt>
      <trkpt lat="48.50279" lon="-3.44926">
        <ele>182</ele>
        <time>2021-07-22T07:00:17.277Z</time>
      </trkpt>
      <trkpt lat="48.50283" lon="-3.44929">
        <ele>182</ele>
        <time>2021-07-22T07:00:22.287Z</time>
      </trkpt>
      <trkpt lat="48.50288" lon="-3.44935">
        <ele>183</ele>
        <time>2021-07-22T07:00:27.278Z</time>
      </trkpt>
      <trkpt lat="48.50292" lon="-3.44936">
        <ele>182</ele>
        <time>2021-07-22T07:00:32.278Z</time>
      </trkpt>
      <trkpt lat="48.50296" lon="-3.4494">
        <ele>182</ele>
        <time>2021-07-22T07:00:37.285Z</time>
      </trkpt>
      <trkpt lat="48.50299" lon="-3.44945">
        <ele>182</ele>
        <time>2021-07-22T07:00:42.278Z</time>
      </trkpt>
      <trkpt lat="48.50301" lon="-3.44949">
        <ele>182</ele>
        <time>2021-07-22T07:00:47.274Z</time>
      </trkpt>
      <trkpt lat="48.50305" lon="-3.44956">
        <ele>182</ele>
        <time>2021-07-22T07:00:52.270Z</time>
      </trkpt>
      <trkpt lat="48.50309" lon="-3.44963">
        <ele>182</ele>
        <time>2021-07-22T07:00:57.269Z</time>
      </trkpt>
      <trkpt lat="48.50312" lon="-3.44968">
        <ele>182</ele>
        <time>2021-07-22T07:01:01.262Z</time>
      </trkpt>
      <trkpt lat="48.50317" lon="-3.44975">
        <ele>182</ele>
        <time>2021-07-22T07:01:06.266Z</time>
      </trkpt>
      <trkpt lat="48.5032" lon="-3.44979">
        <ele>180</ele>
        <time>2021-07-22T07:01:11.270Z</time>
      </trkpt>
      <trkpt lat="48.50324" lon="-3.44981">
        <ele>180</ele>
        <time>2021-07-22T07:01:16.269Z</time>
      </trkpt>
      <trkpt lat="48.50327" lon="-3.44985">
        <ele>180</ele>
        <time>2021-07-22T07:01:20.273Z</time>
      </trkpt>
      <trkpt lat="48.50333" lon="-3.4499">
        <ele>181</ele>
        <time>2021-07-22T07:01:25.266Z</time>
      </trkpt>
      <trkpt lat="48.50339" lon="-3.44995">
        <ele>181</ele>
        <time>2021-07-22T07:01:30.280Z</time>
      </trkpt>
      <trkpt lat="48.50342" lon="-3.45001">
        <ele>181</ele>
        <time>2021-07-22T07:01:35.278Z</time>
      </trkpt>
      <trkpt lat="48.50345" lon="-3.45009">
        <ele>181</ele>
        <time>2021-07-22T07:01:40.277Z</time>
      </trkpt>
      <trkpt lat="48.50348" lon="-3.4502">
        <ele>177</ele>
        <time>2021-07-22T07:01:45.282Z</time>
      </trkpt>
      <trkpt lat="48.50354" lon="-3.45029">
        <ele>177</ele>
        <time>2021-07-22T07:01:50.281Z</time>
      </trkpt>
      <trkpt lat="48.5036" lon="-3.45034">
        <ele>177</ele>
        <time>2021-07-22T07:01:55.287Z</time>
      </trkpt>
      <trkpt lat="48.50365" lon="-3.45041">
        <ele>177</ele>
        <time>2021-07-22T07:02:00.252Z</time>
      </trkpt>
      <trkpt lat="48.50368" lon="-3.45049">
        <ele>177</ele>
        <time>2021-07-22T07:02:04.279Z</time>
      </trkpt>
      <trkpt lat="48.50371" lon="-3.45054">
        <ele>177</ele>
        <time>2021-07-22T07:02:08.283Z</time>
      </trkpt>
      <trkpt lat="48.50376" lon="-3.45061">
        <ele>173</ele>
        <time>2021-07-22T07:02:13.292Z</time>
      </trkpt>
      <trkpt lat="48.50381" lon="-3.45067">
        <ele>173</ele>
        <time>2021-07-22T07:02:18.277Z</time>
      </trkpt>
      <trkpt lat="48.50383" lon="-3.45074">
        <ele>174</ele>
        <time>2021-07-22T07:02:23.276Z</time>
      </trkpt>
      <trkpt lat="48.50387" lon="-3.45081">
        <ele>174</ele>
        <time>2021-07-22T07:02:28.293Z</time>
      </trkpt>
      <trkpt lat="48.50391" lon="-3.45086">
        <ele>174</ele>
        <time>2021-07-22T07:02:33.281Z</time>
      </trkpt>
      <trkpt lat="48.50393" lon="-3.45094">
        <ele>174</ele>
        <time>2021-07-22T07:02:38.282Z</time>
      </trkpt>
      <trkpt lat="48.50396" lon="-3.45097">
        <ele>174</ele>
        <time>2021-07-22T07:02:43.269Z</time>
      </trkpt>
      <trkpt lat="48.50401" lon="-3.45102">
        <ele>174</ele>
        <time>2021-07-22T07:02:48.270Z</time>
      </trkpt>
      <trkpt lat="48.50406" lon="-3.45107">
        <ele>172</ele>
        <time>2021-07-22T07:02:53.279Z</time>
      </trkpt>
      <trkpt lat="48.50411" lon="-3.45114">
        <ele>172</ele>
        <time>2021-07-22T07:02:58.278Z</time>
      </trkpt>
      <trkpt lat="48.50414" lon="-3.45122">
        <ele>172</ele>
        <time>2021-07-22T07:03:03.273Z</time>
      </trkpt>
      <trkpt lat="48.50418" lon="-3.45129">
        <ele>172</ele>
        <time>2021-07-22T07:03:08.258Z</time>
      </trkpt>
      <trkpt lat="48.50423" lon="-3.45134">
        <ele>172</ele>
        <time>2021-07-22T07:03:12.270Z</time>
      </trkpt>
      <trkpt lat="48.50426" lon="-3.45141">
        <ele>172</ele>
        <time>2021-07-22T07:03:17.279Z</time>
      </trkpt>
      <trkpt lat="48.5043" lon="-3.45148">
        <ele>172</ele>
        <time>2021-07-22T07:03:22.270Z</time>
      </trkpt>
      <trkpt lat="48.50435" lon="-3.45155">
        <ele>169</ele>
        <time>2021-07-22T07:03:27.289Z</time>
      </trkpt>
      <trkpt lat="48.50438" lon="-3.45163">
        <ele>169</ele>
        <time>2021-07-22T07:03:32.289Z</time>
      </trkpt>
      <trkpt lat="48.50441" lon="-3.45172">
        <ele>169</ele>
        <time>2021-07-22T07:03:37.278Z</time>
      </trkpt>
      <trkpt lat="48.50445" lon="-3.45181">
        <ele>169</ele>
        <time>2021-07-22T07:03:42.274Z</time>
      </trkpt>
      <trkpt lat="48.50448" lon="-3.45188">
        <ele>169</ele>
        <time>2021-07-22T07:03:47.268Z</time>
      </trkpt>
      <trkpt lat="48.50451" lon="-3.45194">
        <ele>169</ele>
        <time>2021-07-22T07:03:52.279Z</time>
      </trkpt>
      <trkpt lat="48.50453" lon="-3.45201">
        <ele>169</ele>
        <time>2021-07-22T07:03:57.281Z</time>
      </trkpt>
      <trkpt lat="48.50457" lon="-3.45208">
        <ele>169</ele>
        <time>2021-07-22T07:04:02.271Z</time>
      </trkpt>
      <trkpt lat="48.50463" lon="-3.45216">
        <ele>166</ele>
        <time>2021-07-22T07:04:07.275Z</time>
      </trkpt>
      <trkpt lat="48.5047" lon="-3.45222">
        <ele>166</ele>
        <time>2021-07-22T07:04:12.288Z</time>
      </trkpt>
      <trkpt lat="48.50475" lon="-3.45227">
        <ele>166</ele>
        <time>2021-07-22T07:04:17.287Z</time>
      </trkpt>
      <trkpt lat="48.50479" lon="-3.45233">
        <ele>166</ele>
        <time>2021-07-22T07:04:22.282Z</time>
      </trkpt>
      <trkpt lat="48.50483" lon="-3.45238">
        <ele>166</ele>
        <time>2021-07-22T07:04:27.280Z</time>
      </trkpt>
      <trkpt lat="48.50487" lon="-3.4524">
        <ele>165</ele>
        <time>2021-07-22T07:04:32.271Z</time>
      </trkpt>
      <trkpt lat="48.50491" lon="-3.45245">
        <ele>165</ele>
        <time>2021-07-22T07:04:37.284Z</time>
      </trkpt>
      <trkpt lat="48.50496" lon="-3.4525">
        <ele>165</ele>
        <time>2021-07-22T07:04:42.260Z</time>
      </trkpt>
      <trkpt lat="48.50501" lon="-3.45253">
        <ele>165</ele>
        <time>2021-07-22T07:04:46.281Z</time>
      </trkpt>
      <trkpt lat="48.50505" lon="-3.45255">
        <ele>165</ele>
        <time>2021-07-22T07:04:51.279Z</time>
      </trkpt>
      <trkpt lat="48.5051" lon="-3.4526">
        <ele>165</ele>
        <time>2021-07-22T07:05:25.258Z</time>
      </trkpt>
      <trkpt lat="48.50513" lon="-3.45262">
        <ele>165</ele>
        <time>2021-07-22T07:05:34.272Z</time>
      </trkpt>
      <trkpt lat="48.50513" lon="-3.45262">
        <ele>165</ele>
        <time>2021-07-22T07:05:44.277Z</time>
      </trkpt>
      <trkpt lat="48.50515" lon="-3.45264">
        <ele>165</ele>
        <time>2021-07-22T07:05:54.283Z</time>
      </trkpt>
      <trkpt lat="48.50518" lon="-3.45266">
        <ele>165</ele>
        <time>2021-07-22T07:05:59.253Z</time>
      </trkpt>
      <trkpt lat="48.50521" lon="-3.45268">
        <ele>165</ele>
        <time>2021-07-22T07:06:04.270Z</time>
      </trkpt>
      <trkpt lat="48.50524" lon="-3.45264">
        <ele>165</ele>
        <time>2021-07-22T07:06:09.254Z</time>
      </trkpt>
      <trkpt lat="48.50527" lon="-3.45261">
        <ele>165</ele>
        <time>2021-07-22T07:06:13.272Z</time>
      </trkpt>
      <trkpt lat="48.50527" lon="-3.45262">
        <ele>165</ele>
        <time>2021-07-22T07:06:18.276Z</time>
      </trkpt>
      <trkpt lat="48.50532" lon="-3.45265">
        <ele>165</ele>
        <time>2021-07-22T07:06:22.294Z</time>
      </trkpt>
      <trkpt lat="48.50538" lon="-3.45271">
        <ele>165</ele>
        <time>2021-07-22T07:06:27.260Z</time>
      </trkpt>
      <trkpt lat="48.50543" lon="-3.45276">
        <ele>165</ele>
        <time>2021-07-22T07:06:32.259Z</time>
      </trkpt>
      <trkpt lat="48.50548" lon="-3.4528">
        <ele>165</ele>
        <time>2021-07-22T07:06:37.261Z</time>
      </trkpt>
      <trkpt lat="48.50553" lon="-3.45285">
        <ele>165</ele>
        <time>2021-07-22T07:06:42.280Z</time>
      </trkpt>
      <trkpt lat="48.50558" lon="-3.45289">
        <ele>165</ele>
        <time>2021-07-22T07:06:47.264Z</time>
      </trkpt>
      <trkpt lat="48.50565" lon="-3.45295">
        <ele>165</ele>
        <time>2021-07-22T07:06:52.279Z</time>
      </trkpt>
      <trkpt lat="48.50569" lon="-3.45298">
        <ele>169</ele>
        <time>2021-07-22T07:06:57.265Z</time>
      </trkpt>
      <trkpt lat="48.50574" lon="-3.45305">
        <ele>169</ele>
        <time>2021-07-22T07:07:02.282Z</time>
      </trkpt>
      <trkpt lat="48.50578" lon="-3.45309">
        <ele>169</ele>
        <time>2021-07-22T07:07:06.280Z</time>
      </trkpt>
      <trkpt lat="48.50582" lon="-3.45315">
        <ele>169</ele>
        <time>2021-07-22T07:07:11.262Z</time>
      </trkpt>
      <trkpt lat="48.50585" lon="-3.45321">
        <ele>168</ele>
        <time>2021-07-22T07:07:16.276Z</time>
      </trkpt>
      <trkpt lat="48.50587" lon="-3.45325">
        <ele>168</ele>
        <time>2021-07-22T07:07:21.259Z</time>
      </trkpt>
      <trkpt lat="48.50583" lon="-3.45337">
        <ele>168</ele>
        <time>2021-07-22T07:08:18.275Z</time>
      </trkpt>
      <trkpt lat="48.50583" lon="-3.45337">
        <ele>168</ele>
        <time>2021-07-22T07:08:23.271Z</time>
      </trkpt>
      <trkpt lat="48.50582" lon="-3.45337">
        <ele>168</ele>
        <time>2021-07-22T07:08:28.264Z</time>
      </trkpt>
      <trkpt lat="48.50587" lon="-3.45345">
        <ele>168</ele>
        <time>2021-07-22T07:08:32.272Z</time>
      </trkpt>
      <trkpt lat="48.50592" lon="-3.45352">
        <ele>167</ele>
        <time>2021-07-22T07:08:37.273Z</time>
      </trkpt>
      <trkpt lat="48.50597" lon="-3.45358">
        <ele>167</ele>
        <time>2021-07-22T07:08:42.274Z</time>
      </trkpt>
      <trkpt lat="48.506" lon="-3.45365">
        <ele>169</ele>
        <time>2021-07-22T07:08:47.273Z</time>
      </trkpt>
      <trkpt lat="48.50604" lon="-3.45371">
        <ele>169</ele>
        <time>2021-07-22T07:08:52.272Z</time>
      </trkpt>
      <trkpt lat="48.50608" lon="-3.45379">
        <ele>167</ele>
        <time>2021-07-22T07:08:57.271Z</time>
      </trkpt>
      <trkpt lat="48.5061" lon="-3.45386">
        <ele>167</ele>
        <time>2021-07-22T07:09:02.275Z</time>
      </trkpt>
      <trkpt lat="48.50612" lon="-3.45391">
        <ele>167</ele>
        <time>2021-07-22T07:09:06.276Z</time>
      </trkpt>
      <trkpt lat="48.50616" lon="-3.45398">
        <ele>167</ele>
        <time>2021-07-22T07:09:11.262Z</time>
      </trkpt>
      <trkpt lat="48.5062" lon="-3.45404">
        <ele>165</ele>
        <time>2021-07-22T07:09:16.281Z</time>
      </trkpt>
      <trkpt lat="48.50624" lon="-3.45411">
        <ele>165</ele>
        <time>2021-07-22T07:09:21.271Z</time>
      </trkpt>
      <trkpt lat="48.50629" lon="-3.45416">
        <ele>167</ele>
        <time>2021-07-22T07:09:26.280Z</time>
      </trkpt>
      <trkpt lat="48.50634" lon="-3.45423">
        <ele>167</ele>
        <time>2021-07-22T07:09:31.269Z</time>
      </trkpt>
      <trkpt lat="48.50638" lon="-3.4543">
        <ele>167</ele>
        <time>2021-07-22T07:09:36.272Z</time>
      </trkpt>
      <trkpt lat="48.50643" lon="-3.45435">
        <ele>166</ele>
        <time>2021-07-22T07:09:41.279Z</time>
      </trkpt>
      <trkpt lat="48.50648" lon="-3.45439">
        <ele>166</ele>
        <time>2021-07-22T07:09:46.276Z</time>
      </trkpt>
      <trkpt lat="48.50653" lon="-3.45445">
        <ele>166</ele>
        <time>2021-07-22T07:09:51.259Z</time>
      </trkpt>
      <trkpt lat="48.50658" lon="-3.45452">
        <ele>168</ele>
        <time>2021-07-22T07:09:56.271Z</time>
      </trkpt>
      <trkpt lat="48.50663" lon="-3.45459">
        <ele>168</ele>
        <time>2021-07-22T07:10:01.265Z</time>
      </trkpt>
      <trkpt lat="48.50666" lon="-3.45461">
        <ele>168</ele>
        <time>2021-07-22T07:10:06.272Z</time>
      </trkpt>
      <trkpt lat="48.5067" lon="-3.45466">
        <ele>168</ele>
        <time>2021-07-22T07:10:11.278Z</time>
      </trkpt>
      <trkpt lat="48.50675" lon="-3.45474">
        <ele>168</ele>
        <time>2021-07-22T07:10:16.272Z</time>
      </trkpt>
      <trkpt lat="48.50678" lon="-3.45477">
        <ele>168</ele>
        <time>2021-07-22T07:10:21.273Z</time>
      </trkpt>
      <trkpt lat="48.50683" lon="-3.45482">
        <ele>170</ele>
        <time>2021-07-22T07:10:26.278Z</time>
      </trkpt>
      <trkpt lat="48.50688" lon="-3.45489">
        <ele>170</ele>
        <time>2021-07-22T07:10:31.273Z</time>
      </trkpt>
      <trkpt lat="48.50693" lon="-3.45495">
        <ele>170</ele>
        <time>2021-07-22T07:10:36.264Z</time>
      </trkpt>
      <trkpt lat="48.50698" lon="-3.455">
        <ele>170</ele>
        <time>2021-07-22T07:10:40.275Z</time>
      </trkpt>
      <trkpt lat="48.50702" lon="-3.45504">
        <ele>170</ele>
        <time>2021-07-22T07:10:45.268Z</time>
      </trkpt>
      <trkpt lat="48.50706" lon="-3.45509">
        <ele>170</ele>
        <time>2021-07-22T07:10:50.275Z</time>
      </trkpt>
      <trkpt lat="48.50707" lon="-3.45511">
        <ele>170</ele>
        <time>2021-07-22T07:10:55.272Z</time>
      </trkpt>
      <trkpt lat="48.50714" lon="-3.45515">
        <ele>172</ele>
        <time>2021-07-22T07:11:00.265Z</time>
      </trkpt>
      <trkpt lat="48.50718" lon="-3.45516">
        <ele>172</ele>
        <time>2021-07-22T07:11:04.275Z</time>
      </trkpt>
      <trkpt lat="48.50722" lon="-3.45516">
        <ele>172</ele>
        <time>2021-07-22T07:11:08.267Z</time>
      </trkpt>
      <trkpt lat="48.50727" lon="-3.45518">
        <ele>172</ele>
        <time>2021-07-22T07:11:13.279Z</time>
      </trkpt>
      <trkpt lat="48.50732" lon="-3.4552">
        <ele>172</ele>
        <time>2021-07-22T07:11:17.274Z</time>
      </trkpt>
      <trkpt lat="48.50738" lon="-3.4552">
        <ele>172</ele>
        <time>2021-07-22T07:11:22.273Z</time>
      </trkpt>
      <trkpt lat="48.50747" lon="-3.45523">
        <ele>172</ele>
        <time>2021-07-22T07:11:27.279Z</time>
      </trkpt>
      <trkpt lat="48.50754" lon="-3.45523">
        <ele>172</ele>
        <time>2021-07-22T07:11:32.282Z</time>
      </trkpt>
      <trkpt lat="48.50761" lon="-3.45528">
        <ele>172</ele>
        <time>2021-07-22T07:11:37.279Z</time>
      </trkpt>
      <trkpt lat="48.50764" lon="-3.45532">
        <ele>174</ele>
        <time>2021-07-22T07:11:42.273Z</time>
      </trkpt>
      <trkpt lat="48.50769" lon="-3.45532">
        <ele>174</ele>
        <time>2021-07-22T07:11:47.270Z</time>
      </trkpt>
      <trkpt lat="48.50774" lon="-3.45536">
        <ele>174</ele>
        <time>2021-07-22T07:11:51.279Z</time>
      </trkpt>
      <trkpt lat="48.50782" lon="-3.45542">
        <ele>174</ele>
        <time>2021-07-22T07:11:56.270Z</time>
      </trkpt>
      <trkpt lat="48.50786" lon="-3.45548">
        <ele>174</ele>
        <time>2021-07-22T07:12:00.271Z</time>
      </trkpt>
      <trkpt lat="48.5079" lon="-3.45554">
        <ele>174</ele>
        <time>2021-07-22T07:12:05.278Z</time>
      </trkpt>
      <trkpt lat="48.50796" lon="-3.4556">
        <ele>176</ele>
        <time>2021-07-22T07:12:10.272Z</time>
      </trkpt>
      <trkpt lat="48.50801" lon="-3.45565">
        <ele>176</ele>
        <time>2021-07-22T07:12:15.270Z</time>
      </trkpt>
      <trkpt lat="48.50806" lon="-3.4557">
        <ele>175</ele>
        <time>2021-07-22T07:12:19.279Z</time>
      </trkpt>
      <trkpt lat="48.50811" lon="-3.45576">
        <ele>175</ele>
        <time>2021-07-22T07:12:24.273Z</time>
      </trkpt>
      <trkpt lat="48.50817" lon="-3.45581">
        <ele>175</ele>
        <time>2021-07-22T07:12:29.276Z</time>
      </trkpt>
      <trkpt lat="48.50822" lon="-3.45585">
        <ele>177</ele>
        <time>2021-07-22T07:12:34.289Z</time>
      </trkpt>
      <trkpt lat="48.50826" lon="-3.45591">
        <ele>177</ele>
        <time>2021-07-22T07:12:39.279Z</time>
      </trkpt>
      <trkpt lat="48.50829" lon="-3.45598">
        <ele>176</ele>
        <time>2021-07-22T07:12:44.274Z</time>
      </trkpt>
      <trkpt lat="48.50832" lon="-3.45603">
        <ele>176</ele>
        <time>2021-07-22T07:12:49.273Z</time>
      </trkpt>
      <trkpt lat="48.50836" lon="-3.45609">
        <ele>176</ele>
        <time>2021-07-22T07:12:54.263Z</time>
      </trkpt>
      <trkpt lat="48.5084" lon="-3.45614">
        <ele>176</ele>
        <time>2021-07-22T07:12:59.269Z</time>
      </trkpt>
      <trkpt lat="48.50846" lon="-3.4562">
        <ele>176</ele>
        <time>2021-07-22T07:13:04.271Z</time>
      </trkpt>
      <trkpt lat="48.5085" lon="-3.45625">
        <ele>180</ele>
        <time>2021-07-22T07:13:08.275Z</time>
      </trkpt>
      <trkpt lat="48.50853" lon="-3.4563">
        <ele>177</ele>
        <time>2021-07-22T07:13:13.273Z</time>
      </trkpt>
      <trkpt lat="48.50859" lon="-3.45635">
        <ele>177</ele>
        <time>2021-07-22T07:13:18.268Z</time>
      </trkpt>
      <trkpt lat="48.50865" lon="-3.45639">
        <ele>177</ele>
        <time>2021-07-22T07:13:23.262Z</time>
      </trkpt>
      <trkpt lat="48.50869" lon="-3.45644">
        <ele>177</ele>
        <time>2021-07-22T07:13:27.270Z</time>
      </trkpt>
      <trkpt lat="48.50875" lon="-3.45648">
        <ele>179</ele>
        <time>2021-07-22T07:13:32.258Z</time>
      </trkpt>
      <trkpt lat="48.50881" lon="-3.45652">
        <ele>179</ele>
        <time>2021-07-22T07:13:37.270Z</time>
      </trkpt>
      <trkpt lat="48.50886" lon="-3.45656">
        <ele>176</ele>
        <time>2021-07-22T07:13:42.273Z</time>
      </trkpt>
      <trkpt lat="48.50893" lon="-3.45659">
        <ele>176</ele>
        <time>2021-07-22T07:13:47.274Z</time>
      </trkpt>
      <trkpt lat="48.50898" lon="-3.45663">
        <ele>176</ele>
        <time>2021-07-22T07:13:52.270Z</time>
      </trkpt>
      <trkpt lat="48.50901" lon="-3.45663">
        <ele>176</ele>
        <time>2021-07-22T07:13:57.268Z</time>
      </trkpt>
      <trkpt lat="48.50907" lon="-3.45666">
        <ele>179</ele>
        <time>2021-07-22T07:14:02.269Z</time>
      </trkpt>
      <trkpt lat="48.50912" lon="-3.4567">
        <ele>179</ele>
        <time>2021-07-22T07:14:07.254Z</time>
      </trkpt>
      <trkpt lat="48.50917" lon="-3.45674">
        <ele>179</ele>
        <time>2021-07-22T07:14:12.264Z</time>
      </trkpt>
      <trkpt lat="48.5092" lon="-3.45676">
        <ele>179</ele>
        <time>2021-07-22T07:14:17.252Z</time>
      </trkpt>
      <trkpt lat="48.50926" lon="-3.4568">
        <ele>179</ele>
        <time>2021-07-22T07:14:21.269Z</time>
      </trkpt>
      <trkpt lat="48.5093" lon="-3.45682">
        <ele>177</ele>
        <time>2021-07-22T07:14:26.268Z</time>
      </trkpt>
      <trkpt lat="48.50935" lon="-3.45686">
        <ele>178</ele>
        <time>2021-07-22T07:14:31.271Z</time>
      </trkpt>
      <trkpt lat="48.50941" lon="-3.45689">
        <ele>178</ele>
        <time>2021-07-22T07:14:36.274Z</time>
      </trkpt>
      <trkpt lat="48.50947" lon="-3.45693">
        <ele>178</ele>
        <time>2021-07-22T07:14:41.252Z</time>
      </trkpt>
      <trkpt lat="48.50953" lon="-3.45697">
        <ele>178</ele>
        <time>2021-07-22T07:14:46.252Z</time>
      </trkpt>
      <trkpt lat="48.50956" lon="-3.45699">
        <ele>178</ele>
        <time>2021-07-22T07:14:50.259Z</time>
      </trkpt>
      <trkpt lat="48.50962" lon="-3.457">
        <ele>179</ele>
        <time>2021-07-22T07:14:54.279Z</time>
      </trkpt>
      <trkpt lat="48.50968" lon="-3.45701">
        <ele>179</ele>
        <time>2021-07-22T07:14:59.260Z</time>
      </trkpt>
      <trkpt lat="48.50972" lon="-3.45702">
        <ele>179</ele>
        <time>2021-07-22T07:15:04.277Z</time>
      </trkpt>
      <trkpt lat="48.50979" lon="-3.45708">
        <ele>179</ele>
        <time>2021-07-22T07:15:09.292Z</time>
      </trkpt>
      <trkpt lat="48.50985" lon="-3.45713">
        <ele>176</ele>
        <time>2021-07-22T07:15:14.263Z</time>
      </trkpt>
      <trkpt lat="48.50992" lon="-3.45715">
        <ele>175</ele>
        <time>2021-07-22T07:15:19.284Z</time>
      </trkpt>
      <trkpt lat="48.51001" lon="-3.45712">
        <ele>175</ele>
        <time>2021-07-22T07:15:24.269Z</time>
      </trkpt>
      <trkpt lat="48.51007" lon="-3.45709">
        <ele>175</ele>
        <time>2021-07-22T07:15:28.276Z</time>
      </trkpt>
      <trkpt lat="48.51013" lon="-3.45706">
        <ele>177</ele>
        <time>2021-07-22T07:15:33.280Z</time>
      </trkpt>
      <trkpt lat="48.51019" lon="-3.45703">
        <ele>174</ele>
        <time>2021-07-22T07:15:38.278Z</time>
      </trkpt>
      <trkpt lat="48.51024" lon="-3.45699">
        <ele>174</ele>
        <time>2021-07-22T07:15:43.270Z</time>
      </trkpt>
      <trkpt lat="48.51029" lon="-3.45696">
        <ele>174</ele>
        <time>2021-07-22T07:15:48.277Z</time>
      </trkpt>
      <trkpt lat="48.51034" lon="-3.45692">
        <ele>174</ele>
        <time>2021-07-22T07:15:53.263Z</time>
      </trkpt>
      <trkpt lat="48.51038" lon="-3.45689">
        <ele>174</ele>
        <time>2021-07-22T07:15:58.277Z</time>
      </trkpt>
      <trkpt lat="48.51043" lon="-3.45686">
        <ele>167</ele>
        <time>2021-07-22T07:16:03.277Z</time>
      </trkpt>
      <trkpt lat="48.51047" lon="-3.45683">
        <ele>167</ele>
        <time>2021-07-22T07:16:08.284Z</time>
      </trkpt>
      <trkpt lat="48.51052" lon="-3.4568">
        <ele>172</ele>
        <time>2021-07-22T07:16:13.275Z</time>
      </trkpt>
      <trkpt lat="48.51056" lon="-3.45675">
        <ele>172</ele>
        <time>2021-07-22T07:16:18.256Z</time>
      </trkpt>
      <trkpt lat="48.51061" lon="-3.45671">
        <ele>172</ele>
        <time>2021-07-22T07:16:22.275Z</time>
      </trkpt>
      <trkpt lat="48.51068" lon="-3.45668">
        <ele>172</ele>
        <time>2021-07-22T07:16:27.257Z</time>
      </trkpt>
      <trkpt lat="48.51073" lon="-3.45663">
        <ele>165</ele>
        <time>2021-07-22T07:16:31.272Z</time>
      </trkpt>
      <trkpt lat="48.51077" lon="-3.45656">
        <ele>165</ele>
        <time>2021-07-22T07:16:36.279Z</time>
      </trkpt>
      <trkpt lat="48.51082" lon="-3.4565">
        <ele>169</ele>
        <time>2021-07-22T07:16:41.275Z</time>
      </trkpt>
      <trkpt lat="48.51086" lon="-3.45645">
        <ele>169</ele>
        <time>2021-07-22T07:16:46.253Z</time>
      </trkpt>
      <trkpt lat="48.51089" lon="-3.45642">
        <ele>169</ele>
        <time>2021-07-22T07:16:50.271Z</time>
      </trkpt>
      <trkpt lat="48.51092" lon="-3.45638">
        <ele>169</ele>
        <time>2021-07-22T07:16:54.281Z</time>
      </trkpt>
      <trkpt lat="48.51095" lon="-3.45631">
        <ele>169</ele>
        <time>2021-07-22T07:16:59.292Z</time>
      </trkpt>
      <trkpt lat="48.51098" lon="-3.45623">
        <ele>163</ele>
        <time>2021-07-22T07:17:04.258Z</time>
      </trkpt>
      <trkpt lat="48.51102" lon="-3.45618">
        <ele>163</ele>
        <time>2021-07-22T07:17:09.252Z</time>
      </trkpt>
      <trkpt lat="48.51105" lon="-3.45618">
        <ele>163</ele>
        <time>2021-07-22T07:17:13.257Z</time>
      </trkpt>
      <trkpt lat="48.51108" lon="-3.45615">
        <ele>163</ele>
        <time>2021-07-22T07:17:17.285Z</time>
      </trkpt>
      <trkpt lat="48.51111" lon="-3.45611">
        <ele>163</ele>
        <time>2021-07-22T07:17:22.277Z</time>
      </trkpt>
      <trkpt lat="48.51114" lon="-3.45607">
        <ele>163</ele>
        <time>2021-07-22T07:17:27.251Z</time>
      </trkpt>
      <trkpt lat="48.51117" lon="-3.45604">
        <ele>163</ele>
        <time>2021-07-22T07:17:32.257Z</time>
      </trkpt>
      <trkpt lat="48.5112" lon="-3.45599">
        <ele>163</ele>
        <time>2021-07-22T07:17:37.261Z</time>
      </trkpt>
      <trkpt lat="48.51125" lon="-3.45594">
        <ele>167</ele>
        <time>2021-07-22T07:17:42.272Z</time>
      </trkpt>
      <trkpt lat="48.5113" lon="-3.45589">
        <ele>158</ele>
        <time>2021-07-22T07:17:47.256Z</time>
      </trkpt>
      <trkpt lat="48.51134" lon="-3.45584">
        <ele>158</ele>
        <time>2021-07-22T07:17:52.262Z</time>
      </trkpt>
      <trkpt lat="48.5114" lon="-3.45577">
        <ele>158</ele>
        <time>2021-07-22T07:17:57.270Z</time>
      </trkpt>
      <trkpt lat="48.51144" lon="-3.45571">
        <ele>158</ele>
        <time>2021-07-22T07:18:02.278Z</time>
      </trkpt>
      <trkpt lat="48.51147" lon="-3.45568">
        <ele>164</ele>
        <time>2021-07-22T07:18:06.276Z</time>
      </trkpt>
      <trkpt lat="48.51151" lon="-3.45562">
        <ele>164</ele>
        <time>2021-07-22T07:18:10.254Z</time>
      </trkpt>
      <trkpt lat="48.51155" lon="-3.45558">
        <ele>160</ele>
        <time>2021-07-22T07:18:15.285Z</time>
      </trkpt>
      <trkpt lat="48.51159" lon="-3.45555">
        <ele>160</ele>
        <time>2021-07-22T07:18:20.250Z</time>
      </trkpt>
      <trkpt lat="48.51164" lon="-3.4555">
        <ele>160</ele>
        <time>2021-07-22T07:18:25.283Z</time>
      </trkpt>
      <trkpt lat="48.5117" lon="-3.45545">
        <ele>160</ele>
        <time>2021-07-22T07:18:30.331Z</time>
      </trkpt>
      <trkpt lat="48.51174" lon="-3.45541">
        <ele>164</ele>
        <time>2021-07-22T07:18:35.273Z</time>
      </trkpt>
      <trkpt lat="48.5118" lon="-3.45535">
        <ele>164</ele>
        <time>2021-07-22T07:18:40.277Z</time>
      </trkpt>
      <trkpt lat="48.51186" lon="-3.45531">
        <ele>158</ele>
        <time>2021-07-22T07:18:45.274Z</time>
      </trkpt>
      <trkpt lat="48.51188" lon="-3.45527">
        <ele>158</ele>
        <time>2021-07-22T07:18:50.255Z</time>
      </trkpt>
      <trkpt lat="48.5119" lon="-3.45522">
        <ele>158</ele>
        <time>2021-07-22T07:18:54.273Z</time>
      </trkpt>
      <trkpt lat="48.51194" lon="-3.45516">
        <ele>158</ele>
        <time>2021-07-22T07:19:03.278Z</time>
      </trkpt>
      <trkpt lat="48.51194" lon="-3.45517">
        <ele>158</ele>
        <time>2021-07-22T07:19:08.275Z</time>
      </trkpt>
      <trkpt lat="48.51196" lon="-3.45516">
        <ele>158</ele>
        <time>2021-07-22T07:19:13.271Z</time>
      </trkpt>
      <trkpt lat="48.51199" lon="-3.45513">
        <ele>161</ele>
        <time>2021-07-22T07:19:23.274Z</time>
      </trkpt>
      <trkpt lat="48.51202" lon="-3.45508">
        <ele>161</ele>
        <time>2021-07-22T07:19:28.264Z</time>
      </trkpt>
      <trkpt lat="48.51205" lon="-3.45502">
        <ele>161</ele>
        <time>2021-07-22T07:19:32.260Z</time>
      </trkpt>
      <trkpt lat="48.51207" lon="-3.45495">
        <ele>161</ele>
        <time>2021-07-22T07:19:37.266Z</time>
      </trkpt>
      <trkpt lat="48.51207" lon="-3.45488">
        <ele>161</ele>
        <time>2021-07-22T07:19:42.269Z</time>
      </trkpt>
      <trkpt lat="48.51208" lon="-3.45484">
        <ele>164</ele>
        <time>2021-07-22T07:19:47.259Z</time>
      </trkpt>
      <trkpt lat="48.51209" lon="-3.45477">
        <ele>156</ele>
        <time>2021-07-22T07:19:52.267Z</time>
      </trkpt>
      <trkpt lat="48.5121" lon="-3.45474">
        <ele>156</ele>
        <time>2021-07-22T07:19:56.264Z</time>
      </trkpt>
      <trkpt lat="48.51212" lon="-3.45469">
        <ele>156</ele>
        <time>2021-07-22T07:20:01.262Z</time>
      </trkpt>
      <trkpt lat="48.51214" lon="-3.45464">
        <ele>156</ele>
        <time>2021-07-22T07:20:06.280Z</time>
      </trkpt>
      <trkpt lat="48.51216" lon="-3.45457">
        <ele>158</ele>
        <time>2021-07-22T07:20:11.259Z</time>
      </trkpt>
      <trkpt lat="48.51217" lon="-3.4545">
        <ele>158</ele>
        <time>2021-07-22T07:20:16.273Z</time>
      </trkpt>
      <trkpt lat="48.51218" lon="-3.45443">
        <ele>158</ele>
        <time>2021-07-22T07:20:21.271Z</time>
      </trkpt>
      <trkpt lat="48.51219" lon="-3.45438">
        <ele>158</ele>
        <time>2021-07-22T07:20:26.253Z</time>
      </trkpt>
      <trkpt lat="48.51222" lon="-3.4543">
        <ele>161</ele>
        <time>2021-07-22T07:20:31.264Z</time>
      </trkpt>
      <trkpt lat="48.51223" lon="-3.45421">
        <ele>161</ele>
        <time>2021-07-22T07:20:36.260Z</time>
      </trkpt>
      <trkpt lat="48.51226" lon="-3.4541">
        <ele>161</ele>
        <time>2021-07-22T07:20:41.257Z</time>
      </trkpt>
      <trkpt lat="48.51231" lon="-3.45402">
        <ele>163</ele>
        <time>2021-07-22T07:20:45.275Z</time>
      </trkpt>
      <trkpt lat="48.51233" lon="-3.45391">
        <ele>163</ele>
        <time>2021-07-22T07:20:50.274Z</time>
      </trkpt>
      <trkpt lat="48.51235" lon="-3.45382">
        <ele>163</ele>
        <time>2021-07-22T07:20:55.274Z</time>
      </trkpt>
      <trkpt lat="48.51237" lon="-3.45372">
        <ele>159</ele>
        <time>2021-07-22T07:21:00.279Z</time>
      </trkpt>
      <trkpt lat="48.5124" lon="-3.45365">
        <ele>159</ele>
        <time>2021-07-22T07:21:05.276Z</time>
      </trkpt>
      <trkpt lat="48.51243" lon="-3.45358">
        <ele>159</ele>
        <time>2021-07-22T07:21:09.266Z</time>
      </trkpt>
      <trkpt lat="48.51245" lon="-3.4535">
        <ele>159</ele>
        <time>2021-07-22T07:21:14.267Z</time>
      </trkpt>
      <trkpt lat="48.51245" lon="-3.45346">
        <ele>162</ele>
        <time>2021-07-22T07:21:18.278Z</time>
      </trkpt>
      <trkpt lat="48.51248" lon="-3.45339">
        <ele>162</ele>
        <time>2021-07-22T07:21:23.269Z</time>
      </trkpt>
      <trkpt lat="48.51252" lon="-3.4533">
        <ele>162</ele>
        <time>2021-07-22T07:21:28.281Z</time>
      </trkpt>
      <trkpt lat="48.51256" lon="-3.4532">
        <ele>162</ele>
        <time>2021-07-22T07:21:33.274Z</time>
      </trkpt>
      <trkpt lat="48.51259" lon="-3.45312">
        <ele>165</ele>
        <time>2021-07-22T07:21:38.262Z</time>
      </trkpt>
      <trkpt lat="48.51262" lon="-3.45304">
        <ele>165</ele>
        <time>2021-07-22T07:21:42.275Z</time>
      </trkpt>
      <trkpt lat="48.51265" lon="-3.45295">
        <ele>159</ele>
        <time>2021-07-22T07:21:47.280Z</time>
      </trkpt>
      <trkpt lat="48.51268" lon="-3.45287">
        <ele>162</ele>
        <time>2021-07-22T07:21:52.283Z</time>
      </trkpt>
      <trkpt lat="48.51273" lon="-3.45278">
        <ele>162</ele>
        <time>2021-07-22T07:21:57.277Z</time>
      </trkpt>
      <trkpt lat="48.51275" lon="-3.45271">
        <ele>162</ele>
        <time>2021-07-22T07:22:02.282Z</time>
      </trkpt>
      <trkpt lat="48.51278" lon="-3.45262">
        <ele>164</ele>
        <time>2021-07-22T07:22:07.273Z</time>
      </trkpt>
      <trkpt lat="48.51279" lon="-3.45254">
        <ele>164</ele>
        <time>2021-07-22T07:22:12.266Z</time>
      </trkpt>
      <trkpt lat="48.51281" lon="-3.45245">
        <ele>164</ele>
        <time>2021-07-22T07:22:17.269Z</time>
      </trkpt>
      <trkpt lat="48.51284" lon="-3.45234">
        <ele>166</ele>
        <time>2021-07-22T07:22:22.254Z</time>
      </trkpt>
      <trkpt lat="48.51284" lon="-3.45227">
        <ele>166</ele>
        <time>2021-07-22T07:22:26.267Z</time>
      </trkpt>
      <trkpt lat="48.51288" lon="-3.45219">
        <ele>166</ele>
        <time>2021-07-22T07:22:31.265Z</time>
      </trkpt>
      <trkpt lat="48.5129" lon="-3.45214">
        <ele>166</ele>
        <time>2021-07-22T07:22:36.261Z</time>
      </trkpt>
      <trkpt lat="48.51293" lon="-3.45203">
        <ele>163</ele>
        <time>2021-07-22T07:22:41.288Z</time>
      </trkpt>
      <trkpt lat="48.51294" lon="-3.45195">
        <ele>163</ele>
        <time>2021-07-22T07:22:46.255Z</time>
      </trkpt>
      <trkpt lat="48.51298" lon="-3.45187">
        <ele>163</ele>
        <time>2021-07-22T07:22:51.281Z</time>
      </trkpt>
      <trkpt lat="48.51303" lon="-3.45177">
        <ele>164</ele>
        <time>2021-07-22T07:22:56.274Z</time>
      </trkpt>
      <trkpt lat="48.51306" lon="-3.45168">
        <ele>164</ele>
        <time>2021-07-22T07:23:01.267Z</time>
      </trkpt>
      <trkpt lat="48.51308" lon="-3.45163">
        <ele>164</ele>
        <time>2021-07-22T07:23:05.272Z</time>
      </trkpt>
      <trkpt lat="48.51308" lon="-3.45156">
        <ele>164</ele>
        <time>2021-07-22T07:23:10.275Z</time>
      </trkpt>
      <trkpt lat="48.51309" lon="-3.45147">
        <ele>167</ele>
        <time>2021-07-22T07:23:15.259Z</time>
      </trkpt>
      <trkpt lat="48.5131" lon="-3.45139">
        <ele>167</ele>
        <time>2021-07-22T07:23:19.275Z</time>
      </trkpt>
      <trkpt lat="48.51311" lon="-3.45132">
        <ele>167</ele>
        <time>2021-07-22T07:23:24.263Z</time>
      </trkpt>
      <trkpt lat="48.51312" lon="-3.45126">
        <ele>167</ele>
        <time>2021-07-22T07:23:28.279Z</time>
      </trkpt>
      <trkpt lat="48.51315" lon="-3.45116">
        <ele>169</ele>
        <time>2021-07-22T07:23:33.277Z</time>
      </trkpt>
      <trkpt lat="48.51316" lon="-3.45107">
        <ele>169</ele>
        <time>2021-07-22T07:23:38.262Z</time>
      </trkpt>
      <trkpt lat="48.51319" lon="-3.45096">
        <ele>169</ele>
        <time>2021-07-22T07:23:43.290Z</time>
      </trkpt>
      <trkpt lat="48.51323" lon="-3.45085">
        <ele>160</ele>
        <time>2021-07-22T07:23:48.270Z</time>
      </trkpt>
      <trkpt lat="48.51324" lon="-3.45077">
        <ele>160</ele>
        <time>2021-07-22T07:23:53.283Z</time>
      </trkpt>
      <trkpt lat="48.51328" lon="-3.45068">
        <ele>162</ele>
        <time>2021-07-22T07:23:58.281Z</time>
      </trkpt>
      <trkpt lat="48.51332" lon="-3.45058">
        <ele>162</ele>
        <time>2021-07-22T07:24:03.270Z</time>
      </trkpt>
      <trkpt lat="48.51336" lon="-3.4505">
        <ele>162</ele>
        <time>2021-07-22T07:24:08.276Z</time>
      </trkpt>
      <trkpt lat="48.51341" lon="-3.45045">
        <ele>162</ele>
        <time>2021-07-22T07:24:13.271Z</time>
      </trkpt>
      <trkpt lat="48.51345" lon="-3.4504">
        <ele>165</ele>
        <time>2021-07-22T07:24:18.272Z</time>
      </trkpt>
      <trkpt lat="48.51347" lon="-3.4503">
        <ele>161</ele>
        <time>2021-07-22T07:24:23.266Z</time>
      </trkpt>
      <trkpt lat="48.5135" lon="-3.45019">
        <ele>161</ele>
        <time>2021-07-22T07:24:28.269Z</time>
      </trkpt>
      <trkpt lat="48.51353" lon="-3.45012">
        <ele>164</ele>
        <time>2021-07-22T07:24:33.262Z</time>
      </trkpt>
      <trkpt lat="48.51356" lon="-3.45006">
        <ele>164</ele>
        <time>2021-07-22T07:24:38.275Z</time>
      </trkpt>
      <trkpt lat="48.51361" lon="-3.44998">
        <ele>164</ele>
        <time>2021-07-22T07:24:43.266Z</time>
      </trkpt>
      <trkpt lat="48.51362" lon="-3.44989">
        <ele>164</ele>
        <time>2021-07-22T07:24:48.250Z</time>
      </trkpt>
      <trkpt lat="48.51362" lon="-3.44984">
        <ele>167</ele>
        <time>2021-07-22T07:24:52.296Z</time>
      </trkpt>
      <trkpt lat="48.51364" lon="-3.44977">
        <ele>167</ele>
        <time>2021-07-22T07:24:57.253Z</time>
      </trkpt>
      <trkpt lat="48.51366" lon="-3.44973">
        <ele>167</ele>
        <time>2021-07-22T07:25:01.270Z</time>
      </trkpt>
      <trkpt lat="48.51367" lon="-3.44964">
        <ele>167</ele>
        <time>2021-07-22T07:25:06.254Z</time>
      </trkpt>
      <trkpt lat="48.51368" lon="-3.4496">
        <ele>167</ele>
        <time>2021-07-22T07:25:11.247Z</time>
      </trkpt>
      <trkpt lat="48.5137" lon="-3.44959">
        <ele>167</ele>
        <time>2021-07-22T07:25:15.271Z</time>
      </trkpt>
      <trkpt lat="48.51373" lon="-3.44957">
        <ele>170</ele>
        <time>2021-07-22T07:25:54.269Z</time>
      </trkpt>
      <trkpt lat="48.51373" lon="-3.44965">
        <ele>167</ele>
        <time>2021-07-22T07:25:59.268Z</time>
      </trkpt>
      <trkpt lat="48.51371" lon="-3.44971">
        <ele>167</ele>
        <time>2021-07-22T07:26:04.274Z</time>
      </trkpt>
      <trkpt lat="48.51371" lon="-3.4498">
        <ele>167</ele>
        <time>2021-07-22T07:26:09.266Z</time>
      </trkpt>
      <trkpt lat="48.5137" lon="-3.44986">
        <ele>167</ele>
        <time>2021-07-22T07:26:14.284Z</time>
      </trkpt>
      <trkpt lat="48.51375" lon="-3.45">
        <ele>157</ele>
        <time>2021-07-22T07:27:12.268Z</time>
      </trkpt>
      <trkpt lat="48.51373" lon="-3.45003">
        <ele>164</ele>
        <time>2021-07-22T07:27:17.270Z</time>
      </trkpt>
      <trkpt lat="48.51371" lon="-3.45007">
        <ele>164</ele>
        <time>2021-07-22T07:27:22.271Z</time>
      </trkpt>
      <trkpt lat="48.51371" lon="-3.45008">
        <ele>164</ele>
        <time>2021-07-22T07:27:27.266Z</time>
      </trkpt>
      <trkpt lat="48.51373" lon="-3.45012">
        <ele>164</ele>
        <time>2021-07-22T07:27:32.268Z</time>
      </trkpt>
      <trkpt lat="48.51373" lon="-3.45013">
        <ele>164</ele>
        <time>2021-07-22T07:27:52.269Z</time>
      </trkpt>
      <trkpt lat="48.51374" lon="-3.45015">
        <ele>161</ele>
        <time>2021-07-22T07:28:12.276Z</time>
      </trkpt>
      <trkpt lat="48.51375" lon="-3.45017">
        <ele>154</ele>
        <time>2021-07-22T07:28:17.274Z</time>
      </trkpt>
      <trkpt lat="48.51376" lon="-3.45019">
        <ele>154</ele>
        <time>2021-07-22T07:28:22.275Z</time>
      </trkpt>
      <trkpt lat="48.5138" lon="-3.45027">
        <ele>154</ele>
        <time>2021-07-22T07:28:27.268Z</time>
      </trkpt>
      <trkpt lat="48.5138" lon="-3.45036">
        <ele>154</ele>
        <time>2021-07-22T07:28:32.262Z</time>
      </trkpt>
      <trkpt lat="48.51382" lon="-3.45037">
        <ele>154</ele>
        <time>2021-07-22T07:28:37.258Z</time>
      </trkpt>
      <trkpt lat="48.51383" lon="-3.45038">
        <ele>154</ele>
        <time>2021-07-22T07:28:42.271Z</time>
      </trkpt>
      <trkpt lat="48.51384" lon="-3.45038">
        <ele>154</ele>
        <time>2021-07-22T07:28:47.263Z</time>
      </trkpt>
      <trkpt lat="48.5139" lon="-3.45038">
        <ele>154</ele>
        <time>2021-07-22T07:28:52.279Z</time>
      </trkpt>
      <trkpt lat="48.51393" lon="-3.4504">
        <ele>154</ele>
        <time>2021-07-22T07:28:57.262Z</time>
      </trkpt>
      <trkpt lat="48.51395" lon="-3.45046">
        <ele>152</ele>
        <time>2021-07-22T07:29:02.272Z</time>
      </trkpt>
      <trkpt lat="48.51398" lon="-3.45044">
        <ele>152</ele>
        <time>2021-07-22T07:29:07.261Z</time>
      </trkpt>
      <trkpt lat="48.51401" lon="-3.45047">
        <ele>152</ele>
        <time>2021-07-22T07:29:12.264Z</time>
      </trkpt>
      <trkpt lat="48.51404" lon="-3.4505">
        <ele>145</ele>
        <time>2021-07-22T07:29:17.267Z</time>
      </trkpt>
      <trkpt lat="48.51412" lon="-3.45055">
        <ele>145</ele>
        <time>2021-07-22T07:29:56.267Z</time>
      </trkpt>
      <trkpt lat="48.51412" lon="-3.45056">
        <ele>145</ele>
        <time>2021-07-22T07:30:01.273Z</time>
      </trkpt>
      <trkpt lat="48.51414" lon="-3.45064">
        <ele>145</ele>
        <time>2021-07-22T07:30:06.267Z</time>
      </trkpt>
      <trkpt lat="48.51415" lon="-3.45068">
        <ele>145</ele>
        <time>2021-07-22T07:30:11.279Z</time>
      </trkpt>
      <trkpt lat="48.51415" lon="-3.45075">
        <ele>143</ele>
        <time>2021-07-22T07:30:16.268Z</time>
      </trkpt>
      <trkpt lat="48.51417" lon="-3.45082">
        <ele>143</ele>
        <time>2021-07-22T07:30:21.253Z</time>
      </trkpt>
      <trkpt lat="48.51416" lon="-3.45088">
        <ele>143</ele>
        <time>2021-07-22T07:30:25.274Z</time>
      </trkpt>
      <trkpt lat="48.51415" lon="-3.45098">
        <ele>141</ele>
        <time>2021-07-22T07:30:30.272Z</time>
      </trkpt>
      <trkpt lat="48.51416" lon="-3.45107">
        <ele>141</ele>
        <time>2021-07-22T07:30:35.265Z</time>
      </trkpt>
      <trkpt lat="48.51421" lon="-3.45116">
        <ele>141</ele>
        <time>2021-07-22T07:30:54.281Z</time>
      </trkpt>
      <trkpt lat="48.51423" lon="-3.45115">
        <ele>141</ele>
        <time>2021-07-22T07:30:59.254Z</time>
      </trkpt>
      <trkpt lat="48.51424" lon="-3.45119">
        <ele>141</ele>
        <time>2021-07-22T07:31:04.285Z</time>
      </trkpt>
      <trkpt lat="48.51424" lon="-3.45121">
        <ele>141</ele>
        <time>2021-07-22T07:31:09.270Z</time>
      </trkpt>
      <trkpt lat="48.51424" lon="-3.45122">
        <ele>141</ele>
        <time>2021-07-22T07:31:13.270Z</time>
      </trkpt>
      <trkpt lat="48.51429" lon="-3.45134">
        <ele>139</ele>
        <time>2021-07-22T07:31:18.267Z</time>
      </trkpt>
      <trkpt lat="48.51428" lon="-3.4514">
        <ele>139</ele>
        <time>2021-07-22T07:31:23.281Z</time>
      </trkpt>
      <trkpt lat="48.51429" lon="-3.45145">
        <ele>139</ele>
        <time>2021-07-22T07:31:28.271Z</time>
      </trkpt>
      <trkpt lat="48.51427" lon="-3.45147">
        <ele>139</ele>
        <time>2021-07-22T07:31:33.266Z</time>
      </trkpt>
      <trkpt lat="48.51429" lon="-3.45156">
        <ele>138</ele>
        <time>2021-07-22T07:31:38.273Z</time>
      </trkpt>
      <trkpt lat="48.51429" lon="-3.45164">
        <ele>138</ele>
        <time>2021-07-22T07:31:43.272Z</time>
      </trkpt>
      <trkpt lat="48.51433" lon="-3.4517">
        <ele>135</ele>
        <time>2021-07-22T07:31:48.275Z</time>
      </trkpt>
      <trkpt lat="48.51434" lon="-3.45175">
        <ele>135</ele>
        <time>2021-07-22T07:31:53.273Z</time>
      </trkpt>
      <trkpt lat="48.51435" lon="-3.45178">
        <ele>135</ele>
        <time>2021-07-22T07:31:58.280Z</time>
      </trkpt>
      <trkpt lat="48.51432" lon="-3.45185">
        <ele>135</ele>
        <time>2021-07-22T07:33:37.265Z</time>
      </trkpt>
      <trkpt lat="48.51432" lon="-3.45188">
        <ele>135</ele>
        <time>2021-07-22T07:33:42.264Z</time>
      </trkpt>
      <trkpt lat="48.51433" lon="-3.45189">
        <ele>135</ele>
        <time>2021-07-22T07:33:47.270Z</time>
      </trkpt>
      <trkpt lat="48.51436" lon="-3.45192">
        <ele>135</ele>
        <time>2021-07-22T07:33:52.266Z</time>
      </trkpt>
      <trkpt lat="48.51437" lon="-3.45193">
        <ele>135</ele>
        <time>2021-07-22T07:33:57.263Z</time>
      </trkpt>
      <trkpt lat="48.51441" lon="-3.45195">
        <ele>135</ele>
        <time>2021-07-22T07:34:02.263Z</time>
      </trkpt>
      <trkpt lat="48.51444" lon="-3.45199">
        <ele>135</ele>
        <time>2021-07-22T07:34:07.261Z</time>
      </trkpt>
      <trkpt lat="48.51448" lon="-3.45204">
        <ele>135</ele>
        <time>2021-07-22T07:34:12.263Z</time>
      </trkpt>
      <trkpt lat="48.51453" lon="-3.45206">
        <ele>135</ele>
        <time>2021-07-22T07:34:17.275Z</time>
      </trkpt>
      <trkpt lat="48.51459" lon="-3.45211">
        <ele>136</ele>
        <time>2021-07-22T07:34:22.267Z</time>
      </trkpt>
      <trkpt lat="48.51463" lon="-3.45211">
        <ele>136</ele>
        <time>2021-07-22T07:34:27.267Z</time>
      </trkpt>
      <trkpt lat="48.51466" lon="-3.45211">
        <ele>136</ele>
        <time>2021-07-22T07:34:32.262Z</time>
      </trkpt>
      <trkpt lat="48.5147" lon="-3.45213">
        <ele>136</ele>
        <time>2021-07-22T07:34:36.278Z</time>
      </trkpt>
      <trkpt lat="48.51474" lon="-3.45214">
        <ele>136</ele>
        <time>2021-07-22T07:34:41.267Z</time>
      </trkpt>
      <trkpt lat="48.51478" lon="-3.45214">
        <ele>136</ele>
        <time>2021-07-22T07:34:46.274Z</time>
      </trkpt>
      <trkpt lat="48.51482" lon="-3.45219">
        <ele>136</ele>
        <time>2021-07-22T07:34:51.249Z</time>
      </trkpt>
      <trkpt lat="48.51485" lon="-3.4522">
        <ele>136</ele>
        <time>2021-07-22T07:34:56.261Z</time>
      </trkpt>
      <trkpt lat="48.51488" lon="-3.45223">
        <ele>139</ele>
        <time>2021-07-22T07:35:01.254Z</time>
      </trkpt>
      <trkpt lat="48.5149" lon="-3.45226">
        <ele>139</ele>
        <time>2021-07-22T07:35:06.255Z</time>
      </trkpt>
      <trkpt lat="48.51491" lon="-3.4523">
        <ele>139</ele>
        <time>2021-07-22T07:35:10.274Z</time>
      </trkpt>
      <trkpt lat="48.51493" lon="-3.45228">
        <ele>139</ele>
        <time>2021-07-22T07:35:18.270Z</time>
      </trkpt>
      <trkpt lat="48.51497" lon="-3.45235">
        <ele>139</ele>
        <time>2021-07-22T07:35:23.265Z</time>
      </trkpt>
      <trkpt lat="48.51502" lon="-3.45237">
        <ele>141</ele>
        <time>2021-07-22T07:36:02.258Z</time>
      </trkpt>
      <trkpt lat="48.51503" lon="-3.45238">
        <ele>141</ele>
        <time>2021-07-22T07:36:07.259Z</time>
      </trkpt>
      <trkpt lat="48.51503" lon="-3.4524">
        <ele>141</ele>
        <time>2021-07-22T07:36:12.244Z</time>
      </trkpt>
      <trkpt lat="48.51507" lon="-3.45238">
        <ele>141</ele>
        <time>2021-07-22T07:36:17.252Z</time>
      </trkpt>
      <trkpt lat="48.51511" lon="-3.45237">
        <ele>141</ele>
        <time>2021-07-22T07:36:22.247Z</time>
      </trkpt>
      <trkpt lat="48.51511" lon="-3.45243">
        <ele>141</ele>
        <time>2021-07-22T07:36:27.258Z</time>
      </trkpt>
      <trkpt lat="48.51511" lon="-3.4524">
        <ele>141</ele>
        <time>2021-07-22T07:36:32.268Z</time>
      </trkpt>
      <trkpt lat="48.51517" lon="-3.45243">
        <ele>143</ele>
        <time>2021-07-22T07:36:37.260Z</time>
      </trkpt>
      <trkpt lat="48.51521" lon="-3.45245">
        <ele>143</ele>
        <time>2021-07-22T07:36:41.262Z</time>
      </trkpt>
      <trkpt lat="48.51524" lon="-3.45244">
        <ele>143</ele>
        <time>2021-07-22T07:36:46.250Z</time>
      </trkpt>
      <trkpt lat="48.51526" lon="-3.45246">
        <ele>143</ele>
        <time>2021-07-22T07:36:50.254Z</time>
      </trkpt>
      <trkpt lat="48.5153" lon="-3.45248">
        <ele>143</ele>
        <time>2021-07-22T07:36:55.261Z</time>
      </trkpt>
      <trkpt lat="48.51533" lon="-3.45252">
        <ele>143</ele>
        <time>2021-07-22T07:37:00.274Z</time>
      </trkpt>
      <trkpt lat="48.51537" lon="-3.45257">
        <ele>143</ele>
        <time>2021-07-22T07:37:05.253Z</time>
      </trkpt>
      <trkpt lat="48.51541" lon="-3.45259">
        <ele>143</ele>
        <time>2021-07-22T07:37:10.257Z</time>
      </trkpt>
      <trkpt lat="48.51543" lon="-3.45265">
        <ele>144</ele>
        <time>2021-07-22T07:37:14.255Z</time>
      </trkpt>
      <trkpt lat="48.51547" lon="-3.4528">
        <ele>144</ele>
        <time>2021-07-22T07:37:19.252Z</time>
      </trkpt>
      <trkpt lat="48.5155" lon="-3.45285">
        <ele>144</ele>
        <time>2021-07-22T07:37:24.258Z</time>
      </trkpt>
      <trkpt lat="48.51551" lon="-3.45293">
        <ele>144</ele>
        <time>2021-07-22T07:37:29.253Z</time>
      </trkpt>
      <trkpt lat="48.51552" lon="-3.45296">
        <ele>144</ele>
        <time>2021-07-22T07:37:33.247Z</time>
      </trkpt>
      <trkpt lat="48.51553" lon="-3.45301">
        <ele>144</ele>
        <time>2021-07-22T07:37:38.257Z</time>
      </trkpt>
      <trkpt lat="48.51556" lon="-3.45309">
        <ele>144</ele>
        <time>2021-07-22T07:37:43.253Z</time>
      </trkpt>
      <trkpt lat="48.51555" lon="-3.45311">
        <ele>144</ele>
        <time>2021-07-22T07:37:48.265Z</time>
      </trkpt>
      <trkpt lat="48.51563" lon="-3.45323">
        <ele>144</ele>
        <time>2021-07-22T07:37:53.250Z</time>
      </trkpt>
      <trkpt lat="48.51572" lon="-3.45331">
        <ele>145</ele>
        <time>2021-07-22T07:37:58.247Z</time>
      </trkpt>
      <trkpt lat="48.51569" lon="-3.45337">
        <ele>144</ele>
        <time>2021-07-22T07:38:03.246Z</time>
      </trkpt>
      <trkpt lat="48.51568" lon="-3.45345">
        <ele>144</ele>
        <time>2021-07-22T07:38:08.247Z</time>
      </trkpt>
      <trkpt lat="48.51569" lon="-3.45359">
        <ele>145</ele>
        <time>2021-07-22T07:38:13.243Z</time>
      </trkpt>
      <trkpt lat="48.51566" lon="-3.45361">
        <ele>145</ele>
        <time>2021-07-22T07:38:17.264Z</time>
      </trkpt>
      <trkpt lat="48.51566" lon="-3.45368">
        <ele>145</ele>
        <time>2021-07-22T07:38:22.250Z</time>
      </trkpt>
      <trkpt lat="48.51566" lon="-3.45378">
        <ele>146</ele>
        <time>2021-07-22T07:38:27.247Z</time>
      </trkpt>
      <trkpt lat="48.51565" lon="-3.45386">
        <ele>146</ele>
        <time>2021-07-22T07:38:31.273Z</time>
      </trkpt>
      <trkpt lat="48.51562" lon="-3.45392">
        <ele>146</ele>
        <time>2021-07-22T07:38:36.259Z</time>
      </trkpt>
      <trkpt lat="48.5156" lon="-3.45401">
        <ele>146</ele>
        <time>2021-07-22T07:38:41.247Z</time>
      </trkpt>
      <trkpt lat="48.51561" lon="-3.45406">
        <ele>146</ele>
        <time>2021-07-22T07:38:46.268Z</time>
      </trkpt>
      <trkpt lat="48.51562" lon="-3.45413">
        <ele>146</ele>
        <time>2021-07-22T07:38:51.255Z</time>
      </trkpt>
      <trkpt lat="48.51564" lon="-3.45418">
        <ele>146</ele>
        <time>2021-07-22T07:38:56.267Z</time>
      </trkpt>
      <trkpt lat="48.51566" lon="-3.45426">
        <ele>146</ele>
        <time>2021-07-22T07:39:01.251Z</time>
      </trkpt>
      <trkpt lat="48.51568" lon="-3.45437">
        <ele>147</ele>
        <time>2021-07-22T07:39:06.264Z</time>
      </trkpt>
      <trkpt lat="48.51571" lon="-3.45448">
        <ele>148</ele>
        <time>2021-07-22T07:39:11.255Z</time>
      </trkpt>
      <trkpt lat="48.51572" lon="-3.4546">
        <ele>149</ele>
        <time>2021-07-22T07:39:16.251Z</time>
      </trkpt>
      <trkpt lat="48.51574" lon="-3.45481">
        <ele>149</ele>
        <time>2021-07-22T07:39:36.261Z</time>
      </trkpt>
      <trkpt lat="48.51577" lon="-3.45485">
        <ele>149</ele>
        <time>2021-07-22T07:39:41.276Z</time>
      </trkpt>
      <trkpt lat="48.51582" lon="-3.45491">
        <ele>149</ele>
        <time>2021-07-22T07:39:46.277Z</time>
      </trkpt>
      <trkpt lat="48.51585" lon="-3.45495">
        <ele>149</ele>
        <time>2021-07-22T07:39:51.262Z</time>
      </trkpt>
      <trkpt lat="48.51588" lon="-3.45498">
        <ele>149</ele>
        <time>2021-07-22T07:39:56.262Z</time>
      </trkpt>
      <trkpt lat="48.51594" lon="-3.45503">
        <ele>149</ele>
        <time>2021-07-22T07:40:01.244Z</time>
      </trkpt>
      <trkpt lat="48.51597" lon="-3.45505">
        <ele>149</ele>
        <time>2021-07-22T07:40:05.250Z</time>
      </trkpt>
      <trkpt lat="48.516" lon="-3.45507">
        <ele>151</ele>
        <time>2021-07-22T07:40:10.264Z</time>
      </trkpt>
      <trkpt lat="48.51603" lon="-3.45513">
        <ele>151</ele>
        <time>2021-07-22T07:40:15.283Z</time>
      </trkpt>
      <trkpt lat="48.51608" lon="-3.45518">
        <ele>151</ele>
        <time>2021-07-22T07:40:20.262Z</time>
      </trkpt>
      <trkpt lat="48.51612" lon="-3.45524">
        <ele>151</ele>
        <time>2021-07-22T07:40:24.276Z</time>
      </trkpt>
      <trkpt lat="48.51618" lon="-3.45529">
        <ele>151</ele>
        <time>2021-07-22T07:40:29.256Z</time>
      </trkpt>
      <trkpt lat="48.51622" lon="-3.45534">
        <ele>151</ele>
        <time>2021-07-22T07:40:34.266Z</time>
      </trkpt>
      <trkpt lat="48.51628" lon="-3.45541">
        <ele>152</ele>
        <time>2021-07-22T07:40:39.255Z</time>
      </trkpt>
      <trkpt lat="48.51631" lon="-3.45549">
        <ele>150</ele>
        <time>2021-07-22T07:40:44.262Z</time>
      </trkpt>
      <trkpt lat="48.51635" lon="-3.45556">
        <ele>150</ele>
        <time>2021-07-22T07:40:49.251Z</time>
      </trkpt>
      <trkpt lat="48.51639" lon="-3.45565">
        <ele>150</ele>
        <time>2021-07-22T07:40:54.266Z</time>
      </trkpt>
      <trkpt lat="48.51643" lon="-3.45574">
        <ele>149</ele>
        <time>2021-07-22T07:40:59.276Z</time>
      </trkpt>
      <trkpt lat="48.51647" lon="-3.4558">
        <ele>149</ele>
        <time>2021-07-22T07:41:04.281Z</time>
      </trkpt>
      <trkpt lat="48.51649" lon="-3.45587">
        <ele>149</ele>
        <time>2021-07-22T07:41:09.265Z</time>
      </trkpt>
      <trkpt lat="48.5165" lon="-3.45589">
        <ele>149</ele>
        <time>2021-07-22T07:41:14.279Z</time>
      </trkpt>
      <trkpt lat="48.51653" lon="-3.45591">
        <ele>149</ele>
        <time>2021-07-22T07:41:19.284Z</time>
      </trkpt>
      <trkpt lat="48.51655" lon="-3.45596">
        <ele>148</ele>
        <time>2021-07-22T07:41:24.278Z</time>
      </trkpt>
      <trkpt lat="48.51655" lon="-3.456">
        <ele>147</ele>
        <time>2021-07-22T07:41:29.263Z</time>
      </trkpt>
      <trkpt lat="48.51655" lon="-3.45601">
        <ele>147</ele>
        <time>2021-07-22T07:41:34.281Z</time>
      </trkpt>
      <trkpt lat="48.51654" lon="-3.45606">
        <ele>147</ele>
        <time>2021-07-22T07:41:38.278Z</time>
      </trkpt>
      <trkpt lat="48.5165" lon="-3.45615">
        <ele>147</ele>
        <time>2021-07-22T07:41:43.278Z</time>
      </trkpt>
      <trkpt lat="48.51646" lon="-3.45622">
        <ele>147</ele>
        <time>2021-07-22T07:41:48.279Z</time>
      </trkpt>
      <trkpt lat="48.51643" lon="-3.45629">
        <ele>146</ele>
        <time>2021-07-22T07:41:53.276Z</time>
      </trkpt>
      <trkpt lat="48.5164" lon="-3.45636">
        <ele>146</ele>
        <time>2021-07-22T07:41:57.254Z</time>
      </trkpt>
      <trkpt lat="48.51637" lon="-3.45644">
        <ele>146</ele>
        <time>2021-07-22T07:42:02.257Z</time>
      </trkpt>
      <trkpt lat="48.51635" lon="-3.4565">
        <ele>146</ele>
        <time>2021-07-22T07:42:06.264Z</time>
      </trkpt>
      <trkpt lat="48.51634" lon="-3.45659">
        <ele>146</ele>
        <time>2021-07-22T07:42:11.282Z</time>
      </trkpt>
      <trkpt lat="48.51631" lon="-3.45668">
        <ele>146</ele>
        <time>2021-07-22T07:42:16.269Z</time>
      </trkpt>
      <trkpt lat="48.51628" lon="-3.45676">
        <ele>146</ele>
        <time>2021-07-22T07:42:20.282Z</time>
      </trkpt>
      <trkpt lat="48.51626" lon="-3.45686">
        <ele>146</ele>
        <time>2021-07-22T07:42:25.275Z</time>
      </trkpt>
      <trkpt lat="48.51623" lon="-3.45695">
        <ele>146</ele>
        <time>2021-07-22T07:42:30.280Z</time>
      </trkpt>
      <trkpt lat="48.51621" lon="-3.45706">
        <ele>146</ele>
        <time>2021-07-22T07:42:35.267Z</time>
      </trkpt>
      <trkpt lat="48.51618" lon="-3.45715">
        <ele>146</ele>
        <time>2021-07-22T07:42:40.274Z</time>
      </trkpt>
      <trkpt lat="48.51616" lon="-3.45725">
        <ele>146</ele>
        <time>2021-07-22T07:42:45.284Z</time>
      </trkpt>
      <trkpt lat="48.51613" lon="-3.45735">
        <ele>146</ele>
        <time>2021-07-22T07:42:50.270Z</time>
      </trkpt>
      <trkpt lat="48.51611" lon="-3.45743">
        <ele>146</ele>
        <time>2021-07-22T07:42:55.275Z</time>
      </trkpt>
      <trkpt lat="48.51608" lon="-3.45753">
        <ele>146</ele>
        <time>2021-07-22T07:43:00.284Z</time>
      </trkpt>
      <trkpt lat="48.51607" lon="-3.45761">
        <ele>146</ele>
        <time>2021-07-22T07:43:05.268Z</time>
      </trkpt>
      <trkpt lat="48.51605" lon="-3.45771">
        <ele>145</ele>
        <time>2021-07-22T07:43:10.272Z</time>
      </trkpt>
      <trkpt lat="48.51602" lon="-3.4578">
        <ele>145</ele>
        <time>2021-07-22T07:43:15.255Z</time>
      </trkpt>
      <trkpt lat="48.516" lon="-3.4579">
        <ele>145</ele>
        <time>2021-07-22T07:43:20.253Z</time>
      </trkpt>
      <trkpt lat="48.51598" lon="-3.45798">
        <ele>144</ele>
        <time>2021-07-22T07:43:25.251Z</time>
      </trkpt>
      <trkpt lat="48.51595" lon="-3.45805">
        <ele>145</ele>
        <time>2021-07-22T07:43:29.254Z</time>
      </trkpt>
      <trkpt lat="48.51593" lon="-3.45814">
        <ele>145</ele>
        <time>2021-07-22T07:43:34.253Z</time>
      </trkpt>
      <trkpt lat="48.51591" lon="-3.45824">
        <ele>144</ele>
        <time>2021-07-22T07:43:39.276Z</time>
      </trkpt>
      <trkpt lat="48.51589" lon="-3.45833">
        <ele>144</ele>
        <time>2021-07-22T07:43:44.280Z</time>
      </trkpt>
      <trkpt lat="48.51585" lon="-3.45841">
        <ele>144</ele>
        <time>2021-07-22T07:43:49.271Z</time>
      </trkpt>
      <trkpt lat="48.51581" lon="-3.4585">
        <ele>143</ele>
        <time>2021-07-22T07:43:54.259Z</time>
      </trkpt>
      <trkpt lat="48.5158" lon="-3.45857">
        <ele>143</ele>
        <time>2021-07-22T07:43:58.271Z</time>
      </trkpt>
      <trkpt lat="48.51578" lon="-3.45864">
        <ele>143</ele>
        <time>2021-07-22T07:44:03.282Z</time>
      </trkpt>
      <trkpt lat="48.51574" lon="-3.45874">
        <ele>143</ele>
        <time>2021-07-22T07:44:08.263Z</time>
      </trkpt>
      <trkpt lat="48.5157" lon="-3.45883">
        <ele>143</ele>
        <time>2021-07-22T07:44:13.263Z</time>
      </trkpt>
      <trkpt lat="48.51566" lon="-3.45889">
        <ele>144</ele>
        <time>2021-07-22T07:44:17.272Z</time>
      </trkpt>
      <trkpt lat="48.51564" lon="-3.45898">
        <ele>144</ele>
        <time>2021-07-22T07:44:22.264Z</time>
      </trkpt>
      <trkpt lat="48.51561" lon="-3.45906">
        <ele>144</ele>
        <time>2021-07-22T07:44:27.266Z</time>
      </trkpt>
      <trkpt lat="48.51558" lon="-3.45915">
        <ele>144</ele>
        <time>2021-07-22T07:44:32.270Z</time>
      </trkpt>
      <trkpt lat="48.51553" lon="-3.45922">
        <ele>144</ele>
        <time>2021-07-22T07:44:37.266Z</time>
      </trkpt>
      <trkpt lat="48.51553" lon="-3.45925">
        <ele>144</ele>
        <time>2021-07-22T07:44:42.265Z</time>
      </trkpt>
      <trkpt lat="48.51552" lon="-3.45929">
        <ele>144</ele>
        <time>2021-07-22T07:45:01.275Z</time>
      </trkpt>
      <trkpt lat="48.51548" lon="-3.45936">
        <ele>144</ele>
        <time>2021-07-22T07:45:06.252Z</time>
      </trkpt>
      <trkpt lat="48.51542" lon="-3.45943">
        <ele>144</ele>
        <time>2021-07-22T07:45:11.267Z</time>
      </trkpt>
      <trkpt lat="48.51538" lon="-3.4595">
        <ele>147</ele>
        <time>2021-07-22T07:45:15.278Z</time>
      </trkpt>
      <trkpt lat="48.51534" lon="-3.4596">
        <ele>146</ele>
        <time>2021-07-22T07:45:20.279Z</time>
      </trkpt>
      <trkpt lat="48.5153" lon="-3.45967">
        <ele>146</ele>
        <time>2021-07-22T07:45:25.274Z</time>
      </trkpt>
      <trkpt lat="48.51528" lon="-3.45974">
        <ele>146</ele>
        <time>2021-07-22T07:45:29.274Z</time>
      </trkpt>
      <trkpt lat="48.51523" lon="-3.4598">
        <ele>146</ele>
        <time>2021-07-22T07:45:34.271Z</time>
      </trkpt>
      <trkpt lat="48.51517" lon="-3.45986">
        <ele>146</ele>
        <time>2021-07-22T07:45:39.266Z</time>
      </trkpt>
      <trkpt lat="48.5151" lon="-3.45988">
        <ele>146</ele>
        <time>2021-07-22T07:45:44.273Z</time>
      </trkpt>
      <trkpt lat="48.51503" lon="-3.4599">
        <ele>146</ele>
        <time>2021-07-22T07:45:49.261Z</time>
      </trkpt>
      <trkpt lat="48.51498" lon="-3.45993">
        <ele>146</ele>
        <time>2021-07-22T07:45:53.269Z</time>
      </trkpt>
      <trkpt lat="48.51493" lon="-3.45996">
        <ele>146</ele>
        <time>2021-07-22T07:45:58.271Z</time>
      </trkpt>
      <trkpt lat="48.51487" lon="-3.45999">
        <ele>146</ele>
        <time>2021-07-22T07:46:03.253Z</time>
      </trkpt>
      <trkpt lat="48.51482" lon="-3.46002">
        <ele>146</ele>
        <time>2021-07-22T07:46:07.280Z</time>
      </trkpt>
      <trkpt lat="48.51477" lon="-3.46009">
        <ele>146</ele>
        <time>2021-07-22T07:46:12.253Z</time>
      </trkpt>
      <trkpt lat="48.51473" lon="-3.46015">
        <ele>146</ele>
        <time>2021-07-22T07:46:16.264Z</time>
      </trkpt>
      <trkpt lat="48.51469" lon="-3.46022">
        <ele>146</ele>
        <time>2021-07-22T07:46:21.266Z</time>
      </trkpt>
      <trkpt lat="48.51465" lon="-3.46029">
        <ele>146</ele>
        <time>2021-07-22T07:46:26.280Z</time>
      </trkpt>
      <trkpt lat="48.51461" lon="-3.46036">
        <ele>146</ele>
        <time>2021-07-22T07:46:31.275Z</time>
      </trkpt>
      <trkpt lat="48.51457" lon="-3.46043">
        <ele>147</ele>
        <time>2021-07-22T07:46:36.270Z</time>
      </trkpt>
      <trkpt lat="48.51453" lon="-3.46051">
        <ele>147</ele>
        <time>2021-07-22T07:46:41.251Z</time>
      </trkpt>
      <trkpt lat="48.5145" lon="-3.46058">
        <ele>147</ele>
        <time>2021-07-22T07:46:46.266Z</time>
      </trkpt>
      <trkpt lat="48.51445" lon="-3.46065">
        <ele>147</ele>
        <time>2021-07-22T07:46:51.259Z</time>
      </trkpt>
      <trkpt lat="48.51441" lon="-3.46073">
        <ele>148</ele>
        <time>2021-07-22T07:46:56.268Z</time>
      </trkpt>
      <trkpt lat="48.51438" lon="-3.46079">
        <ele>148</ele>
        <time>2021-07-22T07:47:00.282Z</time>
      </trkpt>
      <trkpt lat="48.51434" lon="-3.46086">
        <ele>148</ele>
        <time>2021-07-22T07:47:05.267Z</time>
      </trkpt>
      <trkpt lat="48.51432" lon="-3.46091">
        <ele>148</ele>
        <time>2021-07-22T07:47:09.270Z</time>
      </trkpt>
      <trkpt lat="48.51431" lon="-3.46101">
        <ele>148</ele>
        <time>2021-07-22T07:47:14.282Z</time>
      </trkpt>
      <trkpt lat="48.51428" lon="-3.46107">
        <ele>151</ele>
        <time>2021-07-22T07:47:19.275Z</time>
      </trkpt>
      <trkpt lat="48.51424" lon="-3.46116">
        <ele>151</ele>
        <time>2021-07-22T07:47:24.277Z</time>
      </trkpt>
      <trkpt lat="48.51421" lon="-3.46123">
        <ele>151</ele>
        <time>2021-07-22T07:47:29.271Z</time>
      </trkpt>
      <trkpt lat="48.51417" lon="-3.46131">
        <ele>151</ele>
        <time>2021-07-22T07:47:34.276Z</time>
      </trkpt>
      <trkpt lat="48.51414" lon="-3.46139">
        <ele>151</ele>
        <time>2021-07-22T07:47:39.276Z</time>
      </trkpt>
      <trkpt lat="48.5141" lon="-3.46147">
        <ele>151</ele>
        <time>2021-07-22T07:47:44.277Z</time>
      </trkpt>
      <trkpt lat="48.51407" lon="-3.46155">
        <ele>152</ele>
        <time>2021-07-22T07:47:49.271Z</time>
      </trkpt>
      <trkpt lat="48.51403" lon="-3.46164">
        <ele>155</ele>
        <time>2021-07-22T07:47:54.280Z</time>
      </trkpt>
      <trkpt lat="48.51398" lon="-3.4617">
        <ele>155</ele>
        <time>2021-07-22T07:47:59.274Z</time>
      </trkpt>
      <trkpt lat="48.51395" lon="-3.46177">
        <ele>155</ele>
        <time>2021-07-22T07:48:03.282Z</time>
      </trkpt>
      <trkpt lat="48.5139" lon="-3.46183">
        <ele>155</ele>
        <time>2021-07-22T07:48:08.263Z</time>
      </trkpt>
      <trkpt lat="48.51386" lon="-3.4619">
        <ele>155</ele>
        <time>2021-07-22T07:48:13.263Z</time>
      </trkpt>
      <trkpt lat="48.51383" lon="-3.46196">
        <ele>155</ele>
        <time>2021-07-22T07:48:17.273Z</time>
      </trkpt>
      <trkpt lat="48.51379" lon="-3.46203">
        <ele>155</ele>
        <time>2021-07-22T07:48:22.274Z</time>
      </trkpt>
      <trkpt lat="48.51375" lon="-3.4621">
        <ele>158</ele>
        <time>2021-07-22T07:48:27.272Z</time>
      </trkpt>
      <trkpt lat="48.51371" lon="-3.46218">
        <ele>158</ele>
        <time>2021-07-22T07:48:32.277Z</time>
      </trkpt>
      <trkpt lat="48.51367" lon="-3.46224">
        <ele>158</ele>
        <time>2021-07-22T07:48:37.274Z</time>
      </trkpt>
      <trkpt lat="48.51362" lon="-3.4623">
        <ele>158</ele>
        <time>2021-07-22T07:48:42.270Z</time>
      </trkpt>
      <trkpt lat="48.51357" lon="-3.46237">
        <ele>158</ele>
        <time>2021-07-22T07:48:47.258Z</time>
      </trkpt>
      <trkpt lat="48.51352" lon="-3.46244">
        <ele>158</ele>
        <time>2021-07-22T07:48:52.271Z</time>
      </trkpt>
      <trkpt lat="48.5135" lon="-3.4625">
        <ele>158</ele>
        <time>2021-07-22T07:48:56.272Z</time>
      </trkpt>
      <trkpt lat="48.51346" lon="-3.46256">
        <ele>160</ele>
        <time>2021-07-22T07:49:01.272Z</time>
      </trkpt>
      <trkpt lat="48.51342" lon="-3.46263">
        <ele>160</ele>
        <time>2021-07-22T07:49:06.275Z</time>
      </trkpt>
      <trkpt lat="48.51338" lon="-3.46269">
        <ele>160</ele>
        <time>2021-07-22T07:49:11.249Z</time>
      </trkpt>
      <trkpt lat="48.51335" lon="-3.46274">
        <ele>160</ele>
        <time>2021-07-22T07:49:15.278Z</time>
      </trkpt>
      <trkpt lat="48.5133" lon="-3.46282">
        <ele>160</ele>
        <time>2021-07-22T07:49:20.286Z</time>
      </trkpt>
      <trkpt lat="48.51326" lon="-3.46288">
        <ele>160</ele>
        <time>2021-07-22T07:49:25.275Z</time>
      </trkpt>
      <trkpt lat="48.51323" lon="-3.46296">
        <ele>161</ele>
        <time>2021-07-22T07:49:30.265Z</time>
      </trkpt>
      <trkpt lat="48.5132" lon="-3.46304">
        <ele>161</ele>
        <time>2021-07-22T07:49:35.278Z</time>
      </trkpt>
      <trkpt lat="48.51317" lon="-3.46312">
        <ele>164</ele>
        <time>2021-07-22T07:49:40.266Z</time>
      </trkpt>
      <trkpt lat="48.51316" lon="-3.4632">
        <ele>164</ele>
        <time>2021-07-22T07:49:44.278Z</time>
      </trkpt>
      <trkpt lat="48.51314" lon="-3.46328">
        <ele>164</ele>
        <time>2021-07-22T07:49:49.270Z</time>
      </trkpt>
      <trkpt lat="48.51314" lon="-3.46338">
        <ele>164</ele>
        <time>2021-07-22T07:49:54.284Z</time>
      </trkpt>
      <trkpt lat="48.51314" lon="-3.46346">
        <ele>164</ele>
        <time>2021-07-22T07:49:59.275Z</time>
      </trkpt>
      <trkpt lat="48.51314" lon="-3.46356">
        <ele>164</ele>
        <time>2021-07-22T07:50:04.275Z</time>
      </trkpt>
      <trkpt lat="48.51313" lon="-3.46365">
        <ele>164</ele>
        <time>2021-07-22T07:50:09.264Z</time>
      </trkpt>
      <trkpt lat="48.51313" lon="-3.46375">
        <ele>164</ele>
        <time>2021-07-22T07:50:14.262Z</time>
      </trkpt>
      <trkpt lat="48.51314" lon="-3.46384">
        <ele>164</ele>
        <time>2021-07-22T07:50:19.277Z</time>
      </trkpt>
      <trkpt lat="48.51313" lon="-3.46391">
        <ele>164</ele>
        <time>2021-07-22T07:50:24.278Z</time>
      </trkpt>
      <trkpt lat="48.51314" lon="-3.46401">
        <ele>164</ele>
        <time>2021-07-22T07:50:29.272Z</time>
      </trkpt>
      <trkpt lat="48.51314" lon="-3.46408">
        <ele>165</ele>
        <time>2021-07-22T07:50:33.277Z</time>
      </trkpt>
      <trkpt lat="48.51314" lon="-3.46415">
        <ele>165</ele>
        <time>2021-07-22T07:50:38.270Z</time>
      </trkpt>
      <trkpt lat="48.51314" lon="-3.46422">
        <ele>165</ele>
        <time>2021-07-22T07:50:42.271Z</time>
      </trkpt>
      <trkpt lat="48.51314" lon="-3.4643">
        <ele>165</ele>
        <time>2021-07-22T07:50:47.258Z</time>
      </trkpt>
      <trkpt lat="48.51312" lon="-3.46438">
        <ele>165</ele>
        <time>2021-07-22T07:50:52.263Z</time>
      </trkpt>
      <trkpt lat="48.5131" lon="-3.46445">
        <ele>165</ele>
        <time>2021-07-22T07:50:57.273Z</time>
      </trkpt>
      <trkpt lat="48.51309" lon="-3.46454">
        <ele>165</ele>
        <time>2021-07-22T07:51:02.272Z</time>
      </trkpt>
      <trkpt lat="48.51309" lon="-3.46459">
        <ele>165</ele>
        <time>2021-07-22T07:51:06.274Z</time>
      </trkpt>
      <trkpt lat="48.51309" lon="-3.46467">
        <ele>165</ele>
        <time>2021-07-22T07:51:11.277Z</time>
      </trkpt>
      <trkpt lat="48.51309" lon="-3.46474">
        <ele>165</ele>
        <time>2021-07-22T07:51:16.259Z</time>
      </trkpt>
      <trkpt lat="48.51308" lon="-3.4648">
        <ele>165</ele>
        <time>2021-07-22T07:51:20.254Z</time>
      </trkpt>
      <trkpt lat="48.51308" lon="-3.46487">
        <ele>166</ele>
        <time>2021-07-22T07:51:25.275Z</time>
      </trkpt>
      <trkpt lat="48.51307" lon="-3.46494">
        <ele>166</ele>
        <time>2021-07-22T07:51:30.255Z</time>
      </trkpt>
      <trkpt lat="48.51306" lon="-3.46502">
        <ele>166</ele>
        <time>2021-07-22T07:51:35.260Z</time>
      </trkpt>
      <trkpt lat="48.51306" lon="-3.46506">
        <ele>166</ele>
        <time>2021-07-22T07:51:40.274Z</time>
      </trkpt>
      <trkpt lat="48.51304" lon="-3.46512">
        <ele>166</ele>
        <time>2021-07-22T07:51:45.266Z</time>
      </trkpt>
      <trkpt lat="48.51303" lon="-3.46518">
        <ele>167</ele>
        <time>2021-07-22T07:51:50.271Z</time>
      </trkpt>
      <trkpt lat="48.51301" lon="-3.46527">
        <ele>167</ele>
        <time>2021-07-22T07:51:55.284Z</time>
      </trkpt>
      <trkpt lat="48.513" lon="-3.46533">
        <ele>167</ele>
        <time>2021-07-22T07:52:00.269Z</time>
      </trkpt>
      <trkpt lat="48.51299" lon="-3.46541">
        <ele>167</ele>
        <time>2021-07-22T07:52:05.262Z</time>
      </trkpt>
      <trkpt lat="48.51297" lon="-3.46549">
        <ele>169</ele>
        <time>2021-07-22T07:52:10.264Z</time>
      </trkpt>
      <trkpt lat="48.51295" lon="-3.46555">
        <ele>169</ele>
        <time>2021-07-22T07:52:15.284Z</time>
      </trkpt>
      <trkpt lat="48.51294" lon="-3.46562">
        <ele>169</ele>
        <time>2021-07-22T07:52:20.280Z</time>
      </trkpt>
      <trkpt lat="48.51292" lon="-3.46568">
        <ele>169</ele>
        <time>2021-07-22T07:52:25.249Z</time>
      </trkpt>
      <trkpt lat="48.51289" lon="-3.46575">
        <ele>171</ele>
        <time>2021-07-22T07:52:30.254Z</time>
      </trkpt>
      <trkpt lat="48.51288" lon="-3.4658">
        <ele>171</ele>
        <time>2021-07-22T07:52:34.274Z</time>
      </trkpt>
      <trkpt lat="48.51285" lon="-3.46588">
        <ele>171</ele>
        <time>2021-07-22T07:52:39.259Z</time>
      </trkpt>
      <trkpt lat="48.51284" lon="-3.46595">
        <ele>171</ele>
        <time>2021-07-22T07:52:44.270Z</time>
      </trkpt>
      <trkpt lat="48.51282" lon="-3.466">
        <ele>172</ele>
        <time>2021-07-22T07:52:48.286Z</time>
      </trkpt>
      <trkpt lat="48.51282" lon="-3.46607">
        <ele>172</ele>
        <time>2021-07-22T07:52:53.260Z</time>
      </trkpt>
      <trkpt lat="48.5128" lon="-3.46614">
        <ele>172</ele>
        <time>2021-07-22T07:52:58.259Z</time>
      </trkpt>
      <trkpt lat="48.51278" lon="-3.46618">
        <ele>172</ele>
        <time>2021-07-22T07:53:02.271Z</time>
      </trkpt>
      <trkpt lat="48.51275" lon="-3.46624">
        <ele>172</ele>
        <time>2021-07-22T07:53:06.273Z</time>
      </trkpt>
      <trkpt lat="48.51268" lon="-3.46632">
        <ele>173</ele>
        <time>2021-07-22T07:54:03.283Z</time>
      </trkpt>
      <trkpt lat="48.51267" lon="-3.46633">
        <ele>173</ele>
        <time>2021-07-22T07:54:07.296Z</time>
      </trkpt>
      <trkpt lat="48.51264" lon="-3.46636">
        <ele>173</ele>
        <time>2021-07-22T07:54:12.266Z</time>
      </trkpt>
      <trkpt lat="48.51264" lon="-3.46639">
        <ele>174</ele>
        <time>2021-07-22T07:54:16.279Z</time>
      </trkpt>
      <trkpt lat="48.51264" lon="-3.4664">
        <ele>174</ele>
        <time>2021-07-22T07:54:21.275Z</time>
      </trkpt>
      <trkpt lat="48.51266" lon="-3.46643">
        <ele>173</ele>
        <time>2021-07-22T07:55:19.285Z</time>
      </trkpt>
      <trkpt lat="48.51264" lon="-3.46648">
        <ele>173</ele>
        <time>2021-07-22T07:55:24.271Z</time>
      </trkpt>
      <trkpt lat="48.51264" lon="-3.46649">
        <ele>174</ele>
        <time>2021-07-22T07:55:29.266Z</time>
      </trkpt>
      <trkpt lat="48.51262" lon="-3.46651">
        <ele>174</ele>
        <time>2021-07-22T07:55:34.283Z</time>
      </trkpt>
      <trkpt lat="48.5126" lon="-3.46655">
        <ele>175</ele>
        <time>2021-07-22T07:55:39.254Z</time>
      </trkpt>
      <trkpt lat="48.51258" lon="-3.46659">
        <ele>175</ele>
        <time>2021-07-22T07:55:44.268Z</time>
      </trkpt>
      <trkpt lat="48.51257" lon="-3.46663">
        <ele>175</ele>
        <time>2021-07-22T07:55:49.276Z</time>
      </trkpt>
      <trkpt lat="48.51255" lon="-3.46667">
        <ele>175</ele>
        <time>2021-07-22T07:55:54.275Z</time>
      </trkpt>
      <trkpt lat="48.51253" lon="-3.46672">
        <ele>175</ele>
        <time>2021-07-22T07:55:59.258Z</time>
      </trkpt>
      <trkpt lat="48.51251" lon="-3.46676">
        <ele>175</ele>
        <time>2021-07-22T07:56:04.263Z</time>
      </trkpt>
      <trkpt lat="48.5125" lon="-3.46681">
        <ele>176</ele>
        <time>2021-07-22T07:56:09.266Z</time>
      </trkpt>
      <trkpt lat="48.51248" lon="-3.46684">
        <ele>176</ele>
        <time>2021-07-22T07:56:13.267Z</time>
      </trkpt>
      <trkpt lat="48.51246" lon="-3.46688">
        <ele>176</ele>
        <time>2021-07-22T07:56:18.266Z</time>
      </trkpt>
      <trkpt lat="48.51244" lon="-3.46692">
        <ele>176</ele>
        <time>2021-07-22T07:56:22.273Z</time>
      </trkpt>
      <trkpt lat="48.51242" lon="-3.46695">
        <ele>176</ele>
        <time>2021-07-22T07:56:27.258Z</time>
      </trkpt>
      <trkpt lat="48.5124" lon="-3.46699">
        <ele>176</ele>
        <time>2021-07-22T07:56:31.260Z</time>
      </trkpt>
      <trkpt lat="48.51237" lon="-3.46703">
        <ele>176</ele>
        <time>2021-07-22T07:56:35.274Z</time>
      </trkpt>
      <trkpt lat="48.51232" lon="-3.46708">
        <ele>179</ele>
        <time>2021-07-22T07:56:40.285Z</time>
      </trkpt>
      <trkpt lat="48.51228" lon="-3.46711">
        <ele>181</ele>
        <time>2021-07-22T07:56:45.282Z</time>
      </trkpt>
      <trkpt lat="48.51222" lon="-3.46715">
        <ele>181</ele>
        <time>2021-07-22T07:56:50.286Z</time>
      </trkpt>
      <trkpt lat="48.51217" lon="-3.46716">
        <ele>181</ele>
        <time>2021-07-22T07:56:55.260Z</time>
      </trkpt>
      <trkpt lat="48.51215" lon="-3.46719">
        <ele>181</ele>
        <time>2021-07-22T07:57:14.264Z</time>
      </trkpt>
      <trkpt lat="48.51216" lon="-3.46722">
        <ele>181</ele>
        <time>2021-07-22T07:57:23.265Z</time>
      </trkpt>
      <trkpt lat="48.51216" lon="-3.46727">
        <ele>181</ele>
        <time>2021-07-22T07:57:28.276Z</time>
      </trkpt>
      <trkpt lat="48.51212" lon="-3.46733">
        <ele>181</ele>
        <time>2021-07-22T07:57:33.278Z</time>
      </trkpt>
      <trkpt lat="48.51211" lon="-3.46736">
        <ele>181</ele>
        <time>2021-07-22T07:57:38.270Z</time>
      </trkpt>
      <trkpt lat="48.51218" lon="-3.46729">
        <ele>181</ele>
        <time>2021-07-22T07:57:52.261Z</time>
      </trkpt>
      <trkpt lat="48.51219" lon="-3.46736">
        <ele>183</ele>
        <time>2021-07-22T07:57:57.267Z</time>
      </trkpt>
      <trkpt lat="48.51219" lon="-3.4674">
        <ele>183</ele>
        <time>2021-07-22T07:58:02.256Z</time>
      </trkpt>
      <trkpt lat="48.51216" lon="-3.46745">
        <ele>183</ele>
        <time>2021-07-22T07:58:07.262Z</time>
      </trkpt>
      <trkpt lat="48.51212" lon="-3.46748">
        <ele>183</ele>
        <time>2021-07-22T07:58:12.251Z</time>
      </trkpt>
      <trkpt lat="48.51212" lon="-3.46755">
        <ele>183</ele>
        <time>2021-07-22T07:58:16.286Z</time>
      </trkpt>
      <trkpt lat="48.51211" lon="-3.4676">
        <ele>183</ele>
        <time>2021-07-22T07:58:21.277Z</time>
      </trkpt>
      <trkpt lat="48.5121" lon="-3.46768">
        <ele>183</ele>
        <time>2021-07-22T07:58:26.266Z</time>
      </trkpt>
      <trkpt lat="48.51208" lon="-3.46773">
        <ele>185</ele>
        <time>2021-07-22T07:58:31.248Z</time>
      </trkpt>
      <trkpt lat="48.51207" lon="-3.4678">
        <ele>185</ele>
        <time>2021-07-22T07:58:36.254Z</time>
      </trkpt>
      <trkpt lat="48.51207" lon="-3.46787">
        <ele>185</ele>
        <time>2021-07-22T07:58:41.277Z</time>
      </trkpt>
      <trkpt lat="48.51206" lon="-3.46794">
        <ele>186</ele>
        <time>2021-07-22T07:58:46.266Z</time>
      </trkpt>
      <trkpt lat="48.51202" lon="-3.46802">
        <ele>186</ele>
        <time>2021-07-22T07:58:51.267Z</time>
      </trkpt>
      <trkpt lat="48.512" lon="-3.46811">
        <ele>186</ele>
        <time>2021-07-22T07:58:56.268Z</time>
      </trkpt>
      <trkpt lat="48.512" lon="-3.46822">
        <ele>188</ele>
        <time>2021-07-22T07:59:01.281Z</time>
      </trkpt>
      <trkpt lat="48.512" lon="-3.46828">
        <ele>188</ele>
        <time>2021-07-22T07:59:06.269Z</time>
      </trkpt>
      <trkpt lat="48.51196" lon="-3.46836">
        <ele>188</ele>
        <time>2021-07-22T07:59:11.264Z</time>
      </trkpt>
      <trkpt lat="48.51198" lon="-3.46844">
        <ele>188</ele>
        <time>2021-07-22T07:59:16.279Z</time>
      </trkpt>
      <trkpt lat="48.51199" lon="-3.46847">
        <ele>188</ele>
        <time>2021-07-22T07:59:21.260Z</time>
      </trkpt>
      <trkpt lat="48.512" lon="-3.46858">
        <ele>190</ele>
        <time>2021-07-22T07:59:26.251Z</time>
      </trkpt>
      <trkpt lat="48.51198" lon="-3.46864">
        <ele>190</ele>
        <time>2021-07-22T07:59:30.276Z</time>
      </trkpt>
      <trkpt lat="48.51198" lon="-3.46874">
        <ele>190</ele>
        <time>2021-07-22T07:59:35.279Z</time>
      </trkpt>
      <trkpt lat="48.51197" lon="-3.46883">
        <ele>191</ele>
        <time>2021-07-22T07:59:40.273Z</time>
      </trkpt>
      <trkpt lat="48.51197" lon="-3.46887">
        <ele>191</ele>
        <time>2021-07-22T07:59:44.273Z</time>
      </trkpt>
      <trkpt lat="48.51199" lon="-3.46894">
        <ele>191</ele>
        <time>2021-07-22T07:59:49.251Z</time>
      </trkpt>
      <trkpt lat="48.51197" lon="-3.46897">
        <ele>191</ele>
        <time>2021-07-22T07:59:53.276Z</time>
      </trkpt>
      <trkpt lat="48.51201" lon="-3.46904">
        <ele>189</ele>
        <time>2021-07-22T07:59:58.270Z</time>
      </trkpt>
      <trkpt lat="48.51201" lon="-3.46908">
        <ele>189</ele>
        <time>2021-07-22T08:00:03.270Z</time>
      </trkpt>
      <trkpt lat="48.512" lon="-3.46913">
        <ele>189</ele>
        <time>2021-07-22T08:00:08.262Z</time>
      </trkpt>
      <trkpt lat="48.51201" lon="-3.4692">
        <ele>189</ele>
        <time>2021-07-22T08:00:13.279Z</time>
      </trkpt>
      <trkpt lat="48.512" lon="-3.46924">
        <ele>189</ele>
        <time>2021-07-22T08:00:18.281Z</time>
      </trkpt>
      <trkpt lat="48.512" lon="-3.46928">
        <ele>189</ele>
        <time>2021-07-22T08:00:23.267Z</time>
      </trkpt>
      <trkpt lat="48.51201" lon="-3.46936">
        <ele>188</ele>
        <time>2021-07-22T08:00:28.266Z</time>
      </trkpt>
      <trkpt lat="48.51199" lon="-3.46938">
        <ele>188</ele>
        <time>2021-07-22T08:00:33.274Z</time>
      </trkpt>
      <trkpt lat="48.512" lon="-3.46946">
        <ele>188</ele>
        <time>2021-07-22T08:00:38.275Z</time>
      </trkpt>
      <trkpt lat="48.51202" lon="-3.46953">
        <ele>188</ele>
        <time>2021-07-22T08:00:42.267Z</time>
      </trkpt>
      <trkpt lat="48.51205" lon="-3.46963">
        <ele>186</ele>
        <time>2021-07-22T08:00:47.267Z</time>
      </trkpt>
      <trkpt lat="48.51207" lon="-3.46973">
        <ele>186</ele>
        <time>2021-07-22T08:00:52.292Z</time>
      </trkpt>
      <trkpt lat="48.51208" lon="-3.46982">
        <ele>186</ele>
        <time>2021-07-22T08:00:57.269Z</time>
      </trkpt>
      <trkpt lat="48.51209" lon="-3.4699">
        <ele>179</ele>
        <time>2021-07-22T08:01:02.263Z</time>
      </trkpt>
      <trkpt lat="48.51208" lon="-3.46997">
        <ele>186</ele>
        <time>2021-07-22T08:01:07.250Z</time>
      </trkpt>
      <trkpt lat="48.51208" lon="-3.47007">
        <ele>186</ele>
        <time>2021-07-22T08:01:12.257Z</time>
      </trkpt>
      <trkpt lat="48.51205" lon="-3.47016">
        <ele>187</ele>
        <time>2021-07-22T08:01:17.270Z</time>
      </trkpt>
      <trkpt lat="48.51208" lon="-3.47027">
        <ele>187</ele>
        <time>2021-07-22T08:01:22.271Z</time>
      </trkpt>
      <trkpt lat="48.51209" lon="-3.47037">
        <ele>179</ele>
        <time>2021-07-22T08:01:27.278Z</time>
      </trkpt>
      <trkpt lat="48.51208" lon="-3.47046">
        <ele>189</ele>
        <time>2021-07-22T08:01:32.264Z</time>
      </trkpt>
      <trkpt lat="48.51204" lon="-3.47055">
        <ele>189</ele>
        <time>2021-07-22T08:01:37.263Z</time>
      </trkpt>
      <trkpt lat="48.51204" lon="-3.47063">
        <ele>189</ele>
        <time>2021-07-22T08:01:42.277Z</time>
      </trkpt>
      <trkpt lat="48.51206" lon="-3.47073">
        <ele>190</ele>
        <time>2021-07-22T08:01:47.272Z</time>
      </trkpt>
      <trkpt lat="48.51205" lon="-3.47082">
        <ele>190</ele>
        <time>2021-07-22T08:01:51.270Z</time>
      </trkpt>
      <trkpt lat="48.51202" lon="-3.4709">
        <ele>190</ele>
        <time>2021-07-22T08:01:56.282Z</time>
      </trkpt>
      <trkpt lat="48.51203" lon="-3.47099">
        <ele>190</ele>
        <time>2021-07-22T08:02:01.274Z</time>
      </trkpt>
      <trkpt lat="48.51203" lon="-3.47106">
        <ele>190</ele>
        <time>2021-07-22T08:02:06.273Z</time>
      </trkpt>
      <trkpt lat="48.51202" lon="-3.47115">
        <ele>190</ele>
        <time>2021-07-22T08:02:10.272Z</time>
      </trkpt>
      <trkpt lat="48.512" lon="-3.47121">
        <ele>190</ele>
        <time>2021-07-22T08:02:15.275Z</time>
      </trkpt>
      <trkpt lat="48.51196" lon="-3.47126">
        <ele>191</ele>
        <time>2021-07-22T08:02:20.265Z</time>
      </trkpt>
      <trkpt lat="48.51195" lon="-3.47135">
        <ele>191</ele>
        <time>2021-07-22T08:02:25.256Z</time>
      </trkpt>
      <trkpt lat="48.51192" lon="-3.47143">
        <ele>191</ele>
        <time>2021-07-22T08:02:30.267Z</time>
      </trkpt>
      <trkpt lat="48.5119" lon="-3.47153">
        <ele>192</ele>
        <time>2021-07-22T08:02:35.273Z</time>
      </trkpt>
      <trkpt lat="48.5119" lon="-3.47158">
        <ele>192</ele>
        <time>2021-07-22T08:02:40.279Z</time>
      </trkpt>
      <trkpt lat="48.51191" lon="-3.47161">
        <ele>192</ele>
        <time>2021-07-22T08:02:45.274Z</time>
      </trkpt>
      <trkpt lat="48.51191" lon="-3.47169">
        <ele>192</ele>
        <time>2021-07-22T08:02:50.277Z</time>
      </trkpt>
      <trkpt lat="48.51191" lon="-3.47177">
        <ele>192</ele>
        <time>2021-07-22T08:02:55.266Z</time>
      </trkpt>
      <trkpt lat="48.51191" lon="-3.47187">
        <ele>193</ele>
        <time>2021-07-22T08:03:00.282Z</time>
      </trkpt>
      <trkpt lat="48.5119" lon="-3.47194">
        <ele>193</ele>
        <time>2021-07-22T08:03:05.266Z</time>
      </trkpt>
      <trkpt lat="48.51189" lon="-3.47198">
        <ele>193</ele>
        <time>2021-07-22T08:03:10.275Z</time>
      </trkpt>
      <trkpt lat="48.51188" lon="-3.47202">
        <ele>193</ele>
        <time>2021-07-22T08:03:15.275Z</time>
      </trkpt>
      <trkpt lat="48.51186" lon="-3.47214">
        <ele>193</ele>
        <time>2021-07-22T08:03:20.278Z</time>
      </trkpt>
      <trkpt lat="48.51186" lon="-3.47223">
        <ele>193</ele>
        <time>2021-07-22T08:03:25.268Z</time>
      </trkpt>
      <trkpt lat="48.51187" lon="-3.47233">
        <ele>193</ele>
        <time>2021-07-22T08:03:30.269Z</time>
      </trkpt>
      <trkpt lat="48.51186" lon="-3.47241">
        <ele>192</ele>
        <time>2021-07-22T08:03:35.289Z</time>
      </trkpt>
      <trkpt lat="48.51186" lon="-3.47249">
        <ele>192</ele>
        <time>2021-07-22T08:03:40.273Z</time>
      </trkpt>
      <trkpt lat="48.51186" lon="-3.47259">
        <ele>192</ele>
        <time>2021-07-22T08:03:45.269Z</time>
      </trkpt>
      <trkpt lat="48.51186" lon="-3.47267">
        <ele>192</ele>
        <time>2021-07-22T08:03:50.274Z</time>
      </trkpt>
      <trkpt lat="48.51185" lon="-3.47276">
        <ele>192</ele>
        <time>2021-07-22T08:03:54.269Z</time>
      </trkpt>
      <trkpt lat="48.51185" lon="-3.47284">
        <ele>192</ele>
        <time>2021-07-22T08:03:59.257Z</time>
      </trkpt>
      <trkpt lat="48.51184" lon="-3.47292">
        <ele>192</ele>
        <time>2021-07-22T08:04:04.266Z</time>
      </trkpt>
      <trkpt lat="48.51184" lon="-3.47299">
        <ele>192</ele>
        <time>2021-07-22T08:04:09.256Z</time>
      </trkpt>
      <trkpt lat="48.51184" lon="-3.47305">
        <ele>192</ele>
        <time>2021-07-22T08:04:13.275Z</time>
      </trkpt>
      <trkpt lat="48.51187" lon="-3.47315">
        <ele>192</ele>
        <time>2021-07-22T08:04:18.281Z</time>
      </trkpt>
      <trkpt lat="48.51189" lon="-3.47324">
        <ele>190</ele>
        <time>2021-07-22T08:04:23.265Z</time>
      </trkpt>
      <trkpt lat="48.51191" lon="-3.4733">
        <ele>190</ele>
        <time>2021-07-22T08:04:27.263Z</time>
      </trkpt>
      <trkpt lat="48.51192" lon="-3.4734">
        <ele>190</ele>
        <time>2021-07-22T08:04:32.265Z</time>
      </trkpt>
      <trkpt lat="48.5119" lon="-3.47352">
        <ele>190</ele>
        <time>2021-07-22T08:04:37.265Z</time>
      </trkpt>
      <trkpt lat="48.51193" lon="-3.47361">
        <ele>190</ele>
        <time>2021-07-22T08:04:42.270Z</time>
      </trkpt>
      <trkpt lat="48.51195" lon="-3.4737">
        <ele>190</ele>
        <time>2021-07-22T08:04:47.271Z</time>
      </trkpt>
      <trkpt lat="48.51196" lon="-3.47378">
        <ele>189</ele>
        <time>2021-07-22T08:04:52.281Z</time>
      </trkpt>
      <trkpt lat="48.51195" lon="-3.47388">
        <ele>189</ele>
        <time>2021-07-22T08:04:57.277Z</time>
      </trkpt>
      <trkpt lat="48.51195" lon="-3.47398">
        <ele>189</ele>
        <time>2021-07-22T08:05:02.260Z</time>
      </trkpt>
      <trkpt lat="48.51193" lon="-3.47407">
        <ele>189</ele>
        <time>2021-07-22T08:05:07.261Z</time>
      </trkpt>
      <trkpt lat="48.51193" lon="-3.47416">
        <ele>189</ele>
        <time>2021-07-22T08:05:12.262Z</time>
      </trkpt>
      <trkpt lat="48.51192" lon="-3.47426">
        <ele>189</ele>
        <time>2021-07-22T08:05:17.261Z</time>
      </trkpt>
      <trkpt lat="48.51191" lon="-3.47435">
        <ele>187</ele>
        <time>2021-07-22T08:05:22.249Z</time>
      </trkpt>
      <trkpt lat="48.5119" lon="-3.47445">
        <ele>187</ele>
        <time>2021-07-22T08:05:27.267Z</time>
      </trkpt>
      <trkpt lat="48.5119" lon="-3.47456">
        <ele>187</ele>
        <time>2021-07-22T08:05:32.267Z</time>
      </trkpt>
      <trkpt lat="48.51192" lon="-3.47463">
        <ele>186</ele>
        <time>2021-07-22T08:05:37.274Z</time>
      </trkpt>
      <trkpt lat="48.51195" lon="-3.47471">
        <ele>186</ele>
        <time>2021-07-22T08:05:42.265Z</time>
      </trkpt>
      <trkpt lat="48.51197" lon="-3.4748">
        <ele>186</ele>
        <time>2021-07-22T08:05:47.251Z</time>
      </trkpt>
      <trkpt lat="48.51199" lon="-3.47487">
        <ele>183</ele>
        <time>2021-07-22T08:05:51.265Z</time>
      </trkpt>
      <trkpt lat="48.512" lon="-3.47496">
        <ele>183</ele>
        <time>2021-07-22T08:05:56.281Z</time>
      </trkpt>
      <trkpt lat="48.512" lon="-3.47505">
        <ele>183</ele>
        <time>2021-07-22T08:06:01.256Z</time>
      </trkpt>
      <trkpt lat="48.512" lon="-3.47513">
        <ele>183</ele>
        <time>2021-07-22T08:06:05.272Z</time>
      </trkpt>
      <trkpt lat="48.51202" lon="-3.47525">
        <ele>180</ele>
        <time>2021-07-22T08:06:10.277Z</time>
      </trkpt>
      <trkpt lat="48.51202" lon="-3.47534">
        <ele>180</ele>
        <time>2021-07-22T08:06:15.266Z</time>
      </trkpt>
      <trkpt lat="48.51202" lon="-3.47539">
        <ele>180</ele>
        <time>2021-07-22T08:06:20.278Z</time>
      </trkpt>
      <trkpt lat="48.51202" lon="-3.47546">
        <ele>177</ele>
        <time>2021-07-22T08:06:25.259Z</time>
      </trkpt>
      <trkpt lat="48.51203" lon="-3.47556">
        <ele>177</ele>
        <time>2021-07-22T08:06:30.271Z</time>
      </trkpt>
      <trkpt lat="48.51202" lon="-3.47564">
        <ele>177</ele>
        <time>2021-07-22T08:06:35.272Z</time>
      </trkpt>
      <trkpt lat="48.51205" lon="-3.47572">
        <ele>177</ele>
        <time>2021-07-22T08:06:40.276Z</time>
      </trkpt>
      <trkpt lat="48.51208" lon="-3.47583">
        <ele>177</ele>
        <time>2021-07-22T08:06:45.284Z</time>
      </trkpt>
      <trkpt lat="48.5121" lon="-3.47592">
        <ele>176</ele>
        <time>2021-07-22T08:06:50.277Z</time>
      </trkpt>
      <trkpt lat="48.51209" lon="-3.47601">
        <ele>176</ele>
        <time>2021-07-22T08:06:55.282Z</time>
      </trkpt>
      <trkpt lat="48.5121" lon="-3.4761">
        <ele>176</ele>
        <time>2021-07-22T08:07:00.279Z</time>
      </trkpt>
      <trkpt lat="48.51212" lon="-3.47617">
        <ele>176</ele>
        <time>2021-07-22T08:07:05.267Z</time>
      </trkpt>
      <trkpt lat="48.51211" lon="-3.47625">
        <ele>177</ele>
        <time>2021-07-22T08:07:10.280Z</time>
      </trkpt>
      <trkpt lat="48.51213" lon="-3.47635">
        <ele>177</ele>
        <time>2021-07-22T08:07:15.254Z</time>
      </trkpt>
      <trkpt lat="48.51216" lon="-3.47644">
        <ele>177</ele>
        <time>2021-07-22T08:07:20.263Z</time>
      </trkpt>
      <trkpt lat="48.51216" lon="-3.47652">
        <ele>177</ele>
        <time>2021-07-22T08:07:24.274Z</time>
      </trkpt>
      <trkpt lat="48.51221" lon="-3.4766">
        <ele>178</ele>
        <time>2021-07-22T08:07:29.248Z</time>
      </trkpt>
      <trkpt lat="48.51225" lon="-3.47666">
        <ele>178</ele>
        <time>2021-07-22T08:07:33.277Z</time>
      </trkpt>
      <trkpt lat="48.51228" lon="-3.47676">
        <ele>178</ele>
        <time>2021-07-22T08:07:38.256Z</time>
      </trkpt>
      <trkpt lat="48.5123" lon="-3.47685">
        <ele>179</ele>
        <time>2021-07-22T08:07:42.262Z</time>
      </trkpt>
      <trkpt lat="48.51233" lon="-3.47692">
        <ele>179</ele>
        <time>2021-07-22T08:07:47.259Z</time>
      </trkpt>
      <trkpt lat="48.51236" lon="-3.47698">
        <ele>176</ele>
        <time>2021-07-22T08:07:52.275Z</time>
      </trkpt>
      <trkpt lat="48.51241" lon="-3.47704">
        <ele>176</ele>
        <time>2021-07-22T08:07:57.273Z</time>
      </trkpt>
      <trkpt lat="48.51246" lon="-3.47709">
        <ele>176</ele>
        <time>2021-07-22T08:08:02.274Z</time>
      </trkpt>
      <trkpt lat="48.51248" lon="-3.47712">
        <ele>176</ele>
        <time>2021-07-22T08:08:07.275Z</time>
      </trkpt>
      <trkpt lat="48.51252" lon="-3.4772">
        <ele>176</ele>
        <time>2021-07-22T08:08:12.277Z</time>
      </trkpt>
      <trkpt lat="48.51257" lon="-3.47727">
        <ele>176</ele>
        <time>2021-07-22T08:08:17.270Z</time>
      </trkpt>
      <trkpt lat="48.51262" lon="-3.47732">
        <ele>176</ele>
        <time>2021-07-22T08:08:22.269Z</time>
      </trkpt>
      <trkpt lat="48.51269" lon="-3.47736">
        <ele>174</ele>
        <time>2021-07-22T08:08:27.267Z</time>
      </trkpt>
      <trkpt lat="48.51274" lon="-3.4774">
        <ele>174</ele>
        <time>2021-07-22T08:08:32.262Z</time>
      </trkpt>
      <trkpt lat="48.51278" lon="-3.47747">
        <ele>174</ele>
        <time>2021-07-22T08:08:37.274Z</time>
      </trkpt>
      <trkpt lat="48.51282" lon="-3.47755">
        <ele>174</ele>
        <time>2021-07-22T08:08:42.275Z</time>
      </trkpt>
      <trkpt lat="48.51287" lon="-3.47765">
        <ele>175</ele>
        <time>2021-07-22T08:08:47.271Z</time>
      </trkpt>
      <trkpt lat="48.51289" lon="-3.47775">
        <ele>175</ele>
        <time>2021-07-22T08:08:52.274Z</time>
      </trkpt>
      <trkpt lat="48.5129" lon="-3.47786">
        <ele>175</ele>
        <time>2021-07-22T08:08:57.273Z</time>
      </trkpt>
      <trkpt lat="48.51291" lon="-3.47792">
        <ele>177</ele>
        <time>2021-07-22T08:09:02.281Z</time>
      </trkpt>
      <trkpt lat="48.51295" lon="-3.47797">
        <ele>173</ele>
        <time>2021-07-22T08:09:07.268Z</time>
      </trkpt>
      <trkpt lat="48.51295" lon="-3.47805">
        <ele>173</ele>
        <time>2021-07-22T08:09:12.273Z</time>
      </trkpt>
      <trkpt lat="48.51296" lon="-3.47815">
        <ele>173</ele>
        <time>2021-07-22T08:09:17.261Z</time>
      </trkpt>
      <trkpt lat="48.51297" lon="-3.47824">
        <ele>176</ele>
        <time>2021-07-22T08:09:22.267Z</time>
      </trkpt>
      <trkpt lat="48.51299" lon="-3.47832">
        <ele>176</ele>
        <time>2021-07-22T08:09:27.274Z</time>
      </trkpt>
      <trkpt lat="48.513" lon="-3.47841">
        <ele>176</ele>
        <time>2021-07-22T08:09:32.286Z</time>
      </trkpt>
      <trkpt lat="48.513" lon="-3.4785">
        <ele>178</ele>
        <time>2021-07-22T08:09:37.250Z</time>
      </trkpt>
      <trkpt lat="48.51301" lon="-3.47857">
        <ele>178</ele>
        <time>2021-07-22T08:09:41.281Z</time>
      </trkpt>
      <trkpt lat="48.51302" lon="-3.47867">
        <ele>178</ele>
        <time>2021-07-22T08:09:46.265Z</time>
      </trkpt>
      <trkpt lat="48.51303" lon="-3.47875">
        <ele>178</ele>
        <time>2021-07-22T08:09:50.275Z</time>
      </trkpt>
      <trkpt lat="48.51304" lon="-3.47884">
        <ele>180</ele>
        <time>2021-07-22T08:09:55.273Z</time>
      </trkpt>
      <trkpt lat="48.51307" lon="-3.47893">
        <ele>180</ele>
        <time>2021-07-22T08:10:00.267Z</time>
      </trkpt>
      <trkpt lat="48.51309" lon="-3.47903">
        <ele>180</ele>
        <time>2021-07-22T08:10:05.263Z</time>
      </trkpt>
      <trkpt lat="48.51312" lon="-3.4791">
        <ele>181</ele>
        <time>2021-07-22T08:10:10.278Z</time>
      </trkpt>
      <trkpt lat="48.51316" lon="-3.47917">
        <ele>181</ele>
        <time>2021-07-22T08:10:15.283Z</time>
      </trkpt>
      <trkpt lat="48.5132" lon="-3.47923">
        <ele>179</ele>
        <time>2021-07-22T08:10:20.275Z</time>
      </trkpt>
      <trkpt lat="48.51323" lon="-3.47929">
        <ele>179</ele>
        <time>2021-07-22T08:10:25.266Z</time>
      </trkpt>
      <trkpt lat="48.51328" lon="-3.47936">
        <ele>180</ele>
        <time>2021-07-22T08:10:30.248Z</time>
      </trkpt>
      <trkpt lat="48.51331" lon="-3.47943">
        <ele>180</ele>
        <time>2021-07-22T08:10:34.280Z</time>
      </trkpt>
      <trkpt lat="48.51336" lon="-3.47949">
        <ele>180</ele>
        <time>2021-07-22T08:10:39.277Z</time>
      </trkpt>
      <trkpt lat="48.51341" lon="-3.47955">
        <ele>180</ele>
        <time>2021-07-22T08:10:44.273Z</time>
      </trkpt>
      <trkpt lat="48.51345" lon="-3.47961">
        <ele>181</ele>
        <time>2021-07-22T08:10:49.254Z</time>
      </trkpt>
      <trkpt lat="48.51349" lon="-3.47966">
        <ele>182</ele>
        <time>2021-07-22T08:10:54.282Z</time>
      </trkpt>
      <trkpt lat="48.51355" lon="-3.47972">
        <ele>182</ele>
        <time>2021-07-22T08:10:59.275Z</time>
      </trkpt>
      <trkpt lat="48.51359" lon="-3.47978">
        <ele>182</ele>
        <time>2021-07-22T08:11:04.280Z</time>
      </trkpt>
      <trkpt lat="48.51365" lon="-3.47982">
        <ele>182</ele>
        <time>2021-07-22T08:11:09.278Z</time>
      </trkpt>
      <trkpt lat="48.51369" lon="-3.47986">
        <ele>184</ele>
        <time>2021-07-22T08:11:14.281Z</time>
      </trkpt>
      <trkpt lat="48.51374" lon="-3.4799">
        <ele>184</ele>
        <time>2021-07-22T08:11:19.278Z</time>
      </trkpt>
      <trkpt lat="48.51379" lon="-3.47995">
        <ele>187</ele>
        <time>2021-07-22T08:11:24.282Z</time>
      </trkpt>
      <trkpt lat="48.51383" lon="-3.47998">
        <ele>187</ele>
        <time>2021-07-22T08:11:29.284Z</time>
      </trkpt>
      <trkpt lat="48.51387" lon="-3.48">
        <ele>187</ele>
        <time>2021-07-22T08:11:34.259Z</time>
      </trkpt>
      <trkpt lat="48.51391" lon="-3.48001">
        <ele>187</ele>
        <time>2021-07-22T08:11:38.278Z</time>
      </trkpt>
      <trkpt lat="48.51396" lon="-3.48003">
        <ele>187</ele>
        <time>2021-07-22T08:11:43.282Z</time>
      </trkpt>
      <trkpt lat="48.514" lon="-3.48007">
        <ele>187</ele>
        <time>2021-07-22T08:11:48.291Z</time>
      </trkpt>
      <trkpt lat="48.51404" lon="-3.48011">
        <ele>190</ele>
        <time>2021-07-22T08:11:53.272Z</time>
      </trkpt>
      <trkpt lat="48.51409" lon="-3.48014">
        <ele>190</ele>
        <time>2021-07-22T08:11:58.276Z</time>
      </trkpt>
      <trkpt lat="48.51414" lon="-3.48018">
        <ele>192</ele>
        <time>2021-07-22T08:12:03.281Z</time>
      </trkpt>
      <trkpt lat="48.51419" lon="-3.48022">
        <ele>192</ele>
        <time>2021-07-22T08:12:08.276Z</time>
      </trkpt>
      <trkpt lat="48.51427" lon="-3.48026">
        <ele>192</ele>
        <time>2021-07-22T08:12:13.260Z</time>
      </trkpt>
      <trkpt lat="48.5143" lon="-3.48032">
        <ele>192</ele>
        <time>2021-07-22T08:12:18.259Z</time>
      </trkpt>
      <trkpt lat="48.51434" lon="-3.48035">
        <ele>193</ele>
        <time>2021-07-22T08:12:23.288Z</time>
      </trkpt>
      <trkpt lat="48.51439" lon="-3.48038">
        <ele>193</ele>
        <time>2021-07-22T08:12:28.273Z</time>
      </trkpt>
      <trkpt lat="48.51443" lon="-3.48041">
        <ele>193</ele>
        <time>2021-07-22T08:12:33.269Z</time>
      </trkpt>
      <trkpt lat="48.51447" lon="-3.48044">
        <ele>194</ele>
        <time>2021-07-22T08:12:37.260Z</time>
      </trkpt>
      <trkpt lat="48.51448" lon="-3.48045">
        <ele>194</ele>
        <time>2021-07-22T08:12:42.273Z</time>
      </trkpt>
      <trkpt lat="48.51452" lon="-3.48046">
        <ele>194</ele>
        <time>2021-07-22T08:12:47.281Z</time>
      </trkpt>
      <trkpt lat="48.51455" lon="-3.4805">
        <ele>194</ele>
        <time>2021-07-22T08:12:52.264Z</time>
      </trkpt>
      <trkpt lat="48.51455" lon="-3.48054">
        <ele>194</ele>
        <time>2021-07-22T08:12:57.279Z</time>
      </trkpt>
      <trkpt lat="48.51456" lon="-3.4806">
        <ele>194</ele>
        <time>2021-07-22T08:13:02.280Z</time>
      </trkpt>
      <trkpt lat="48.51459" lon="-3.48069">
        <ele>192</ele>
        <time>2021-07-22T08:13:07.271Z</time>
      </trkpt>
      <trkpt lat="48.5146" lon="-3.48076">
        <ele>193</ele>
        <time>2021-07-22T08:13:12.288Z</time>
      </trkpt>
      <trkpt lat="48.51462" lon="-3.48083">
        <ele>193</ele>
        <time>2021-07-22T08:13:17.281Z</time>
      </trkpt>
      <trkpt lat="48.51464" lon="-3.48091">
        <ele>193</ele>
        <time>2021-07-22T08:13:22.283Z</time>
      </trkpt>
      <trkpt lat="48.51466" lon="-3.48098">
        <ele>195</ele>
        <time>2021-07-22T08:13:27.271Z</time>
      </trkpt>
      <trkpt lat="48.51469" lon="-3.48105">
        <ele>195</ele>
        <time>2021-07-22T08:13:32.272Z</time>
      </trkpt>
      <trkpt lat="48.51472" lon="-3.48113">
        <ele>195</ele>
        <time>2021-07-22T08:13:37.276Z</time>
      </trkpt>
      <trkpt lat="48.51474" lon="-3.4812">
        <ele>195</ele>
        <time>2021-07-22T08:13:42.262Z</time>
      </trkpt>
      <trkpt lat="48.51478" lon="-3.48127">
        <ele>197</ele>
        <time>2021-07-22T08:13:47.272Z</time>
      </trkpt>
      <trkpt lat="48.5148" lon="-3.48133">
        <ele>197</ele>
        <time>2021-07-22T08:13:51.282Z</time>
      </trkpt>
      <trkpt lat="48.51483" lon="-3.48142">
        <ele>197</ele>
        <time>2021-07-22T08:13:56.278Z</time>
      </trkpt>
      <trkpt lat="48.51486" lon="-3.48149">
        <ele>197</ele>
        <time>2021-07-22T08:14:00.291Z</time>
      </trkpt>
      <trkpt lat="48.51488" lon="-3.48159">
        <ele>196</ele>
        <time>2021-07-22T08:14:05.280Z</time>
      </trkpt>
      <trkpt lat="48.51491" lon="-3.48166">
        <ele>196</ele>
        <time>2021-07-22T08:14:10.278Z</time>
      </trkpt>
      <trkpt lat="48.51494" lon="-3.48174">
        <ele>196</ele>
        <time>2021-07-22T08:14:15.267Z</time>
      </trkpt>
      <trkpt lat="48.51497" lon="-3.48183">
        <ele>197</ele>
        <time>2021-07-22T08:14:20.279Z</time>
      </trkpt>
      <trkpt lat="48.515" lon="-3.48191">
        <ele>197</ele>
        <time>2021-07-22T08:14:25.273Z</time>
      </trkpt>
      <trkpt lat="48.51504" lon="-3.48201">
        <ele>197</ele>
        <time>2021-07-22T08:14:30.279Z</time>
      </trkpt>
      <trkpt lat="48.51507" lon="-3.48211">
        <ele>197</ele>
        <time>2021-07-22T08:14:35.281Z</time>
      </trkpt>
      <trkpt lat="48.51509" lon="-3.48219">
        <ele>197</ele>
        <time>2021-07-22T08:14:40.276Z</time>
      </trkpt>
      <trkpt lat="48.51511" lon="-3.48223">
        <ele>197</ele>
        <time>2021-07-22T08:14:44.292Z</time>
      </trkpt>
      <trkpt lat="48.51515" lon="-3.48231">
        <ele>191</ele>
        <time>2021-07-22T08:14:49.283Z</time>
      </trkpt>
      <trkpt lat="48.51519" lon="-3.48239">
        <ele>190</ele>
        <time>2021-07-22T08:14:54.266Z</time>
      </trkpt>
      <trkpt lat="48.51521" lon="-3.48244">
        <ele>190</ele>
        <time>2021-07-22T08:14:58.264Z</time>
      </trkpt>
      <trkpt lat="48.51522" lon="-3.48251">
        <ele>190</ele>
        <time>2021-07-22T08:15:03.291Z</time>
      </trkpt>
      <trkpt lat="48.51525" lon="-3.4826">
        <ele>190</ele>
        <time>2021-07-22T08:15:08.272Z</time>
      </trkpt>
      <trkpt lat="48.51526" lon="-3.48264">
        <ele>191</ele>
        <time>2021-07-22T08:15:12.282Z</time>
      </trkpt>
      <trkpt lat="48.51529" lon="-3.48271">
        <ele>191</ele>
        <time>2021-07-22T08:15:17.270Z</time>
      </trkpt>
      <trkpt lat="48.51532" lon="-3.48282">
        <ele>191</ele>
        <time>2021-07-22T08:15:22.261Z</time>
      </trkpt>
      <trkpt lat="48.51534" lon="-3.4829">
        <ele>191</ele>
        <time>2021-07-22T08:15:26.282Z</time>
      </trkpt>
      <trkpt lat="48.51537" lon="-3.48299">
        <ele>192</ele>
        <time>2021-07-22T08:15:31.258Z</time>
      </trkpt>
      <trkpt lat="48.51539" lon="-3.48309">
        <ele>192</ele>
        <time>2021-07-22T08:15:36.264Z</time>
      </trkpt>
      <trkpt lat="48.51542" lon="-3.48318">
        <ele>190</ele>
        <time>2021-07-22T08:15:41.264Z</time>
      </trkpt>
      <trkpt lat="48.51544" lon="-3.48327">
        <ele>193</ele>
        <time>2021-07-22T08:15:46.273Z</time>
      </trkpt>
      <trkpt lat="48.51545" lon="-3.48335">
        <ele>193</ele>
        <time>2021-07-22T08:15:50.282Z</time>
      </trkpt>
      <trkpt lat="48.51547" lon="-3.48345">
        <ele>193</ele>
        <time>2021-07-22T08:15:55.283Z</time>
      </trkpt>
      <trkpt lat="48.5155" lon="-3.48355">
        <ele>194</ele>
        <time>2021-07-22T08:16:00.279Z</time>
      </trkpt>
      <trkpt lat="48.51552" lon="-3.48365">
        <ele>194</ele>
        <time>2021-07-22T08:16:05.276Z</time>
      </trkpt>
      <trkpt lat="48.51554" lon="-3.48374">
        <ele>194</ele>
        <time>2021-07-22T08:16:10.276Z</time>
      </trkpt>
      <trkpt lat="48.51556" lon="-3.48382">
        <ele>195</ele>
        <time>2021-07-22T08:16:15.280Z</time>
      </trkpt>
      <trkpt lat="48.51558" lon="-3.48394">
        <ele>195</ele>
        <time>2021-07-22T08:16:20.256Z</time>
      </trkpt>
      <trkpt lat="48.51558" lon="-3.48403">
        <ele>196</ele>
        <time>2021-07-22T08:16:25.279Z</time>
      </trkpt>
      <trkpt lat="48.51558" lon="-3.48411">
        <ele>196</ele>
        <time>2021-07-22T08:16:30.273Z</time>
      </trkpt>
      <trkpt lat="48.51558" lon="-3.48421">
        <ele>196</ele>
        <time>2021-07-22T08:16:35.276Z</time>
      </trkpt>
      <trkpt lat="48.51559" lon="-3.48429">
        <ele>196</ele>
        <time>2021-07-22T08:16:39.283Z</time>
      </trkpt>
      <trkpt lat="48.51559" lon="-3.48439">
        <ele>194</ele>
        <time>2021-07-22T08:16:44.277Z</time>
      </trkpt>
      <trkpt lat="48.5156" lon="-3.48449">
        <ele>194</ele>
        <time>2021-07-22T08:16:49.272Z</time>
      </trkpt>
      <trkpt lat="48.5156" lon="-3.4846">
        <ele>193</ele>
        <time>2021-07-22T08:16:54.279Z</time>
      </trkpt>
      <trkpt lat="48.5156" lon="-3.48468">
        <ele>193</ele>
        <time>2021-07-22T08:16:59.272Z</time>
      </trkpt>
      <trkpt lat="48.51561" lon="-3.48478">
        <ele>193</ele>
        <time>2021-07-22T08:17:04.266Z</time>
      </trkpt>
      <trkpt lat="48.51562" lon="-3.48488">
        <ele>191</ele>
        <time>2021-07-22T08:17:09.263Z</time>
      </trkpt>
      <trkpt lat="48.51565" lon="-3.48497">
        <ele>191</ele>
        <time>2021-07-22T08:17:14.279Z</time>
      </trkpt>
      <trkpt lat="48.51568" lon="-3.48503">
        <ele>191</ele>
        <time>2021-07-22T08:17:19.285Z</time>
      </trkpt>
      <trkpt lat="48.51573" lon="-3.48509">
        <ele>190</ele>
        <time>2021-07-22T08:17:24.283Z</time>
      </trkpt>
      <trkpt lat="48.51579" lon="-3.48515">
        <ele>189</ele>
        <time>2021-07-22T08:17:29.271Z</time>
      </trkpt>
      <trkpt lat="48.51584" lon="-3.48517">
        <ele>189</ele>
        <time>2021-07-22T08:17:34.277Z</time>
      </trkpt>
      <trkpt lat="48.51589" lon="-3.48519">
        <ele>189</ele>
        <time>2021-07-22T08:17:39.255Z</time>
      </trkpt>
      <trkpt lat="48.51593" lon="-3.48522">
        <ele>189</ele>
        <time>2021-07-22T08:17:43.267Z</time>
      </trkpt>
      <trkpt lat="48.51601" lon="-3.48524">
        <ele>188</ele>
        <time>2021-07-22T08:17:48.262Z</time>
      </trkpt>
      <trkpt lat="48.51606" lon="-3.48525">
        <ele>188</ele>
        <time>2021-07-22T08:17:52.273Z</time>
      </trkpt>
      <trkpt lat="48.5161" lon="-3.48526">
        <ele>188</ele>
        <time>2021-07-22T08:17:57.269Z</time>
      </trkpt>
      <trkpt lat="48.51614" lon="-3.48529">
        <ele>188</ele>
        <time>2021-07-22T08:18:01.275Z</time>
      </trkpt>
      <trkpt lat="48.5162" lon="-3.48532">
        <ele>188</ele>
        <time>2021-07-22T08:18:05.280Z</time>
      </trkpt>
      <trkpt lat="48.51625" lon="-3.48537">
        <ele>188</ele>
        <time>2021-07-22T08:18:10.273Z</time>
      </trkpt>
      <trkpt lat="48.51631" lon="-3.48543">
        <ele>186</ele>
        <time>2021-07-22T08:18:15.270Z</time>
      </trkpt>
      <trkpt lat="48.51635" lon="-3.48551">
        <ele>186</ele>
        <time>2021-07-22T08:18:20.283Z</time>
      </trkpt>
      <trkpt lat="48.51636" lon="-3.48553">
        <ele>186</ele>
        <time>2021-07-22T08:18:24.278Z</time>
      </trkpt>
      <trkpt lat="48.51636" lon="-3.48552">
        <ele>186</ele>
        <time>2021-07-22T08:18:29.278Z</time>
      </trkpt>
      <trkpt lat="48.51637" lon="-3.48559">
        <ele>186</ele>
        <time>2021-07-22T08:18:34.254Z</time>
      </trkpt>
      <trkpt lat="48.51637" lon="-3.48571">
        <ele>185</ele>
        <time>2021-07-22T08:18:39.258Z</time>
      </trkpt>
      <trkpt lat="48.5164" lon="-3.4858">
        <ele>185</ele>
        <time>2021-07-22T08:18:44.277Z</time>
      </trkpt>
      <trkpt lat="48.51643" lon="-3.4859">
        <ele>185</ele>
        <time>2021-07-22T08:18:49.268Z</time>
      </trkpt>
      <trkpt lat="48.51643" lon="-3.48598">
        <ele>184</ele>
        <time>2021-07-22T08:18:53.274Z</time>
      </trkpt>
      <trkpt lat="48.51643" lon="-3.48609">
        <ele>184</ele>
        <time>2021-07-22T08:18:58.278Z</time>
      </trkpt>
      <trkpt lat="48.51644" lon="-3.48617">
        <ele>184</ele>
        <time>2021-07-22T08:19:02.290Z</time>
      </trkpt>
      <trkpt lat="48.51642" lon="-3.48626">
        <ele>185</ele>
        <time>2021-07-22T08:19:07.280Z</time>
      </trkpt>
      <trkpt lat="48.51642" lon="-3.48636">
        <ele>185</ele>
        <time>2021-07-22T08:19:12.262Z</time>
      </trkpt>
      <trkpt lat="48.51641" lon="-3.48647">
        <ele>185</ele>
        <time>2021-07-22T08:19:17.255Z</time>
      </trkpt>
      <trkpt lat="48.5164" lon="-3.48654">
        <ele>186</ele>
        <time>2021-07-22T08:19:21.278Z</time>
      </trkpt>
      <trkpt lat="48.5164" lon="-3.48664">
        <ele>186</ele>
        <time>2021-07-22T08:19:26.272Z</time>
      </trkpt>
      <trkpt lat="48.51639" lon="-3.48673">
        <ele>186</ele>
        <time>2021-07-22T08:19:31.279Z</time>
      </trkpt>
      <trkpt lat="48.51639" lon="-3.48682">
        <ele>186</ele>
        <time>2021-07-22T08:19:36.279Z</time>
      </trkpt>
      <trkpt lat="48.51641" lon="-3.48689">
        <ele>186</ele>
        <time>2021-07-22T08:19:41.262Z</time>
      </trkpt>
      <trkpt lat="48.51646" lon="-3.48696">
        <ele>186</ele>
        <time>2021-07-22T08:19:46.272Z</time>
      </trkpt>
      <trkpt lat="48.51652" lon="-3.48697">
        <ele>186</ele>
        <time>2021-07-22T08:19:51.264Z</time>
      </trkpt>
      <trkpt lat="48.51657" lon="-3.487">
        <ele>183</ele>
        <time>2021-07-22T08:19:55.265Z</time>
      </trkpt>
      <trkpt lat="48.51661" lon="-3.48702">
        <ele>183</ele>
        <time>2021-07-22T08:20:00.272Z</time>
      </trkpt>
      <trkpt lat="48.51665" lon="-3.487">
        <ele>183</ele>
        <time>2021-07-22T08:32:02.258Z</time>
      </trkpt>
      <trkpt lat="48.5167" lon="-3.48702">
        <ele>183</ele>
        <time>2021-07-22T08:32:07.279Z</time>
      </trkpt>
      <trkpt lat="48.51677" lon="-3.48706">
        <ele>183</ele>
        <time>2021-07-22T08:32:12.262Z</time>
      </trkpt>
      <trkpt lat="48.51682" lon="-3.48706">
        <ele>181</ele>
        <time>2021-07-22T08:32:16.283Z</time>
      </trkpt>
      <trkpt lat="48.51686" lon="-3.48706">
        <ele>181</ele>
        <time>2021-07-22T08:32:21.273Z</time>
      </trkpt>
      <trkpt lat="48.51692" lon="-3.48707">
        <ele>181</ele>
        <time>2021-07-22T08:32:26.272Z</time>
      </trkpt>
      <trkpt lat="48.51697" lon="-3.48709">
        <ele>180</ele>
        <time>2021-07-22T08:32:31.276Z</time>
      </trkpt>
      <trkpt lat="48.51704" lon="-3.4871">
        <ele>180</ele>
        <time>2021-07-22T08:32:36.282Z</time>
      </trkpt>
      <trkpt lat="48.51711" lon="-3.4871">
        <ele>179</ele>
        <time>2021-07-22T08:32:41.259Z</time>
      </trkpt>
      <trkpt lat="48.51717" lon="-3.48711">
        <ele>179</ele>
        <time>2021-07-22T08:32:45.267Z</time>
      </trkpt>
      <trkpt lat="48.51724" lon="-3.48714">
        <ele>179</ele>
        <time>2021-07-22T08:32:50.271Z</time>
      </trkpt>
      <trkpt lat="48.51728" lon="-3.48716">
        <ele>179</ele>
        <time>2021-07-22T08:32:55.276Z</time>
      </trkpt>
      <trkpt lat="48.51733" lon="-3.48718">
        <ele>179</ele>
        <time>2021-07-22T08:33:00.263Z</time>
      </trkpt>
      <trkpt lat="48.51739" lon="-3.48719">
        <ele>177</ele>
        <time>2021-07-22T08:33:04.282Z</time>
      </trkpt>
      <trkpt lat="48.51747" lon="-3.4872">
        <ele>177</ele>
        <time>2021-07-22T08:33:09.274Z</time>
      </trkpt>
      <trkpt lat="48.51754" lon="-3.48721">
        <ele>177</ele>
        <time>2021-07-22T08:33:14.274Z</time>
      </trkpt>
      <trkpt lat="48.5176" lon="-3.48722">
        <ele>177</ele>
        <time>2021-07-22T08:33:19.258Z</time>
      </trkpt>
      <trkpt lat="48.51757" lon="-3.48724">
        <ele>177</ele>
        <time>2021-07-22T08:33:24.262Z</time>
      </trkpt>
      <trkpt lat="48.51758" lon="-3.48725">
        <ele>177</ele>
        <time>2021-07-22T08:33:28.262Z</time>
      </trkpt>
      <trkpt lat="48.51764" lon="-3.48728">
        <ele>177</ele>
        <time>2021-07-22T08:33:33.266Z</time>
      </trkpt>
      <trkpt lat="48.5177" lon="-3.48731">
        <ele>176</ele>
        <time>2021-07-22T08:33:38.258Z</time>
      </trkpt>
      <trkpt lat="48.51775" lon="-3.48732">
        <ele>176</ele>
        <time>2021-07-22T08:33:42.274Z</time>
      </trkpt>
      <trkpt lat="48.51781" lon="-3.48736">
        <ele>176</ele>
        <time>2021-07-22T08:33:47.276Z</time>
      </trkpt>
      <trkpt lat="48.51786" lon="-3.48737">
        <ele>175</ele>
        <time>2021-07-22T08:33:52.281Z</time>
      </trkpt>
      <trkpt lat="48.51792" lon="-3.48739">
        <ele>175</ele>
        <time>2021-07-22T08:33:57.278Z</time>
      </trkpt>
      <trkpt lat="48.51797" lon="-3.4874">
        <ele>175</ele>
        <time>2021-07-22T08:34:02.280Z</time>
      </trkpt>
      <trkpt lat="48.51804" lon="-3.48738">
        <ele>175</ele>
        <time>2021-07-22T08:34:07.278Z</time>
      </trkpt>
      <trkpt lat="48.5181" lon="-3.48737">
        <ele>175</ele>
        <time>2021-07-22T08:34:12.264Z</time>
      </trkpt>
      <trkpt lat="48.51817" lon="-3.48734">
        <ele>175</ele>
        <time>2021-07-22T08:34:17.266Z</time>
      </trkpt>
      <trkpt lat="48.51823" lon="-3.48733">
        <ele>173</ele>
        <time>2021-07-22T08:34:22.267Z</time>
      </trkpt>
      <trkpt lat="48.51828" lon="-3.4873">
        <ele>173</ele>
        <time>2021-07-22T08:34:27.266Z</time>
      </trkpt>
      <trkpt lat="48.51833" lon="-3.48728">
        <ele>173</ele>
        <time>2021-07-22T08:34:31.278Z</time>
      </trkpt>
      <trkpt lat="48.51839" lon="-3.48725">
        <ele>173</ele>
        <time>2021-07-22T08:34:36.268Z</time>
      </trkpt>
      <trkpt lat="48.51844" lon="-3.48723">
        <ele>173</ele>
        <time>2021-07-22T08:34:41.249Z</time>
      </trkpt>
      <trkpt lat="48.51849" lon="-3.48721">
        <ele>170</ele>
        <time>2021-07-22T08:34:46.257Z</time>
      </trkpt>
      <trkpt lat="48.51853" lon="-3.48721">
        <ele>170</ele>
        <time>2021-07-22T08:34:50.259Z</time>
      </trkpt>
      <trkpt lat="48.51858" lon="-3.48721">
        <ele>170</ele>
        <time>2021-07-22T08:34:55.257Z</time>
      </trkpt>
      <trkpt lat="48.51863" lon="-3.48721">
        <ele>170</ele>
        <time>2021-07-22T08:34:59.259Z</time>
      </trkpt>
      <trkpt lat="48.5187" lon="-3.48721">
        <ele>170</ele>
        <time>2021-07-22T08:35:04.259Z</time>
      </trkpt>
      <trkpt lat="48.51877" lon="-3.48722">
        <ele>169</ele>
        <time>2021-07-22T08:35:09.262Z</time>
      </trkpt>
      <trkpt lat="48.51883" lon="-3.48723">
        <ele>169</ele>
        <time>2021-07-22T08:35:13.290Z</time>
      </trkpt>
      <trkpt lat="48.5189" lon="-3.48722">
        <ele>169</ele>
        <time>2021-07-22T08:35:18.267Z</time>
      </trkpt>
      <trkpt lat="48.51896" lon="-3.48722">
        <ele>169</ele>
        <time>2021-07-22T08:35:23.275Z</time>
      </trkpt>
      <trkpt lat="48.51902" lon="-3.48719">
        <ele>169</ele>
        <time>2021-07-22T08:35:28.266Z</time>
      </trkpt>
      <trkpt lat="48.51908" lon="-3.48719">
        <ele>168</ele>
        <time>2021-07-22T08:35:33.275Z</time>
      </trkpt>
      <trkpt lat="48.51914" lon="-3.48718">
        <ele>168</ele>
        <time>2021-07-22T08:35:38.261Z</time>
      </trkpt>
      <trkpt lat="48.51921" lon="-3.48719">
        <ele>168</ele>
        <time>2021-07-22T08:35:43.276Z</time>
      </trkpt>
      <trkpt lat="48.51926" lon="-3.48718">
        <ele>168</ele>
        <time>2021-07-22T08:35:48.254Z</time>
      </trkpt>
      <trkpt lat="48.51933" lon="-3.48716">
        <ele>164</ele>
        <time>2021-07-22T08:35:53.285Z</time>
      </trkpt>
      <trkpt lat="48.5194" lon="-3.48716">
        <ele>164</ele>
        <time>2021-07-22T08:35:58.252Z</time>
      </trkpt>
      <trkpt lat="48.51946" lon="-3.48717">
        <ele>164</ele>
        <time>2021-07-22T08:36:03.284Z</time>
      </trkpt>
      <trkpt lat="48.51952" lon="-3.48715">
        <ele>164</ele>
        <time>2021-07-22T08:36:08.260Z</time>
      </trkpt>
      <trkpt lat="48.51958" lon="-3.48714">
        <ele>163</ele>
        <time>2021-07-22T08:36:13.269Z</time>
      </trkpt>
      <trkpt lat="48.51965" lon="-3.48714">
        <ele>163</ele>
        <time>2021-07-22T08:36:18.256Z</time>
      </trkpt>
      <trkpt lat="48.51971" lon="-3.48714">
        <ele>163</ele>
        <time>2021-07-22T08:36:23.266Z</time>
      </trkpt>
      <trkpt lat="48.51976" lon="-3.48715">
        <ele>163</ele>
        <time>2021-07-22T08:36:28.257Z</time>
      </trkpt>
      <trkpt lat="48.51981" lon="-3.48716">
        <ele>163</ele>
        <time>2021-07-22T08:36:33.263Z</time>
      </trkpt>
      <trkpt lat="48.51987" lon="-3.48717">
        <ele>161</ele>
        <time>2021-07-22T08:36:38.261Z</time>
      </trkpt>
      <trkpt lat="48.51992" lon="-3.48718">
        <ele>161</ele>
        <time>2021-07-22T08:36:43.259Z</time>
      </trkpt>
      <trkpt lat="48.51997" lon="-3.4872">
        <ele>161</ele>
        <time>2021-07-22T08:36:48.257Z</time>
      </trkpt>
      <trkpt lat="48.52003" lon="-3.48723">
        <ele>161</ele>
        <time>2021-07-22T08:36:53.284Z</time>
      </trkpt>
      <trkpt lat="48.52007" lon="-3.48727">
        <ele>161</ele>
        <time>2021-07-22T08:36:58.261Z</time>
      </trkpt>
      <trkpt lat="48.52014" lon="-3.4873">
        <ele>157</ele>
        <time>2021-07-22T08:37:03.271Z</time>
      </trkpt>
      <trkpt lat="48.5202" lon="-3.48735">
        <ele>157</ele>
        <time>2021-07-22T08:37:08.274Z</time>
      </trkpt>
      <trkpt lat="48.52026" lon="-3.48737">
        <ele>156</ele>
        <time>2021-07-22T08:37:12.271Z</time>
      </trkpt>
      <trkpt lat="48.52031" lon="-3.48741">
        <ele>156</ele>
        <time>2021-07-22T08:37:17.275Z</time>
      </trkpt>
      <trkpt lat="48.52037" lon="-3.48744">
        <ele>156</ele>
        <time>2021-07-22T08:37:21.285Z</time>
      </trkpt>
      <trkpt lat="48.52042" lon="-3.48748">
        <ele>153</ele>
        <time>2021-07-22T08:37:26.253Z</time>
      </trkpt>
      <trkpt lat="48.52047" lon="-3.48749">
        <ele>153</ele>
        <time>2021-07-22T08:37:30.277Z</time>
      </trkpt>
      <trkpt lat="48.52053" lon="-3.48751">
        <ele>153</ele>
        <time>2021-07-22T08:37:35.269Z</time>
      </trkpt>
      <trkpt lat="48.52058" lon="-3.48756">
        <ele>153</ele>
        <time>2021-07-22T08:37:40.272Z</time>
      </trkpt>
      <trkpt lat="48.52065" lon="-3.48759">
        <ele>153</ele>
        <time>2021-07-22T08:37:45.265Z</time>
      </trkpt>
      <trkpt lat="48.52071" lon="-3.48763">
        <ele>152</ele>
        <time>2021-07-22T08:37:50.260Z</time>
      </trkpt>
      <trkpt lat="48.52074" lon="-3.48763">
        <ele>152</ele>
        <time>2021-07-22T08:37:55.270Z</time>
      </trkpt>
      <trkpt lat="48.5208" lon="-3.48766">
        <ele>151</ele>
        <time>2021-07-22T08:38:00.272Z</time>
      </trkpt>
      <trkpt lat="48.52084" lon="-3.48769">
        <ele>151</ele>
        <time>2021-07-22T08:38:05.271Z</time>
      </trkpt>
      <trkpt lat="48.52086" lon="-3.48772">
        <ele>151</ele>
        <time>2021-07-22T08:38:10.262Z</time>
      </trkpt>
      <trkpt lat="48.52085" lon="-3.48771">
        <ele>151</ele>
        <time>2021-07-22T08:58:58.263Z</time>
      </trkpt>
      <trkpt lat="48.52089" lon="-3.48772">
        <ele>151</ele>
        <time>2021-07-22T08:59:02.277Z</time>
      </trkpt>
      <trkpt lat="48.52096" lon="-3.48773">
        <ele>151</ele>
        <time>2021-07-22T08:59:07.269Z</time>
      </trkpt>
      <trkpt lat="48.521" lon="-3.48775">
        <ele>149</ele>
        <time>2021-07-22T08:59:11.283Z</time>
      </trkpt>
      <trkpt lat="48.52105" lon="-3.48778">
        <ele>149</ele>
        <time>2021-07-22T08:59:16.257Z</time>
      </trkpt>
      <trkpt lat="48.5211" lon="-3.48778">
        <ele>149</ele>
        <time>2021-07-22T08:59:20.272Z</time>
      </trkpt>
      <trkpt lat="48.52115" lon="-3.48779">
        <ele>149</ele>
        <time>2021-07-22T08:59:25.270Z</time>
      </trkpt>
      <trkpt lat="48.52122" lon="-3.48783">
        <ele>149</ele>
        <time>2021-07-22T08:59:30.273Z</time>
      </trkpt>
      <trkpt lat="48.52127" lon="-3.48785">
        <ele>148</ele>
        <time>2021-07-22T08:59:35.261Z</time>
      </trkpt>
      <trkpt lat="48.52133" lon="-3.48786">
        <ele>148</ele>
        <time>2021-07-22T08:59:40.268Z</time>
      </trkpt>
      <trkpt lat="48.52139" lon="-3.48786">
        <ele>148</ele>
        <time>2021-07-22T08:59:45.281Z</time>
      </trkpt>
      <trkpt lat="48.52145" lon="-3.48788">
        <ele>148</ele>
        <time>2021-07-22T08:59:50.275Z</time>
      </trkpt>
      <trkpt lat="48.5215" lon="-3.48787">
        <ele>148</ele>
        <time>2021-07-22T08:59:55.264Z</time>
      </trkpt>
      <trkpt lat="48.52155" lon="-3.48781">
        <ele>148</ele>
        <time>2021-07-22T09:00:05.274Z</time>
      </trkpt>
      <trkpt lat="48.52155" lon="-3.4878">
        <ele>148</ele>
        <time>2021-07-22T09:00:10.274Z</time>
      </trkpt>
      <trkpt lat="48.52156" lon="-3.4878">
        <ele>148</ele>
        <time>2021-07-22T09:00:37.271Z</time>
      </trkpt>
      <trkpt lat="48.52159" lon="-3.48775">
        <ele>148</ele>
        <time>2021-07-22T09:00:42.267Z</time>
      </trkpt>
      <trkpt lat="48.52163" lon="-3.48768">
        <ele>148</ele>
        <time>2021-07-22T09:00:47.274Z</time>
      </trkpt>
      <trkpt lat="48.52167" lon="-3.48761">
        <ele>147</ele>
        <time>2021-07-22T09:00:52.263Z</time>
      </trkpt>
      <trkpt lat="48.52172" lon="-3.48756">
        <ele>147</ele>
        <time>2021-07-22T09:00:57.259Z</time>
      </trkpt>
      <trkpt lat="48.52178" lon="-3.48752">
        <ele>147</ele>
        <time>2021-07-22T09:01:02.258Z</time>
      </trkpt>
      <trkpt lat="48.52181" lon="-3.48746">
        <ele>148</ele>
        <time>2021-07-22T09:01:07.273Z</time>
      </trkpt>
      <trkpt lat="48.52186" lon="-3.4874">
        <ele>148</ele>
        <time>2021-07-22T09:01:12.281Z</time>
      </trkpt>
      <trkpt lat="48.52189" lon="-3.48734">
        <ele>147</ele>
        <time>2021-07-22T09:01:17.273Z</time>
      </trkpt>
      <trkpt lat="48.52192" lon="-3.48726">
        <ele>147</ele>
        <time>2021-07-22T09:01:22.267Z</time>
      </trkpt>
      <trkpt lat="48.52196" lon="-3.4872">
        <ele>147</ele>
        <time>2021-07-22T09:01:27.251Z</time>
      </trkpt>
      <trkpt lat="48.522" lon="-3.48715">
        <ele>147</ele>
        <time>2021-07-22T09:01:32.270Z</time>
      </trkpt>
      <trkpt lat="48.52204" lon="-3.48711">
        <ele>147</ele>
        <time>2021-07-22T09:01:37.265Z</time>
      </trkpt>
      <trkpt lat="48.52208" lon="-3.48705">
        <ele>147</ele>
        <time>2021-07-22T09:01:42.257Z</time>
      </trkpt>
      <trkpt lat="48.52212" lon="-3.487">
        <ele>147</ele>
        <time>2021-07-22T09:01:47.271Z</time>
      </trkpt>
      <trkpt lat="48.52217" lon="-3.48696">
        <ele>147</ele>
        <time>2021-07-22T09:01:52.271Z</time>
      </trkpt>
      <trkpt lat="48.52223" lon="-3.48692">
        <ele>147</ele>
        <time>2021-07-22T09:01:57.272Z</time>
      </trkpt>
      <trkpt lat="48.52228" lon="-3.48691">
        <ele>147</ele>
        <time>2021-07-22T09:02:02.270Z</time>
      </trkpt>
      <trkpt lat="48.52234" lon="-3.4869">
        <ele>147</ele>
        <time>2021-07-22T09:02:07.264Z</time>
      </trkpt>
      <trkpt lat="48.5224" lon="-3.48691">
        <ele>148</ele>
        <time>2021-07-22T09:02:12.277Z</time>
      </trkpt>
      <trkpt lat="48.52244" lon="-3.48695">
        <ele>148</ele>
        <time>2021-07-22T09:02:17.278Z</time>
      </trkpt>
      <trkpt lat="48.5225" lon="-3.487">
        <ele>148</ele>
        <time>2021-07-22T09:02:22.254Z</time>
      </trkpt>
      <trkpt lat="48.52254" lon="-3.48703">
        <ele>148</ele>
        <time>2021-07-22T09:02:26.262Z</time>
      </trkpt>
      <trkpt lat="48.52257" lon="-3.48706">
        <ele>148</ele>
        <time>2021-07-22T09:02:31.269Z</time>
      </trkpt>
      <trkpt lat="48.52261" lon="-3.4871">
        <ele>150</ele>
        <time>2021-07-22T09:02:36.269Z</time>
      </trkpt>
      <trkpt lat="48.52262" lon="-3.48712">
        <ele>150</ele>
        <time>2021-07-22T09:02:41.278Z</time>
      </trkpt>
      <trkpt lat="48.52267" lon="-3.48709">
        <ele>152</ele>
        <time>2021-07-22T09:02:46.272Z</time>
      </trkpt>
      <trkpt lat="48.52272" lon="-3.48706">
        <ele>150</ele>
        <time>2021-07-22T09:02:56.257Z</time>
      </trkpt>
      <trkpt lat="48.52272" lon="-3.48707">
        <ele>150</ele>
        <time>2021-07-22T09:03:01.256Z</time>
      </trkpt>
      <trkpt lat="48.52274" lon="-3.48706">
        <ele>150</ele>
        <time>2021-07-22T09:03:06.251Z</time>
      </trkpt>
      <trkpt lat="48.52279" lon="-3.48706">
        <ele>150</ele>
        <time>2021-07-22T09:03:10.288Z</time>
      </trkpt>
      <trkpt lat="48.52282" lon="-3.48711">
        <ele>152</ele>
        <time>2021-07-22T09:03:15.263Z</time>
      </trkpt>
      <trkpt lat="48.52284" lon="-3.48717">
        <ele>152</ele>
        <time>2021-07-22T09:03:20.272Z</time>
      </trkpt>
      <trkpt lat="48.52288" lon="-3.48725">
        <ele>152</ele>
        <time>2021-07-22T09:03:25.285Z</time>
      </trkpt>
      <trkpt lat="48.5229" lon="-3.48735">
        <ele>152</ele>
        <time>2021-07-22T09:03:30.273Z</time>
      </trkpt>
      <trkpt lat="48.52294" lon="-3.48741">
        <ele>154</ele>
        <time>2021-07-22T09:03:35.273Z</time>
      </trkpt>
      <trkpt lat="48.52295" lon="-3.48748">
        <ele>154</ele>
        <time>2021-07-22T09:03:39.270Z</time>
      </trkpt>
      <trkpt lat="48.52297" lon="-3.48755">
        <ele>154</ele>
        <time>2021-07-22T09:03:44.248Z</time>
      </trkpt>
      <trkpt lat="48.52299" lon="-3.48761">
        <ele>154</ele>
        <time>2021-07-22T09:03:48.275Z</time>
      </trkpt>
      <trkpt lat="48.523" lon="-3.48768">
        <ele>155</ele>
        <time>2021-07-22T09:03:53.287Z</time>
      </trkpt>
      <trkpt lat="48.52302" lon="-3.48776">
        <ele>155</ele>
        <time>2021-07-22T09:03:58.286Z</time>
      </trkpt>
      <trkpt lat="48.52305" lon="-3.48783">
        <ele>155</ele>
        <time>2021-07-22T09:04:03.271Z</time>
      </trkpt>
      <trkpt lat="48.52307" lon="-3.48791">
        <ele>155</ele>
        <time>2021-07-22T09:04:08.272Z</time>
      </trkpt>
      <trkpt lat="48.52308" lon="-3.488">
        <ele>155</ele>
        <time>2021-07-22T09:04:13.266Z</time>
      </trkpt>
      <trkpt lat="48.5231" lon="-3.48806">
        <ele>155</ele>
        <time>2021-07-22T09:04:18.283Z</time>
      </trkpt>
      <trkpt lat="48.52311" lon="-3.48813">
        <ele>155</ele>
        <time>2021-07-22T09:04:23.261Z</time>
      </trkpt>
      <trkpt lat="48.52313" lon="-3.48821">
        <ele>155</ele>
        <time>2021-07-22T09:04:28.254Z</time>
      </trkpt>
      <trkpt lat="48.52314" lon="-3.48827">
        <ele>155</ele>
        <time>2021-07-22T09:04:33.253Z</time>
      </trkpt>
      <trkpt lat="48.52314" lon="-3.48835">
        <ele>155</ele>
        <time>2021-07-22T09:04:37.262Z</time>
      </trkpt>
      <trkpt lat="48.52315" lon="-3.48843">
        <ele>155</ele>
        <time>2021-07-22T09:04:42.269Z</time>
      </trkpt>
      <trkpt lat="48.52316" lon="-3.48849">
        <ele>156</ele>
        <time>2021-07-22T09:04:47.276Z</time>
      </trkpt>
      <trkpt lat="48.52316" lon="-3.48859">
        <ele>156</ele>
        <time>2021-07-22T09:04:52.271Z</time>
      </trkpt>
      <trkpt lat="48.52316" lon="-3.48867">
        <ele>156</ele>
        <time>2021-07-22T09:04:57.265Z</time>
      </trkpt>
      <trkpt lat="48.52316" lon="-3.48874">
        <ele>156</ele>
        <time>2021-07-22T09:05:02.261Z</time>
      </trkpt>
      <trkpt lat="48.52317" lon="-3.48881">
        <ele>158</ele>
        <time>2021-07-22T09:05:07.268Z</time>
      </trkpt>
      <trkpt lat="48.52318" lon="-3.48888">
        <ele>158</ele>
        <time>2021-07-22T09:05:12.275Z</time>
      </trkpt>
      <trkpt lat="48.52319" lon="-3.48895">
        <ele>158</ele>
        <time>2021-07-22T09:05:17.271Z</time>
      </trkpt>
      <trkpt lat="48.5232" lon="-3.48903">
        <ele>158</ele>
        <time>2021-07-22T09:05:22.273Z</time>
      </trkpt>
      <trkpt lat="48.5232" lon="-3.4891">
        <ele>160</ele>
        <time>2021-07-22T09:05:27.271Z</time>
      </trkpt>
      <trkpt lat="48.52323" lon="-3.48913">
        <ele>160</ele>
        <time>2021-07-22T09:05:32.273Z</time>
      </trkpt>
      <trkpt lat="48.52326" lon="-3.48916">
        <ele>160</ele>
        <time>2021-07-22T09:06:16.263Z</time>
      </trkpt>
      <trkpt lat="48.52326" lon="-3.48926">
        <ele>160</ele>
        <time>2021-07-22T09:06:21.266Z</time>
      </trkpt>
      <trkpt lat="48.52327" lon="-3.48936">
        <ele>161</ele>
        <time>2021-07-22T09:06:26.266Z</time>
      </trkpt>
      <trkpt lat="48.52326" lon="-3.48945">
        <ele>161</ele>
        <time>2021-07-22T09:06:31.261Z</time>
      </trkpt>
      <trkpt lat="48.52327" lon="-3.48953">
        <ele>161</ele>
        <time>2021-07-22T09:06:36.250Z</time>
      </trkpt>
      <trkpt lat="48.52325" lon="-3.48958">
        <ele>161</ele>
        <time>2021-07-22T09:06:40.280Z</time>
      </trkpt>
      <trkpt lat="48.52324" lon="-3.48966">
        <ele>161</ele>
        <time>2021-07-22T09:06:45.271Z</time>
      </trkpt>
      <trkpt lat="48.52322" lon="-3.48973">
        <ele>161</ele>
        <time>2021-07-22T09:06:49.267Z</time>
      </trkpt>
      <trkpt lat="48.52321" lon="-3.48981">
        <ele>161</ele>
        <time>2021-07-22T09:06:54.264Z</time>
      </trkpt>
      <trkpt lat="48.5232" lon="-3.48991">
        <ele>162</ele>
        <time>2021-07-22T09:06:59.261Z</time>
      </trkpt>
      <trkpt lat="48.5232" lon="-3.48999">
        <ele>162</ele>
        <time>2021-07-22T09:07:04.259Z</time>
      </trkpt>
      <trkpt lat="48.52321" lon="-3.49007">
        <ele>162</ele>
        <time>2021-07-22T09:07:09.263Z</time>
      </trkpt>
      <trkpt lat="48.5232" lon="-3.49016">
        <ele>163</ele>
        <time>2021-07-22T09:07:14.257Z</time>
      </trkpt>
      <trkpt lat="48.5232" lon="-3.49024">
        <ele>163</ele>
        <time>2021-07-22T09:07:18.277Z</time>
      </trkpt>
      <trkpt lat="48.52322" lon="-3.49033">
        <ele>163</ele>
        <time>2021-07-22T09:07:23.274Z</time>
      </trkpt>
      <trkpt lat="48.52326" lon="-3.49041">
        <ele>163</ele>
        <time>2021-07-22T09:07:28.276Z</time>
      </trkpt>
      <trkpt lat="48.52329" lon="-3.4905">
        <ele>164</ele>
        <time>2021-07-22T09:07:33.266Z</time>
      </trkpt>
      <trkpt lat="48.52331" lon="-3.49057">
        <ele>164</ele>
        <time>2021-07-22T09:07:38.262Z</time>
      </trkpt>
      <trkpt lat="48.52332" lon="-3.49062">
        <ele>164</ele>
        <time>2021-07-22T09:07:43.259Z</time>
      </trkpt>
      <trkpt lat="48.52334" lon="-3.49066">
        <ele>164</ele>
        <time>2021-07-22T09:07:48.271Z</time>
      </trkpt>
      <trkpt lat="48.52336" lon="-3.49071">
        <ele>165</ele>
        <time>2021-07-22T09:07:53.266Z</time>
      </trkpt>
      <trkpt lat="48.52334" lon="-3.49066">
        <ele>164</ele>
        <time>2021-07-22T09:07:58.261Z</time>
      </trkpt>
      <trkpt lat="48.52335" lon="-3.49065">
        <ele>164</ele>
        <time>2021-07-22T09:08:02.272Z</time>
      </trkpt>
      <trkpt lat="48.52335" lon="-3.49065">
        <ele>164</ele>
        <time>2021-07-22T09:08:07.265Z</time>
      </trkpt>
      <trkpt lat="48.52338" lon="-3.49072">
        <ele>165</ele>
        <time>2021-07-22T09:08:22.252Z</time>
      </trkpt>
      <trkpt lat="48.52341" lon="-3.49077">
        <ele>165</ele>
        <time>2021-07-22T09:08:26.254Z</time>
      </trkpt>
      <trkpt lat="48.52344" lon="-3.49082">
        <ele>165</ele>
        <time>2021-07-22T09:08:30.255Z</time>
      </trkpt>
      <trkpt lat="48.52348" lon="-3.4909">
        <ele>166</ele>
        <time>2021-07-22T09:08:34.273Z</time>
      </trkpt>
      <trkpt lat="48.52352" lon="-3.49096">
        <ele>166</ele>
        <time>2021-07-22T09:08:39.266Z</time>
      </trkpt>
      <trkpt lat="48.52356" lon="-3.49094">
        <ele>166</ele>
        <time>2021-07-22T09:08:44.278Z</time>
      </trkpt>
      <trkpt lat="48.52355" lon="-3.49102">
        <ele>167</ele>
        <time>2021-07-22T09:08:49.262Z</time>
      </trkpt>
      <trkpt lat="48.52358" lon="-3.4911">
        <ele>167</ele>
        <time>2021-07-22T09:08:54.250Z</time>
      </trkpt>
      <trkpt lat="48.52362" lon="-3.49118">
        <ele>167</ele>
        <time>2021-07-22T09:08:59.285Z</time>
      </trkpt>
      <trkpt lat="48.52366" lon="-3.49126">
        <ele>168</ele>
        <time>2021-07-22T09:09:04.257Z</time>
      </trkpt>
      <trkpt lat="48.52366" lon="-3.49134">
        <ele>168</ele>
        <time>2021-07-22T09:09:08.268Z</time>
      </trkpt>
      <trkpt lat="48.52367" lon="-3.49145">
        <ele>168</ele>
        <time>2021-07-22T09:09:13.262Z</time>
      </trkpt>
      <trkpt lat="48.52366" lon="-3.49156">
        <ele>170</ele>
        <time>2021-07-22T09:09:18.253Z</time>
      </trkpt>
      <trkpt lat="48.52366" lon="-3.49167">
        <ele>170</ele>
        <time>2021-07-22T09:09:23.263Z</time>
      </trkpt>
      <trkpt lat="48.52366" lon="-3.49177">
        <ele>170</ele>
        <time>2021-07-22T09:09:28.272Z</time>
      </trkpt>
      <trkpt lat="48.52368" lon="-3.49187">
        <ele>171</ele>
        <time>2021-07-22T09:09:33.255Z</time>
      </trkpt>
      <trkpt lat="48.52369" lon="-3.49197">
        <ele>171</ele>
        <time>2021-07-22T09:09:38.255Z</time>
      </trkpt>
      <trkpt lat="48.5237" lon="-3.49206">
        <ele>171</ele>
        <time>2021-07-22T09:09:43.262Z</time>
      </trkpt>
      <trkpt lat="48.5237" lon="-3.49214">
        <ele>171</ele>
        <time>2021-07-22T09:09:48.254Z</time>
      </trkpt>
      <trkpt lat="48.52371" lon="-3.4922">
        <ele>171</ele>
        <time>2021-07-22T09:09:52.251Z</time>
      </trkpt>
      <trkpt lat="48.5237" lon="-3.49232">
        <ele>171</ele>
        <time>2021-07-22T09:09:57.257Z</time>
      </trkpt>
      <trkpt lat="48.5237" lon="-3.49241">
        <ele>172</ele>
        <time>2021-07-22T09:10:02.259Z</time>
      </trkpt>
      <trkpt lat="48.52371" lon="-3.4925">
        <ele>172</ele>
        <time>2021-07-22T09:10:07.278Z</time>
      </trkpt>
      <trkpt lat="48.52372" lon="-3.49258">
        <ele>172</ele>
        <time>2021-07-22T09:10:12.262Z</time>
      </trkpt>
      <trkpt lat="48.52372" lon="-3.49268">
        <ele>172</ele>
        <time>2021-07-22T09:10:17.268Z</time>
      </trkpt>
      <trkpt lat="48.52372" lon="-3.49276">
        <ele>172</ele>
        <time>2021-07-22T09:10:22.278Z</time>
      </trkpt>
      <trkpt lat="48.52372" lon="-3.49285">
        <ele>172</ele>
        <time>2021-07-22T09:10:27.264Z</time>
      </trkpt>
      <trkpt lat="48.52373" lon="-3.49293">
        <ele>172</ele>
        <time>2021-07-22T09:10:32.263Z</time>
      </trkpt>
      <trkpt lat="48.52373" lon="-3.49302">
        <ele>172</ele>
        <time>2021-07-22T09:10:37.275Z</time>
      </trkpt>
      <trkpt lat="48.52373" lon="-3.4931">
        <ele>172</ele>
        <time>2021-07-22T09:10:42.260Z</time>
      </trkpt>
      <trkpt lat="48.52373" lon="-3.49318">
        <ele>172</ele>
        <time>2021-07-22T09:10:46.278Z</time>
      </trkpt>
      <trkpt lat="48.52372" lon="-3.49328">
        <ele>173</ele>
        <time>2021-07-22T09:10:51.270Z</time>
      </trkpt>
      <trkpt lat="48.52372" lon="-3.49337">
        <ele>173</ele>
        <time>2021-07-22T09:10:56.280Z</time>
      </trkpt>
      <trkpt lat="48.52372" lon="-3.49342">
        <ele>173</ele>
        <time>2021-07-22T09:11:01.275Z</time>
      </trkpt>
      <trkpt lat="48.52371" lon="-3.49346">
        <ele>173</ele>
        <time>2021-07-22T09:22:32.280Z</time>
      </trkpt>
      <trkpt lat="48.52373" lon="-3.49353">
        <ele>174</ele>
        <time>2021-07-22T09:22:37.272Z</time>
      </trkpt>
      <trkpt lat="48.52374" lon="-3.49361">
        <ele>174</ele>
        <time>2021-07-22T09:22:42.271Z</time>
      </trkpt>
      <trkpt lat="48.52373" lon="-3.4937">
        <ele>174</ele>
        <time>2021-07-22T09:22:47.268Z</time>
      </trkpt>
      <trkpt lat="48.52372" lon="-3.49379">
        <ele>175</ele>
        <time>2021-07-22T09:22:52.264Z</time>
      </trkpt>
      <trkpt lat="48.52371" lon="-3.49388">
        <ele>175</ele>
        <time>2021-07-22T09:22:57.271Z</time>
      </trkpt>
      <trkpt lat="48.52369" lon="-3.49396">
        <ele>175</ele>
        <time>2021-07-22T09:23:01.260Z</time>
      </trkpt>
      <trkpt lat="48.52367" lon="-3.49405">
        <ele>175</ele>
        <time>2021-07-22T09:23:06.256Z</time>
      </trkpt>
      <trkpt lat="48.52365" lon="-3.49412">
        <ele>175</ele>
        <time>2021-07-22T09:23:11.258Z</time>
      </trkpt>
      <trkpt lat="48.5236" lon="-3.4942">
        <ele>175</ele>
        <time>2021-07-22T09:23:16.285Z</time>
      </trkpt>
      <trkpt lat="48.52356" lon="-3.49426">
        <ele>175</ele>
        <time>2021-07-22T09:23:21.276Z</time>
      </trkpt>
      <trkpt lat="48.52351" lon="-3.49432">
        <ele>174</ele>
        <time>2021-07-22T09:23:26.272Z</time>
      </trkpt>
      <trkpt lat="48.52347" lon="-3.49438">
        <ele>174</ele>
        <time>2021-07-22T09:23:30.281Z</time>
      </trkpt>
      <trkpt lat="48.52342" lon="-3.49445">
        <ele>174</ele>
        <time>2021-07-22T09:23:35.279Z</time>
      </trkpt>
      <trkpt lat="48.52337" lon="-3.49451">
        <ele>174</ele>
        <time>2021-07-22T09:23:40.262Z</time>
      </trkpt>
      <trkpt lat="48.52332" lon="-3.49457">
        <ele>174</ele>
        <time>2021-07-22T09:23:45.262Z</time>
      </trkpt>
      <trkpt lat="48.52327" lon="-3.49463">
        <ele>174</ele>
        <time>2021-07-22T09:23:50.254Z</time>
      </trkpt>
      <trkpt lat="48.52323" lon="-3.49469">
        <ele>174</ele>
        <time>2021-07-22T09:23:54.271Z</time>
      </trkpt>
      <trkpt lat="48.52319" lon="-3.49475">
        <ele>173</ele>
        <time>2021-07-22T09:23:59.279Z</time>
      </trkpt>
      <trkpt lat="48.52316" lon="-3.49483">
        <ele>173</ele>
        <time>2021-07-22T09:24:04.281Z</time>
      </trkpt>
      <trkpt lat="48.52312" lon="-3.49491">
        <ele>174</ele>
        <time>2021-07-22T09:24:09.271Z</time>
      </trkpt>
      <trkpt lat="48.52309" lon="-3.49498">
        <ele>174</ele>
        <time>2021-07-22T09:24:14.278Z</time>
      </trkpt>
      <trkpt lat="48.52306" lon="-3.49507">
        <ele>174</ele>
        <time>2021-07-22T09:24:19.286Z</time>
      </trkpt>
      <trkpt lat="48.52304" lon="-3.49516">
        <ele>175</ele>
        <time>2021-07-22T09:24:24.259Z</time>
      </trkpt>
      <trkpt lat="48.52302" lon="-3.49525">
        <ele>175</ele>
        <time>2021-07-22T09:24:29.261Z</time>
      </trkpt>
      <trkpt lat="48.523" lon="-3.49534">
        <ele>175</ele>
        <time>2021-07-22T09:24:34.268Z</time>
      </trkpt>
      <trkpt lat="48.52297" lon="-3.49542">
        <ele>176</ele>
        <time>2021-07-22T09:24:39.285Z</time>
      </trkpt>
      <trkpt lat="48.52294" lon="-3.4955">
        <ele>176</ele>
        <time>2021-07-22T09:24:44.267Z</time>
      </trkpt>
      <trkpt lat="48.52292" lon="-3.49556">
        <ele>177</ele>
        <time>2021-07-22T09:24:48.283Z</time>
      </trkpt>
      <trkpt lat="48.52288" lon="-3.49566">
        <ele>177</ele>
        <time>2021-07-22T09:24:53.282Z</time>
      </trkpt>
      <trkpt lat="48.52284" lon="-3.49574">
        <ele>177</ele>
        <time>2021-07-22T09:24:58.266Z</time>
      </trkpt>
      <trkpt lat="48.52281" lon="-3.49582">
        <ele>177</ele>
        <time>2021-07-22T09:25:03.271Z</time>
      </trkpt>
      <trkpt lat="48.52277" lon="-3.4959">
        <ele>177</ele>
        <time>2021-07-22T09:25:08.262Z</time>
      </trkpt>
      <trkpt lat="48.52274" lon="-3.49597">
        <ele>177</ele>
        <time>2021-07-22T09:25:13.255Z</time>
      </trkpt>
      <trkpt lat="48.52269" lon="-3.49604">
        <ele>178</ele>
        <time>2021-07-22T09:25:18.276Z</time>
      </trkpt>
      <trkpt lat="48.52266" lon="-3.49612">
        <ele>178</ele>
        <time>2021-07-22T09:25:23.272Z</time>
      </trkpt>
      <trkpt lat="48.52264" lon="-3.49618">
        <ele>179</ele>
        <time>2021-07-22T09:25:28.271Z</time>
      </trkpt>
      <trkpt lat="48.52263" lon="-3.49625">
        <ele>179</ele>
        <time>2021-07-22T09:25:33.278Z</time>
      </trkpt>
      <trkpt lat="48.52261" lon="-3.49634">
        <ele>179</ele>
        <time>2021-07-22T09:25:38.277Z</time>
      </trkpt>
      <trkpt lat="48.52259" lon="-3.49642">
        <ele>179</ele>
        <time>2021-07-22T09:25:43.262Z</time>
      </trkpt>
      <trkpt lat="48.52257" lon="-3.4965">
        <ele>179</ele>
        <time>2021-07-22T09:25:48.258Z</time>
      </trkpt>
      <trkpt lat="48.52255" lon="-3.49657">
        <ele>180</ele>
        <time>2021-07-22T09:25:52.272Z</time>
      </trkpt>
      <trkpt lat="48.52254" lon="-3.49666">
        <ele>180</ele>
        <time>2021-07-22T09:25:57.275Z</time>
      </trkpt>
      <trkpt lat="48.52252" lon="-3.49674">
        <ele>180</ele>
        <time>2021-07-22T09:26:02.273Z</time>
      </trkpt>
      <trkpt lat="48.52251" lon="-3.49684">
        <ele>181</ele>
        <time>2021-07-22T09:26:07.279Z</time>
      </trkpt>
      <trkpt lat="48.5225" lon="-3.49693">
        <ele>181</ele>
        <time>2021-07-22T09:26:12.271Z</time>
      </trkpt>
      <trkpt lat="48.52248" lon="-3.49702">
        <ele>181</ele>
        <time>2021-07-22T09:26:17.258Z</time>
      </trkpt>
      <trkpt lat="48.52247" lon="-3.49712">
        <ele>183</ele>
        <time>2021-07-22T09:26:22.259Z</time>
      </trkpt>
      <trkpt lat="48.52246" lon="-3.49721">
        <ele>183</ele>
        <time>2021-07-22T09:26:27.260Z</time>
      </trkpt>
      <trkpt lat="48.52244" lon="-3.4973">
        <ele>183</ele>
        <time>2021-07-22T09:26:32.278Z</time>
      </trkpt>
      <trkpt lat="48.52242" lon="-3.49738">
        <ele>184</ele>
        <time>2021-07-22T09:26:37.255Z</time>
      </trkpt>
      <trkpt lat="48.5224" lon="-3.49748">
        <ele>184</ele>
        <time>2021-07-22T09:26:42.271Z</time>
      </trkpt>
      <trkpt lat="48.52237" lon="-3.49756">
        <ele>184</ele>
        <time>2021-07-22T09:26:47.263Z</time>
      </trkpt>
      <trkpt lat="48.52236" lon="-3.49764">
        <ele>184</ele>
        <time>2021-07-22T09:26:52.281Z</time>
      </trkpt>
      <trkpt lat="48.52234" lon="-3.49774">
        <ele>186</ele>
        <time>2021-07-22T09:26:57.265Z</time>
      </trkpt>
      <trkpt lat="48.52231" lon="-3.4978">
        <ele>186</ele>
        <time>2021-07-22T09:27:01.271Z</time>
      </trkpt>
      <trkpt lat="48.52228" lon="-3.49788">
        <ele>186</ele>
        <time>2021-07-22T09:27:06.284Z</time>
      </trkpt>
      <trkpt lat="48.52224" lon="-3.49795">
        <ele>188</ele>
        <time>2021-07-22T09:27:11.258Z</time>
      </trkpt>
      <trkpt lat="48.52218" lon="-3.49798">
        <ele>188</ele>
        <time>2021-07-22T09:27:16.264Z</time>
      </trkpt>
      <trkpt lat="48.52213" lon="-3.49799">
        <ele>188</ele>
        <time>2021-07-22T09:27:21.261Z</time>
      </trkpt>
      <trkpt lat="48.52206" lon="-3.49799">
        <ele>190</ele>
        <time>2021-07-22T09:27:26.266Z</time>
      </trkpt>
      <trkpt lat="48.522" lon="-3.498">
        <ele>190</ele>
        <time>2021-07-22T09:27:31.288Z</time>
      </trkpt>
      <trkpt lat="48.52193" lon="-3.49802">
        <ele>190</ele>
        <time>2021-07-22T09:27:36.274Z</time>
      </trkpt>
      <trkpt lat="48.52188" lon="-3.49805">
        <ele>190</ele>
        <time>2021-07-22T09:27:41.280Z</time>
      </trkpt>
      <trkpt lat="48.52183" lon="-3.49807">
        <ele>190</ele>
        <time>2021-07-22T09:27:46.260Z</time>
      </trkpt>
      <trkpt lat="48.52177" lon="-3.49807">
        <ele>191</ele>
        <time>2021-07-22T09:27:51.265Z</time>
      </trkpt>
      <trkpt lat="48.5217" lon="-3.49809">
        <ele>191</ele>
        <time>2021-07-22T09:27:56.261Z</time>
      </trkpt>
      <trkpt lat="48.52164" lon="-3.49813">
        <ele>191</ele>
        <time>2021-07-22T09:28:01.269Z</time>
      </trkpt>
      <trkpt lat="48.52159" lon="-3.49814">
        <ele>191</ele>
        <time>2021-07-22T09:28:05.260Z</time>
      </trkpt>
      <trkpt lat="48.52153" lon="-3.49816">
        <ele>191</ele>
        <time>2021-07-22T09:28:10.277Z</time>
      </trkpt>
      <trkpt lat="48.52146" lon="-3.49817">
        <ele>190</ele>
        <time>2021-07-22T09:28:15.267Z</time>
      </trkpt>
      <trkpt lat="48.5214" lon="-3.49818">
        <ele>190</ele>
        <time>2021-07-22T09:28:20.273Z</time>
      </trkpt>
      <trkpt lat="48.52133" lon="-3.49822">
        <ele>191</ele>
        <time>2021-07-22T09:28:25.272Z</time>
      </trkpt>
      <trkpt lat="48.52127" lon="-3.49824">
        <ele>191</ele>
        <time>2021-07-22T09:28:30.257Z</time>
      </trkpt>
      <trkpt lat="48.5212" lon="-3.49828">
        <ele>191</ele>
        <time>2021-07-22T09:28:35.263Z</time>
      </trkpt>
      <trkpt lat="48.52115" lon="-3.49833">
        <ele>191</ele>
        <time>2021-07-22T09:28:40.261Z</time>
      </trkpt>
      <trkpt lat="48.52109" lon="-3.49838">
        <ele>191</ele>
        <time>2021-07-22T09:28:45.271Z</time>
      </trkpt>
      <trkpt lat="48.52105" lon="-3.49841">
        <ele>191</ele>
        <time>2021-07-22T09:28:50.271Z</time>
      </trkpt>
      <trkpt lat="48.52101" lon="-3.49844">
        <ele>191</ele>
        <time>2021-07-22T09:28:54.274Z</time>
      </trkpt>
      <trkpt lat="48.52096" lon="-3.49846">
        <ele>189</ele>
        <time>2021-07-22T09:28:58.271Z</time>
      </trkpt>
      <trkpt lat="48.5209" lon="-3.49848">
        <ele>189</ele>
        <time>2021-07-22T09:29:03.269Z</time>
      </trkpt>
      <trkpt lat="48.52084" lon="-3.49847">
        <ele>189</ele>
        <time>2021-07-22T09:29:08.273Z</time>
      </trkpt>
      <trkpt lat="48.52077" lon="-3.49845">
        <ele>189</ele>
        <time>2021-07-22T09:29:13.263Z</time>
      </trkpt>
      <trkpt lat="48.52071" lon="-3.49844">
        <ele>189</ele>
        <time>2021-07-22T09:29:18.266Z</time>
      </trkpt>
      <trkpt lat="48.52065" lon="-3.49842">
        <ele>187</ele>
        <time>2021-07-22T09:29:23.277Z</time>
      </trkpt>
      <trkpt lat="48.52058" lon="-3.49842">
        <ele>187</ele>
        <time>2021-07-22T09:29:28.278Z</time>
      </trkpt>
      <trkpt lat="48.52052" lon="-3.49842">
        <ele>187</ele>
        <time>2021-07-22T09:29:33.270Z</time>
      </trkpt>
      <trkpt lat="48.52045" lon="-3.4984">
        <ele>187</ele>
        <time>2021-07-22T09:29:38.274Z</time>
      </trkpt>
      <trkpt lat="48.5204" lon="-3.4984">
        <ele>188</ele>
        <time>2021-07-22T09:29:42.274Z</time>
      </trkpt>
      <trkpt lat="48.52033" lon="-3.49839">
        <ele>188</ele>
        <time>2021-07-22T09:29:47.273Z</time>
      </trkpt>
      <trkpt lat="48.52028" lon="-3.49839">
        <ele>188</ele>
        <time>2021-07-22T09:29:52.281Z</time>
      </trkpt>
      <trkpt lat="48.52022" lon="-3.49839">
        <ele>188</ele>
        <time>2021-07-22T09:29:57.259Z</time>
      </trkpt>
      <trkpt lat="48.52019" lon="-3.49833">
        <ele>188</ele>
        <time>2021-07-22T09:30:02.259Z</time>
      </trkpt>
      <trkpt lat="48.52017" lon="-3.49823">
        <ele>188</ele>
        <time>2021-07-22T09:30:07.261Z</time>
      </trkpt>
      <trkpt lat="48.52015" lon="-3.49817">
        <ele>188</ele>
        <time>2021-07-22T09:30:11.257Z</time>
      </trkpt>
      <trkpt lat="48.52014" lon="-3.49808">
        <ele>188</ele>
        <time>2021-07-22T09:30:16.258Z</time>
      </trkpt>
      <trkpt lat="48.52014" lon="-3.49798">
        <ele>188</ele>
        <time>2021-07-22T09:30:21.279Z</time>
      </trkpt>
      <trkpt lat="48.52015" lon="-3.49789">
        <ele>187</ele>
        <time>2021-07-22T09:30:26.282Z</time>
      </trkpt>
      <trkpt lat="48.52016" lon="-3.49777">
        <ele>187</ele>
        <time>2021-07-22T09:30:31.286Z</time>
      </trkpt>
      <trkpt lat="48.52018" lon="-3.49767">
        <ele>187</ele>
        <time>2021-07-22T09:30:36.257Z</time>
      </trkpt>
      <trkpt lat="48.52018" lon="-3.49759">
        <ele>186</ele>
        <time>2021-07-22T09:30:40.275Z</time>
      </trkpt>
      <trkpt lat="48.52019" lon="-3.4975">
        <ele>186</ele>
        <time>2021-07-22T09:30:45.260Z</time>
      </trkpt>
      <trkpt lat="48.52018" lon="-3.49742">
        <ele>186</ele>
        <time>2021-07-22T09:30:49.268Z</time>
      </trkpt>
      <trkpt lat="48.52016" lon="-3.49734">
        <ele>184</ele>
        <time>2021-07-22T09:30:54.277Z</time>
      </trkpt>
      <trkpt lat="48.52012" lon="-3.49724">
        <ele>183</ele>
        <time>2021-07-22T09:30:59.275Z</time>
      </trkpt>
      <trkpt lat="48.52009" lon="-3.49716">
        <ele>183</ele>
        <time>2021-07-22T09:31:04.280Z</time>
      </trkpt>
      <trkpt lat="48.52005" lon="-3.49708">
        <ele>182</ele>
        <time>2021-07-22T09:31:09.275Z</time>
      </trkpt>
      <trkpt lat="48.52001" lon="-3.49701">
        <ele>182</ele>
        <time>2021-07-22T09:31:14.278Z</time>
      </trkpt>
      <trkpt lat="48.51997" lon="-3.49696">
        <ele>182</ele>
        <time>2021-07-22T09:31:19.257Z</time>
      </trkpt>
      <trkpt lat="48.51991" lon="-3.49692">
        <ele>182</ele>
        <time>2021-07-22T09:31:24.279Z</time>
      </trkpt>
      <trkpt lat="48.51985" lon="-3.49685">
        <ele>182</ele>
        <time>2021-07-22T09:31:29.262Z</time>
      </trkpt>
      <trkpt lat="48.51979" lon="-3.4968">
        <ele>181</ele>
        <time>2021-07-22T09:31:34.273Z</time>
      </trkpt>
      <trkpt lat="48.51974" lon="-3.49674">
        <ele>181</ele>
        <time>2021-07-22T09:31:39.270Z</time>
      </trkpt>
      <trkpt lat="48.51969" lon="-3.49668">
        <ele>181</ele>
        <time>2021-07-22T09:31:44.273Z</time>
      </trkpt>
      <trkpt lat="48.51963" lon="-3.49661">
        <ele>181</ele>
        <time>2021-07-22T09:31:49.259Z</time>
      </trkpt>
      <trkpt lat="48.51959" lon="-3.49655">
        <ele>181</ele>
        <time>2021-07-22T09:31:54.268Z</time>
      </trkpt>
      <trkpt lat="48.51953" lon="-3.49649">
        <ele>179</ele>
        <time>2021-07-22T09:31:59.279Z</time>
      </trkpt>
      <trkpt lat="48.51947" lon="-3.49644">
        <ele>179</ele>
        <time>2021-07-22T09:32:04.257Z</time>
      </trkpt>
      <trkpt lat="48.51943" lon="-3.49639">
        <ele>179</ele>
        <time>2021-07-22T09:32:08.265Z</time>
      </trkpt>
      <trkpt lat="48.51939" lon="-3.49633">
        <ele>179</ele>
        <time>2021-07-22T09:32:13.266Z</time>
      </trkpt>
      <trkpt lat="48.51935" lon="-3.49626">
        <ele>179</ele>
        <time>2021-07-22T09:32:18.256Z</time>
      </trkpt>
      <trkpt lat="48.51931" lon="-3.49617">
        <ele>177</ele>
        <time>2021-07-22T09:32:23.285Z</time>
      </trkpt>
      <trkpt lat="48.51927" lon="-3.49607">
        <ele>178</ele>
        <time>2021-07-22T09:32:28.271Z</time>
      </trkpt>
      <trkpt lat="48.51924" lon="-3.49598">
        <ele>178</ele>
        <time>2021-07-22T09:32:33.270Z</time>
      </trkpt>
      <trkpt lat="48.51921" lon="-3.4959">
        <ele>176</ele>
        <time>2021-07-22T09:32:38.270Z</time>
      </trkpt>
      <trkpt lat="48.51919" lon="-3.49581">
        <ele>176</ele>
        <time>2021-07-22T09:32:43.264Z</time>
      </trkpt>
      <trkpt lat="48.51916" lon="-3.49573">
        <ele>176</ele>
        <time>2021-07-22T09:32:48.270Z</time>
      </trkpt>
      <trkpt lat="48.51915" lon="-3.49565">
        <ele>176</ele>
        <time>2021-07-22T09:32:53.266Z</time>
      </trkpt>
      <trkpt lat="48.51911" lon="-3.49558">
        <ele>176</ele>
        <time>2021-07-22T09:32:58.258Z</time>
      </trkpt>
      <trkpt lat="48.51907" lon="-3.49555">
        <ele>176</ele>
        <time>2021-07-22T09:33:02.297Z</time>
      </trkpt>
      <trkpt lat="48.51902" lon="-3.49556">
        <ele>176</ele>
        <time>2021-07-22T09:33:07.273Z</time>
      </trkpt>
      <trkpt lat="48.51896" lon="-3.49556">
        <ele>176</ele>
        <time>2021-07-22T09:33:12.288Z</time>
      </trkpt>
      <trkpt lat="48.51889" lon="-3.49559">
        <ele>176</ele>
        <time>2021-07-22T09:33:17.264Z</time>
      </trkpt>
      <trkpt lat="48.51885" lon="-3.49565">
        <ele>176</ele>
        <time>2021-07-22T09:33:21.260Z</time>
      </trkpt>
      <trkpt lat="48.51881" lon="-3.49573">
        <ele>177</ele>
        <time>2021-07-22T09:33:26.276Z</time>
      </trkpt>
      <trkpt lat="48.51877" lon="-3.49578">
        <ele>177</ele>
        <time>2021-07-22T09:33:31.257Z</time>
      </trkpt>
      <trkpt lat="48.51875" lon="-3.49584">
        <ele>177</ele>
        <time>2021-07-22T09:33:35.262Z</time>
      </trkpt>
      <trkpt lat="48.5187" lon="-3.49592">
        <ele>177</ele>
        <time>2021-07-22T09:33:40.269Z</time>
      </trkpt>
      <trkpt lat="48.51866" lon="-3.49597">
        <ele>177</ele>
        <time>2021-07-22T09:33:45.261Z</time>
      </trkpt>
      <trkpt lat="48.51863" lon="-3.49602">
        <ele>177</ele>
        <time>2021-07-22T09:33:49.274Z</time>
      </trkpt>
      <trkpt lat="48.51857" lon="-3.49608">
        <ele>177</ele>
        <time>2021-07-22T09:33:54.286Z</time>
      </trkpt>
      <trkpt lat="48.51852" lon="-3.49615">
        <ele>177</ele>
        <time>2021-07-22T09:33:59.280Z</time>
      </trkpt>
      <trkpt lat="48.51851" lon="-3.49623">
        <ele>177</ele>
        <time>2021-07-22T09:34:04.254Z</time>
      </trkpt>
      <trkpt lat="48.51849" lon="-3.4963">
        <ele>178</ele>
        <time>2021-07-22T09:34:08.287Z</time>
      </trkpt>
      <trkpt lat="48.51845" lon="-3.49635">
        <ele>176</ele>
        <time>2021-07-22T09:34:13.265Z</time>
      </trkpt>
      <trkpt lat="48.51839" lon="-3.49641">
        <ele>176</ele>
        <time>2021-07-22T09:34:18.284Z</time>
      </trkpt>
      <trkpt lat="48.51834" lon="-3.49646">
        <ele>176</ele>
        <time>2021-07-22T09:34:23.256Z</time>
      </trkpt>
      <trkpt lat="48.51829" lon="-3.49651">
        <ele>176</ele>
        <time>2021-07-22T09:34:27.282Z</time>
      </trkpt>
      <trkpt lat="48.51824" lon="-3.49655">
        <ele>177</ele>
        <time>2021-07-22T09:34:32.282Z</time>
      </trkpt>
      <trkpt lat="48.51818" lon="-3.49659">
        <ele>175</ele>
        <time>2021-07-22T09:34:37.276Z</time>
      </trkpt>
      <trkpt lat="48.51813" lon="-3.49663">
        <ele>175</ele>
        <time>2021-07-22T09:34:42.287Z</time>
      </trkpt>
      <trkpt lat="48.51808" lon="-3.49667">
        <ele>175</ele>
        <time>2021-07-22T09:34:47.278Z</time>
      </trkpt>
      <trkpt lat="48.51801" lon="-3.4967">
        <ele>175</ele>
        <time>2021-07-22T09:34:52.278Z</time>
      </trkpt>
      <trkpt lat="48.51795" lon="-3.49675">
        <ele>175</ele>
        <time>2021-07-22T09:34:57.276Z</time>
      </trkpt>
      <trkpt lat="48.51789" lon="-3.49678">
        <ele>174</ele>
        <time>2021-07-22T09:35:02.266Z</time>
      </trkpt>
      <trkpt lat="48.51782" lon="-3.4968">
        <ele>174</ele>
        <time>2021-07-22T09:35:07.272Z</time>
      </trkpt>
      <trkpt lat="48.51777" lon="-3.49679">
        <ele>174</ele>
        <time>2021-07-22T09:35:12.259Z</time>
      </trkpt>
      <trkpt lat="48.51771" lon="-3.4968">
        <ele>174</ele>
        <time>2021-07-22T09:35:17.269Z</time>
      </trkpt>
      <trkpt lat="48.51766" lon="-3.49681">
        <ele>176</ele>
        <time>2021-07-22T09:35:21.278Z</time>
      </trkpt>
      <trkpt lat="48.51759" lon="-3.49682">
        <ele>176</ele>
        <time>2021-07-22T09:35:26.268Z</time>
      </trkpt>
      <trkpt lat="48.51753" lon="-3.49682">
        <ele>176</ele>
        <time>2021-07-22T09:35:30.288Z</time>
      </trkpt>
      <trkpt lat="48.51748" lon="-3.49683">
        <ele>176</ele>
        <time>2021-07-22T09:35:35.266Z</time>
      </trkpt>
      <trkpt lat="48.51744" lon="-3.49685">
        <ele>176</ele>
        <time>2021-07-22T09:35:40.271Z</time>
      </trkpt>
      <trkpt lat="48.51738" lon="-3.49684">
        <ele>176</ele>
        <time>2021-07-22T09:35:45.280Z</time>
      </trkpt>
      <trkpt lat="48.51733" lon="-3.49684">
        <ele>175</ele>
        <time>2021-07-22T09:35:50.278Z</time>
      </trkpt>
      <trkpt lat="48.51728" lon="-3.49683">
        <ele>175</ele>
        <time>2021-07-22T09:35:55.265Z</time>
      </trkpt>
      <trkpt lat="48.51722" lon="-3.49682">
        <ele>175</ele>
        <time>2021-07-22T09:36:00.261Z</time>
      </trkpt>
      <trkpt lat="48.51717" lon="-3.49682">
        <ele>175</ele>
        <time>2021-07-22T09:36:04.287Z</time>
      </trkpt>
      <trkpt lat="48.51711" lon="-3.49683">
        <ele>175</ele>
        <time>2021-07-22T09:36:09.263Z</time>
      </trkpt>
      <trkpt lat="48.51706" lon="-3.49682">
        <ele>175</ele>
        <time>2021-07-22T09:36:14.306Z</time>
      </trkpt>
      <trkpt lat="48.517" lon="-3.49682">
        <ele>175</ele>
        <time>2021-07-22T09:36:19.275Z</time>
      </trkpt>
      <trkpt lat="48.51695" lon="-3.49684">
        <ele>175</ele>
        <time>2021-07-22T09:36:24.275Z</time>
      </trkpt>
      <trkpt lat="48.51689" lon="-3.49686">
        <ele>175</ele>
        <time>2021-07-22T09:36:29.260Z</time>
      </trkpt>
      <trkpt lat="48.51682" lon="-3.49686">
        <ele>175</ele>
        <time>2021-07-22T09:36:33.280Z</time>
      </trkpt>
      <trkpt lat="48.51675" lon="-3.49688">
        <ele>173</ele>
        <time>2021-07-22T09:36:38.265Z</time>
      </trkpt>
      <trkpt lat="48.51669" lon="-3.4969">
        <ele>173</ele>
        <time>2021-07-22T09:36:43.264Z</time>
      </trkpt>
      <trkpt lat="48.51663" lon="-3.49691">
        <ele>173</ele>
        <time>2021-07-22T09:36:48.264Z</time>
      </trkpt>
      <trkpt lat="48.51658" lon="-3.49692">
        <ele>173</ele>
        <time>2021-07-22T09:36:52.271Z</time>
      </trkpt>
      <trkpt lat="48.51653" lon="-3.49694">
        <ele>171</ele>
        <time>2021-07-22T09:36:57.264Z</time>
      </trkpt>
      <trkpt lat="48.51646" lon="-3.49697">
        <ele>171</ele>
        <time>2021-07-22T09:37:02.285Z</time>
      </trkpt>
      <trkpt lat="48.5164" lon="-3.49699">
        <ele>171</ele>
        <time>2021-07-22T09:37:07.276Z</time>
      </trkpt>
      <trkpt lat="48.51636" lon="-3.49702">
        <ele>171</ele>
        <time>2021-07-22T09:37:11.282Z</time>
      </trkpt>
      <trkpt lat="48.5163" lon="-3.49705">
        <ele>171</ele>
        <time>2021-07-22T09:37:16.278Z</time>
      </trkpt>
      <trkpt lat="48.51623" lon="-3.49709">
        <ele>170</ele>
        <time>2021-07-22T09:37:21.284Z</time>
      </trkpt>
      <trkpt lat="48.51617" lon="-3.49714">
        <ele>170</ele>
        <time>2021-07-22T09:37:26.266Z</time>
      </trkpt>
      <trkpt lat="48.51612" lon="-3.49717">
        <ele>170</ele>
        <time>2021-07-22T09:37:30.294Z</time>
      </trkpt>
      <trkpt lat="48.51607" lon="-3.49723">
        <ele>170</ele>
        <time>2021-07-22T09:37:35.262Z</time>
      </trkpt>
      <trkpt lat="48.51601" lon="-3.49726">
        <ele>170</ele>
        <time>2021-07-22T09:37:40.258Z</time>
      </trkpt>
      <trkpt lat="48.51597" lon="-3.49731">
        <ele>168</ele>
        <time>2021-07-22T09:37:44.279Z</time>
      </trkpt>
      <trkpt lat="48.51592" lon="-3.49736">
        <ele>169</ele>
        <time>2021-07-22T09:37:49.263Z</time>
      </trkpt>
      <trkpt lat="48.51586" lon="-3.49741">
        <ele>169</ele>
        <time>2021-07-22T09:37:54.274Z</time>
      </trkpt>
      <trkpt lat="48.51583" lon="-3.49741">
        <ele>169</ele>
        <time>2021-07-22T09:37:58.279Z</time>
      </trkpt>
      <trkpt lat="48.51582" lon="-3.49741">
        <ele>169</ele>
        <time>2021-07-22T09:38:03.279Z</time>
      </trkpt>
      <trkpt lat="48.51579" lon="-3.49737">
        <ele>169</ele>
        <time>2021-07-22T09:38:56.275Z</time>
      </trkpt>
      <trkpt lat="48.51576" lon="-3.4974">
        <ele>169</ele>
        <time>2021-07-22T09:39:01.271Z</time>
      </trkpt>
      <trkpt lat="48.51574" lon="-3.49744">
        <ele>169</ele>
        <time>2021-07-22T09:39:06.293Z</time>
      </trkpt>
      <trkpt lat="48.51571" lon="-3.49746">
        <ele>169</ele>
        <time>2021-07-22T09:39:11.280Z</time>
      </trkpt>
      <trkpt lat="48.51569" lon="-3.49749">
        <ele>167</ele>
        <time>2021-07-22T09:39:16.273Z</time>
      </trkpt>
      <trkpt lat="48.51565" lon="-3.49754">
        <ele>167</ele>
        <time>2021-07-22T09:39:21.278Z</time>
      </trkpt>
      <trkpt lat="48.51562" lon="-3.49758">
        <ele>167</ele>
        <time>2021-07-22T09:39:25.291Z</time>
      </trkpt>
      <trkpt lat="48.51558" lon="-3.49762">
        <ele>167</ele>
        <time>2021-07-22T09:39:30.278Z</time>
      </trkpt>
      <trkpt lat="48.51555" lon="-3.49766">
        <ele>169</ele>
        <time>2021-07-22T09:39:35.281Z</time>
      </trkpt>
      <trkpt lat="48.51551" lon="-3.4977">
        <ele>169</ele>
        <time>2021-07-22T09:39:40.271Z</time>
      </trkpt>
      <trkpt lat="48.51547" lon="-3.49774">
        <ele>169</ele>
        <time>2021-07-22T09:39:45.280Z</time>
      </trkpt>
      <trkpt lat="48.51544" lon="-3.49778">
        <ele>169</ele>
        <time>2021-07-22T09:39:50.287Z</time>
      </trkpt>
      <trkpt lat="48.5154" lon="-3.49782">
        <ele>166</ele>
        <time>2021-07-22T09:39:55.277Z</time>
      </trkpt>
      <trkpt lat="48.51538" lon="-3.49785">
        <ele>166</ele>
        <time>2021-07-22T09:40:00.258Z</time>
      </trkpt>
      <trkpt lat="48.51534" lon="-3.49789">
        <ele>166</ele>
        <time>2021-07-22T09:40:05.278Z</time>
      </trkpt>
      <trkpt lat="48.51531" lon="-3.49793">
        <ele>167</ele>
        <time>2021-07-22T09:40:10.262Z</time>
      </trkpt>
      <trkpt lat="48.51529" lon="-3.49795">
        <ele>167</ele>
        <time>2021-07-22T09:40:14.290Z</time>
      </trkpt>
      <trkpt lat="48.51526" lon="-3.49797">
        <ele>167</ele>
        <time>2021-07-22T09:40:19.285Z</time>
      </trkpt>
      <trkpt lat="48.51524" lon="-3.49801">
        <ele>167</ele>
        <time>2021-07-22T09:40:24.287Z</time>
      </trkpt>
      <trkpt lat="48.51521" lon="-3.49807">
        <ele>167</ele>
        <time>2021-07-22T09:40:29.280Z</time>
      </trkpt>
      <trkpt lat="48.51518" lon="-3.4981">
        <ele>167</ele>
        <time>2021-07-22T09:40:34.282Z</time>
      </trkpt>
      <trkpt lat="48.51516" lon="-3.49813">
        <ele>167</ele>
        <time>2021-07-22T09:40:39.282Z</time>
      </trkpt>
      <trkpt lat="48.51513" lon="-3.49816">
        <ele>164</ele>
        <time>2021-07-22T09:40:44.293Z</time>
      </trkpt>
      <trkpt lat="48.5151" lon="-3.49818">
        <ele>164</ele>
        <time>2021-07-22T09:40:49.261Z</time>
      </trkpt>
      <trkpt lat="48.51508" lon="-3.49821">
        <ele>164</ele>
        <time>2021-07-22T09:40:54.261Z</time>
      </trkpt>
      <trkpt lat="48.51506" lon="-3.49824">
        <ele>164</ele>
        <time>2021-07-22T09:41:03.275Z</time>
      </trkpt>
      <trkpt lat="48.51504" lon="-3.49826">
        <ele>164</ele>
        <time>2021-07-22T09:41:08.279Z</time>
      </trkpt>
      <trkpt lat="48.51504" lon="-3.49826">
        <ele>164</ele>
        <time>2021-07-22T09:41:13.278Z</time>
      </trkpt>
      <trkpt lat="48.51502" lon="-3.4983">
        <ele>164</ele>
        <time>2021-07-22T09:41:18.272Z</time>
      </trkpt>
      <trkpt lat="48.51499" lon="-3.49833">
        <ele>164</ele>
        <time>2021-07-22T09:41:23.263Z</time>
      </trkpt>
      <trkpt lat="48.51496" lon="-3.49838">
        <ele>164</ele>
        <time>2021-07-22T09:41:28.258Z</time>
      </trkpt>
      <trkpt lat="48.51494" lon="-3.4984">
        <ele>164</ele>
        <time>2021-07-22T09:41:33.264Z</time>
      </trkpt>
      <trkpt lat="48.51493" lon="-3.49842">
        <ele>164</ele>
        <time>2021-07-22T09:41:38.274Z</time>
      </trkpt>
      <trkpt lat="48.5149" lon="-3.49846">
        <ele>164</ele>
        <time>2021-07-22T09:41:43.267Z</time>
      </trkpt>
      <trkpt lat="48.51488" lon="-3.49848">
        <ele>164</ele>
        <time>2021-07-22T09:41:47.283Z</time>
      </trkpt>
      <trkpt lat="48.51487" lon="-3.4985">
        <ele>164</ele>
        <time>2021-07-22T09:41:52.272Z</time>
      </trkpt>
      <trkpt lat="48.51484" lon="-3.49855">
        <ele>162</ele>
        <time>2021-07-22T09:41:57.276Z</time>
      </trkpt>
      <trkpt lat="48.51482" lon="-3.49859">
        <ele>162</ele>
        <time>2021-07-22T09:42:02.282Z</time>
      </trkpt>
      <trkpt lat="48.5148" lon="-3.49864">
        <ele>162</ele>
        <time>2021-07-22T09:42:07.279Z</time>
      </trkpt>
      <trkpt lat="48.51478" lon="-3.49867">
        <ele>162</ele>
        <time>2021-07-22T09:42:12.269Z</time>
      </trkpt>
      <trkpt lat="48.51477" lon="-3.49868">
        <ele>162</ele>
        <time>2021-07-22T09:42:16.273Z</time>
      </trkpt>
      <trkpt lat="48.51473" lon="-3.49874">
        <ele>162</ele>
        <time>2021-07-22T09:42:21.284Z</time>
      </trkpt>
      <trkpt lat="48.51471" lon="-3.49879">
        <ele>163</ele>
        <time>2021-07-22T09:42:26.269Z</time>
      </trkpt>
      <trkpt lat="48.51469" lon="-3.49881">
        <ele>163</ele>
        <time>2021-07-22T09:42:31.264Z</time>
      </trkpt>
      <trkpt lat="48.51468" lon="-3.49883">
        <ele>163</ele>
        <time>2021-07-22T09:42:35.281Z</time>
      </trkpt>
      <trkpt lat="48.51466" lon="-3.49887">
        <ele>163</ele>
        <time>2021-07-22T09:42:40.266Z</time>
      </trkpt>
      <trkpt lat="48.51464" lon="-3.49888">
        <ele>163</ele>
        <time>2021-07-22T09:42:44.267Z</time>
      </trkpt>
      <trkpt lat="48.51462" lon="-3.49891">
        <ele>163</ele>
        <time>2021-07-22T09:42:49.276Z</time>
      </trkpt>
      <trkpt lat="48.5146" lon="-3.49894">
        <ele>163</ele>
        <time>2021-07-22T09:42:54.275Z</time>
      </trkpt>
      <trkpt lat="48.51458" lon="-3.49898">
        <ele>162</ele>
        <time>2021-07-22T09:42:59.281Z</time>
      </trkpt>
      <trkpt lat="48.51455" lon="-3.49901">
        <ele>162</ele>
        <time>2021-07-22T09:43:04.278Z</time>
      </trkpt>
      <trkpt lat="48.51455" lon="-3.49904">
        <ele>163</ele>
        <time>2021-07-22T09:43:09.269Z</time>
      </trkpt>
      <trkpt lat="48.51453" lon="-3.49907">
        <ele>163</ele>
        <time>2021-07-22T09:43:13.267Z</time>
      </trkpt>
      <trkpt lat="48.51448" lon="-3.49924">
        <ele>163</ele>
        <time>2021-07-22T09:44:06.275Z</time>
      </trkpt>
      <trkpt lat="48.51447" lon="-3.49927">
        <ele>163</ele>
        <time>2021-07-22T09:44:11.292Z</time>
      </trkpt>
      <trkpt lat="48.51443" lon="-3.4993">
        <ele>163</ele>
        <time>2021-07-22T09:44:16.268Z</time>
      </trkpt>
      <trkpt lat="48.51439" lon="-3.49931">
        <ele>165</ele>
        <time>2021-07-22T09:44:21.269Z</time>
      </trkpt>
      <trkpt lat="48.51437" lon="-3.49933">
        <ele>165</ele>
        <time>2021-07-22T09:44:25.261Z</time>
      </trkpt>
      <trkpt lat="48.51434" lon="-3.49938">
        <ele>165</ele>
        <time>2021-07-22T09:44:30.271Z</time>
      </trkpt>
      <trkpt lat="48.51429" lon="-3.49942">
        <ele>163</ele>
        <time>2021-07-22T09:44:35.261Z</time>
      </trkpt>
      <trkpt lat="48.51425" lon="-3.49947">
        <ele>163</ele>
        <time>2021-07-22T09:44:40.261Z</time>
      </trkpt>
      <trkpt lat="48.5142" lon="-3.49954">
        <ele>163</ele>
        <time>2021-07-22T09:44:45.256Z</time>
      </trkpt>
      <trkpt lat="48.51417" lon="-3.49958">
        <ele>163</ele>
        <time>2021-07-22T09:44:49.283Z</time>
      </trkpt>
      <trkpt lat="48.51412" lon="-3.49963">
        <ele>165</ele>
        <time>2021-07-22T09:44:54.275Z</time>
      </trkpt>
      <trkpt lat="48.51408" lon="-3.49971">
        <ele>165</ele>
        <time>2021-07-22T09:44:59.281Z</time>
      </trkpt>
      <trkpt lat="48.51404" lon="-3.49976">
        <ele>165</ele>
        <time>2021-07-22T09:45:03.257Z</time>
      </trkpt>
      <trkpt lat="48.51402" lon="-3.4998">
        <ele>163</ele>
        <time>2021-07-22T09:45:08.271Z</time>
      </trkpt>
      <trkpt lat="48.51397" lon="-3.49986">
        <ele>163</ele>
        <time>2021-07-22T09:45:13.266Z</time>
      </trkpt>
      <trkpt lat="48.51394" lon="-3.49992">
        <ele>166</ele>
        <time>2021-07-22T09:45:18.271Z</time>
      </trkpt>
      <trkpt lat="48.51392" lon="-3.49992">
        <ele>166</ele>
        <time>2021-07-22T09:45:23.265Z</time>
      </trkpt>
      <trkpt lat="48.51389" lon="-3.49996">
        <ele>166</ele>
        <time>2021-07-22T09:46:17.257Z</time>
      </trkpt>
      <trkpt lat="48.51388" lon="-3.49997">
        <ele>166</ele>
        <time>2021-07-22T09:46:22.266Z</time>
      </trkpt>
      <trkpt lat="48.51385" lon="-3.49998">
        <ele>166</ele>
        <time>2021-07-22T09:46:27.269Z</time>
      </trkpt>
      <trkpt lat="48.51384" lon="-3.49998">
        <ele>166</ele>
        <time>2021-07-22T09:46:32.274Z</time>
      </trkpt>
      <trkpt lat="48.5138" lon="-3.49998">
        <ele>166</ele>
        <time>2021-07-22T09:46:37.275Z</time>
      </trkpt>
      <trkpt lat="48.5138" lon="-3.49992">
        <ele>166</ele>
        <time>2021-07-22T09:46:42.272Z</time>
      </trkpt>
      <trkpt lat="48.5138" lon="-3.49994">
        <ele>166</ele>
        <time>2021-07-22T09:46:47.274Z</time>
      </trkpt>
      <trkpt lat="48.51377" lon="-3.49999">
        <ele>166</ele>
        <time>2021-07-22T09:46:52.261Z</time>
      </trkpt>
      <trkpt lat="48.51375" lon="-3.50005">
        <ele>164</ele>
        <time>2021-07-22T09:46:57.269Z</time>
      </trkpt>
      <trkpt lat="48.51372" lon="-3.50012">
        <ele>164</ele>
        <time>2021-07-22T09:47:02.267Z</time>
      </trkpt>
      <trkpt lat="48.51368" lon="-3.50018">
        <ele>167</ele>
        <time>2021-07-22T09:47:07.273Z</time>
      </trkpt>
      <trkpt lat="48.51366" lon="-3.5002">
        <ele>167</ele>
        <time>2021-07-22T09:47:12.277Z</time>
      </trkpt>
      <trkpt lat="48.51362" lon="-3.50029">
        <ele>167</ele>
        <time>2021-07-22T09:47:17.262Z</time>
      </trkpt>
      <trkpt lat="48.51359" lon="-3.50036">
        <ele>167</ele>
        <time>2021-07-22T09:47:22.276Z</time>
      </trkpt>
      <trkpt lat="48.51357" lon="-3.5004">
        <ele>167</ele>
        <time>2021-07-22T09:47:26.278Z</time>
      </trkpt>
      <trkpt lat="48.51355" lon="-3.50048">
        <ele>169</ele>
        <time>2021-07-22T09:47:31.264Z</time>
      </trkpt>
      <trkpt lat="48.51354" lon="-3.50053">
        <ele>169</ele>
        <time>2021-07-22T09:47:35.255Z</time>
      </trkpt>
      <trkpt lat="48.51352" lon="-3.50062">
        <ele>169</ele>
        <time>2021-07-22T09:47:40.257Z</time>
      </trkpt>
      <trkpt lat="48.51351" lon="-3.50069">
        <ele>169</ele>
        <time>2021-07-22T09:47:44.265Z</time>
      </trkpt>
      <trkpt lat="48.5135" lon="-3.50075">
        <ele>170</ele>
        <time>2021-07-22T09:47:49.270Z</time>
      </trkpt>
      <trkpt lat="48.51348" lon="-3.50083">
        <ele>170</ele>
        <time>2021-07-22T09:47:54.280Z</time>
      </trkpt>
      <trkpt lat="48.51345" lon="-3.50088">
        <ele>169</ele>
        <time>2021-07-22T09:47:58.275Z</time>
      </trkpt>
      <trkpt lat="48.51345" lon="-3.5009">
        <ele>169</ele>
        <time>2021-07-22T09:48:03.271Z</time>
      </trkpt>
      <trkpt lat="48.51341" lon="-3.50094">
        <ele>169</ele>
        <time>2021-07-22T09:48:08.272Z</time>
      </trkpt>
      <trkpt lat="48.51338" lon="-3.50098">
        <ele>171</ele>
        <time>2021-07-22T09:48:13.273Z</time>
      </trkpt>
      <trkpt lat="48.51333" lon="-3.50104">
        <ele>171</ele>
        <time>2021-07-22T09:48:28.263Z</time>
      </trkpt>
      <trkpt lat="48.51333" lon="-3.50106">
        <ele>171</ele>
        <time>2021-07-22T09:48:33.283Z</time>
      </trkpt>
      <trkpt lat="48.51334" lon="-3.50111">
        <ele>171</ele>
        <time>2021-07-22T09:48:38.271Z</time>
      </trkpt>
      <trkpt lat="48.51333" lon="-3.50112">
        <ele>171</ele>
        <time>2021-07-22T09:48:42.273Z</time>
      </trkpt>
      <trkpt lat="48.5133" lon="-3.50111">
        <ele>171</ele>
        <time>2021-07-22T09:48:47.255Z</time>
      </trkpt>
      <trkpt lat="48.51329" lon="-3.50111">
        <ele>171</ele>
        <time>2021-07-22T09:48:52.272Z</time>
      </trkpt>
      <trkpt lat="48.51329" lon="-3.5011">
        <ele>171</ele>
        <time>2021-07-22T09:48:57.266Z</time>
      </trkpt>
      <trkpt lat="48.51327" lon="-3.50115">
        <ele>171</ele>
        <time>2021-07-22T09:49:02.269Z</time>
      </trkpt>
      <trkpt lat="48.51324" lon="-3.50119">
        <ele>171</ele>
        <time>2021-07-22T09:49:07.259Z</time>
      </trkpt>
      <trkpt lat="48.5132" lon="-3.50123">
        <ele>171</ele>
        <time>2021-07-22T09:49:12.263Z</time>
      </trkpt>
      <trkpt lat="48.51317" lon="-3.50127">
        <ele>170</ele>
        <time>2021-07-22T09:49:17.256Z</time>
      </trkpt>
      <trkpt lat="48.51315" lon="-3.5013">
        <ele>170</ele>
        <time>2021-07-22T09:49:22.282Z</time>
      </trkpt>
      <trkpt lat="48.51313" lon="-3.50132">
        <ele>170</ele>
        <time>2021-07-22T09:49:27.269Z</time>
      </trkpt>
      <trkpt lat="48.51307" lon="-3.5014">
        <ele>170</ele>
        <time>2021-07-22T09:49:32.280Z</time>
      </trkpt>
      <trkpt lat="48.51304" lon="-3.50144">
        <ele>170</ele>
        <time>2021-07-22T09:49:37.274Z</time>
      </trkpt>
      <trkpt lat="48.51302" lon="-3.50149">
        <ele>170</ele>
        <time>2021-07-22T09:49:42.270Z</time>
      </trkpt>
      <trkpt lat="48.513" lon="-3.50153">
        <ele>170</ele>
        <time>2021-07-22T09:49:47.256Z</time>
      </trkpt>
      <trkpt lat="48.51296" lon="-3.50161">
        <ele>170</ele>
        <time>2021-07-22T09:49:52.244Z</time>
      </trkpt>
      <trkpt lat="48.51294" lon="-3.50165">
        <ele>170</ele>
        <time>2021-07-22T09:49:56.260Z</time>
      </trkpt>
      <trkpt lat="48.5129" lon="-3.50169">
        <ele>170</ele>
        <time>2021-07-22T09:50:01.249Z</time>
      </trkpt>
      <trkpt lat="48.5129" lon="-3.50172">
        <ele>170</ele>
        <time>2021-07-22T09:50:06.280Z</time>
      </trkpt>
      <trkpt lat="48.51287" lon="-3.5018">
        <ele>170</ele>
        <time>2021-07-22T09:50:11.273Z</time>
      </trkpt>
      <trkpt lat="48.51287" lon="-3.50182">
        <ele>171</ele>
        <time>2021-07-22T09:50:35.256Z</time>
      </trkpt>
      <trkpt lat="48.51285" lon="-3.50184">
        <ele>171</ele>
        <time>2021-07-22T09:50:40.247Z</time>
      </trkpt>
      <trkpt lat="48.51285" lon="-3.50185">
        <ele>171</ele>
        <time>2021-07-22T09:50:45.251Z</time>
      </trkpt>
      <trkpt lat="48.51282" lon="-3.50189">
        <ele>171</ele>
        <time>2021-07-22T09:50:50.274Z</time>
      </trkpt>
      <trkpt lat="48.51278" lon="-3.50196">
        <ele>171</ele>
        <time>2021-07-22T09:50:55.278Z</time>
      </trkpt>
      <trkpt lat="48.51301" lon="-3.50184">
        <ele>170</ele>
        <time>2021-07-22T09:51:01.249Z</time>
      </trkpt>
      <trkpt lat="48.51276" lon="-3.50203">
        <ele>171</ele>
        <time>2021-07-22T09:51:05.283Z</time>
      </trkpt>
      <trkpt lat="48.51272" lon="-3.50216">
        <ele>172</ele>
        <time>2021-07-22T09:51:10.262Z</time>
      </trkpt>
      <trkpt lat="48.51268" lon="-3.50224">
        <ele>172</ele>
        <time>2021-07-22T09:51:15.272Z</time>
      </trkpt>
      <trkpt lat="48.51267" lon="-3.50227">
        <ele>172</ele>
        <time>2021-07-22T09:51:20.250Z</time>
      </trkpt>
      <trkpt lat="48.51264" lon="-3.50231">
        <ele>172</ele>
        <time>2021-07-22T09:51:25.264Z</time>
      </trkpt>
      <trkpt lat="48.51264" lon="-3.50232">
        <ele>172</ele>
        <time>2021-07-22T09:51:30.266Z</time>
      </trkpt>
      <trkpt lat="48.51262" lon="-3.50235">
        <ele>172</ele>
        <time>2021-07-22T09:51:35.280Z</time>
      </trkpt>
      <trkpt lat="48.51257" lon="-3.50238">
        <ele>172</ele>
        <time>2021-07-22T09:51:39.267Z</time>
      </trkpt>
      <trkpt lat="48.51255" lon="-3.50245">
        <ele>172</ele>
        <time>2021-07-22T09:51:44.252Z</time>
      </trkpt>
      <trkpt lat="48.51251" lon="-3.50252">
        <ele>172</ele>
        <time>2021-07-22T09:51:49.273Z</time>
      </trkpt>
      <trkpt lat="48.51249" lon="-3.50254">
        <ele>172</ele>
        <time>2021-07-22T09:51:54.270Z</time>
      </trkpt>
      <trkpt lat="48.51242" lon="-3.50261">
        <ele>172</ele>
        <time>2021-07-22T09:51:59.274Z</time>
      </trkpt>
      <trkpt lat="48.5124" lon="-3.50266">
        <ele>173</ele>
        <time>2021-07-22T09:52:04.266Z</time>
      </trkpt>
      <trkpt lat="48.51239" lon="-3.5027">
        <ele>173</ele>
        <time>2021-07-22T09:52:09.281Z</time>
      </trkpt>
      <trkpt lat="48.51233" lon="-3.50277">
        <ele>173</ele>
        <time>2021-07-22T09:52:14.259Z</time>
      </trkpt>
      <trkpt lat="48.51228" lon="-3.50283">
        <ele>173</ele>
        <time>2021-07-22T09:52:19.267Z</time>
      </trkpt>
      <trkpt lat="48.51226" lon="-3.5029">
        <ele>173</ele>
        <time>2021-07-22T09:52:24.263Z</time>
      </trkpt>
      <trkpt lat="48.51223" lon="-3.50298">
        <ele>173</ele>
        <time>2021-07-22T09:52:28.253Z</time>
      </trkpt>
      <trkpt lat="48.5122" lon="-3.50304">
        <ele>173</ele>
        <time>2021-07-22T09:52:32.245Z</time>
      </trkpt>
      <trkpt lat="48.51219" lon="-3.5031">
        <ele>173</ele>
        <time>2021-07-22T09:52:37.269Z</time>
      </trkpt>
      <trkpt lat="48.51202" lon="-3.50344">
        <ele>173</ele>
        <time>2021-07-22T09:53:08.255Z</time>
      </trkpt>
      <trkpt lat="48.51202" lon="-3.50346">
        <ele>173</ele>
        <time>2021-07-22T09:53:13.271Z</time>
      </trkpt>
      <trkpt lat="48.51201" lon="-3.50347">
        <ele>172</ele>
        <time>2021-07-22T09:53:18.263Z</time>
      </trkpt>
      <trkpt lat="48.51201" lon="-3.50349">
        <ele>172</ele>
        <time>2021-07-22T09:53:23.263Z</time>
      </trkpt>
      <trkpt lat="48.51199" lon="-3.50351">
        <ele>172</ele>
        <time>2021-07-22T09:53:28.274Z</time>
      </trkpt>
      <trkpt lat="48.51207" lon="-3.50357">
        <ele>172</ele>
        <time>2021-07-22T09:56:15.264Z</time>
      </trkpt>
      <trkpt lat="48.51206" lon="-3.5036">
        <ele>172</ele>
        <time>2021-07-22T09:56:20.270Z</time>
      </trkpt>
      <trkpt lat="48.51205" lon="-3.50363">
        <ele>172</ele>
        <time>2021-07-22T09:56:25.272Z</time>
      </trkpt>
      <trkpt lat="48.51202" lon="-3.50368">
        <ele>172</ele>
        <time>2021-07-22T09:56:30.272Z</time>
      </trkpt>
      <trkpt lat="48.51201" lon="-3.50377">
        <ele>174</ele>
        <time>2021-07-22T09:56:35.263Z</time>
      </trkpt>
      <trkpt lat="48.512" lon="-3.5038">
        <ele>174</ele>
        <time>2021-07-22T09:56:40.273Z</time>
      </trkpt>
      <trkpt lat="48.51197" lon="-3.50387">
        <ele>174</ele>
        <time>2021-07-22T09:56:45.277Z</time>
      </trkpt>
      <trkpt lat="48.51193" lon="-3.50393">
        <ele>174</ele>
        <time>2021-07-22T09:56:50.269Z</time>
      </trkpt>
      <trkpt lat="48.51189" lon="-3.50399">
        <ele>174</ele>
        <time>2021-07-22T09:56:55.268Z</time>
      </trkpt>
      <trkpt lat="48.51184" lon="-3.50401">
        <ele>174</ele>
        <time>2021-07-22T09:57:00.256Z</time>
      </trkpt>
      <trkpt lat="48.51178" lon="-3.50404">
        <ele>176</ele>
        <time>2021-07-22T09:57:05.262Z</time>
      </trkpt>
      <trkpt lat="48.51176" lon="-3.50409">
        <ele>176</ele>
        <time>2021-07-22T09:57:10.266Z</time>
      </trkpt>
      <trkpt lat="48.51173" lon="-3.50414">
        <ele>176</ele>
        <time>2021-07-22T09:57:15.252Z</time>
      </trkpt>
      <trkpt lat="48.5117" lon="-3.5042">
        <ele>176</ele>
        <time>2021-07-22T09:57:20.270Z</time>
      </trkpt>
      <trkpt lat="48.51167" lon="-3.50427">
        <ele>176</ele>
        <time>2021-07-22T09:57:25.270Z</time>
      </trkpt>
      <trkpt lat="48.51164" lon="-3.50437">
        <ele>179</ele>
        <time>2021-07-22T09:57:30.272Z</time>
      </trkpt>
      <trkpt lat="48.51163" lon="-3.50444">
        <ele>179</ele>
        <time>2021-07-22T09:57:35.280Z</time>
      </trkpt>
      <trkpt lat="48.51162" lon="-3.50449">
        <ele>179</ele>
        <time>2021-07-22T09:57:40.269Z</time>
      </trkpt>
      <trkpt lat="48.5116" lon="-3.5045">
        <ele>179</ele>
        <time>2021-07-22T09:57:45.273Z</time>
      </trkpt>
      <trkpt lat="48.51157" lon="-3.50452">
        <ele>179</ele>
        <time>2021-07-22T09:57:50.271Z</time>
      </trkpt>
      <trkpt lat="48.51156" lon="-3.50457">
        <ele>179</ele>
        <time>2021-07-22T09:57:55.267Z</time>
      </trkpt>
      <trkpt lat="48.51156" lon="-3.50462">
        <ele>182</ele>
        <time>2021-07-22T09:58:00.266Z</time>
      </trkpt>
      <trkpt lat="48.51157" lon="-3.50462">
        <ele>182</ele>
        <time>2021-07-22T09:58:05.253Z</time>
      </trkpt>
      <trkpt lat="48.51158" lon="-3.50463">
        <ele>182</ele>
        <time>2021-07-22T09:58:09.272Z</time>
      </trkpt>
      <trkpt lat="48.5116" lon="-3.50463">
        <ele>182</ele>
        <time>2021-07-22T09:58:14.273Z</time>
      </trkpt>
      <trkpt lat="48.51162" lon="-3.50468">
        <ele>182</ele>
        <time>2021-07-22T09:58:19.272Z</time>
      </trkpt>
      <trkpt lat="48.51166" lon="-3.50471">
        <ele>182</ele>
        <time>2021-07-22T09:58:24.275Z</time>
      </trkpt>
      <trkpt lat="48.51169" lon="-3.50475">
        <ele>182</ele>
        <time>2021-07-22T09:58:29.249Z</time>
      </trkpt>
      <trkpt lat="48.5117" lon="-3.50479">
        <ele>182</ele>
        <time>2021-07-22T09:58:34.252Z</time>
      </trkpt>
      <trkpt lat="48.51171" lon="-3.50484">
        <ele>182</ele>
        <time>2021-07-22T09:58:38.268Z</time>
      </trkpt>
      <trkpt lat="48.51172" lon="-3.5049">
        <ele>184</ele>
        <time>2021-07-22T09:58:43.277Z</time>
      </trkpt>
      <trkpt lat="48.51174" lon="-3.50496">
        <ele>184</ele>
        <time>2021-07-22T09:58:48.258Z</time>
      </trkpt>
      <trkpt lat="48.51177" lon="-3.50501">
        <ele>184</ele>
        <time>2021-07-22T09:58:53.258Z</time>
      </trkpt>
      <trkpt lat="48.51178" lon="-3.50505">
        <ele>184</ele>
        <time>2021-07-22T09:58:58.278Z</time>
      </trkpt>
      <trkpt lat="48.51181" lon="-3.5051">
        <ele>186</ele>
        <time>2021-07-22T09:59:03.275Z</time>
      </trkpt>
      <trkpt lat="48.51183" lon="-3.50516">
        <ele>188</ele>
        <time>2021-07-22T09:59:08.271Z</time>
      </trkpt>
      <trkpt lat="48.51185" lon="-3.5052">
        <ele>188</ele>
        <time>2021-07-22T09:59:13.273Z</time>
      </trkpt>
      <trkpt lat="48.51187" lon="-3.50524">
        <ele>188</ele>
        <time>2021-07-22T09:59:17.271Z</time>
      </trkpt>
      <trkpt lat="48.51191" lon="-3.50528">
        <ele>188</ele>
        <time>2021-07-22T09:59:22.275Z</time>
      </trkpt>
      <trkpt lat="48.51196" lon="-3.50531">
        <ele>188</ele>
        <time>2021-07-22T09:59:27.267Z</time>
      </trkpt>
      <trkpt lat="48.512" lon="-3.50539">
        <ele>188</ele>
        <time>2021-07-22T09:59:32.266Z</time>
      </trkpt>
      <trkpt lat="48.51201" lon="-3.50544">
        <ele>189</ele>
        <time>2021-07-22T09:59:36.274Z</time>
      </trkpt>
      <trkpt lat="48.51204" lon="-3.5055">
        <ele>189</ele>
        <time>2021-07-22T09:59:41.262Z</time>
      </trkpt>
      <trkpt lat="48.51206" lon="-3.50554">
        <ele>189</ele>
        <time>2021-07-22T09:59:46.257Z</time>
      </trkpt>
      <trkpt lat="48.51209" lon="-3.50559">
        <ele>189</ele>
        <time>2021-07-22T09:59:51.274Z</time>
      </trkpt>
      <trkpt lat="48.51212" lon="-3.50564">
        <ele>189</ele>
        <time>2021-07-22T09:59:56.272Z</time>
      </trkpt>
      <trkpt lat="48.51217" lon="-3.50568">
        <ele>189</ele>
        <time>2021-07-22T10:00:01.271Z</time>
      </trkpt>
      <trkpt lat="48.51221" lon="-3.50573">
        <ele>190</ele>
        <time>2021-07-22T10:00:06.270Z</time>
      </trkpt>
      <trkpt lat="48.51226" lon="-3.50577">
        <ele>190</ele>
        <time>2021-07-22T10:00:11.266Z</time>
      </trkpt>
      <trkpt lat="48.51229" lon="-3.50582">
        <ele>190</ele>
        <time>2021-07-22T10:00:16.271Z</time>
      </trkpt>
      <trkpt lat="48.51232" lon="-3.50588">
        <ele>190</ele>
        <time>2021-07-22T10:00:21.261Z</time>
      </trkpt>
      <trkpt lat="48.51234" lon="-3.50591">
        <ele>190</ele>
        <time>2021-07-22T10:00:26.259Z</time>
      </trkpt>
      <trkpt lat="48.51238" lon="-3.50597">
        <ele>191</ele>
        <time>2021-07-22T10:00:31.265Z</time>
      </trkpt>
      <trkpt lat="48.51239" lon="-3.50604">
        <ele>194</ele>
        <time>2021-07-22T10:00:36.263Z</time>
      </trkpt>
      <trkpt lat="48.51242" lon="-3.50608">
        <ele>194</ele>
        <time>2021-07-22T10:00:40.282Z</time>
      </trkpt>
      <trkpt lat="48.51248" lon="-3.50615">
        <ele>194</ele>
        <time>2021-07-22T10:00:50.267Z</time>
      </trkpt>
      <trkpt lat="48.51249" lon="-3.50615">
        <ele>194</ele>
        <time>2021-07-22T10:00:55.272Z</time>
      </trkpt>
      <trkpt lat="48.51249" lon="-3.50615">
        <ele>194</ele>
        <time>2021-07-22T10:01:00.266Z</time>
      </trkpt>
      <trkpt lat="48.51253" lon="-3.50616">
        <ele>194</ele>
        <time>2021-07-22T10:01:04.277Z</time>
      </trkpt>
      <trkpt lat="48.51259" lon="-3.50617">
        <ele>194</ele>
        <time>2021-07-22T10:01:09.274Z</time>
      </trkpt>
      <trkpt lat="48.51262" lon="-3.50622">
        <ele>194</ele>
        <time>2021-07-22T10:01:13.285Z</time>
      </trkpt>
      <trkpt lat="48.51266" lon="-3.50627">
        <ele>198</ele>
        <time>2021-07-22T10:01:18.263Z</time>
      </trkpt>
      <trkpt lat="48.51269" lon="-3.50635">
        <ele>198</ele>
        <time>2021-07-22T10:01:23.265Z</time>
      </trkpt>
      <trkpt lat="48.5127" lon="-3.50643">
        <ele>198</ele>
        <time>2021-07-22T10:01:28.259Z</time>
      </trkpt>
      <trkpt lat="48.51274" lon="-3.50648">
        <ele>198</ele>
        <time>2021-07-22T10:01:32.278Z</time>
      </trkpt>
      <trkpt lat="48.51277" lon="-3.50654">
        <ele>199</ele>
        <time>2021-07-22T10:01:37.271Z</time>
      </trkpt>
      <trkpt lat="48.51279" lon="-3.50654">
        <ele>199</ele>
        <time>2021-07-22T10:01:42.273Z</time>
      </trkpt>
      <trkpt lat="48.51284" lon="-3.50661">
        <ele>199</ele>
        <time>2021-07-22T10:01:47.265Z</time>
      </trkpt>
      <trkpt lat="48.51289" lon="-3.50667">
        <ele>199</ele>
        <time>2021-07-22T10:01:52.278Z</time>
      </trkpt>
      <trkpt lat="48.5129" lon="-3.50668">
        <ele>199</ele>
        <time>2021-07-22T10:01:57.267Z</time>
      </trkpt>
      <trkpt lat="48.51293" lon="-3.50671">
        <ele>200</ele>
        <time>2021-07-22T10:02:02.270Z</time>
      </trkpt>
      <trkpt lat="48.51298" lon="-3.50679">
        <ele>200</ele>
        <time>2021-07-22T10:02:07.262Z</time>
      </trkpt>
      <trkpt lat="48.513" lon="-3.50685">
        <ele>200</ele>
        <time>2021-07-22T10:02:12.273Z</time>
      </trkpt>
      <trkpt lat="48.51303" lon="-3.50691">
        <ele>200</ele>
        <time>2021-07-22T10:02:17.259Z</time>
      </trkpt>
      <trkpt lat="48.51307" lon="-3.50697">
        <ele>200</ele>
        <time>2021-07-22T10:02:22.258Z</time>
      </trkpt>
      <trkpt lat="48.5131" lon="-3.50704">
        <ele>200</ele>
        <time>2021-07-22T10:02:27.248Z</time>
      </trkpt>
      <trkpt lat="48.51314" lon="-3.5071">
        <ele>201</ele>
        <time>2021-07-22T10:02:32.257Z</time>
      </trkpt>
      <trkpt lat="48.51317" lon="-3.50715">
        <ele>201</ele>
        <time>2021-07-22T10:02:37.271Z</time>
      </trkpt>
      <trkpt lat="48.51322" lon="-3.50721">
        <ele>199</ele>
        <time>2021-07-22T10:02:42.265Z</time>
      </trkpt>
      <trkpt lat="48.51326" lon="-3.50726">
        <ele>199</ele>
        <time>2021-07-22T10:02:47.280Z</time>
      </trkpt>
      <trkpt lat="48.51329" lon="-3.50732">
        <ele>199</ele>
        <time>2021-07-22T10:02:52.267Z</time>
      </trkpt>
      <trkpt lat="48.51332" lon="-3.50736">
        <ele>199</ele>
        <time>2021-07-22T10:02:57.250Z</time>
      </trkpt>
      <trkpt lat="48.51334" lon="-3.50737">
        <ele>200</ele>
        <time>2021-07-22T10:03:02.277Z</time>
      </trkpt>
      <trkpt lat="48.51338" lon="-3.50744">
        <ele>200</ele>
        <time>2021-07-22T10:03:07.256Z</time>
      </trkpt>
      <trkpt lat="48.51342" lon="-3.5075">
        <ele>200</ele>
        <time>2021-07-22T10:03:12.257Z</time>
      </trkpt>
      <trkpt lat="48.51348" lon="-3.50755">
        <ele>200</ele>
        <time>2021-07-22T10:03:17.251Z</time>
      </trkpt>
      <trkpt lat="48.51353" lon="-3.50762">
        <ele>200</ele>
        <time>2021-07-22T10:03:22.280Z</time>
      </trkpt>
      <trkpt lat="48.5136" lon="-3.50768">
        <ele>202</ele>
        <time>2021-07-22T10:03:27.261Z</time>
      </trkpt>
      <trkpt lat="48.51366" lon="-3.50775">
        <ele>202</ele>
        <time>2021-07-22T10:03:32.284Z</time>
      </trkpt>
      <trkpt lat="48.51372" lon="-3.5078">
        <ele>202</ele>
        <time>2021-07-22T10:03:37.256Z</time>
      </trkpt>
      <trkpt lat="48.51378" lon="-3.50785">
        <ele>202</ele>
        <time>2021-07-22T10:03:42.250Z</time>
      </trkpt>
      <trkpt lat="48.51382" lon="-3.50792">
        <ele>204</ele>
        <time>2021-07-22T10:03:47.257Z</time>
      </trkpt>
      <trkpt lat="48.51388" lon="-3.50796">
        <ele>204</ele>
        <time>2021-07-22T10:03:51.250Z</time>
      </trkpt>
      <trkpt lat="48.51393" lon="-3.50803">
        <ele>204</ele>
        <time>2021-07-22T10:03:56.263Z</time>
      </trkpt>
      <trkpt lat="48.51398" lon="-3.50809">
        <ele>204</ele>
        <time>2021-07-22T10:04:01.248Z</time>
      </trkpt>
      <trkpt lat="48.51405" lon="-3.50815">
        <ele>204</ele>
        <time>2021-07-22T10:04:06.254Z</time>
      </trkpt>
      <trkpt lat="48.51409" lon="-3.50819">
        <ele>204</ele>
        <time>2021-07-22T10:04:10.273Z</time>
      </trkpt>
      <trkpt lat="48.5141" lon="-3.50821">
        <ele>205</ele>
        <time>2021-07-22T10:04:15.250Z</time>
      </trkpt>
      <trkpt lat="48.5141" lon="-3.50821">
        <ele>205</ele>
        <time>2021-07-22T10:04:20.268Z</time>
      </trkpt>
      <trkpt lat="48.51416" lon="-3.50828">
        <ele>205</ele>
        <time>2021-07-22T10:04:25.293Z</time>
      </trkpt>
      <trkpt lat="48.51422" lon="-3.50831">
        <ele>205</ele>
        <time>2021-07-22T10:04:30.254Z</time>
      </trkpt>
      <trkpt lat="48.51425" lon="-3.50836">
        <ele>205</ele>
        <time>2021-07-22T10:04:34.264Z</time>
      </trkpt>
      <trkpt lat="48.51432" lon="-3.5084">
        <ele>207</ele>
        <time>2021-07-22T10:04:39.252Z</time>
      </trkpt>
      <trkpt lat="48.51437" lon="-3.50843">
        <ele>207</ele>
        <time>2021-07-22T10:04:44.279Z</time>
      </trkpt>
      <trkpt lat="48.51442" lon="-3.50846">
        <ele>207</ele>
        <time>2021-07-22T10:04:48.295Z</time>
      </trkpt>
      <trkpt lat="48.51448" lon="-3.5085">
        <ele>208</ele>
        <time>2021-07-22T10:04:53.252Z</time>
      </trkpt>
      <trkpt lat="48.51451" lon="-3.50851">
        <ele>208</ele>
        <time>2021-07-22T10:04:58.248Z</time>
      </trkpt>
      <trkpt lat="48.51458" lon="-3.50853">
        <ele>208</ele>
        <time>2021-07-22T10:05:03.257Z</time>
      </trkpt>
      <trkpt lat="48.51463" lon="-3.50856">
        <ele>208</ele>
        <time>2021-07-22T10:05:08.270Z</time>
      </trkpt>
      <trkpt lat="48.51469" lon="-3.5086">
        <ele>208</ele>
        <time>2021-07-22T10:05:13.268Z</time>
      </trkpt>
      <trkpt lat="48.51475" lon="-3.50864">
        <ele>208</ele>
        <time>2021-07-22T10:05:18.274Z</time>
      </trkpt>
      <trkpt lat="48.51482" lon="-3.50867">
        <ele>208</ele>
        <time>2021-07-22T10:05:23.261Z</time>
      </trkpt>
      <trkpt lat="48.51487" lon="-3.5087">
        <ele>207</ele>
        <time>2021-07-22T10:05:28.269Z</time>
      </trkpt>
      <trkpt lat="48.51493" lon="-3.50873">
        <ele>207</ele>
        <time>2021-07-22T10:05:33.278Z</time>
      </trkpt>
      <trkpt lat="48.51499" lon="-3.50872">
        <ele>207</ele>
        <time>2021-07-22T10:05:38.261Z</time>
      </trkpt>
      <trkpt lat="48.51504" lon="-3.50875">
        <ele>207</ele>
        <time>2021-07-22T10:05:43.275Z</time>
      </trkpt>
      <trkpt lat="48.51514" lon="-3.5088">
        <ele>210</ele>
        <time>2021-07-22T10:23:09.258Z</time>
      </trkpt>
      <trkpt lat="48.51515" lon="-3.50878">
        <ele>210</ele>
        <time>2021-07-22T10:23:19.272Z</time>
      </trkpt>
      <trkpt lat="48.51516" lon="-3.50878">
        <ele>210</ele>
        <time>2021-07-22T10:23:23.259Z</time>
      </trkpt>
      <trkpt lat="48.5152" lon="-3.50882">
        <ele>210</ele>
        <time>2021-07-22T10:23:28.288Z</time>
      </trkpt>
      <trkpt lat="48.51522" lon="-3.50889">
        <ele>210</ele>
        <time>2021-07-22T10:23:33.261Z</time>
      </trkpt>
      <trkpt lat="48.51523" lon="-3.50894">
        <ele>210</ele>
        <time>2021-07-22T10:23:37.259Z</time>
      </trkpt>
      <trkpt lat="48.51523" lon="-3.50899">
        <ele>210</ele>
        <time>2021-07-22T10:23:42.256Z</time>
      </trkpt>
      <trkpt lat="48.51526" lon="-3.50905">
        <ele>212</ele>
        <time>2021-07-22T10:23:47.262Z</time>
      </trkpt>
      <trkpt lat="48.51527" lon="-3.50911">
        <ele>212</ele>
        <time>2021-07-22T10:23:52.272Z</time>
      </trkpt>
      <trkpt lat="48.51527" lon="-3.50917">
        <ele>212</ele>
        <time>2021-07-22T10:23:57.261Z</time>
      </trkpt>
      <trkpt lat="48.51529" lon="-3.50925">
        <ele>212</ele>
        <time>2021-07-22T10:24:02.274Z</time>
      </trkpt>
      <trkpt lat="48.51533" lon="-3.50932">
        <ele>214</ele>
        <time>2021-07-22T10:24:07.273Z</time>
      </trkpt>
      <trkpt lat="48.51535" lon="-3.5094">
        <ele>214</ele>
        <time>2021-07-22T10:24:12.280Z</time>
      </trkpt>
      <trkpt lat="48.51538" lon="-3.50946">
        <ele>214</ele>
        <time>2021-07-22T10:24:17.267Z</time>
      </trkpt>
      <trkpt lat="48.51539" lon="-3.50955">
        <ele>214</ele>
        <time>2021-07-22T10:24:22.260Z</time>
      </trkpt>
      <trkpt lat="48.51541" lon="-3.50961">
        <ele>216</ele>
        <time>2021-07-22T10:24:26.259Z</time>
      </trkpt>
      <trkpt lat="48.51544" lon="-3.50968">
        <ele>217</ele>
        <time>2021-07-22T10:24:31.257Z</time>
      </trkpt>
      <trkpt lat="48.51546" lon="-3.50975">
        <ele>217</ele>
        <time>2021-07-22T10:24:35.260Z</time>
      </trkpt>
      <trkpt lat="48.5155" lon="-3.50984">
        <ele>217</ele>
        <time>2021-07-22T10:24:40.273Z</time>
      </trkpt>
      <trkpt lat="48.51552" lon="-3.50991">
        <ele>217</ele>
        <time>2021-07-22T10:24:44.279Z</time>
      </trkpt>
      <trkpt lat="48.51556" lon="-3.50999">
        <ele>217</ele>
        <time>2021-07-22T10:24:49.278Z</time>
      </trkpt>
      <trkpt lat="48.51558" lon="-3.51006">
        <ele>217</ele>
        <time>2021-07-22T10:24:53.281Z</time>
      </trkpt>
      <trkpt lat="48.5156" lon="-3.51013">
        <ele>217</ele>
        <time>2021-07-22T10:24:58.282Z</time>
      </trkpt>
      <trkpt lat="48.5156" lon="-3.51024">
        <ele>218</ele>
        <time>2021-07-22T10:25:03.283Z</time>
      </trkpt>
      <trkpt lat="48.51563" lon="-3.51033">
        <ele>218</ele>
        <time>2021-07-22T10:25:08.283Z</time>
      </trkpt>
      <trkpt lat="48.51564" lon="-3.51042">
        <ele>219</ele>
        <time>2021-07-22T10:25:13.258Z</time>
      </trkpt>
      <trkpt lat="48.51567" lon="-3.5105">
        <ele>219</ele>
        <time>2021-07-22T10:25:18.272Z</time>
      </trkpt>
      <trkpt lat="48.51568" lon="-3.51056">
        <ele>219</ele>
        <time>2021-07-22T10:25:22.265Z</time>
      </trkpt>
      <trkpt lat="48.51571" lon="-3.51067">
        <ele>217</ele>
        <time>2021-07-22T10:25:27.264Z</time>
      </trkpt>
      <trkpt lat="48.51573" lon="-3.51074">
        <ele>218</ele>
        <time>2021-07-22T10:25:31.281Z</time>
      </trkpt>
      <trkpt lat="48.51576" lon="-3.51083">
        <ele>218</ele>
        <time>2021-07-22T10:25:36.266Z</time>
      </trkpt>
      <trkpt lat="48.51579" lon="-3.51093">
        <ele>218</ele>
        <time>2021-07-22T10:25:41.262Z</time>
      </trkpt>
      <trkpt lat="48.51581" lon="-3.51102">
        <ele>218</ele>
        <time>2021-07-22T10:25:46.254Z</time>
      </trkpt>
      <trkpt lat="48.51583" lon="-3.51111">
        <ele>218</ele>
        <time>2021-07-22T10:25:51.286Z</time>
      </trkpt>
      <trkpt lat="48.51586" lon="-3.5112">
        <ele>218</ele>
        <time>2021-07-22T10:25:56.281Z</time>
      </trkpt>
      <trkpt lat="48.51588" lon="-3.5113">
        <ele>219</ele>
        <time>2021-07-22T10:26:01.259Z</time>
      </trkpt>
      <trkpt lat="48.51592" lon="-3.51137">
        <ele>219</ele>
        <time>2021-07-22T10:26:06.262Z</time>
      </trkpt>
      <trkpt lat="48.51593" lon="-3.51147">
        <ele>219</ele>
        <time>2021-07-22T10:26:11.265Z</time>
      </trkpt>
      <trkpt lat="48.51596" lon="-3.51156">
        <ele>220</ele>
        <time>2021-07-22T10:26:16.256Z</time>
      </trkpt>
      <trkpt lat="48.51599" lon="-3.51165">
        <ele>219</ele>
        <time>2021-07-22T10:26:21.249Z</time>
      </trkpt>
      <trkpt lat="48.51601" lon="-3.5117">
        <ele>219</ele>
        <time>2021-07-22T10:26:25.278Z</time>
      </trkpt>
      <trkpt lat="48.51605" lon="-3.51178">
        <ele>219</ele>
        <time>2021-07-22T10:26:30.270Z</time>
      </trkpt>
      <trkpt lat="48.51609" lon="-3.51185">
        <ele>220</ele>
        <time>2021-07-22T10:26:35.269Z</time>
      </trkpt>
      <trkpt lat="48.51612" lon="-3.51191">
        <ele>220</ele>
        <time>2021-07-22T10:26:40.269Z</time>
      </trkpt>
      <trkpt lat="48.51617" lon="-3.51198">
        <ele>220</ele>
        <time>2021-07-22T10:26:45.270Z</time>
      </trkpt>
      <trkpt lat="48.51622" lon="-3.51204">
        <ele>220</ele>
        <time>2021-07-22T10:26:50.270Z</time>
      </trkpt>
      <trkpt lat="48.51627" lon="-3.51208">
        <ele>218</ele>
        <time>2021-07-22T10:26:55.279Z</time>
      </trkpt>
      <trkpt lat="48.51634" lon="-3.51212">
        <ele>220</ele>
        <time>2021-07-22T10:27:00.267Z</time>
      </trkpt>
      <trkpt lat="48.51639" lon="-3.51216">
        <ele>220</ele>
        <time>2021-07-22T10:27:05.258Z</time>
      </trkpt>
      <trkpt lat="48.51643" lon="-3.51223">
        <ele>220</ele>
        <time>2021-07-22T10:27:10.262Z</time>
      </trkpt>
      <trkpt lat="48.51649" lon="-3.5123">
        <ele>220</ele>
        <time>2021-07-22T10:27:15.265Z</time>
      </trkpt>
      <trkpt lat="48.51653" lon="-3.51235">
        <ele>218</ele>
        <time>2021-07-22T10:27:20.274Z</time>
      </trkpt>
      <trkpt lat="48.51658" lon="-3.51241">
        <ele>219</ele>
        <time>2021-07-22T10:27:25.271Z</time>
      </trkpt>
      <trkpt lat="48.51663" lon="-3.51248">
        <ele>219</ele>
        <time>2021-07-22T10:27:30.274Z</time>
      </trkpt>
      <trkpt lat="48.51669" lon="-3.51256">
        <ele>219</ele>
        <time>2021-07-22T10:27:35.272Z</time>
      </trkpt>
      <trkpt lat="48.51674" lon="-3.51262">
        <ele>219</ele>
        <time>2021-07-22T10:27:40.282Z</time>
      </trkpt>
      <trkpt lat="48.51678" lon="-3.5127">
        <ele>220</ele>
        <time>2021-07-22T10:27:45.270Z</time>
      </trkpt>
      <trkpt lat="48.51682" lon="-3.51276">
        <ele>218</ele>
        <time>2021-07-22T10:27:50.263Z</time>
      </trkpt>
      <trkpt lat="48.51687" lon="-3.5128">
        <ele>218</ele>
        <time>2021-07-22T10:27:54.263Z</time>
      </trkpt>
      <trkpt lat="48.51692" lon="-3.51285">
        <ele>218</ele>
        <time>2021-07-22T10:27:59.259Z</time>
      </trkpt>
      <trkpt lat="48.51696" lon="-3.5129">
        <ele>218</ele>
        <time>2021-07-22T10:28:04.265Z</time>
      </trkpt>
      <trkpt lat="48.517" lon="-3.51295">
        <ele>219</ele>
        <time>2021-07-22T10:28:08.251Z</time>
      </trkpt>
      <trkpt lat="48.51704" lon="-3.51298">
        <ele>219</ele>
        <time>2021-07-22T10:28:12.278Z</time>
      </trkpt>
      <trkpt lat="48.51709" lon="-3.51304">
        <ele>218</ele>
        <time>2021-07-22T10:28:17.276Z</time>
      </trkpt>
      <trkpt lat="48.51715" lon="-3.51308">
        <ele>218</ele>
        <time>2021-07-22T10:28:22.279Z</time>
      </trkpt>
      <trkpt lat="48.51719" lon="-3.51315">
        <ele>218</ele>
        <time>2021-07-22T10:28:27.275Z</time>
      </trkpt>
      <trkpt lat="48.51726" lon="-3.51323">
        <ele>219</ele>
        <time>2021-07-22T10:28:32.269Z</time>
      </trkpt>
      <trkpt lat="48.51732" lon="-3.5133">
        <ele>219</ele>
        <time>2021-07-22T10:28:37.258Z</time>
      </trkpt>
      <trkpt lat="48.51737" lon="-3.51337">
        <ele>218</ele>
        <time>2021-07-22T10:28:42.266Z</time>
      </trkpt>
      <trkpt lat="48.51741" lon="-3.51342">
        <ele>218</ele>
        <time>2021-07-22T10:28:46.278Z</time>
      </trkpt>
      <trkpt lat="48.51748" lon="-3.51346">
        <ele>218</ele>
        <time>2021-07-22T10:28:51.265Z</time>
      </trkpt>
      <trkpt lat="48.51754" lon="-3.51351">
        <ele>220</ele>
        <time>2021-07-22T10:28:56.268Z</time>
      </trkpt>
      <trkpt lat="48.5176" lon="-3.51353">
        <ele>220</ele>
        <time>2021-07-22T10:29:01.269Z</time>
      </trkpt>
      <trkpt lat="48.51765" lon="-3.51354">
        <ele>219</ele>
        <time>2021-07-22T10:29:06.269Z</time>
      </trkpt>
      <trkpt lat="48.51772" lon="-3.51355">
        <ele>219</ele>
        <time>2021-07-22T10:29:11.272Z</time>
      </trkpt>
      <trkpt lat="48.51779" lon="-3.51358">
        <ele>219</ele>
        <time>2021-07-22T10:29:16.278Z</time>
      </trkpt>
      <trkpt lat="48.51786" lon="-3.51362">
        <ele>219</ele>
        <time>2021-07-22T10:29:21.273Z</time>
      </trkpt>
      <trkpt lat="48.51794" lon="-3.51369">
        <ele>219</ele>
        <time>2021-07-22T10:29:26.274Z</time>
      </trkpt>
      <trkpt lat="48.51799" lon="-3.51376">
        <ele>220</ele>
        <time>2021-07-22T10:29:31.262Z</time>
      </trkpt>
      <trkpt lat="48.51804" lon="-3.51382">
        <ele>220</ele>
        <time>2021-07-22T10:29:35.269Z</time>
      </trkpt>
      <trkpt lat="48.5181" lon="-3.51388">
        <ele>220</ele>
        <time>2021-07-22T10:29:40.268Z</time>
      </trkpt>
      <trkpt lat="48.51814" lon="-3.51394">
        <ele>220</ele>
        <time>2021-07-22T10:29:45.258Z</time>
      </trkpt>
      <trkpt lat="48.51818" lon="-3.51399">
        <ele>220</ele>
        <time>2021-07-22T10:29:49.266Z</time>
      </trkpt>
      <trkpt lat="48.51824" lon="-3.51405">
        <ele>220</ele>
        <time>2021-07-22T10:29:54.274Z</time>
      </trkpt>
      <trkpt lat="48.51829" lon="-3.51412">
        <ele>220</ele>
        <time>2021-07-22T10:29:59.271Z</time>
      </trkpt>
      <trkpt lat="48.51834" lon="-3.51419">
        <ele>220</ele>
        <time>2021-07-22T10:30:04.281Z</time>
      </trkpt>
      <trkpt lat="48.51838" lon="-3.51428">
        <ele>220</ele>
        <time>2021-07-22T10:30:09.281Z</time>
      </trkpt>
      <trkpt lat="48.51843" lon="-3.51436">
        <ele>220</ele>
        <time>2021-07-22T10:30:14.276Z</time>
      </trkpt>
      <trkpt lat="48.51847" lon="-3.51446">
        <ele>222</ele>
        <time>2021-07-22T10:30:19.281Z</time>
      </trkpt>
      <trkpt lat="48.51852" lon="-3.51455">
        <ele>222</ele>
        <time>2021-07-22T10:30:24.269Z</time>
      </trkpt>
      <trkpt lat="48.51856" lon="-3.51462">
        <ele>222</ele>
        <time>2021-07-22T10:30:29.266Z</time>
      </trkpt>
      <trkpt lat="48.5186" lon="-3.5147">
        <ele>222</ele>
        <time>2021-07-22T10:30:34.266Z</time>
      </trkpt>
      <trkpt lat="48.51863" lon="-3.51479">
        <ele>222</ele>
        <time>2021-07-22T10:30:39.280Z</time>
      </trkpt>
      <trkpt lat="48.51867" lon="-3.51486">
        <ele>222</ele>
        <time>2021-07-22T10:30:44.261Z</time>
      </trkpt>
      <trkpt lat="48.5187" lon="-3.51494">
        <ele>222</ele>
        <time>2021-07-22T10:30:49.273Z</time>
      </trkpt>
      <trkpt lat="48.51875" lon="-3.51499">
        <ele>222</ele>
        <time>2021-07-22T10:30:54.257Z</time>
      </trkpt>
      <trkpt lat="48.51878" lon="-3.51504">
        <ele>225</ele>
        <time>2021-07-22T10:30:58.281Z</time>
      </trkpt>
      <trkpt lat="48.51882" lon="-3.5151">
        <ele>225</ele>
        <time>2021-07-22T10:31:03.274Z</time>
      </trkpt>
      <trkpt lat="48.51886" lon="-3.51519">
        <ele>224</ele>
        <time>2021-07-22T10:31:08.274Z</time>
      </trkpt>
      <trkpt lat="48.51889" lon="-3.51525">
        <ele>224</ele>
        <time>2021-07-22T10:31:13.280Z</time>
      </trkpt>
      <trkpt lat="48.51891" lon="-3.51532">
        <ele>224</ele>
        <time>2021-07-22T10:31:18.275Z</time>
      </trkpt>
      <trkpt lat="48.51894" lon="-3.51539">
        <ele>224</ele>
        <time>2021-07-22T10:31:23.279Z</time>
      </trkpt>
      <trkpt lat="48.51897" lon="-3.51547">
        <ele>224</ele>
        <time>2021-07-22T10:31:28.261Z</time>
      </trkpt>
      <trkpt lat="48.519" lon="-3.51558">
        <ele>224</ele>
        <time>2021-07-22T10:31:33.265Z</time>
      </trkpt>
      <trkpt lat="48.51901" lon="-3.51567">
        <ele>224</ele>
        <time>2021-07-22T10:31:38.268Z</time>
      </trkpt>
      <trkpt lat="48.51902" lon="-3.51576">
        <ele>225</ele>
        <time>2021-07-22T10:31:43.270Z</time>
      </trkpt>
      <trkpt lat="48.51905" lon="-3.51584">
        <ele>228</ele>
        <time>2021-07-22T10:31:48.266Z</time>
      </trkpt>
      <trkpt lat="48.51911" lon="-3.51589">
        <ele>228</ele>
        <time>2021-07-22T10:31:53.264Z</time>
      </trkpt>
      <trkpt lat="48.51913" lon="-3.51599">
        <ele>228</ele>
        <time>2021-07-22T10:31:58.270Z</time>
      </trkpt>
      <trkpt lat="48.51916" lon="-3.51606">
        <ele>228</ele>
        <time>2021-07-22T10:32:02.290Z</time>
      </trkpt>
      <trkpt lat="48.5192" lon="-3.51615">
        <ele>228</ele>
        <time>2021-07-22T10:32:07.256Z</time>
      </trkpt>
      <trkpt lat="48.51922" lon="-3.51622">
        <ele>228</ele>
        <time>2021-07-22T10:32:11.265Z</time>
      </trkpt>
      <trkpt lat="48.51924" lon="-3.51634">
        <ele>227</ele>
        <time>2021-07-22T10:32:16.257Z</time>
      </trkpt>
      <trkpt lat="48.51927" lon="-3.51644">
        <ele>227</ele>
        <time>2021-07-22T10:32:21.253Z</time>
      </trkpt>
      <trkpt lat="48.5193" lon="-3.51653">
        <ele>225</ele>
        <time>2021-07-22T10:32:26.253Z</time>
      </trkpt>
      <trkpt lat="48.51932" lon="-3.51661">
        <ele>229</ele>
        <time>2021-07-22T10:32:31.253Z</time>
      </trkpt>
      <trkpt lat="48.51935" lon="-3.5167">
        <ele>229</ele>
        <time>2021-07-22T10:32:36.262Z</time>
      </trkpt>
      <trkpt lat="48.51936" lon="-3.51691">
        <ele>228</ele>
        <time>2021-07-22T10:35:05.270Z</time>
      </trkpt>
      <trkpt lat="48.51936" lon="-3.51691">
        <ele>228</ele>
        <time>2021-07-22T10:35:10.252Z</time>
      </trkpt>
      <trkpt lat="48.51939" lon="-3.51696">
        <ele>228</ele>
        <time>2021-07-22T10:35:14.268Z</time>
      </trkpt>
      <trkpt lat="48.51941" lon="-3.51704">
        <ele>228</ele>
        <time>2021-07-22T10:35:19.269Z</time>
      </trkpt>
      <trkpt lat="48.51944" lon="-3.51712">
        <ele>227</ele>
        <time>2021-07-22T10:35:24.271Z</time>
      </trkpt>
      <trkpt lat="48.51946" lon="-3.51721">
        <ele>227</ele>
        <time>2021-07-22T10:35:29.274Z</time>
      </trkpt>
      <trkpt lat="48.51949" lon="-3.51729">
        <ele>227</ele>
        <time>2021-07-22T10:35:34.255Z</time>
      </trkpt>
      <trkpt lat="48.51951" lon="-3.51737">
        <ele>226</ele>
        <time>2021-07-22T10:35:38.273Z</time>
      </trkpt>
      <trkpt lat="48.51953" lon="-3.51746">
        <ele>226</ele>
        <time>2021-07-22T10:35:43.267Z</time>
      </trkpt>
      <trkpt lat="48.51956" lon="-3.51757">
        <ele>226</ele>
        <time>2021-07-22T10:35:48.266Z</time>
      </trkpt>
      <trkpt lat="48.51956" lon="-3.51768">
        <ele>225</ele>
        <time>2021-07-22T10:35:53.268Z</time>
      </trkpt>
      <trkpt lat="48.51957" lon="-3.5178">
        <ele>225</ele>
        <time>2021-07-22T10:35:58.265Z</time>
      </trkpt>
      <trkpt lat="48.51958" lon="-3.51791">
        <ele>225</ele>
        <time>2021-07-22T10:36:03.258Z</time>
      </trkpt>
      <trkpt lat="48.51959" lon="-3.51799">
        <ele>228</ele>
        <time>2021-07-22T10:36:08.278Z</time>
      </trkpt>
      <trkpt lat="48.51961" lon="-3.5181">
        <ele>228</ele>
        <time>2021-07-22T10:36:13.277Z</time>
      </trkpt>
      <trkpt lat="48.51963" lon="-3.5182">
        <ele>227</ele>
        <time>2021-07-22T10:36:18.270Z</time>
      </trkpt>
      <trkpt lat="48.51964" lon="-3.5183">
        <ele>227</ele>
        <time>2021-07-22T10:36:23.272Z</time>
      </trkpt>
      <trkpt lat="48.51965" lon="-3.5184">
        <ele>227</ele>
        <time>2021-07-22T10:36:28.278Z</time>
      </trkpt>
      <trkpt lat="48.51965" lon="-3.51851">
        <ele>227</ele>
        <time>2021-07-22T10:36:33.270Z</time>
      </trkpt>
      <trkpt lat="48.51966" lon="-3.51862">
        <ele>227</ele>
        <time>2021-07-22T10:36:38.271Z</time>
      </trkpt>
      <trkpt lat="48.51967" lon="-3.51873">
        <ele>227</ele>
        <time>2021-07-22T10:36:43.270Z</time>
      </trkpt>
      <trkpt lat="48.51969" lon="-3.51883">
        <ele>227</ele>
        <time>2021-07-22T10:36:48.254Z</time>
      </trkpt>
      <trkpt lat="48.51972" lon="-3.51893">
        <ele>227</ele>
        <time>2021-07-22T10:36:53.268Z</time>
      </trkpt>
      <trkpt lat="48.51975" lon="-3.51904">
        <ele>227</ele>
        <time>2021-07-22T10:36:58.258Z</time>
      </trkpt>
      <trkpt lat="48.51977" lon="-3.51914">
        <ele>227</ele>
        <time>2021-07-22T10:37:03.272Z</time>
      </trkpt>
      <trkpt lat="48.5198" lon="-3.51925">
        <ele>227</ele>
        <time>2021-07-22T10:37:08.279Z</time>
      </trkpt>
      <trkpt lat="48.51982" lon="-3.51935">
        <ele>225</ele>
        <time>2021-07-22T10:37:13.268Z</time>
      </trkpt>
      <trkpt lat="48.51984" lon="-3.51945">
        <ele>225</ele>
        <time>2021-07-22T10:37:18.275Z</time>
      </trkpt>
      <trkpt lat="48.51985" lon="-3.51955">
        <ele>225</ele>
        <time>2021-07-22T10:37:23.271Z</time>
      </trkpt>
      <trkpt lat="48.51989" lon="-3.51965">
        <ele>229</ele>
        <time>2021-07-22T10:37:28.258Z</time>
      </trkpt>
      <trkpt lat="48.51991" lon="-3.51976">
        <ele>229</ele>
        <time>2021-07-22T10:37:33.259Z</time>
      </trkpt>
      <trkpt lat="48.51993" lon="-3.51984">
        <ele>229</ele>
        <time>2021-07-22T10:37:38.257Z</time>
      </trkpt>
      <trkpt lat="48.51996" lon="-3.51994">
        <ele>226</ele>
        <time>2021-07-22T10:37:43.264Z</time>
      </trkpt>
      <trkpt lat="48.51998" lon="-3.52004">
        <ele>226</ele>
        <time>2021-07-22T10:37:48.271Z</time>
      </trkpt>
      <trkpt lat="48.52001" lon="-3.52014">
        <ele>223</ele>
        <time>2021-07-22T10:37:53.264Z</time>
      </trkpt>
      <trkpt lat="48.52005" lon="-3.52025">
        <ele>223</ele>
        <time>2021-07-22T10:37:58.277Z</time>
      </trkpt>
      <trkpt lat="48.52007" lon="-3.52036">
        <ele>223</ele>
        <time>2021-07-22T10:38:03.271Z</time>
      </trkpt>
      <trkpt lat="48.52008" lon="-3.52045">
        <ele>221</ele>
        <time>2021-07-22T10:38:08.283Z</time>
      </trkpt>
      <trkpt lat="48.52009" lon="-3.52055">
        <ele>221</ele>
        <time>2021-07-22T10:38:13.277Z</time>
      </trkpt>
      <trkpt lat="48.52011" lon="-3.52065">
        <ele>221</ele>
        <time>2021-07-22T10:38:18.276Z</time>
      </trkpt>
      <trkpt lat="48.52011" lon="-3.52074">
        <ele>220</ele>
        <time>2021-07-22T10:38:22.280Z</time>
      </trkpt>
      <trkpt lat="48.52013" lon="-3.52085">
        <ele>220</ele>
        <time>2021-07-22T10:38:27.270Z</time>
      </trkpt>
      <trkpt lat="48.52016" lon="-3.52094">
        <ele>220</ele>
        <time>2021-07-22T10:38:32.264Z</time>
      </trkpt>
      <trkpt lat="48.52016" lon="-3.52105">
        <ele>220</ele>
        <time>2021-07-22T10:38:37.267Z</time>
      </trkpt>
      <trkpt lat="48.52017" lon="-3.52115">
        <ele>220</ele>
        <time>2021-07-22T10:38:42.279Z</time>
      </trkpt>
      <trkpt lat="48.5202" lon="-3.52127">
        <ele>220</ele>
        <time>2021-07-22T10:38:47.262Z</time>
      </trkpt>
      <trkpt lat="48.52023" lon="-3.52137">
        <ele>220</ele>
        <time>2021-07-22T10:38:52.281Z</time>
      </trkpt>
      <trkpt lat="48.52026" lon="-3.52146">
        <ele>220</ele>
        <time>2021-07-22T10:38:57.268Z</time>
      </trkpt>
      <trkpt lat="48.52029" lon="-3.52155">
        <ele>220</ele>
        <time>2021-07-22T10:39:01.289Z</time>
      </trkpt>
      <trkpt lat="48.5203" lon="-3.52163">
        <ele>220</ele>
        <time>2021-07-22T10:39:06.262Z</time>
      </trkpt>
      <trkpt lat="48.52032" lon="-3.5217">
        <ele>220</ele>
        <time>2021-07-22T10:39:10.274Z</time>
      </trkpt>
      <trkpt lat="48.52034" lon="-3.52179">
        <ele>220</ele>
        <time>2021-07-22T10:39:15.272Z</time>
      </trkpt>
      <trkpt lat="48.52036" lon="-3.52191">
        <ele>219</ele>
        <time>2021-07-22T10:39:20.274Z</time>
      </trkpt>
      <trkpt lat="48.52039" lon="-3.52201">
        <ele>219</ele>
        <time>2021-07-22T10:39:25.261Z</time>
      </trkpt>
      <trkpt lat="48.52041" lon="-3.52211">
        <ele>219</ele>
        <time>2021-07-22T10:39:30.256Z</time>
      </trkpt>
      <trkpt lat="48.52043" lon="-3.5222">
        <ele>219</ele>
        <time>2021-07-22T10:39:34.257Z</time>
      </trkpt>
      <trkpt lat="48.52045" lon="-3.52232">
        <ele>219</ele>
        <time>2021-07-22T10:39:39.270Z</time>
      </trkpt>
      <trkpt lat="48.52049" lon="-3.52242">
        <ele>218</ele>
        <time>2021-07-22T10:39:44.264Z</time>
      </trkpt>
      <trkpt lat="48.52051" lon="-3.52251">
        <ele>218</ele>
        <time>2021-07-22T10:39:49.276Z</time>
      </trkpt>
      <trkpt lat="48.52053" lon="-3.52261">
        <ele>218</ele>
        <time>2021-07-22T10:39:54.273Z</time>
      </trkpt>
      <trkpt lat="48.52054" lon="-3.5227">
        <ele>218</ele>
        <time>2021-07-22T10:39:59.275Z</time>
      </trkpt>
      <trkpt lat="48.52056" lon="-3.5228">
        <ele>218</ele>
        <time>2021-07-22T10:40:04.272Z</time>
      </trkpt>
      <trkpt lat="48.52057" lon="-3.52291">
        <ele>218</ele>
        <time>2021-07-22T10:40:09.267Z</time>
      </trkpt>
      <trkpt lat="48.5206" lon="-3.52301">
        <ele>218</ele>
        <time>2021-07-22T10:40:14.274Z</time>
      </trkpt>
      <trkpt lat="48.52063" lon="-3.5231">
        <ele>218</ele>
        <time>2021-07-22T10:40:19.268Z</time>
      </trkpt>
      <trkpt lat="48.52066" lon="-3.52319">
        <ele>218</ele>
        <time>2021-07-22T10:40:24.269Z</time>
      </trkpt>
      <trkpt lat="48.52069" lon="-3.52329">
        <ele>218</ele>
        <time>2021-07-22T10:40:29.262Z</time>
      </trkpt>
      <trkpt lat="48.52072" lon="-3.5234">
        <ele>218</ele>
        <time>2021-07-22T10:40:34.277Z</time>
      </trkpt>
      <trkpt lat="48.52075" lon="-3.5235">
        <ele>219</ele>
        <time>2021-07-22T10:40:39.263Z</time>
      </trkpt>
      <trkpt lat="48.52077" lon="-3.52358">
        <ele>219</ele>
        <time>2021-07-22T10:40:44.265Z</time>
      </trkpt>
      <trkpt lat="48.5208" lon="-3.52366">
        <ele>219</ele>
        <time>2021-07-22T10:40:49.278Z</time>
      </trkpt>
      <trkpt lat="48.52084" lon="-3.52376">
        <ele>219</ele>
        <time>2021-07-22T10:40:54.271Z</time>
      </trkpt>
      <trkpt lat="48.52088" lon="-3.52386">
        <ele>219</ele>
        <time>2021-07-22T10:40:59.276Z</time>
      </trkpt>
      <trkpt lat="48.52092" lon="-3.52395">
        <ele>219</ele>
        <time>2021-07-22T10:41:04.276Z</time>
      </trkpt>
      <trkpt lat="48.52096" lon="-3.52403">
        <ele>218</ele>
        <time>2021-07-22T10:41:09.270Z</time>
      </trkpt>
      <trkpt lat="48.52101" lon="-3.52408">
        <ele>220</ele>
        <time>2021-07-22T10:41:14.255Z</time>
      </trkpt>
      <trkpt lat="48.52104" lon="-3.52413">
        <ele>220</ele>
        <time>2021-07-22T10:41:19.270Z</time>
      </trkpt>
      <trkpt lat="48.52109" lon="-3.5242">
        <ele>220</ele>
        <time>2021-07-22T10:41:24.259Z</time>
      </trkpt>
      <trkpt lat="48.52114" lon="-3.52425">
        <ele>220</ele>
        <time>2021-07-22T10:41:29.274Z</time>
      </trkpt>
      <trkpt lat="48.52118" lon="-3.52429">
        <ele>220</ele>
        <time>2021-07-22T10:41:34.266Z</time>
      </trkpt>
      <trkpt lat="48.52125" lon="-3.52436">
        <ele>221</ele>
        <time>2021-07-22T10:41:39.273Z</time>
      </trkpt>
      <trkpt lat="48.52131" lon="-3.52443">
        <ele>221</ele>
        <time>2021-07-22T10:41:44.265Z</time>
      </trkpt>
      <trkpt lat="48.52138" lon="-3.52448">
        <ele>221</ele>
        <time>2021-07-22T10:41:49.267Z</time>
      </trkpt>
      <trkpt lat="48.52144" lon="-3.52454">
        <ele>221</ele>
        <time>2021-07-22T10:41:54.280Z</time>
      </trkpt>
      <trkpt lat="48.52148" lon="-3.5246">
        <ele>219</ele>
        <time>2021-07-22T10:41:59.263Z</time>
      </trkpt>
      <trkpt lat="48.52152" lon="-3.52466">
        <ele>219</ele>
        <time>2021-07-22T10:42:03.255Z</time>
      </trkpt>
      <trkpt lat="48.52154" lon="-3.52472">
        <ele>215</ele>
        <time>2021-07-22T10:42:07.271Z</time>
      </trkpt>
      <trkpt lat="48.52157" lon="-3.52482">
        <ele>215</ele>
        <time>2021-07-22T10:42:12.263Z</time>
      </trkpt>
      <trkpt lat="48.52156" lon="-3.52493">
        <ele>214</ele>
        <time>2021-07-22T10:42:17.259Z</time>
      </trkpt>
      <trkpt lat="48.52154" lon="-3.52501">
        <ele>214</ele>
        <time>2021-07-22T10:42:22.269Z</time>
      </trkpt>
      <trkpt lat="48.52153" lon="-3.5251">
        <ele>214</ele>
        <time>2021-07-22T10:42:27.258Z</time>
      </trkpt>
      <trkpt lat="48.52152" lon="-3.52518">
        <ele>214</ele>
        <time>2021-07-22T10:42:32.268Z</time>
      </trkpt>
      <trkpt lat="48.52151" lon="-3.52529">
        <ele>214</ele>
        <time>2021-07-22T10:42:37.250Z</time>
      </trkpt>
      <trkpt lat="48.5215" lon="-3.52538">
        <ele>214</ele>
        <time>2021-07-22T10:42:42.251Z</time>
      </trkpt>
      <trkpt lat="48.52147" lon="-3.52548">
        <ele>214</ele>
        <time>2021-07-22T10:42:47.268Z</time>
      </trkpt>
      <trkpt lat="48.52147" lon="-3.52557">
        <ele>214</ele>
        <time>2021-07-22T10:42:52.270Z</time>
      </trkpt>
      <trkpt lat="48.52144" lon="-3.52569">
        <ele>214</ele>
        <time>2021-07-22T10:42:57.266Z</time>
      </trkpt>
      <trkpt lat="48.52141" lon="-3.52579">
        <ele>214</ele>
        <time>2021-07-22T10:43:02.274Z</time>
      </trkpt>
      <trkpt lat="48.52139" lon="-3.52587">
        <ele>214</ele>
        <time>2021-07-22T10:43:06.275Z</time>
      </trkpt>
      <trkpt lat="48.52133" lon="-3.52596">
        <ele>214</ele>
        <time>2021-07-22T10:43:11.258Z</time>
      </trkpt>
      <trkpt lat="48.52129" lon="-3.52605">
        <ele>214</ele>
        <time>2021-07-22T10:43:16.261Z</time>
      </trkpt>
      <trkpt lat="48.52125" lon="-3.52612">
        <ele>216</ele>
        <time>2021-07-22T10:43:21.255Z</time>
      </trkpt>
      <trkpt lat="48.52118" lon="-3.52618">
        <ele>216</ele>
        <time>2021-07-22T10:43:26.276Z</time>
      </trkpt>
      <trkpt lat="48.52113" lon="-3.52625">
        <ele>216</ele>
        <time>2021-07-22T10:43:31.275Z</time>
      </trkpt>
      <trkpt lat="48.52107" lon="-3.52628">
        <ele>217</ele>
        <time>2021-07-22T10:43:36.281Z</time>
      </trkpt>
      <trkpt lat="48.52102" lon="-3.52635">
        <ele>217</ele>
        <time>2021-07-22T10:43:41.259Z</time>
      </trkpt>
      <trkpt lat="48.52097" lon="-3.52642">
        <ele>214</ele>
        <time>2021-07-22T10:43:46.259Z</time>
      </trkpt>
      <trkpt lat="48.52091" lon="-3.52646">
        <ele>214</ele>
        <time>2021-07-22T10:43:51.258Z</time>
      </trkpt>
      <trkpt lat="48.52085" lon="-3.52649">
        <ele>214</ele>
        <time>2021-07-22T10:43:56.250Z</time>
      </trkpt>
      <trkpt lat="48.5208" lon="-3.52655">
        <ele>215</ele>
        <time>2021-07-22T10:44:01.262Z</time>
      </trkpt>
      <trkpt lat="48.52074" lon="-3.52659">
        <ele>215</ele>
        <time>2021-07-22T10:44:06.256Z</time>
      </trkpt>
      <trkpt lat="48.52068" lon="-3.52664">
        <ele>212</ele>
        <time>2021-07-22T10:44:11.277Z</time>
      </trkpt>
      <trkpt lat="48.52061" lon="-3.5267">
        <ele>212</ele>
        <time>2021-07-22T10:44:16.275Z</time>
      </trkpt>
      <trkpt lat="48.52055" lon="-3.52674">
        <ele>212</ele>
        <time>2021-07-22T10:44:21.262Z</time>
      </trkpt>
      <trkpt lat="48.52049" lon="-3.52667">
        <ele>212</ele>
        <time>2021-07-22T10:44:26.259Z</time>
      </trkpt>
      <trkpt lat="48.52046" lon="-3.52657">
        <ele>212</ele>
        <time>2021-07-22T10:44:31.272Z</time>
      </trkpt>
      <trkpt lat="48.52042" lon="-3.5265">
        <ele>212</ele>
        <time>2021-07-22T10:44:36.266Z</time>
      </trkpt>
      <trkpt lat="48.52036" lon="-3.52647">
        <ele>209</ele>
        <time>2021-07-22T10:44:41.273Z</time>
      </trkpt>
      <trkpt lat="48.52029" lon="-3.52644">
        <ele>209</ele>
        <time>2021-07-22T10:44:46.265Z</time>
      </trkpt>
      <trkpt lat="48.52025" lon="-3.52638">
        <ele>209</ele>
        <time>2021-07-22T10:44:51.264Z</time>
      </trkpt>
      <trkpt lat="48.52023" lon="-3.52629">
        <ele>209</ele>
        <time>2021-07-22T10:44:56.254Z</time>
      </trkpt>
      <trkpt lat="48.5202" lon="-3.52623">
        <ele>210</ele>
        <time>2021-07-22T10:45:01.258Z</time>
      </trkpt>
      <trkpt lat="48.52018" lon="-3.52614">
        <ele>210</ele>
        <time>2021-07-22T10:45:06.276Z</time>
      </trkpt>
      <trkpt lat="48.52015" lon="-3.52608">
        <ele>210</ele>
        <time>2021-07-22T10:45:11.265Z</time>
      </trkpt>
      <trkpt lat="48.52011" lon="-3.52604">
        <ele>211</ele>
        <time>2021-07-22T10:45:16.256Z</time>
      </trkpt>
      <trkpt lat="48.52012" lon="-3.52584">
        <ele>212</ele>
        <time>2021-07-22T10:50:40.250Z</time>
      </trkpt>
      <trkpt lat="48.52012" lon="-3.52583">
        <ele>212</ele>
        <time>2021-07-22T10:50:44.266Z</time>
      </trkpt>
      <trkpt lat="48.52012" lon="-3.52583">
        <ele>212</ele>
        <time>2021-07-22T10:51:09.274Z</time>
      </trkpt>
      <trkpt lat="48.52012" lon="-3.52583">
        <ele>212</ele>
        <time>2021-07-22T10:51:14.253Z</time>
      </trkpt>
      <trkpt lat="48.52011" lon="-3.52582">
        <ele>212</ele>
        <time>2021-07-22T10:51:38.251Z</time>
      </trkpt>
      <trkpt lat="48.5201" lon="-3.52582">
        <ele>212</ele>
        <time>2021-07-22T10:55:04.265Z</time>
      </trkpt>
      <trkpt lat="48.52012" lon="-3.52584">
        <ele>212</ele>
        <time>2021-07-22T10:56:11.265Z</time>
      </trkpt>
      <trkpt lat="48.5201" lon="-3.52591">
        <ele>212</ele>
        <time>2021-07-22T10:56:16.263Z</time>
      </trkpt>
      <trkpt lat="48.52008" lon="-3.52599">
        <ele>211</ele>
        <time>2021-07-22T10:56:21.255Z</time>
      </trkpt>
      <trkpt lat="48.52007" lon="-3.52607">
        <ele>211</ele>
        <time>2021-07-22T10:56:25.324Z</time>
      </trkpt>
      <trkpt lat="48.52005" lon="-3.52615">
        <ele>211</ele>
        <time>2021-07-22T10:56:30.272Z</time>
      </trkpt>
      <trkpt lat="48.52002" lon="-3.52625">
        <ele>211</ele>
        <time>2021-07-22T10:56:35.260Z</time>
      </trkpt>
      <trkpt lat="48.52" lon="-3.52631">
        <ele>210</ele>
        <time>2021-07-22T10:56:39.274Z</time>
      </trkpt>
      <trkpt lat="48.51997" lon="-3.5264">
        <ele>210</ele>
        <time>2021-07-22T10:56:44.287Z</time>
      </trkpt>
      <trkpt lat="48.51995" lon="-3.5265">
        <ele>210</ele>
        <time>2021-07-22T10:56:49.289Z</time>
      </trkpt>
      <trkpt lat="48.51993" lon="-3.52659">
        <ele>209</ele>
        <time>2021-07-22T10:56:54.268Z</time>
      </trkpt>
      <trkpt lat="48.51991" lon="-3.52666">
        <ele>209</ele>
        <time>2021-07-22T10:56:59.267Z</time>
      </trkpt>
      <trkpt lat="48.5199" lon="-3.52676">
        <ele>209</ele>
        <time>2021-07-22T10:57:04.257Z</time>
      </trkpt>
      <trkpt lat="48.5199" lon="-3.52682">
        <ele>208</ele>
        <time>2021-07-22T10:57:08.280Z</time>
      </trkpt>
      <trkpt lat="48.51995" lon="-3.52688">
        <ele>208</ele>
        <time>2021-07-22T10:57:13.266Z</time>
      </trkpt>
      <trkpt lat="48.52" lon="-3.52689">
        <ele>208</ele>
        <time>2021-07-22T10:57:17.277Z</time>
      </trkpt>
      <trkpt lat="48.52005" lon="-3.52689">
        <ele>208</ele>
        <time>2021-07-22T10:57:22.274Z</time>
      </trkpt>
      <trkpt lat="48.52011" lon="-3.52692">
        <ele>208</ele>
        <time>2021-07-22T10:57:27.277Z</time>
      </trkpt>
      <trkpt lat="48.52017" lon="-3.52693">
        <ele>209</ele>
        <time>2021-07-22T10:57:32.276Z</time>
      </trkpt>
      <trkpt lat="48.52024" lon="-3.52693">
        <ele>209</ele>
        <time>2021-07-22T10:57:37.262Z</time>
      </trkpt>
      <trkpt lat="48.5203" lon="-3.52691">
        <ele>209</ele>
        <time>2021-07-22T10:57:42.277Z</time>
      </trkpt>
      <trkpt lat="48.52036" lon="-3.52687">
        <ele>209</ele>
        <time>2021-07-22T10:57:47.270Z</time>
      </trkpt>
      <trkpt lat="48.52042" lon="-3.52684">
        <ele>211</ele>
        <time>2021-07-22T10:57:52.254Z</time>
      </trkpt>
      <trkpt lat="48.52048" lon="-3.5268">
        <ele>212</ele>
        <time>2021-07-22T10:57:57.267Z</time>
      </trkpt>
      <trkpt lat="48.52054" lon="-3.52676">
        <ele>212</ele>
        <time>2021-07-22T10:58:02.268Z</time>
      </trkpt>
      <trkpt lat="48.5206" lon="-3.52673">
        <ele>212</ele>
        <time>2021-07-22T10:58:07.253Z</time>
      </trkpt>
      <trkpt lat="48.52064" lon="-3.5267">
        <ele>212</ele>
        <time>2021-07-22T10:58:11.260Z</time>
      </trkpt>
      <trkpt lat="48.52068" lon="-3.52669">
        <ele>212</ele>
        <time>2021-07-22T10:58:15.280Z</time>
      </trkpt>
      <trkpt lat="48.52074" lon="-3.52667">
        <ele>215</ele>
        <time>2021-07-22T10:58:20.270Z</time>
      </trkpt>
      <trkpt lat="48.52078" lon="-3.52663">
        <ele>215</ele>
        <time>2021-07-22T10:58:24.259Z</time>
      </trkpt>
      <trkpt lat="48.52084" lon="-3.52658">
        <ele>215</ele>
        <time>2021-07-22T10:58:29.252Z</time>
      </trkpt>
      <trkpt lat="48.5209" lon="-3.52655">
        <ele>215</ele>
        <time>2021-07-22T10:58:34.265Z</time>
      </trkpt>
      <trkpt lat="48.52094" lon="-3.5265">
        <ele>214</ele>
        <time>2021-07-22T10:58:38.261Z</time>
      </trkpt>
      <trkpt lat="48.52099" lon="-3.52649">
        <ele>217</ele>
        <time>2021-07-22T10:58:42.283Z</time>
      </trkpt>
      <trkpt lat="48.52104" lon="-3.52644">
        <ele>217</ele>
        <time>2021-07-22T10:58:47.256Z</time>
      </trkpt>
      <trkpt lat="48.52107" lon="-3.52636">
        <ele>217</ele>
        <time>2021-07-22T10:58:52.255Z</time>
      </trkpt>
      <trkpt lat="48.52113" lon="-3.52628">
        <ele>217</ele>
        <time>2021-07-22T10:58:57.267Z</time>
      </trkpt>
      <trkpt lat="48.52119" lon="-3.5262">
        <ele>216</ele>
        <time>2021-07-22T10:59:02.266Z</time>
      </trkpt>
      <trkpt lat="48.52124" lon="-3.52613">
        <ele>216</ele>
        <time>2021-07-22T10:59:07.281Z</time>
      </trkpt>
      <trkpt lat="48.5213" lon="-3.52606">
        <ele>214</ele>
        <time>2021-07-22T10:59:12.277Z</time>
      </trkpt>
      <trkpt lat="48.52134" lon="-3.52597">
        <ele>214</ele>
        <time>2021-07-22T10:59:17.259Z</time>
      </trkpt>
      <trkpt lat="48.52137" lon="-3.52591">
        <ele>214</ele>
        <time>2021-07-22T10:59:21.254Z</time>
      </trkpt>
      <trkpt lat="48.52141" lon="-3.52585">
        <ele>214</ele>
        <time>2021-07-22T10:59:26.259Z</time>
      </trkpt>
      <trkpt lat="48.52143" lon="-3.52572">
        <ele>214</ele>
        <time>2021-07-22T10:59:31.258Z</time>
      </trkpt>
      <trkpt lat="48.52144" lon="-3.5256">
        <ele>214</ele>
        <time>2021-07-22T10:59:36.265Z</time>
      </trkpt>
      <trkpt lat="48.52146" lon="-3.52549">
        <ele>214</ele>
        <time>2021-07-22T10:59:41.256Z</time>
      </trkpt>
      <trkpt lat="48.52149" lon="-3.52539">
        <ele>214</ele>
        <time>2021-07-22T10:59:46.269Z</time>
      </trkpt>
      <trkpt lat="48.52149" lon="-3.5253">
        <ele>214</ele>
        <time>2021-07-22T10:59:51.265Z</time>
      </trkpt>
      <trkpt lat="48.52152" lon="-3.52521">
        <ele>214</ele>
        <time>2021-07-22T10:59:56.262Z</time>
      </trkpt>
      <trkpt lat="48.52154" lon="-3.5251">
        <ele>214</ele>
        <time>2021-07-22T11:00:01.269Z</time>
      </trkpt>
      <trkpt lat="48.52156" lon="-3.52501">
        <ele>214</ele>
        <time>2021-07-22T11:00:06.269Z</time>
      </trkpt>
      <trkpt lat="48.52161" lon="-3.5249">
        <ele>214</ele>
        <time>2021-07-22T11:00:11.259Z</time>
      </trkpt>
      <trkpt lat="48.5217" lon="-3.52487">
        <ele>214</ele>
        <time>2021-07-22T11:00:16.265Z</time>
      </trkpt>
      <trkpt lat="48.52176" lon="-3.52494">
        <ele>214</ele>
        <time>2021-07-22T11:00:21.262Z</time>
      </trkpt>
      <trkpt lat="48.5218" lon="-3.525">
        <ele>214</ele>
        <time>2021-07-22T11:00:25.277Z</time>
      </trkpt>
      <trkpt lat="48.52184" lon="-3.52508">
        <ele>208</ele>
        <time>2021-07-22T11:00:30.293Z</time>
      </trkpt>
      <trkpt lat="48.52188" lon="-3.52515">
        <ele>209</ele>
        <time>2021-07-22T11:00:35.257Z</time>
      </trkpt>
      <trkpt lat="48.52192" lon="-3.52523">
        <ele>209</ele>
        <time>2021-07-22T11:00:40.262Z</time>
      </trkpt>
      <trkpt lat="48.52196" lon="-3.5253">
        <ele>209</ele>
        <time>2021-07-22T11:00:44.292Z</time>
      </trkpt>
      <trkpt lat="48.52201" lon="-3.52539">
        <ele>209</ele>
        <time>2021-07-22T11:00:49.260Z</time>
      </trkpt>
      <trkpt lat="48.52206" lon="-3.52548">
        <ele>210</ele>
        <time>2021-07-22T11:00:54.279Z</time>
      </trkpt>
      <trkpt lat="48.52211" lon="-3.52554">
        <ele>208</ele>
        <time>2021-07-22T11:00:59.274Z</time>
      </trkpt>
      <trkpt lat="48.52217" lon="-3.5256">
        <ele>208</ele>
        <time>2021-07-22T11:01:04.268Z</time>
      </trkpt>
      <trkpt lat="48.52222" lon="-3.52565">
        <ele>208</ele>
        <time>2021-07-22T11:01:09.273Z</time>
      </trkpt>
      <trkpt lat="48.52227" lon="-3.52571">
        <ele>209</ele>
        <time>2021-07-22T11:01:14.274Z</time>
      </trkpt>
      <trkpt lat="48.52233" lon="-3.52575">
        <ele>209</ele>
        <time>2021-07-22T11:01:19.268Z</time>
      </trkpt>
      <trkpt lat="48.52239" lon="-3.5258">
        <ele>209</ele>
        <time>2021-07-22T11:01:24.274Z</time>
      </trkpt>
      <trkpt lat="48.52245" lon="-3.52584">
        <ele>209</ele>
        <time>2021-07-22T11:01:29.263Z</time>
      </trkpt>
      <trkpt lat="48.5225" lon="-3.52587">
        <ele>209</ele>
        <time>2021-07-22T11:01:33.274Z</time>
      </trkpt>
      <trkpt lat="48.52259" lon="-3.52594">
        <ele>209</ele>
        <time>2021-07-22T11:01:38.260Z</time>
      </trkpt>
      <trkpt lat="48.52266" lon="-3.52596">
        <ele>210</ele>
        <time>2021-07-22T11:01:43.255Z</time>
      </trkpt>
      <trkpt lat="48.5227" lon="-3.52596">
        <ele>210</ele>
        <time>2021-07-22T11:01:48.277Z</time>
      </trkpt>
      <trkpt lat="48.52275" lon="-3.52598">
        <ele>212</ele>
        <time>2021-07-22T11:01:52.282Z</time>
      </trkpt>
      <trkpt lat="48.5228" lon="-3.52599">
        <ele>212</ele>
        <time>2021-07-22T11:01:57.277Z</time>
      </trkpt>
      <trkpt lat="48.52287" lon="-3.52601">
        <ele>212</ele>
        <time>2021-07-22T11:02:02.284Z</time>
      </trkpt>
      <trkpt lat="48.52293" lon="-3.52601">
        <ele>213</ele>
        <time>2021-07-22T11:02:07.273Z</time>
      </trkpt>
      <trkpt lat="48.52298" lon="-3.52603">
        <ele>213</ele>
        <time>2021-07-22T11:02:11.257Z</time>
      </trkpt>
      <trkpt lat="48.52303" lon="-3.52604">
        <ele>213</ele>
        <time>2021-07-22T11:02:16.270Z</time>
      </trkpt>
      <trkpt lat="48.52309" lon="-3.52604">
        <ele>213</ele>
        <time>2021-07-22T11:02:21.255Z</time>
      </trkpt>
      <trkpt lat="48.52315" lon="-3.52604">
        <ele>213</ele>
        <time>2021-07-22T11:02:26.284Z</time>
      </trkpt>
      <trkpt lat="48.5232" lon="-3.52605">
        <ele>213</ele>
        <time>2021-07-22T11:02:30.267Z</time>
      </trkpt>
      <trkpt lat="48.52327" lon="-3.52607">
        <ele>213</ele>
        <time>2021-07-22T11:02:35.270Z</time>
      </trkpt>
      <trkpt lat="48.52333" lon="-3.52609">
        <ele>213</ele>
        <time>2021-07-22T11:02:40.275Z</time>
      </trkpt>
      <trkpt lat="48.5234" lon="-3.52609">
        <ele>213</ele>
        <time>2021-07-22T11:02:45.284Z</time>
      </trkpt>
      <trkpt lat="48.52347" lon="-3.52612">
        <ele>215</ele>
        <time>2021-07-22T11:02:50.280Z</time>
      </trkpt>
      <trkpt lat="48.52354" lon="-3.52614">
        <ele>215</ele>
        <time>2021-07-22T11:02:55.290Z</time>
      </trkpt>
      <trkpt lat="48.52358" lon="-3.52615">
        <ele>215</ele>
        <time>2021-07-22T11:02:59.282Z</time>
      </trkpt>
      <trkpt lat="48.52364" lon="-3.52615">
        <ele>215</ele>
        <time>2021-07-22T11:03:04.282Z</time>
      </trkpt>
      <trkpt lat="48.5237" lon="-3.52617">
        <ele>215</ele>
        <time>2021-07-22T11:03:09.276Z</time>
      </trkpt>
      <trkpt lat="48.52376" lon="-3.52619">
        <ele>217</ele>
        <time>2021-07-22T11:03:14.275Z</time>
      </trkpt>
      <trkpt lat="48.52382" lon="-3.52619">
        <ele>217</ele>
        <time>2021-07-22T11:03:19.271Z</time>
      </trkpt>
      <trkpt lat="48.52387" lon="-3.52621">
        <ele>217</ele>
        <time>2021-07-22T11:03:24.270Z</time>
      </trkpt>
      <trkpt lat="48.52394" lon="-3.52621">
        <ele>217</ele>
        <time>2021-07-22T11:03:29.262Z</time>
      </trkpt>
      <trkpt lat="48.524" lon="-3.52622">
        <ele>217</ele>
        <time>2021-07-22T11:03:34.262Z</time>
      </trkpt>
      <trkpt lat="48.52406" lon="-3.52622">
        <ele>217</ele>
        <time>2021-07-22T11:03:39.276Z</time>
      </trkpt>
      <trkpt lat="48.52411" lon="-3.52621">
        <ele>217</ele>
        <time>2021-07-22T11:03:43.275Z</time>
      </trkpt>
      <trkpt lat="48.52417" lon="-3.52621">
        <ele>217</ele>
        <time>2021-07-22T11:03:48.276Z</time>
      </trkpt>
      <trkpt lat="48.52423" lon="-3.5262">
        <ele>217</ele>
        <time>2021-07-22T11:03:53.285Z</time>
      </trkpt>
      <trkpt lat="48.5243" lon="-3.52621">
        <ele>217</ele>
        <time>2021-07-22T11:03:58.273Z</time>
      </trkpt>
      <trkpt lat="48.52436" lon="-3.5262">
        <ele>218</ele>
        <time>2021-07-22T11:04:02.276Z</time>
      </trkpt>
      <trkpt lat="48.52442" lon="-3.52618">
        <ele>218</ele>
        <time>2021-07-22T11:04:07.282Z</time>
      </trkpt>
      <trkpt lat="48.52448" lon="-3.5262">
        <ele>218</ele>
        <time>2021-07-22T11:04:12.251Z</time>
      </trkpt>
      <trkpt lat="48.52452" lon="-3.5262">
        <ele>218</ele>
        <time>2021-07-22T11:04:16.265Z</time>
      </trkpt>
      <trkpt lat="48.52457" lon="-3.52619">
        <ele>218</ele>
        <time>2021-07-22T11:04:21.255Z</time>
      </trkpt>
      <trkpt lat="48.52462" lon="-3.52625">
        <ele>221</ele>
        <time>2021-07-22T11:04:26.255Z</time>
      </trkpt>
      <trkpt lat="48.52465" lon="-3.52635">
        <ele>221</ele>
        <time>2021-07-22T11:04:31.259Z</time>
      </trkpt>
      <trkpt lat="48.52466" lon="-3.52645">
        <ele>221</ele>
        <time>2021-07-22T11:04:36.261Z</time>
      </trkpt>
      <trkpt lat="48.52466" lon="-3.52654">
        <ele>221</ele>
        <time>2021-07-22T11:04:40.268Z</time>
      </trkpt>
      <trkpt lat="48.52464" lon="-3.52661">
        <ele>221</ele>
        <time>2021-07-22T11:04:44.290Z</time>
      </trkpt>
      <trkpt lat="48.52462" lon="-3.5267">
        <ele>221</ele>
        <time>2021-07-22T11:04:49.256Z</time>
      </trkpt>
      <trkpt lat="48.52461" lon="-3.5268">
        <ele>221</ele>
        <time>2021-07-22T11:04:54.261Z</time>
      </trkpt>
      <trkpt lat="48.52459" lon="-3.52686">
        <ele>220</ele>
        <time>2021-07-22T11:04:58.323Z</time>
      </trkpt>
      <trkpt lat="48.52458" lon="-3.52696">
        <ele>220</ele>
        <time>2021-07-22T11:05:03.285Z</time>
      </trkpt>
      <trkpt lat="48.52455" lon="-3.52706">
        <ele>220</ele>
        <time>2021-07-22T11:05:08.264Z</time>
      </trkpt>
      <trkpt lat="48.52453" lon="-3.52717">
        <ele>220</ele>
        <time>2021-07-22T11:05:13.264Z</time>
      </trkpt>
      <trkpt lat="48.52451" lon="-3.52725">
        <ele>220</ele>
        <time>2021-07-22T11:05:18.258Z</time>
      </trkpt>
      <trkpt lat="48.52449" lon="-3.52736">
        <ele>220</ele>
        <time>2021-07-22T11:05:23.260Z</time>
      </trkpt>
      <trkpt lat="48.52446" lon="-3.52746">
        <ele>220</ele>
        <time>2021-07-22T11:05:28.273Z</time>
      </trkpt>
      <trkpt lat="48.52447" lon="-3.52747">
        <ele>220</ele>
        <time>2021-07-22T11:05:33.276Z</time>
      </trkpt>
      <trkpt lat="48.52447" lon="-3.52748">
        <ele>220</ele>
        <time>2021-07-22T11:05:38.272Z</time>
      </trkpt>
      <trkpt lat="48.52444" lon="-3.52759">
        <ele>220</ele>
        <time>2021-07-22T11:05:43.279Z</time>
      </trkpt>
      <trkpt lat="48.52441" lon="-3.52768">
        <ele>220</ele>
        <time>2021-07-22T11:05:48.280Z</time>
      </trkpt>
      <trkpt lat="48.52437" lon="-3.52775">
        <ele>220</ele>
        <time>2021-07-22T11:05:53.287Z</time>
      </trkpt>
      <trkpt lat="48.52434" lon="-3.52784">
        <ele>220</ele>
        <time>2021-07-22T11:05:58.278Z</time>
      </trkpt>
      <trkpt lat="48.52431" lon="-3.52792">
        <ele>220</ele>
        <time>2021-07-22T11:06:03.263Z</time>
      </trkpt>
      <trkpt lat="48.52428" lon="-3.52803">
        <ele>220</ele>
        <time>2021-07-22T11:06:08.276Z</time>
      </trkpt>
      <trkpt lat="48.52426" lon="-3.52811">
        <ele>220</ele>
        <time>2021-07-22T11:06:13.263Z</time>
      </trkpt>
      <trkpt lat="48.52424" lon="-3.52819">
        <ele>220</ele>
        <time>2021-07-22T11:06:17.262Z</time>
      </trkpt>
      <trkpt lat="48.52423" lon="-3.52827">
        <ele>219</ele>
        <time>2021-07-22T11:06:22.269Z</time>
      </trkpt>
      <trkpt lat="48.52421" lon="-3.52837">
        <ele>219</ele>
        <time>2021-07-22T11:06:27.279Z</time>
      </trkpt>
      <trkpt lat="48.52419" lon="-3.52847">
        <ele>219</ele>
        <time>2021-07-22T11:06:32.278Z</time>
      </trkpt>
      <trkpt lat="48.52417" lon="-3.52858">
        <ele>219</ele>
        <time>2021-07-22T11:06:37.273Z</time>
      </trkpt>
      <trkpt lat="48.52415" lon="-3.52867">
        <ele>219</ele>
        <time>2021-07-22T11:06:42.284Z</time>
      </trkpt>
      <trkpt lat="48.52413" lon="-3.52876">
        <ele>218</ele>
        <time>2021-07-22T11:06:47.273Z</time>
      </trkpt>
      <trkpt lat="48.5241" lon="-3.52887">
        <ele>218</ele>
        <time>2021-07-22T11:06:52.291Z</time>
      </trkpt>
      <trkpt lat="48.52407" lon="-3.52896">
        <ele>218</ele>
        <time>2021-07-22T11:06:57.262Z</time>
      </trkpt>
      <trkpt lat="48.52403" lon="-3.52903">
        <ele>218</ele>
        <time>2021-07-22T11:07:02.270Z</time>
      </trkpt>
      <trkpt lat="48.52399" lon="-3.52913">
        <ele>219</ele>
        <time>2021-07-22T11:07:07.270Z</time>
      </trkpt>
      <trkpt lat="48.52395" lon="-3.5292">
        <ele>219</ele>
        <time>2021-07-22T11:07:12.270Z</time>
      </trkpt>
      <trkpt lat="48.52391" lon="-3.52927">
        <ele>219</ele>
        <time>2021-07-22T11:07:17.264Z</time>
      </trkpt>
      <trkpt lat="48.52386" lon="-3.52932">
        <ele>217</ele>
        <time>2021-07-22T11:07:22.260Z</time>
      </trkpt>
      <trkpt lat="48.52381" lon="-3.52936">
        <ele>217</ele>
        <time>2021-07-22T11:07:27.262Z</time>
      </trkpt>
      <trkpt lat="48.5238" lon="-3.52935">
        <ele>217</ele>
        <time>2021-07-22T11:07:31.283Z</time>
      </trkpt>
      <trkpt lat="48.52378" lon="-3.52937">
        <ele>217</ele>
        <time>2021-07-22T11:07:36.341Z</time>
      </trkpt>
      <trkpt lat="48.52375" lon="-3.5294">
        <ele>217</ele>
        <time>2021-07-22T11:07:41.258Z</time>
      </trkpt>
      <trkpt lat="48.52371" lon="-3.52945">
        <ele>218</ele>
        <time>2021-07-22T11:07:45.262Z</time>
      </trkpt>
      <trkpt lat="48.52365" lon="-3.5295">
        <ele>218</ele>
        <time>2021-07-22T11:07:50.271Z</time>
      </trkpt>
      <trkpt lat="48.52361" lon="-3.52958">
        <ele>218</ele>
        <time>2021-07-22T11:07:55.263Z</time>
      </trkpt>
      <trkpt lat="48.52356" lon="-3.52964">
        <ele>216</ele>
        <time>2021-07-22T11:08:00.260Z</time>
      </trkpt>
      <trkpt lat="48.52352" lon="-3.52969">
        <ele>216</ele>
        <time>2021-07-22T11:08:05.265Z</time>
      </trkpt>
      <trkpt lat="48.52348" lon="-3.52974">
        <ele>216</ele>
        <time>2021-07-22T11:08:09.274Z</time>
      </trkpt>
      <trkpt lat="48.52343" lon="-3.52981">
        <ele>215</ele>
        <time>2021-07-22T11:08:14.270Z</time>
      </trkpt>
      <trkpt lat="48.52339" lon="-3.52989">
        <ele>214</ele>
        <time>2021-07-22T11:08:18.281Z</time>
      </trkpt>
      <trkpt lat="48.52335" lon="-3.52997">
        <ele>214</ele>
        <time>2021-07-22T11:08:23.270Z</time>
      </trkpt>
      <trkpt lat="48.5233" lon="-3.53003">
        <ele>214</ele>
        <time>2021-07-22T11:08:28.266Z</time>
      </trkpt>
      <trkpt lat="48.52325" lon="-3.53008">
        <ele>214</ele>
        <time>2021-07-22T11:08:32.280Z</time>
      </trkpt>
      <trkpt lat="48.5232" lon="-3.53016">
        <ele>213</ele>
        <time>2021-07-22T11:08:37.256Z</time>
      </trkpt>
      <trkpt lat="48.52316" lon="-3.53023">
        <ele>212</ele>
        <time>2021-07-22T11:08:42.267Z</time>
      </trkpt>
      <trkpt lat="48.52311" lon="-3.5303">
        <ele>212</ele>
        <time>2021-07-22T11:08:47.258Z</time>
      </trkpt>
      <trkpt lat="48.52304" lon="-3.53039">
        <ele>212</ele>
        <time>2021-07-22T11:08:52.256Z</time>
      </trkpt>
      <trkpt lat="48.523" lon="-3.53046">
        <ele>212</ele>
        <time>2021-07-22T11:08:57.277Z</time>
      </trkpt>
      <trkpt lat="48.52295" lon="-3.53053">
        <ele>212</ele>
        <time>2021-07-22T11:09:02.278Z</time>
      </trkpt>
      <trkpt lat="48.5229" lon="-3.53061">
        <ele>211</ele>
        <time>2021-07-22T11:09:07.257Z</time>
      </trkpt>
      <trkpt lat="48.52287" lon="-3.53067">
        <ele>211</ele>
        <time>2021-07-22T11:09:11.282Z</time>
      </trkpt>
      <trkpt lat="48.52282" lon="-3.53074">
        <ele>211</ele>
        <time>2021-07-22T11:09:16.281Z</time>
      </trkpt>
      <trkpt lat="48.52278" lon="-3.53084">
        <ele>211</ele>
        <time>2021-07-22T11:09:21.268Z</time>
      </trkpt>
      <trkpt lat="48.52274" lon="-3.53091">
        <ele>211</ele>
        <time>2021-07-22T11:09:25.282Z</time>
      </trkpt>
      <trkpt lat="48.5227" lon="-3.53099">
        <ele>211</ele>
        <time>2021-07-22T11:09:30.270Z</time>
      </trkpt>
      <trkpt lat="48.52267" lon="-3.53109">
        <ele>211</ele>
        <time>2021-07-22T11:09:35.265Z</time>
      </trkpt>
      <trkpt lat="48.52264" lon="-3.53117">
        <ele>211</ele>
        <time>2021-07-22T11:09:40.273Z</time>
      </trkpt>
      <trkpt lat="48.5226" lon="-3.53125">
        <ele>210</ele>
        <time>2021-07-22T11:09:45.270Z</time>
      </trkpt>
      <trkpt lat="48.52256" lon="-3.53133">
        <ele>211</ele>
        <time>2021-07-22T11:09:50.273Z</time>
      </trkpt>
      <trkpt lat="48.52252" lon="-3.53142">
        <ele>211</ele>
        <time>2021-07-22T11:09:55.274Z</time>
      </trkpt>
      <trkpt lat="48.52248" lon="-3.5315">
        <ele>211</ele>
        <time>2021-07-22T11:10:00.274Z</time>
      </trkpt>
      <trkpt lat="48.52245" lon="-3.53158">
        <ele>213</ele>
        <time>2021-07-22T11:10:05.289Z</time>
      </trkpt>
      <trkpt lat="48.52241" lon="-3.53167">
        <ele>213</ele>
        <time>2021-07-22T11:10:10.294Z</time>
      </trkpt>
      <trkpt lat="48.52237" lon="-3.53176">
        <ele>213</ele>
        <time>2021-07-22T11:10:15.280Z</time>
      </trkpt>
      <trkpt lat="48.52234" lon="-3.53186">
        <ele>216</ele>
        <time>2021-07-22T11:10:20.278Z</time>
      </trkpt>
      <trkpt lat="48.52231" lon="-3.53192">
        <ele>216</ele>
        <time>2021-07-22T11:10:25.286Z</time>
      </trkpt>
      <trkpt lat="48.52229" lon="-3.53201">
        <ele>216</ele>
        <time>2021-07-22T11:10:30.267Z</time>
      </trkpt>
      <trkpt lat="48.52223" lon="-3.53208">
        <ele>216</ele>
        <time>2021-07-22T11:10:35.280Z</time>
      </trkpt>
      <trkpt lat="48.52219" lon="-3.53216">
        <ele>217</ele>
        <time>2021-07-22T11:10:40.271Z</time>
      </trkpt>
      <trkpt lat="48.52215" lon="-3.53224">
        <ele>217</ele>
        <time>2021-07-22T11:10:45.268Z</time>
      </trkpt>
      <trkpt lat="48.52212" lon="-3.53233">
        <ele>217</ele>
        <time>2021-07-22T11:10:50.265Z</time>
      </trkpt>
      <trkpt lat="48.52209" lon="-3.53242">
        <ele>218</ele>
        <time>2021-07-22T11:10:55.278Z</time>
      </trkpt>
      <trkpt lat="48.52207" lon="-3.53249">
        <ele>217</ele>
        <time>2021-07-22T11:11:00.279Z</time>
      </trkpt>
      <trkpt lat="48.52201" lon="-3.53257">
        <ele>217</ele>
        <time>2021-07-22T11:11:05.275Z</time>
      </trkpt>
      <trkpt lat="48.52196" lon="-3.53264">
        <ele>218</ele>
        <time>2021-07-22T11:11:10.275Z</time>
      </trkpt>
      <trkpt lat="48.52193" lon="-3.53272">
        <ele>218</ele>
        <time>2021-07-22T11:11:15.277Z</time>
      </trkpt>
      <trkpt lat="48.52188" lon="-3.53279">
        <ele>218</ele>
        <time>2021-07-22T11:11:20.273Z</time>
      </trkpt>
      <trkpt lat="48.52185" lon="-3.53285">
        <ele>218</ele>
        <time>2021-07-22T11:11:25.266Z</time>
      </trkpt>
      <trkpt lat="48.52184" lon="-3.5329">
        <ele>218</ele>
        <time>2021-07-22T11:11:30.279Z</time>
      </trkpt>
      <trkpt lat="48.5218" lon="-3.53298">
        <ele>220</ele>
        <time>2021-07-22T11:11:35.257Z</time>
      </trkpt>
      <trkpt lat="48.52175" lon="-3.53307">
        <ele>220</ele>
        <time>2021-07-22T11:11:40.267Z</time>
      </trkpt>
      <trkpt lat="48.52172" lon="-3.53318">
        <ele>220</ele>
        <time>2021-07-22T11:11:45.267Z</time>
      </trkpt>
      <trkpt lat="48.52169" lon="-3.5333">
        <ele>222</ele>
        <time>2021-07-22T11:11:50.293Z</time>
      </trkpt>
      <trkpt lat="48.52166" lon="-3.53339">
        <ele>222</ele>
        <time>2021-07-22T11:11:55.262Z</time>
      </trkpt>
      <trkpt lat="48.52163" lon="-3.53348">
        <ele>224</ele>
        <time>2021-07-22T11:11:59.268Z</time>
      </trkpt>
      <trkpt lat="48.52159" lon="-3.53357">
        <ele>224</ele>
        <time>2021-07-22T11:12:04.285Z</time>
      </trkpt>
      <trkpt lat="48.52157" lon="-3.53365">
        <ele>224</ele>
        <time>2021-07-22T11:12:09.272Z</time>
      </trkpt>
      <trkpt lat="48.52155" lon="-3.53373">
        <ele>224</ele>
        <time>2021-07-22T11:12:13.281Z</time>
      </trkpt>
      <trkpt lat="48.52153" lon="-3.53382">
        <ele>225</ele>
        <time>2021-07-22T11:12:18.279Z</time>
      </trkpt>
      <trkpt lat="48.5215" lon="-3.53391">
        <ele>223</ele>
        <time>2021-07-22T11:12:23.266Z</time>
      </trkpt>
      <trkpt lat="48.52148" lon="-3.53398">
        <ele>223</ele>
        <time>2021-07-22T11:12:27.274Z</time>
      </trkpt>
      <trkpt lat="48.52146" lon="-3.53407">
        <ele>223</ele>
        <time>2021-07-22T11:12:32.272Z</time>
      </trkpt>
      <trkpt lat="48.52144" lon="-3.53415">
        <ele>223</ele>
        <time>2021-07-22T11:12:37.277Z</time>
      </trkpt>
      <trkpt lat="48.52141" lon="-3.53425">
        <ele>223</ele>
        <time>2021-07-22T11:12:42.267Z</time>
      </trkpt>
      <trkpt lat="48.5214" lon="-3.53436">
        <ele>223</ele>
        <time>2021-07-22T11:12:47.278Z</time>
      </trkpt>
      <trkpt lat="48.5214" lon="-3.53446">
        <ele>223</ele>
        <time>2021-07-22T11:12:52.282Z</time>
      </trkpt>
      <trkpt lat="48.52141" lon="-3.53454">
        <ele>223</ele>
        <time>2021-07-22T11:12:57.282Z</time>
      </trkpt>
      <trkpt lat="48.5214" lon="-3.53462">
        <ele>222</ele>
        <time>2021-07-22T11:13:02.280Z</time>
      </trkpt>
      <trkpt lat="48.52138" lon="-3.53474">
        <ele>222</ele>
        <time>2021-07-22T11:13:07.269Z</time>
      </trkpt>
      <trkpt lat="48.52137" lon="-3.53481">
        <ele>222</ele>
        <time>2021-07-22T11:13:11.276Z</time>
      </trkpt>
      <trkpt lat="48.52135" lon="-3.5349">
        <ele>222</ele>
        <time>2021-07-22T11:13:16.260Z</time>
      </trkpt>
      <trkpt lat="48.52135" lon="-3.53497">
        <ele>222</ele>
        <time>2021-07-22T11:13:20.277Z</time>
      </trkpt>
      <trkpt lat="48.52134" lon="-3.53507">
        <ele>222</ele>
        <time>2021-07-22T11:13:25.271Z</time>
      </trkpt>
      <trkpt lat="48.52134" lon="-3.53517">
        <ele>222</ele>
        <time>2021-07-22T11:13:30.278Z</time>
      </trkpt>
      <trkpt lat="48.52134" lon="-3.53525">
        <ele>222</ele>
        <time>2021-07-22T11:13:35.259Z</time>
      </trkpt>
      <trkpt lat="48.52134" lon="-3.53534">
        <ele>222</ele>
        <time>2021-07-22T11:13:40.264Z</time>
      </trkpt>
      <trkpt lat="48.52133" lon="-3.53546">
        <ele>223</ele>
        <time>2021-07-22T11:13:45.259Z</time>
      </trkpt>
      <trkpt lat="48.52134" lon="-3.53557">
        <ele>223</ele>
        <time>2021-07-22T11:13:50.281Z</time>
      </trkpt>
      <trkpt lat="48.52133" lon="-3.53565">
        <ele>223</ele>
        <time>2021-07-22T11:13:54.285Z</time>
      </trkpt>
      <trkpt lat="48.52135" lon="-3.53575">
        <ele>222</ele>
        <time>2021-07-22T11:13:59.274Z</time>
      </trkpt>
      <trkpt lat="48.52134" lon="-3.53585">
        <ele>222</ele>
        <time>2021-07-22T11:14:04.275Z</time>
      </trkpt>
      <trkpt lat="48.52132" lon="-3.53595">
        <ele>222</ele>
        <time>2021-07-22T11:14:09.278Z</time>
      </trkpt>
      <trkpt lat="48.52131" lon="-3.53602">
        <ele>222</ele>
        <time>2021-07-22T11:14:13.252Z</time>
      </trkpt>
      <trkpt lat="48.52129" lon="-3.53609">
        <ele>222</ele>
        <time>2021-07-22T11:14:17.282Z</time>
      </trkpt>
      <trkpt lat="48.52128" lon="-3.53618">
        <ele>222</ele>
        <time>2021-07-22T11:14:22.261Z</time>
      </trkpt>
      <trkpt lat="48.52129" lon="-3.53626">
        <ele>222</ele>
        <time>2021-07-22T11:14:27.262Z</time>
      </trkpt>
      <trkpt lat="48.5213" lon="-3.53634">
        <ele>222</ele>
        <time>2021-07-22T11:14:32.261Z</time>
      </trkpt>
      <trkpt lat="48.5213" lon="-3.53642">
        <ele>222</ele>
        <time>2021-07-22T11:14:37.265Z</time>
      </trkpt>
      <trkpt lat="48.52128" lon="-3.53652">
        <ele>222</ele>
        <time>2021-07-22T11:14:42.282Z</time>
      </trkpt>
      <trkpt lat="48.52126" lon="-3.53663">
        <ele>222</ele>
        <time>2021-07-22T11:14:47.279Z</time>
      </trkpt>
      <trkpt lat="48.52124" lon="-3.53675">
        <ele>218</ele>
        <time>2021-07-22T11:14:52.250Z</time>
      </trkpt>
      <trkpt lat="48.52121" lon="-3.53685">
        <ele>217</ele>
        <time>2021-07-22T11:14:57.272Z</time>
      </trkpt>
      <trkpt lat="48.52118" lon="-3.53694">
        <ele>217</ele>
        <time>2021-07-22T11:15:02.251Z</time>
      </trkpt>
      <trkpt lat="48.52116" lon="-3.53702">
        <ele>217</ele>
        <time>2021-07-22T11:15:07.273Z</time>
      </trkpt>
      <trkpt lat="48.52115" lon="-3.53711">
        <ele>216</ele>
        <time>2021-07-22T11:15:12.255Z</time>
      </trkpt>
      <trkpt lat="48.52112" lon="-3.5372">
        <ele>216</ele>
        <time>2021-07-22T11:15:16.272Z</time>
      </trkpt>
      <trkpt lat="48.52111" lon="-3.53728">
        <ele>216</ele>
        <time>2021-07-22T11:15:21.262Z</time>
      </trkpt>
      <trkpt lat="48.5211" lon="-3.53737">
        <ele>215</ele>
        <time>2021-07-22T11:15:26.259Z</time>
      </trkpt>
      <trkpt lat="48.52108" lon="-3.53747">
        <ele>215</ele>
        <time>2021-07-22T11:15:31.290Z</time>
      </trkpt>
      <trkpt lat="48.52105" lon="-3.53757">
        <ele>215</ele>
        <time>2021-07-22T11:15:36.252Z</time>
      </trkpt>
      <trkpt lat="48.52102" lon="-3.53765">
        <ele>213</ele>
        <time>2021-07-22T11:15:40.277Z</time>
      </trkpt>
      <trkpt lat="48.521" lon="-3.5377">
        <ele>213</ele>
        <time>2021-07-22T11:15:45.277Z</time>
      </trkpt>
      <trkpt lat="48.52097" lon="-3.53776">
        <ele>212</ele>
        <time>2021-07-22T11:15:50.276Z</time>
      </trkpt>
      <trkpt lat="48.52092" lon="-3.5378">
        <ele>212</ele>
        <time>2021-07-22T11:18:08.278Z</time>
      </trkpt>
      <trkpt lat="48.52092" lon="-3.53786">
        <ele>212</ele>
        <time>2021-07-22T11:18:13.288Z</time>
      </trkpt>
      <trkpt lat="48.52092" lon="-3.53786">
        <ele>212</ele>
        <time>2021-07-22T11:18:18.272Z</time>
      </trkpt>
      <trkpt lat="48.52091" lon="-3.53793">
        <ele>212</ele>
        <time>2021-07-22T11:18:52.283Z</time>
      </trkpt>
      <trkpt lat="48.52088" lon="-3.538">
        <ele>212</ele>
        <time>2021-07-22T11:18:57.282Z</time>
      </trkpt>
      <trkpt lat="48.52086" lon="-3.53805">
        <ele>212</ele>
        <time>2021-07-22T11:19:02.274Z</time>
      </trkpt>
      <trkpt lat="48.52084" lon="-3.53813">
        <ele>212</ele>
        <time>2021-07-22T11:19:07.269Z</time>
      </trkpt>
      <trkpt lat="48.52082" lon="-3.53819">
        <ele>212</ele>
        <time>2021-07-22T11:19:12.272Z</time>
      </trkpt>
      <trkpt lat="48.52079" lon="-3.53826">
        <ele>213</ele>
        <time>2021-07-22T11:19:17.279Z</time>
      </trkpt>
      <trkpt lat="48.52076" lon="-3.53833">
        <ele>213</ele>
        <time>2021-07-22T11:19:22.275Z</time>
      </trkpt>
      <trkpt lat="48.52074" lon="-3.53841">
        <ele>213</ele>
        <time>2021-07-22T11:19:27.267Z</time>
      </trkpt>
      <trkpt lat="48.52072" lon="-3.53849">
        <ele>213</ele>
        <time>2021-07-22T11:19:32.281Z</time>
      </trkpt>
      <trkpt lat="48.52069" lon="-3.53858">
        <ele>213</ele>
        <time>2021-07-22T11:19:37.272Z</time>
      </trkpt>
      <trkpt lat="48.52066" lon="-3.53864">
        <ele>213</ele>
        <time>2021-07-22T11:19:42.287Z</time>
      </trkpt>
      <trkpt lat="48.52063" lon="-3.5387">
        <ele>213</ele>
        <time>2021-07-22T11:19:47.267Z</time>
      </trkpt>
      <trkpt lat="48.5206" lon="-3.5388">
        <ele>213</ele>
        <time>2021-07-22T11:19:52.265Z</time>
      </trkpt>
      <trkpt lat="48.52058" lon="-3.53885">
        <ele>213</ele>
        <time>2021-07-22T11:19:56.281Z</time>
      </trkpt>
      <trkpt lat="48.52056" lon="-3.53894">
        <ele>213</ele>
        <time>2021-07-22T11:20:01.262Z</time>
      </trkpt>
      <trkpt lat="48.52054" lon="-3.53901">
        <ele>213</ele>
        <time>2021-07-22T11:20:05.276Z</time>
      </trkpt>
      <trkpt lat="48.52051" lon="-3.53909">
        <ele>213</ele>
        <time>2021-07-22T11:20:10.277Z</time>
      </trkpt>
      <trkpt lat="48.52048" lon="-3.53919">
        <ele>213</ele>
        <time>2021-07-22T11:20:15.279Z</time>
      </trkpt>
      <trkpt lat="48.52044" lon="-3.53926">
        <ele>213</ele>
        <time>2021-07-22T11:20:20.292Z</time>
      </trkpt>
      <trkpt lat="48.52042" lon="-3.53936">
        <ele>212</ele>
        <time>2021-07-22T11:20:25.282Z</time>
      </trkpt>
      <trkpt lat="48.52039" lon="-3.53943">
        <ele>212</ele>
        <time>2021-07-22T11:20:30.275Z</time>
      </trkpt>
      <trkpt lat="48.52036" lon="-3.53949">
        <ele>212</ele>
        <time>2021-07-22T11:20:35.274Z</time>
      </trkpt>
      <trkpt lat="48.52031" lon="-3.53958">
        <ele>212</ele>
        <time>2021-07-22T11:20:40.265Z</time>
      </trkpt>
      <trkpt lat="48.52029" lon="-3.53964">
        <ele>212</ele>
        <time>2021-07-22T11:20:45.281Z</time>
      </trkpt>
      <trkpt lat="48.52025" lon="-3.5397">
        <ele>212</ele>
        <time>2021-07-22T11:20:50.276Z</time>
      </trkpt>
      <trkpt lat="48.52023" lon="-3.53979">
        <ele>212</ele>
        <time>2021-07-22T11:20:55.269Z</time>
      </trkpt>
      <trkpt lat="48.52021" lon="-3.53987">
        <ele>212</ele>
        <time>2021-07-22T11:21:00.281Z</time>
      </trkpt>
      <trkpt lat="48.52017" lon="-3.53996">
        <ele>212</ele>
        <time>2021-07-22T11:21:05.274Z</time>
      </trkpt>
      <trkpt lat="48.52013" lon="-3.54007">
        <ele>211</ele>
        <time>2021-07-22T11:21:10.277Z</time>
      </trkpt>
      <trkpt lat="48.5201" lon="-3.54015">
        <ele>212</ele>
        <time>2021-07-22T11:21:15.286Z</time>
      </trkpt>
      <trkpt lat="48.52009" lon="-3.5402">
        <ele>212</ele>
        <time>2021-07-22T11:21:19.276Z</time>
      </trkpt>
      <trkpt lat="48.52006" lon="-3.54027">
        <ele>212</ele>
        <time>2021-07-22T11:21:24.290Z</time>
      </trkpt>
      <trkpt lat="48.52002" lon="-3.54035">
        <ele>212</ele>
        <time>2021-07-22T11:21:29.275Z</time>
      </trkpt>
      <trkpt lat="48.51999" lon="-3.54042">
        <ele>212</ele>
        <time>2021-07-22T11:21:34.267Z</time>
      </trkpt>
      <trkpt lat="48.51996" lon="-3.54047">
        <ele>213</ele>
        <time>2021-07-22T11:21:39.264Z</time>
      </trkpt>
      <trkpt lat="48.51992" lon="-3.54055">
        <ele>213</ele>
        <time>2021-07-22T11:21:44.265Z</time>
      </trkpt>
      <trkpt lat="48.51989" lon="-3.54059">
        <ele>213</ele>
        <time>2021-07-22T11:21:48.265Z</time>
      </trkpt>
      <trkpt lat="48.51985" lon="-3.54068">
        <ele>211</ele>
        <time>2021-07-22T11:21:53.259Z</time>
      </trkpt>
      <trkpt lat="48.51981" lon="-3.54077">
        <ele>213</ele>
        <time>2021-07-22T11:21:58.279Z</time>
      </trkpt>
      <trkpt lat="48.51978" lon="-3.54087">
        <ele>213</ele>
        <time>2021-07-22T11:22:03.268Z</time>
      </trkpt>
      <trkpt lat="48.51974" lon="-3.54094">
        <ele>213</ele>
        <time>2021-07-22T11:22:08.287Z</time>
      </trkpt>
      <trkpt lat="48.51971" lon="-3.54104">
        <ele>214</ele>
        <time>2021-07-22T11:22:13.272Z</time>
      </trkpt>
      <trkpt lat="48.51968" lon="-3.54113">
        <ele>214</ele>
        <time>2021-07-22T11:22:18.269Z</time>
      </trkpt>
      <trkpt lat="48.51965" lon="-3.54122">
        <ele>214</ele>
        <time>2021-07-22T11:22:23.266Z</time>
      </trkpt>
      <trkpt lat="48.51961" lon="-3.5413">
        <ele>215</ele>
        <time>2021-07-22T11:22:28.273Z</time>
      </trkpt>
      <trkpt lat="48.51958" lon="-3.54139">
        <ele>212</ele>
        <time>2021-07-22T11:22:33.282Z</time>
      </trkpt>
      <trkpt lat="48.51956" lon="-3.54148">
        <ele>212</ele>
        <time>2021-07-22T11:22:38.262Z</time>
      </trkpt>
      <trkpt lat="48.51954" lon="-3.54156">
        <ele>212</ele>
        <time>2021-07-22T11:22:42.262Z</time>
      </trkpt>
      <trkpt lat="48.51951" lon="-3.54166">
        <ele>212</ele>
        <time>2021-07-22T11:22:47.263Z</time>
      </trkpt>
      <trkpt lat="48.51949" lon="-3.54175">
        <ele>212</ele>
        <time>2021-07-22T11:22:52.268Z</time>
      </trkpt>
      <trkpt lat="48.51946" lon="-3.54184">
        <ele>212</ele>
        <time>2021-07-22T11:22:57.257Z</time>
      </trkpt>
      <trkpt lat="48.51944" lon="-3.54192">
        <ele>212</ele>
        <time>2021-07-22T11:23:02.275Z</time>
      </trkpt>
      <trkpt lat="48.51942" lon="-3.54201">
        <ele>212</ele>
        <time>2021-07-22T11:23:07.276Z</time>
      </trkpt>
      <trkpt lat="48.5194" lon="-3.54209">
        <ele>214</ele>
        <time>2021-07-22T11:23:11.283Z</time>
      </trkpt>
      <trkpt lat="48.51937" lon="-3.54218">
        <ele>214</ele>
        <time>2021-07-22T11:23:16.280Z</time>
      </trkpt>
      <trkpt lat="48.51936" lon="-3.54227">
        <ele>214</ele>
        <time>2021-07-22T11:23:21.275Z</time>
      </trkpt>
      <trkpt lat="48.51933" lon="-3.54237">
        <ele>215</ele>
        <time>2021-07-22T11:23:26.278Z</time>
      </trkpt>
      <trkpt lat="48.51931" lon="-3.54248">
        <ele>215</ele>
        <time>2021-07-22T11:23:31.295Z</time>
      </trkpt>
      <trkpt lat="48.51928" lon="-3.54256">
        <ele>214</ele>
        <time>2021-07-22T11:23:36.262Z</time>
      </trkpt>
      <trkpt lat="48.51927" lon="-3.54262">
        <ele>214</ele>
        <time>2021-07-22T11:23:40.278Z</time>
      </trkpt>
      <trkpt lat="48.51926" lon="-3.5427">
        <ele>215</ele>
        <time>2021-07-22T11:23:45.261Z</time>
      </trkpt>
      <trkpt lat="48.51924" lon="-3.54279">
        <ele>215</ele>
        <time>2021-07-22T11:23:50.263Z</time>
      </trkpt>
      <trkpt lat="48.51921" lon="-3.54287">
        <ele>215</ele>
        <time>2021-07-22T11:23:55.278Z</time>
      </trkpt>
      <trkpt lat="48.5192" lon="-3.54295">
        <ele>215</ele>
        <time>2021-07-22T11:24:00.263Z</time>
      </trkpt>
      <trkpt lat="48.51918" lon="-3.54303">
        <ele>215</ele>
        <time>2021-07-22T11:24:05.260Z</time>
      </trkpt>
      <trkpt lat="48.51914" lon="-3.54311">
        <ele>215</ele>
        <time>2021-07-22T11:24:10.257Z</time>
      </trkpt>
      <trkpt lat="48.51911" lon="-3.54316">
        <ele>215</ele>
        <time>2021-07-22T11:24:14.285Z</time>
      </trkpt>
      <trkpt lat="48.51906" lon="-3.54323">
        <ele>216</ele>
        <time>2021-07-22T11:24:19.274Z</time>
      </trkpt>
      <trkpt lat="48.51901" lon="-3.54329">
        <ele>212</ele>
        <time>2021-07-22T11:24:23.287Z</time>
      </trkpt>
      <trkpt lat="48.51899" lon="-3.54338">
        <ele>212</ele>
        <time>2021-07-22T11:24:28.254Z</time>
      </trkpt>
      <trkpt lat="48.51895" lon="-3.54347">
        <ele>212</ele>
        <time>2021-07-22T11:24:33.274Z</time>
      </trkpt>
      <trkpt lat="48.51891" lon="-3.54355">
        <ele>211</ele>
        <time>2021-07-22T11:24:38.278Z</time>
      </trkpt>
      <trkpt lat="48.51887" lon="-3.54365">
        <ele>211</ele>
        <time>2021-07-22T11:24:43.279Z</time>
      </trkpt>
      <trkpt lat="48.51884" lon="-3.54375">
        <ele>211</ele>
        <time>2021-07-22T11:24:48.274Z</time>
      </trkpt>
      <trkpt lat="48.51879" lon="-3.54384">
        <ele>211</ele>
        <time>2021-07-22T11:24:53.257Z</time>
      </trkpt>
      <trkpt lat="48.51875" lon="-3.54389">
        <ele>211</ele>
        <time>2021-07-22T11:24:58.259Z</time>
      </trkpt>
      <trkpt lat="48.51872" lon="-3.54385">
        <ele>209</ele>
        <time>2021-07-22T11:25:03.273Z</time>
      </trkpt>
      <trkpt lat="48.5187" lon="-3.54383">
        <ele>209</ele>
        <time>2021-07-22T11:25:07.255Z</time>
      </trkpt>
      <trkpt lat="48.51867" lon="-3.5438">
        <ele>209</ele>
        <time>2021-07-22T11:25:12.261Z</time>
      </trkpt>
      <trkpt lat="48.51861" lon="-3.54377">
        <ele>209</ele>
        <time>2021-07-22T11:25:17.274Z</time>
      </trkpt>
      <trkpt lat="48.51857" lon="-3.54373">
        <ele>209</ele>
        <time>2021-07-22T11:25:22.262Z</time>
      </trkpt>
      <trkpt lat="48.51849" lon="-3.5437">
        <ele>209</ele>
        <time>2021-07-22T11:25:27.278Z</time>
      </trkpt>
      <trkpt lat="48.51843" lon="-3.54366">
        <ele>208</ele>
        <time>2021-07-22T11:25:32.264Z</time>
      </trkpt>
      <trkpt lat="48.51837" lon="-3.54364">
        <ele>208</ele>
        <time>2021-07-22T11:25:37.273Z</time>
      </trkpt>
      <trkpt lat="48.51829" lon="-3.54358">
        <ele>208</ele>
        <time>2021-07-22T11:25:42.276Z</time>
      </trkpt>
      <trkpt lat="48.51822" lon="-3.54357">
        <ele>208</ele>
        <time>2021-07-22T11:25:47.273Z</time>
      </trkpt>
      <trkpt lat="48.51816" lon="-3.54354">
        <ele>207</ele>
        <time>2021-07-22T11:25:52.265Z</time>
      </trkpt>
      <trkpt lat="48.5181" lon="-3.54353">
        <ele>207</ele>
        <time>2021-07-22T11:25:57.258Z</time>
      </trkpt>
      <trkpt lat="48.51806" lon="-3.54352">
        <ele>207</ele>
        <time>2021-07-22T11:26:02.258Z</time>
      </trkpt>
      <trkpt lat="48.51803" lon="-3.54349">
        <ele>207</ele>
        <time>2021-07-22T11:26:06.272Z</time>
      </trkpt>
      <trkpt lat="48.51798" lon="-3.54345">
        <ele>207</ele>
        <time>2021-07-22T11:26:11.256Z</time>
      </trkpt>
      <trkpt lat="48.51793" lon="-3.54342">
        <ele>207</ele>
        <time>2021-07-22T11:26:16.268Z</time>
      </trkpt>
      <trkpt lat="48.51787" lon="-3.54341">
        <ele>206</ele>
        <time>2021-07-22T11:26:21.287Z</time>
      </trkpt>
      <trkpt lat="48.51781" lon="-3.54339">
        <ele>206</ele>
        <time>2021-07-22T11:26:26.259Z</time>
      </trkpt>
      <trkpt lat="48.51777" lon="-3.54338">
        <ele>206</ele>
        <time>2021-07-22T11:26:30.282Z</time>
      </trkpt>
      <trkpt lat="48.51771" lon="-3.54336">
        <ele>206</ele>
        <time>2021-07-22T11:26:35.281Z</time>
      </trkpt>
      <trkpt lat="48.51766" lon="-3.54335">
        <ele>206</ele>
        <time>2021-07-22T11:26:40.276Z</time>
      </trkpt>
      <trkpt lat="48.5176" lon="-3.54333">
        <ele>205</ele>
        <time>2021-07-22T11:26:45.276Z</time>
      </trkpt>
      <trkpt lat="48.51755" lon="-3.54333">
        <ele>205</ele>
        <time>2021-07-22T11:26:50.280Z</time>
      </trkpt>
      <trkpt lat="48.5175" lon="-3.54329">
        <ele>205</ele>
        <time>2021-07-22T11:26:54.288Z</time>
      </trkpt>
      <trkpt lat="48.51745" lon="-3.54324">
        <ele>205</ele>
        <time>2021-07-22T11:26:59.267Z</time>
      </trkpt>
      <trkpt lat="48.51739" lon="-3.54321">
        <ele>205</ele>
        <time>2021-07-22T11:27:04.272Z</time>
      </trkpt>
      <trkpt lat="48.51733" lon="-3.5432">
        <ele>204</ele>
        <time>2021-07-22T11:27:09.274Z</time>
      </trkpt>
      <trkpt lat="48.51728" lon="-3.54318">
        <ele>204</ele>
        <time>2021-07-22T11:27:13.275Z</time>
      </trkpt>
      <trkpt lat="48.51723" lon="-3.54318">
        <ele>204</ele>
        <time>2021-07-22T11:27:18.270Z</time>
      </trkpt>
      <trkpt lat="48.51717" lon="-3.54319">
        <ele>204</ele>
        <time>2021-07-22T11:27:23.274Z</time>
      </trkpt>
      <trkpt lat="48.51713" lon="-3.54318">
        <ele>204</ele>
        <time>2021-07-22T11:27:28.265Z</time>
      </trkpt>
      <trkpt lat="48.51707" lon="-3.54319">
        <ele>203</ele>
        <time>2021-07-22T11:27:33.279Z</time>
      </trkpt>
      <trkpt lat="48.51701" lon="-3.54317">
        <ele>203</ele>
        <time>2021-07-22T11:27:38.253Z</time>
      </trkpt>
      <trkpt lat="48.51696" lon="-3.54317">
        <ele>203</ele>
        <time>2021-07-22T11:27:42.281Z</time>
      </trkpt>
      <trkpt lat="48.51689" lon="-3.54319">
        <ele>203</ele>
        <time>2021-07-22T11:27:47.275Z</time>
      </trkpt>
      <trkpt lat="48.51684" lon="-3.54319">
        <ele>203</ele>
        <time>2021-07-22T11:27:52.277Z</time>
      </trkpt>
      <trkpt lat="48.51677" lon="-3.54318">
        <ele>202</ele>
        <time>2021-07-22T11:27:57.271Z</time>
      </trkpt>
      <trkpt lat="48.51672" lon="-3.54316">
        <ele>202</ele>
        <time>2021-07-22T11:28:02.265Z</time>
      </trkpt>
      <trkpt lat="48.51667" lon="-3.54318">
        <ele>202</ele>
        <time>2021-07-22T11:28:07.273Z</time>
      </trkpt>
      <trkpt lat="48.51661" lon="-3.54319">
        <ele>202</ele>
        <time>2021-07-22T11:28:12.265Z</time>
      </trkpt>
      <trkpt lat="48.51655" lon="-3.54319">
        <ele>202</ele>
        <time>2021-07-22T11:28:17.264Z</time>
      </trkpt>
      <trkpt lat="48.51651" lon="-3.54318">
        <ele>201</ele>
        <time>2021-07-22T11:28:21.263Z</time>
      </trkpt>
      <trkpt lat="48.51644" lon="-3.54317">
        <ele>201</ele>
        <time>2021-07-22T11:28:26.256Z</time>
      </trkpt>
      <trkpt lat="48.51638" lon="-3.54318">
        <ele>201</ele>
        <time>2021-07-22T11:28:30.275Z</time>
      </trkpt>
      <trkpt lat="48.51631" lon="-3.54317">
        <ele>201</ele>
        <time>2021-07-22T11:28:35.268Z</time>
      </trkpt>
      <trkpt lat="48.51625" lon="-3.54317">
        <ele>201</ele>
        <time>2021-07-22T11:28:40.274Z</time>
      </trkpt>
      <trkpt lat="48.51619" lon="-3.54318">
        <ele>201</ele>
        <time>2021-07-22T11:28:45.274Z</time>
      </trkpt>
      <trkpt lat="48.51616" lon="-3.54319">
        <ele>201</ele>
        <time>2021-07-22T11:28:50.277Z</time>
      </trkpt>
      <trkpt lat="48.51615" lon="-3.54319">
        <ele>201</ele>
        <time>2021-07-22T11:28:55.278Z</time>
      </trkpt>
      <trkpt lat="48.51611" lon="-3.54318">
        <ele>201</ele>
        <time>2021-07-22T11:29:00.272Z</time>
      </trkpt>
      <trkpt lat="48.51607" lon="-3.54317">
        <ele>201</ele>
        <time>2021-07-22T11:29:05.273Z</time>
      </trkpt>
      <trkpt lat="48.51602" lon="-3.54316">
        <ele>201</ele>
        <time>2021-07-22T11:29:10.265Z</time>
      </trkpt>
      <trkpt lat="48.51597" lon="-3.54316">
        <ele>201</ele>
        <time>2021-07-22T11:29:14.267Z</time>
      </trkpt>
      <trkpt lat="48.51591" lon="-3.54314">
        <ele>201</ele>
        <time>2021-07-22T11:29:19.268Z</time>
      </trkpt>
      <trkpt lat="48.51584" lon="-3.54312">
        <ele>201</ele>
        <time>2021-07-22T11:29:24.269Z</time>
      </trkpt>
      <trkpt lat="48.51579" lon="-3.5431">
        <ele>201</ele>
        <time>2021-07-22T11:29:29.278Z</time>
      </trkpt>
      <trkpt lat="48.51573" lon="-3.54308">
        <ele>201</ele>
        <time>2021-07-22T11:29:34.280Z</time>
      </trkpt>
      <trkpt lat="48.51568" lon="-3.54305">
        <ele>201</ele>
        <time>2021-07-22T11:29:39.266Z</time>
      </trkpt>
      <trkpt lat="48.51563" lon="-3.54305">
        <ele>201</ele>
        <time>2021-07-22T11:29:43.274Z</time>
      </trkpt>
      <trkpt lat="48.51557" lon="-3.54303">
        <ele>201</ele>
        <time>2021-07-22T11:29:48.267Z</time>
      </trkpt>
      <trkpt lat="48.51553" lon="-3.54302">
        <ele>201</ele>
        <time>2021-07-22T11:29:52.257Z</time>
      </trkpt>
      <trkpt lat="48.51549" lon="-3.543">
        <ele>201</ele>
        <time>2021-07-22T11:29:57.262Z</time>
      </trkpt>
      <trkpt lat="48.51544" lon="-3.54297">
        <ele>201</ele>
        <time>2021-07-22T11:30:02.251Z</time>
      </trkpt>
      <trkpt lat="48.51539" lon="-3.54291">
        <ele>200</ele>
        <time>2021-07-22T11:30:07.264Z</time>
      </trkpt>
      <trkpt lat="48.51535" lon="-3.54287">
        <ele>200</ele>
        <time>2021-07-22T11:30:12.262Z</time>
      </trkpt>
      <trkpt lat="48.5153" lon="-3.5429">
        <ele>200</ele>
        <time>2021-07-22T11:30:17.264Z</time>
      </trkpt>
      <trkpt lat="48.51527" lon="-3.54292">
        <ele>202</ele>
        <time>2021-07-22T11:30:21.272Z</time>
      </trkpt>
      <trkpt lat="48.51523" lon="-3.54292">
        <ele>202</ele>
        <time>2021-07-22T11:30:25.282Z</time>
      </trkpt>
      <trkpt lat="48.51518" lon="-3.54292">
        <ele>202</ele>
        <time>2021-07-22T11:30:29.280Z</time>
      </trkpt>
      <trkpt lat="48.51512" lon="-3.54292">
        <ele>202</ele>
        <time>2021-07-22T11:30:34.271Z</time>
      </trkpt>
      <trkpt lat="48.51505" lon="-3.54295">
        <ele>202</ele>
        <time>2021-07-22T11:30:39.279Z</time>
      </trkpt>
      <trkpt lat="48.51498" lon="-3.54296">
        <ele>202</ele>
        <time>2021-07-22T11:30:44.267Z</time>
      </trkpt>
      <trkpt lat="48.51492" lon="-3.54294">
        <ele>202</ele>
        <time>2021-07-22T11:30:49.269Z</time>
      </trkpt>
      <trkpt lat="48.51487" lon="-3.54293">
        <ele>202</ele>
        <time>2021-07-22T11:30:54.255Z</time>
      </trkpt>
      <trkpt lat="48.51482" lon="-3.54295">
        <ele>204</ele>
        <time>2021-07-22T11:30:59.268Z</time>
      </trkpt>
      <trkpt lat="48.51479" lon="-3.54297">
        <ele>204</ele>
        <time>2021-07-22T11:32:12.248Z</time>
      </trkpt>
      <trkpt lat="48.51478" lon="-3.54298">
        <ele>204</ele>
        <time>2021-07-22T11:32:17.279Z</time>
      </trkpt>
      <trkpt lat="48.51477" lon="-3.543">
        <ele>204</ele>
        <time>2021-07-22T11:32:46.253Z</time>
      </trkpt>
      <trkpt lat="48.51475" lon="-3.54302">
        <ele>204</ele>
        <time>2021-07-22T11:33:06.254Z</time>
      </trkpt>
      <trkpt lat="48.51473" lon="-3.54306">
        <ele>204</ele>
        <time>2021-07-22T11:33:16.257Z</time>
      </trkpt>
      <trkpt lat="48.51467" lon="-3.54311">
        <ele>204</ele>
        <time>2021-07-22T11:33:21.276Z</time>
      </trkpt>
      <trkpt lat="48.51465" lon="-3.54318">
        <ele>204</ele>
        <time>2021-07-22T11:33:26.258Z</time>
      </trkpt>
      <trkpt lat="48.51462" lon="-3.54325">
        <ele>204</ele>
        <time>2021-07-22T11:33:31.267Z</time>
      </trkpt>
      <trkpt lat="48.5146" lon="-3.54333">
        <ele>204</ele>
        <time>2021-07-22T11:33:36.261Z</time>
      </trkpt>
      <trkpt lat="48.51458" lon="-3.54341">
        <ele>204</ele>
        <time>2021-07-22T11:33:41.261Z</time>
      </trkpt>
      <trkpt lat="48.51456" lon="-3.54347">
        <ele>204</ele>
        <time>2021-07-22T11:33:46.252Z</time>
      </trkpt>
      <trkpt lat="48.51454" lon="-3.54353">
        <ele>204</ele>
        <time>2021-07-22T11:33:51.259Z</time>
      </trkpt>
      <trkpt lat="48.51452" lon="-3.54358">
        <ele>204</ele>
        <time>2021-07-22T11:33:56.257Z</time>
      </trkpt>
      <trkpt lat="48.51452" lon="-3.54358">
        <ele>204</ele>
        <time>2021-07-22T11:34:01.263Z</time>
      </trkpt>
      <trkpt lat="48.5145" lon="-3.5436">
        <ele>204</ele>
        <time>2021-07-22T11:34:06.250Z</time>
      </trkpt>
      <trkpt lat="48.51448" lon="-3.54363">
        <ele>204</ele>
        <time>2021-07-22T11:34:10.257Z</time>
      </trkpt>
      <trkpt lat="48.51446" lon="-3.54366">
        <ele>204</ele>
        <time>2021-07-22T11:34:15.273Z</time>
      </trkpt>
      <trkpt lat="48.5144" lon="-3.54372">
        <ele>204</ele>
        <time>2021-07-22T11:34:20.251Z</time>
      </trkpt>
      <trkpt lat="48.51436" lon="-3.54376">
        <ele>203</ele>
        <time>2021-07-22T11:34:25.274Z</time>
      </trkpt>
      <trkpt lat="48.51433" lon="-3.54382">
        <ele>203</ele>
        <time>2021-07-22T11:34:30.254Z</time>
      </trkpt>
      <trkpt lat="48.51431" lon="-3.54388">
        <ele>203</ele>
        <time>2021-07-22T11:34:35.254Z</time>
      </trkpt>
      <trkpt lat="48.51429" lon="-3.54392">
        <ele>203</ele>
        <time>2021-07-22T11:34:40.252Z</time>
      </trkpt>
      <trkpt lat="48.51427" lon="-3.54395">
        <ele>203</ele>
        <time>2021-07-22T11:34:45.250Z</time>
      </trkpt>
      <trkpt lat="48.51425" lon="-3.54396">
        <ele>203</ele>
        <time>2021-07-22T11:34:50.250Z</time>
      </trkpt>
      <trkpt lat="48.51424" lon="-3.54396">
        <ele>203</ele>
        <time>2021-07-22T11:34:55.256Z</time>
      </trkpt>
      <trkpt lat="48.51419" lon="-3.54405">
        <ele>203</ele>
        <time>2021-07-22T11:35:00.250Z</time>
      </trkpt>
      <trkpt lat="48.51417" lon="-3.54412">
        <ele>203</ele>
        <time>2021-07-22T11:35:05.271Z</time>
      </trkpt>
      <trkpt lat="48.51413" lon="-3.54415">
        <ele>203</ele>
        <time>2021-07-22T11:35:10.251Z</time>
      </trkpt>
      <trkpt lat="48.51409" lon="-3.54423">
        <ele>203</ele>
        <time>2021-07-22T11:35:15.286Z</time>
      </trkpt>
      <trkpt lat="48.51406" lon="-3.5443">
        <ele>203</ele>
        <time>2021-07-22T11:35:20.252Z</time>
      </trkpt>
      <trkpt lat="48.51402" lon="-3.54437">
        <ele>205</ele>
        <time>2021-07-22T11:35:34.257Z</time>
      </trkpt>
      <trkpt lat="48.514" lon="-3.54436">
        <ele>205</ele>
        <time>2021-07-22T11:35:39.259Z</time>
      </trkpt>
      <trkpt lat="48.51396" lon="-3.54441">
        <ele>205</ele>
        <time>2021-07-22T11:35:44.250Z</time>
      </trkpt>
      <trkpt lat="48.51393" lon="-3.54446">
        <ele>205</ele>
        <time>2021-07-22T11:35:49.273Z</time>
      </trkpt>
      <trkpt lat="48.5139" lon="-3.5445">
        <ele>205</ele>
        <time>2021-07-22T11:35:54.255Z</time>
      </trkpt>
      <trkpt lat="48.51388" lon="-3.5446">
        <ele>206</ele>
        <time>2021-07-22T11:36:23.280Z</time>
      </trkpt>
      <trkpt lat="48.51389" lon="-3.54464">
        <ele>206</ele>
        <time>2021-07-22T11:36:28.266Z</time>
      </trkpt>
      <trkpt lat="48.51388" lon="-3.54466">
        <ele>206</ele>
        <time>2021-07-22T11:36:38.268Z</time>
      </trkpt>
      <trkpt lat="48.51388" lon="-3.54469">
        <ele>206</ele>
        <time>2021-07-22T11:36:43.267Z</time>
      </trkpt>
      <trkpt lat="48.51385" lon="-3.54472">
        <ele>206</ele>
        <time>2021-07-22T11:36:48.255Z</time>
      </trkpt>
      <trkpt lat="48.51383" lon="-3.54478">
        <ele>206</ele>
        <time>2021-07-22T11:36:53.267Z</time>
      </trkpt>
      <trkpt lat="48.5138" lon="-3.54484">
        <ele>206</ele>
        <time>2021-07-22T11:36:58.277Z</time>
      </trkpt>
      <trkpt lat="48.51375" lon="-3.54489">
        <ele>207</ele>
        <time>2021-07-22T11:37:03.271Z</time>
      </trkpt>
      <trkpt lat="48.51372" lon="-3.54492">
        <ele>205</ele>
        <time>2021-07-22T11:37:07.282Z</time>
      </trkpt>
      <trkpt lat="48.51368" lon="-3.54499">
        <ele>205</ele>
        <time>2021-07-22T11:37:12.279Z</time>
      </trkpt>
      <trkpt lat="48.51364" lon="-3.54504">
        <ele>205</ele>
        <time>2021-07-22T11:37:17.286Z</time>
      </trkpt>
      <trkpt lat="48.51362" lon="-3.54509">
        <ele>205</ele>
        <time>2021-07-22T11:37:22.276Z</time>
      </trkpt>
      <trkpt lat="48.51359" lon="-3.54514">
        <ele>206</ele>
        <time>2021-07-22T11:37:27.267Z</time>
      </trkpt>
      <trkpt lat="48.51355" lon="-3.54521">
        <ele>206</ele>
        <time>2021-07-22T11:37:32.267Z</time>
      </trkpt>
      <trkpt lat="48.51351" lon="-3.54525">
        <ele>206</ele>
        <time>2021-07-22T11:37:37.270Z</time>
      </trkpt>
      <trkpt lat="48.51348" lon="-3.54531">
        <ele>206</ele>
        <time>2021-07-22T11:37:42.271Z</time>
      </trkpt>
      <trkpt lat="48.51346" lon="-3.54536">
        <ele>204</ele>
        <time>2021-07-22T11:37:46.284Z</time>
      </trkpt>
      <trkpt lat="48.51343" lon="-3.54538">
        <ele>204</ele>
        <time>2021-07-22T11:37:51.257Z</time>
      </trkpt>
      <trkpt lat="48.51339" lon="-3.54545">
        <ele>205</ele>
        <time>2021-07-22T11:37:56.261Z</time>
      </trkpt>
      <trkpt lat="48.51335" lon="-3.5455">
        <ele>205</ele>
        <time>2021-07-22T11:38:01.277Z</time>
      </trkpt>
      <trkpt lat="48.51332" lon="-3.54556">
        <ele>205</ele>
        <time>2021-07-22T11:38:06.277Z</time>
      </trkpt>
      <trkpt lat="48.51327" lon="-3.54561">
        <ele>205</ele>
        <time>2021-07-22T11:38:11.266Z</time>
      </trkpt>
      <trkpt lat="48.51325" lon="-3.54566">
        <ele>205</ele>
        <time>2021-07-22T11:38:15.255Z</time>
      </trkpt>
      <trkpt lat="48.51322" lon="-3.54572">
        <ele>205</ele>
        <time>2021-07-22T11:38:20.258Z</time>
      </trkpt>
      <trkpt lat="48.51319" lon="-3.54577">
        <ele>205</ele>
        <time>2021-07-22T11:38:25.264Z</time>
      </trkpt>
      <trkpt lat="48.51319" lon="-3.54577">
        <ele>205</ele>
        <time>2021-07-22T11:38:30.269Z</time>
      </trkpt>
      <trkpt lat="48.51318" lon="-3.54576">
        <ele>205</ele>
        <time>2021-07-22T11:38:35.270Z</time>
      </trkpt>
      <trkpt lat="48.51315" lon="-3.54579">
        <ele>205</ele>
        <time>2021-07-22T11:38:40.260Z</time>
      </trkpt>
      <trkpt lat="48.51312" lon="-3.54586">
        <ele>205</ele>
        <time>2021-07-22T11:38:45.257Z</time>
      </trkpt>
      <trkpt lat="48.51308" lon="-3.54593">
        <ele>205</ele>
        <time>2021-07-22T11:38:50.266Z</time>
      </trkpt>
      <trkpt lat="48.51304" lon="-3.54601">
        <ele>205</ele>
        <time>2021-07-22T11:38:55.262Z</time>
      </trkpt>
      <trkpt lat="48.513" lon="-3.54608">
        <ele>205</ele>
        <time>2021-07-22T11:39:00.257Z</time>
      </trkpt>
      <trkpt lat="48.51296" lon="-3.54614">
        <ele>205</ele>
        <time>2021-07-22T11:39:05.279Z</time>
      </trkpt>
      <trkpt lat="48.51289" lon="-3.54617">
        <ele>205</ele>
        <time>2021-07-22T11:39:19.274Z</time>
      </trkpt>
      <trkpt lat="48.51288" lon="-3.54622">
        <ele>205</ele>
        <time>2021-07-22T11:39:24.288Z</time>
      </trkpt>
      <trkpt lat="48.51284" lon="-3.5463">
        <ele>205</ele>
        <time>2021-07-22T11:39:29.262Z</time>
      </trkpt>
      <trkpt lat="48.51281" lon="-3.54635">
        <ele>205</ele>
        <time>2021-07-22T11:39:33.266Z</time>
      </trkpt>
      <trkpt lat="48.51278" lon="-3.54641">
        <ele>205</ele>
        <time>2021-07-22T11:39:38.279Z</time>
      </trkpt>
      <trkpt lat="48.51277" lon="-3.54641">
        <ele>205</ele>
        <time>2021-07-22T11:39:43.275Z</time>
      </trkpt>
      <trkpt lat="48.51273" lon="-3.54638">
        <ele>205</ele>
        <time>2021-07-22T11:39:48.275Z</time>
      </trkpt>
      <trkpt lat="48.51269" lon="-3.54638">
        <ele>205</ele>
        <time>2021-07-22T11:39:53.261Z</time>
      </trkpt>
      <trkpt lat="48.51267" lon="-3.54641">
        <ele>205</ele>
        <time>2021-07-22T11:39:57.270Z</time>
      </trkpt>
      <trkpt lat="48.51263" lon="-3.54645">
        <ele>205</ele>
        <time>2021-07-22T11:40:01.296Z</time>
      </trkpt>
      <trkpt lat="48.5126" lon="-3.54648">
        <ele>205</ele>
        <time>2021-07-22T11:40:05.337Z</time>
      </trkpt>
      <trkpt lat="48.51258" lon="-3.54647">
        <ele>205</ele>
        <time>2021-07-22T11:40:10.268Z</time>
      </trkpt>
      <trkpt lat="48.51255" lon="-3.54657">
        <ele>205</ele>
        <time>2021-07-22T11:40:15.270Z</time>
      </trkpt>
      <trkpt lat="48.51252" lon="-3.54664">
        <ele>205</ele>
        <time>2021-07-22T11:40:34.273Z</time>
      </trkpt>
      <trkpt lat="48.51252" lon="-3.54668">
        <ele>205</ele>
        <time>2021-07-22T11:40:38.259Z</time>
      </trkpt>
      <trkpt lat="48.51252" lon="-3.54673">
        <ele>205</ele>
        <time>2021-07-22T11:40:42.258Z</time>
      </trkpt>
      <trkpt lat="48.51253" lon="-3.54679">
        <ele>205</ele>
        <time>2021-07-22T11:40:47.258Z</time>
      </trkpt>
      <trkpt lat="48.51251" lon="-3.54686">
        <ele>204</ele>
        <time>2021-07-22T11:40:51.273Z</time>
      </trkpt>
      <trkpt lat="48.51245" lon="-3.54689">
        <ele>204</ele>
        <time>2021-07-22T11:40:56.279Z</time>
      </trkpt>
      <trkpt lat="48.51239" lon="-3.54688">
        <ele>204</ele>
        <time>2021-07-22T11:41:01.270Z</time>
      </trkpt>
      <trkpt lat="48.51234" lon="-3.54688">
        <ele>204</ele>
        <time>2021-07-22T11:41:05.281Z</time>
      </trkpt>
      <trkpt lat="48.51227" lon="-3.54687">
        <ele>204</ele>
        <time>2021-07-22T11:41:10.270Z</time>
      </trkpt>
      <trkpt lat="48.51223" lon="-3.54687">
        <ele>204</ele>
        <time>2021-07-22T11:41:14.263Z</time>
      </trkpt>
      <trkpt lat="48.51218" lon="-3.54688">
        <ele>204</ele>
        <time>2021-07-22T11:41:18.272Z</time>
      </trkpt>
      <trkpt lat="48.51211" lon="-3.54687">
        <ele>204</ele>
        <time>2021-07-22T11:41:23.282Z</time>
      </trkpt>
      <trkpt lat="48.51205" lon="-3.54688">
        <ele>204</ele>
        <time>2021-07-22T11:41:28.277Z</time>
      </trkpt>
      <trkpt lat="48.512" lon="-3.54687">
        <ele>204</ele>
        <time>2021-07-22T11:41:33.257Z</time>
      </trkpt>
      <trkpt lat="48.51193" lon="-3.54688">
        <ele>204</ele>
        <time>2021-07-22T11:41:38.267Z</time>
      </trkpt>
      <trkpt lat="48.51186" lon="-3.54689">
        <ele>204</ele>
        <time>2021-07-22T11:41:43.261Z</time>
      </trkpt>
      <trkpt lat="48.51179" lon="-3.54691">
        <ele>203</ele>
        <time>2021-07-22T11:41:48.263Z</time>
      </trkpt>
      <trkpt lat="48.51174" lon="-3.54691">
        <ele>203</ele>
        <time>2021-07-22T11:41:52.279Z</time>
      </trkpt>
      <trkpt lat="48.51168" lon="-3.54689">
        <ele>203</ele>
        <time>2021-07-22T11:41:57.282Z</time>
      </trkpt>
      <trkpt lat="48.51161" lon="-3.54689">
        <ele>203</ele>
        <time>2021-07-22T11:42:02.270Z</time>
      </trkpt>
      <trkpt lat="48.51156" lon="-3.54689">
        <ele>203</ele>
        <time>2021-07-22T11:42:07.272Z</time>
      </trkpt>
      <trkpt lat="48.51148" lon="-3.5469">
        <ele>202</ele>
        <time>2021-07-22T11:42:12.270Z</time>
      </trkpt>
      <trkpt lat="48.51144" lon="-3.5469">
        <ele>202</ele>
        <time>2021-07-22T11:42:16.260Z</time>
      </trkpt>
      <trkpt lat="48.51136" lon="-3.5469">
        <ele>202</ele>
        <time>2021-07-22T11:42:21.267Z</time>
      </trkpt>
      <trkpt lat="48.51129" lon="-3.54691">
        <ele>202</ele>
        <time>2021-07-22T11:42:26.264Z</time>
      </trkpt>
      <trkpt lat="48.51122" lon="-3.54691">
        <ele>200</ele>
        <time>2021-07-22T11:42:31.271Z</time>
      </trkpt>
      <trkpt lat="48.51115" lon="-3.54692">
        <ele>200</ele>
        <time>2021-07-22T11:42:36.259Z</time>
      </trkpt>
      <trkpt lat="48.51108" lon="-3.54694">
        <ele>200</ele>
        <time>2021-07-22T11:42:41.255Z</time>
      </trkpt>
      <trkpt lat="48.51103" lon="-3.54695">
        <ele>200</ele>
        <time>2021-07-22T11:42:45.258Z</time>
      </trkpt>
      <trkpt lat="48.51096" lon="-3.54698">
        <ele>198</ele>
        <time>2021-07-22T11:42:50.252Z</time>
      </trkpt>
      <trkpt lat="48.5109" lon="-3.547">
        <ele>198</ele>
        <time>2021-07-22T11:42:55.258Z</time>
      </trkpt>
      <trkpt lat="48.51083" lon="-3.54703">
        <ele>198</ele>
        <time>2021-07-22T11:43:00.254Z</time>
      </trkpt>
      <trkpt lat="48.51079" lon="-3.54707">
        <ele>198</ele>
        <time>2021-07-22T11:43:04.257Z</time>
      </trkpt>
      <trkpt lat="48.51074" lon="-3.54709">
        <ele>199</ele>
        <time>2021-07-22T11:43:09.260Z</time>
      </trkpt>
      <trkpt lat="48.51067" lon="-3.54711">
        <ele>199</ele>
        <time>2021-07-22T11:43:14.263Z</time>
      </trkpt>
      <trkpt lat="48.5106" lon="-3.54713">
        <ele>199</ele>
        <time>2021-07-22T11:43:19.251Z</time>
      </trkpt>
      <trkpt lat="48.5105" lon="-3.54716">
        <ele>199</ele>
        <time>2021-07-22T11:43:27.254Z</time>
      </trkpt>
      <trkpt lat="48.5104" lon="-3.54716">
        <ele>199</ele>
        <time>2021-07-22T11:43:32.251Z</time>
      </trkpt>
      <trkpt lat="48.51035" lon="-3.54715">
        <ele>199</ele>
        <time>2021-07-22T11:43:37.257Z</time>
      </trkpt>
      <trkpt lat="48.51029" lon="-3.54714">
        <ele>199</ele>
        <time>2021-07-22T11:43:42.253Z</time>
      </trkpt>
      <trkpt lat="48.51023" lon="-3.54715">
        <ele>199</ele>
        <time>2021-07-22T11:43:47.270Z</time>
      </trkpt>
      <trkpt lat="48.51019" lon="-3.54711">
        <ele>199</ele>
        <time>2021-07-22T11:43:52.267Z</time>
      </trkpt>
      <trkpt lat="48.51012" lon="-3.5471">
        <ele>201</ele>
        <time>2021-07-22T11:43:57.272Z</time>
      </trkpt>
      <trkpt lat="48.51005" lon="-3.5471">
        <ele>201</ele>
        <time>2021-07-22T11:44:02.268Z</time>
      </trkpt>
      <trkpt lat="48.50999" lon="-3.54711">
        <ele>201</ele>
        <time>2021-07-22T11:44:06.277Z</time>
      </trkpt>
      <trkpt lat="48.50994" lon="-3.54708">
        <ele>201</ele>
        <time>2021-07-22T11:44:11.273Z</time>
      </trkpt>
      <trkpt lat="48.50987" lon="-3.54708">
        <ele>200</ele>
        <time>2021-07-22T11:44:16.261Z</time>
      </trkpt>
      <trkpt lat="48.50983" lon="-3.54708">
        <ele>202</ele>
        <time>2021-07-22T11:44:20.276Z</time>
      </trkpt>
      <trkpt lat="48.50978" lon="-3.54708">
        <ele>202</ele>
        <time>2021-07-22T11:44:25.271Z</time>
      </trkpt>
      <trkpt lat="48.50973" lon="-3.54708">
        <ele>202</ele>
        <time>2021-07-22T11:44:30.262Z</time>
      </trkpt>
      <trkpt lat="48.50966" lon="-3.54707">
        <ele>202</ele>
        <time>2021-07-22T11:44:35.271Z</time>
      </trkpt>
      <trkpt lat="48.50961" lon="-3.54708">
        <ele>203</ele>
        <time>2021-07-22T11:44:40.270Z</time>
      </trkpt>
      <trkpt lat="48.50956" lon="-3.54708">
        <ele>204</ele>
        <time>2021-07-22T11:44:45.258Z</time>
      </trkpt>
      <trkpt lat="48.50949" lon="-3.54709">
        <ele>204</ele>
        <time>2021-07-22T11:44:50.271Z</time>
      </trkpt>
      <trkpt lat="48.50942" lon="-3.54709">
        <ele>204</ele>
        <time>2021-07-22T11:44:55.272Z</time>
      </trkpt>
      <trkpt lat="48.50936" lon="-3.54711">
        <ele>204</ele>
        <time>2021-07-22T11:45:00.264Z</time>
      </trkpt>
      <trkpt lat="48.5093" lon="-3.54712">
        <ele>206</ele>
        <time>2021-07-22T11:45:05.266Z</time>
      </trkpt>
      <trkpt lat="48.50924" lon="-3.54714">
        <ele>206</ele>
        <time>2021-07-22T11:45:10.286Z</time>
      </trkpt>
      <trkpt lat="48.50918" lon="-3.54717">
        <ele>206</ele>
        <time>2021-07-22T11:45:15.280Z</time>
      </trkpt>
      <trkpt lat="48.50912" lon="-3.54721">
        <ele>206</ele>
        <time>2021-07-22T11:45:20.281Z</time>
      </trkpt>
      <trkpt lat="48.50906" lon="-3.54722">
        <ele>206</ele>
        <time>2021-07-22T11:45:25.283Z</time>
      </trkpt>
      <trkpt lat="48.50899" lon="-3.54724">
        <ele>209</ele>
        <time>2021-07-22T11:45:30.272Z</time>
      </trkpt>
      <trkpt lat="48.50893" lon="-3.54725">
        <ele>209</ele>
        <time>2021-07-22T11:45:35.273Z</time>
      </trkpt>
      <trkpt lat="48.50888" lon="-3.54727">
        <ele>209</ele>
        <time>2021-07-22T11:45:40.267Z</time>
      </trkpt>
      <trkpt lat="48.50882" lon="-3.5473">
        <ele>209</ele>
        <time>2021-07-22T11:45:45.259Z</time>
      </trkpt>
      <trkpt lat="48.50877" lon="-3.54732">
        <ele>209</ele>
        <time>2021-07-22T11:45:49.278Z</time>
      </trkpt>
      <trkpt lat="48.50871" lon="-3.54733">
        <ele>210</ele>
        <time>2021-07-22T11:45:54.258Z</time>
      </trkpt>
      <trkpt lat="48.50865" lon="-3.54736">
        <ele>210</ele>
        <time>2021-07-22T11:45:59.255Z</time>
      </trkpt>
      <trkpt lat="48.50861" lon="-3.54737">
        <ele>210</ele>
        <time>2021-07-22T11:46:03.272Z</time>
      </trkpt>
      <trkpt lat="48.50855" lon="-3.54739">
        <ele>210</ele>
        <time>2021-07-22T11:46:08.272Z</time>
      </trkpt>
      <trkpt lat="48.5085" lon="-3.5474">
        <ele>210</ele>
        <time>2021-07-22T11:46:13.283Z</time>
      </trkpt>
      <trkpt lat="48.50843" lon="-3.54742">
        <ele>210</ele>
        <time>2021-07-22T11:46:18.263Z</time>
      </trkpt>
      <trkpt lat="48.50837" lon="-3.54745">
        <ele>210</ele>
        <time>2021-07-22T11:46:23.295Z</time>
      </trkpt>
      <trkpt lat="48.50831" lon="-3.54747">
        <ele>210</ele>
        <time>2021-07-22T11:46:28.260Z</time>
      </trkpt>
      <trkpt lat="48.50827" lon="-3.54748">
        <ele>210</ele>
        <time>2021-07-22T11:46:32.282Z</time>
      </trkpt>
      <trkpt lat="48.50821" lon="-3.5475">
        <ele>210</ele>
        <time>2021-07-22T11:46:37.287Z</time>
      </trkpt>
      <trkpt lat="48.50815" lon="-3.54751">
        <ele>210</ele>
        <time>2021-07-22T11:46:42.277Z</time>
      </trkpt>
      <trkpt lat="48.50808" lon="-3.54755">
        <ele>210</ele>
        <time>2021-07-22T11:46:47.275Z</time>
      </trkpt>
      <trkpt lat="48.50803" lon="-3.54757">
        <ele>210</ele>
        <time>2021-07-22T11:46:52.265Z</time>
      </trkpt>
      <trkpt lat="48.50796" lon="-3.54758">
        <ele>210</ele>
        <time>2021-07-22T11:46:57.267Z</time>
      </trkpt>
      <trkpt lat="48.5079" lon="-3.54761">
        <ele>211</ele>
        <time>2021-07-22T11:47:02.276Z</time>
      </trkpt>
      <trkpt lat="48.50784" lon="-3.54764">
        <ele>211</ele>
        <time>2021-07-22T11:47:07.260Z</time>
      </trkpt>
      <trkpt lat="48.50778" lon="-3.54765">
        <ele>211</ele>
        <time>2021-07-22T11:47:12.262Z</time>
      </trkpt>
      <trkpt lat="48.50772" lon="-3.54768">
        <ele>211</ele>
        <time>2021-07-22T11:47:17.268Z</time>
      </trkpt>
      <trkpt lat="48.50767" lon="-3.54771">
        <ele>211</ele>
        <time>2021-07-22T11:47:22.269Z</time>
      </trkpt>
      <trkpt lat="48.50761" lon="-3.54773">
        <ele>212</ele>
        <time>2021-07-22T11:47:26.283Z</time>
      </trkpt>
      <trkpt lat="48.50756" lon="-3.54775">
        <ele>212</ele>
        <time>2021-07-22T11:47:31.282Z</time>
      </trkpt>
      <trkpt lat="48.5075" lon="-3.54778">
        <ele>212</ele>
        <time>2021-07-22T11:47:36.263Z</time>
      </trkpt>
      <trkpt lat="48.50745" lon="-3.5478">
        <ele>212</ele>
        <time>2021-07-22T11:47:40.284Z</time>
      </trkpt>
      <trkpt lat="48.5074" lon="-3.54782">
        <ele>212</ele>
        <time>2021-07-22T11:47:45.275Z</time>
      </trkpt>
      <trkpt lat="48.50735" lon="-3.54785">
        <ele>212</ele>
        <time>2021-07-22T11:47:49.283Z</time>
      </trkpt>
      <trkpt lat="48.50729" lon="-3.54788">
        <ele>212</ele>
        <time>2021-07-22T11:47:54.285Z</time>
      </trkpt>
      <trkpt lat="48.50724" lon="-3.54792">
        <ele>212</ele>
        <time>2021-07-22T11:47:59.267Z</time>
      </trkpt>
      <trkpt lat="48.50718" lon="-3.54795">
        <ele>212</ele>
        <time>2021-07-22T11:48:04.271Z</time>
      </trkpt>
      <trkpt lat="48.50712" lon="-3.54798">
        <ele>212</ele>
        <time>2021-07-22T11:48:09.268Z</time>
      </trkpt>
      <trkpt lat="48.50706" lon="-3.54803">
        <ele>213</ele>
        <time>2021-07-22T11:48:14.270Z</time>
      </trkpt>
      <trkpt lat="48.50701" lon="-3.54808">
        <ele>213</ele>
        <time>2021-07-22T11:48:19.271Z</time>
      </trkpt>
      <trkpt lat="48.50696" lon="-3.54813">
        <ele>213</ele>
        <time>2021-07-22T11:48:24.263Z</time>
      </trkpt>
      <trkpt lat="48.50692" lon="-3.54816">
        <ele>213</ele>
        <time>2021-07-22T11:48:28.286Z</time>
      </trkpt>
      <trkpt lat="48.50689" lon="-3.54822">
        <ele>215</ele>
        <time>2021-07-22T11:48:32.262Z</time>
      </trkpt>
      <trkpt lat="48.50685" lon="-3.54826">
        <ele>215</ele>
        <time>2021-07-22T11:48:36.260Z</time>
      </trkpt>
      <trkpt lat="48.50682" lon="-3.54834">
        <ele>215</ele>
        <time>2021-07-22T11:48:41.284Z</time>
      </trkpt>
      <trkpt lat="48.50683" lon="-3.54839">
        <ele>215</ele>
        <time>2021-07-22T11:48:45.292Z</time>
      </trkpt>
      <trkpt lat="48.50686" lon="-3.54846">
        <ele>215</ele>
        <time>2021-07-22T11:48:50.284Z</time>
      </trkpt>
      <trkpt lat="48.5069" lon="-3.54854">
        <ele>216</ele>
        <time>2021-07-22T11:48:55.258Z</time>
      </trkpt>
      <trkpt lat="48.50694" lon="-3.54864">
        <ele>216</ele>
        <time>2021-07-22T11:49:00.273Z</time>
      </trkpt>
      <trkpt lat="48.50696" lon="-3.54873">
        <ele>216</ele>
        <time>2021-07-22T11:49:05.275Z</time>
      </trkpt>
      <trkpt lat="48.50703" lon="-3.5488">
        <ele>217</ele>
        <time>2021-07-22T11:49:10.266Z</time>
      </trkpt>
      <trkpt lat="48.50709" lon="-3.54886">
        <ele>216</ele>
        <time>2021-07-22T11:49:15.278Z</time>
      </trkpt>
      <trkpt lat="48.50713" lon="-3.54892">
        <ele>216</ele>
        <time>2021-07-22T11:49:20.274Z</time>
      </trkpt>
      <trkpt lat="48.50718" lon="-3.54899">
        <ele>216</ele>
        <time>2021-07-22T11:49:25.267Z</time>
      </trkpt>
      <trkpt lat="48.50723" lon="-3.54904">
        <ele>217</ele>
        <time>2021-07-22T11:49:30.265Z</time>
      </trkpt>
      <trkpt lat="48.50728" lon="-3.54908">
        <ele>217</ele>
        <time>2021-07-22T11:49:35.265Z</time>
      </trkpt>
      <trkpt lat="48.50731" lon="-3.54913">
        <ele>217</ele>
        <time>2021-07-22T11:49:40.280Z</time>
      </trkpt>
      <trkpt lat="48.50737" lon="-3.5492">
        <ele>216</ele>
        <time>2021-07-22T11:49:45.276Z</time>
      </trkpt>
      <trkpt lat="48.50741" lon="-3.54925">
        <ele>216</ele>
        <time>2021-07-22T11:49:49.273Z</time>
      </trkpt>
      <trkpt lat="48.50746" lon="-3.54929">
        <ele>216</ele>
        <time>2021-07-22T11:49:53.266Z</time>
      </trkpt>
      <trkpt lat="48.50751" lon="-3.54936">
        <ele>217</ele>
        <time>2021-07-22T11:49:58.256Z</time>
      </trkpt>
      <trkpt lat="48.50756" lon="-3.5494">
        <ele>217</ele>
        <time>2021-07-22T11:50:03.279Z</time>
      </trkpt>
      <trkpt lat="48.50761" lon="-3.54947">
        <ele>217</ele>
        <time>2021-07-22T11:50:08.277Z</time>
      </trkpt>
      <trkpt lat="48.50766" lon="-3.54954">
        <ele>214</ele>
        <time>2021-07-22T11:50:13.260Z</time>
      </trkpt>
      <trkpt lat="48.50771" lon="-3.5496">
        <ele>214</ele>
        <time>2021-07-22T11:50:18.262Z</time>
      </trkpt>
      <trkpt lat="48.50774" lon="-3.54965">
        <ele>214</ele>
        <time>2021-07-22T11:50:22.278Z</time>
      </trkpt>
      <trkpt lat="48.50779" lon="-3.5497">
        <ele>214</ele>
        <time>2021-07-22T11:50:26.256Z</time>
      </trkpt>
      <trkpt lat="48.50783" lon="-3.54975">
        <ele>214</ele>
        <time>2021-07-22T11:50:31.280Z</time>
      </trkpt>
      <trkpt lat="48.50787" lon="-3.54982">
        <ele>214</ele>
        <time>2021-07-22T11:50:36.256Z</time>
      </trkpt>
      <trkpt lat="48.50793" lon="-3.54989">
        <ele>212</ele>
        <time>2021-07-22T11:50:41.262Z</time>
      </trkpt>
      <trkpt lat="48.50798" lon="-3.54996">
        <ele>212</ele>
        <time>2021-07-22T11:50:46.264Z</time>
      </trkpt>
      <trkpt lat="48.50802" lon="-3.55002">
        <ele>212</ele>
        <time>2021-07-22T11:50:51.273Z</time>
      </trkpt>
      <trkpt lat="48.50806" lon="-3.55006">
        <ele>212</ele>
        <time>2021-07-22T11:50:55.261Z</time>
      </trkpt>
      <trkpt lat="48.50812" lon="-3.55012">
        <ele>212</ele>
        <time>2021-07-22T11:51:00.281Z</time>
      </trkpt>
      <trkpt lat="48.50817" lon="-3.55019">
        <ele>212</ele>
        <time>2021-07-22T11:51:05.272Z</time>
      </trkpt>
      <trkpt lat="48.5082" lon="-3.55024">
        <ele>211</ele>
        <time>2021-07-22T11:51:09.280Z</time>
      </trkpt>
      <trkpt lat="48.50826" lon="-3.55031">
        <ele>211</ele>
        <time>2021-07-22T11:51:14.282Z</time>
      </trkpt>
      <trkpt lat="48.50829" lon="-3.55036">
        <ele>211</ele>
        <time>2021-07-22T11:51:18.291Z</time>
      </trkpt>
      <trkpt lat="48.50835" lon="-3.55042">
        <ele>210</ele>
        <time>2021-07-22T11:51:23.274Z</time>
      </trkpt>
      <trkpt lat="48.50841" lon="-3.5505">
        <ele>210</ele>
        <time>2021-07-22T11:51:28.266Z</time>
      </trkpt>
      <trkpt lat="48.50845" lon="-3.55055">
        <ele>210</ele>
        <time>2021-07-22T11:51:32.276Z</time>
      </trkpt>
      <trkpt lat="48.5085" lon="-3.5506">
        <ele>208</ele>
        <time>2021-07-22T11:51:37.262Z</time>
      </trkpt>
      <trkpt lat="48.50854" lon="-3.55065">
        <ele>208</ele>
        <time>2021-07-22T11:51:42.266Z</time>
      </trkpt>
      <trkpt lat="48.50857" lon="-3.5507">
        <ele>208</ele>
        <time>2021-07-22T11:51:46.263Z</time>
      </trkpt>
      <trkpt lat="48.50862" lon="-3.55077">
        <ele>208</ele>
        <time>2021-07-22T11:51:51.284Z</time>
      </trkpt>
      <trkpt lat="48.50869" lon="-3.55083">
        <ele>208</ele>
        <time>2021-07-22T11:51:56.268Z</time>
      </trkpt>
      <trkpt lat="48.50873" lon="-3.5509">
        <ele>208</ele>
        <time>2021-07-22T11:52:01.258Z</time>
      </trkpt>
      <trkpt lat="48.50877" lon="-3.55094">
        <ele>205</ele>
        <time>2021-07-22T11:52:05.272Z</time>
      </trkpt>
      <trkpt lat="48.50883" lon="-3.55099">
        <ele>206</ele>
        <time>2021-07-22T11:52:10.261Z</time>
      </trkpt>
      <trkpt lat="48.50887" lon="-3.55104">
        <ele>206</ele>
        <time>2021-07-22T11:52:14.265Z</time>
      </trkpt>
      <trkpt lat="48.50893" lon="-3.5511">
        <ele>206</ele>
        <time>2021-07-22T11:52:19.256Z</time>
      </trkpt>
      <trkpt lat="48.50899" lon="-3.55115">
        <ele>206</ele>
        <time>2021-07-22T11:52:24.253Z</time>
      </trkpt>
      <trkpt lat="48.50905" lon="-3.55121">
        <ele>206</ele>
        <time>2021-07-22T11:52:29.263Z</time>
      </trkpt>
      <trkpt lat="48.5091" lon="-3.55126">
        <ele>207</ele>
        <time>2021-07-22T11:52:34.259Z</time>
      </trkpt>
      <trkpt lat="48.50915" lon="-3.55133">
        <ele>207</ele>
        <time>2021-07-22T11:52:39.259Z</time>
      </trkpt>
      <trkpt lat="48.50921" lon="-3.55139">
        <ele>207</ele>
        <time>2021-07-22T11:52:44.266Z</time>
      </trkpt>
      <trkpt lat="48.50926" lon="-3.55144">
        <ele>207</ele>
        <time>2021-07-22T11:52:48.274Z</time>
      </trkpt>
      <trkpt lat="48.50931" lon="-3.5515">
        <ele>207</ele>
        <time>2021-07-22T11:52:53.273Z</time>
      </trkpt>
      <trkpt lat="48.50936" lon="-3.55155">
        <ele>206</ele>
        <time>2021-07-22T11:52:57.273Z</time>
      </trkpt>
      <trkpt lat="48.5094" lon="-3.55161">
        <ele>206</ele>
        <time>2021-07-22T11:53:02.252Z</time>
      </trkpt>
      <trkpt lat="48.50946" lon="-3.55167">
        <ele>206</ele>
        <time>2021-07-22T11:53:07.271Z</time>
      </trkpt>
      <trkpt lat="48.5095" lon="-3.55173">
        <ele>206</ele>
        <time>2021-07-22T11:53:12.259Z</time>
      </trkpt>
      <trkpt lat="48.50955" lon="-3.55176">
        <ele>206</ele>
        <time>2021-07-22T11:53:16.253Z</time>
      </trkpt>
      <trkpt lat="48.50959" lon="-3.55181">
        <ele>204</ele>
        <time>2021-07-22T11:53:20.254Z</time>
      </trkpt>
      <trkpt lat="48.50964" lon="-3.55189">
        <ele>204</ele>
        <time>2021-07-22T11:53:25.273Z</time>
      </trkpt>
      <trkpt lat="48.50971" lon="-3.55195">
        <ele>204</ele>
        <time>2021-07-22T11:53:30.273Z</time>
      </trkpt>
      <trkpt lat="48.50979" lon="-3.552">
        <ele>204</ele>
        <time>2021-07-22T11:53:35.279Z</time>
      </trkpt>
      <trkpt lat="48.50987" lon="-3.55206">
        <ele>202</ele>
        <time>2021-07-22T11:53:40.275Z</time>
      </trkpt>
      <trkpt lat="48.50995" lon="-3.55213">
        <ele>202</ele>
        <time>2021-07-22T11:53:45.291Z</time>
      </trkpt>
      <trkpt lat="48.51002" lon="-3.5522">
        <ele>202</ele>
        <time>2021-07-22T11:53:50.275Z</time>
      </trkpt>
      <trkpt lat="48.51007" lon="-3.55225">
        <ele>202</ele>
        <time>2021-07-22T11:53:55.277Z</time>
      </trkpt>
      <trkpt lat="48.51012" lon="-3.55232">
        <ele>202</ele>
        <time>2021-07-22T11:54:00.283Z</time>
      </trkpt>
      <trkpt lat="48.51018" lon="-3.55238">
        <ele>201</ele>
        <time>2021-07-22T11:54:05.255Z</time>
      </trkpt>
      <trkpt lat="48.51023" lon="-3.55244">
        <ele>201</ele>
        <time>2021-07-22T11:54:10.271Z</time>
      </trkpt>
      <trkpt lat="48.51027" lon="-3.5525">
        <ele>201</ele>
        <time>2021-07-22T11:54:15.253Z</time>
      </trkpt>
      <trkpt lat="48.51031" lon="-3.5526">
        <ele>201</ele>
        <time>2021-07-22T11:54:20.260Z</time>
      </trkpt>
      <trkpt lat="48.51035" lon="-3.55266">
        <ele>201</ele>
        <time>2021-07-22T11:54:24.262Z</time>
      </trkpt>
      <trkpt lat="48.5104" lon="-3.55274">
        <ele>201</ele>
        <time>2021-07-22T11:54:29.253Z</time>
      </trkpt>
      <trkpt lat="48.51043" lon="-3.55283">
        <ele>200</ele>
        <time>2021-07-22T11:54:34.266Z</time>
      </trkpt>
      <trkpt lat="48.51046" lon="-3.55291">
        <ele>200</ele>
        <time>2021-07-22T11:54:39.274Z</time>
      </trkpt>
      <trkpt lat="48.5105" lon="-3.55297">
        <ele>201</ele>
        <time>2021-07-22T11:54:44.286Z</time>
      </trkpt>
      <trkpt lat="48.51054" lon="-3.55306">
        <ele>201</ele>
        <time>2021-07-22T11:54:49.280Z</time>
      </trkpt>
      <trkpt lat="48.51056" lon="-3.55317">
        <ele>201</ele>
        <time>2021-07-22T11:54:54.284Z</time>
      </trkpt>
      <trkpt lat="48.51059" lon="-3.55325">
        <ele>201</ele>
        <time>2021-07-22T11:54:59.273Z</time>
      </trkpt>
      <trkpt lat="48.51062" lon="-3.55337">
        <ele>201</ele>
        <time>2021-07-22T11:55:04.255Z</time>
      </trkpt>
      <trkpt lat="48.51063" lon="-3.55345">
        <ele>201</ele>
        <time>2021-07-22T11:55:08.263Z</time>
      </trkpt>
      <trkpt lat="48.51066" lon="-3.55355">
        <ele>201</ele>
        <time>2021-07-22T11:55:13.273Z</time>
      </trkpt>
      <trkpt lat="48.51068" lon="-3.55364">
        <ele>201</ele>
        <time>2021-07-22T11:55:18.270Z</time>
      </trkpt>
      <trkpt lat="48.51071" lon="-3.55372">
        <ele>202</ele>
        <time>2021-07-22T11:55:23.275Z</time>
      </trkpt>
      <trkpt lat="48.51073" lon="-3.55384">
        <ele>203</ele>
        <time>2021-07-22T11:55:28.270Z</time>
      </trkpt>
      <trkpt lat="48.51077" lon="-3.55394">
        <ele>203</ele>
        <time>2021-07-22T11:55:33.271Z</time>
      </trkpt>
      <trkpt lat="48.51081" lon="-3.55404">
        <ele>204</ele>
        <time>2021-07-22T11:55:38.259Z</time>
      </trkpt>
      <trkpt lat="48.51083" lon="-3.55413">
        <ele>204</ele>
        <time>2021-07-22T11:55:43.276Z</time>
      </trkpt>
      <trkpt lat="48.51085" lon="-3.5542">
        <ele>204</ele>
        <time>2021-07-22T11:55:48.278Z</time>
      </trkpt>
      <trkpt lat="48.51086" lon="-3.55429">
        <ele>204</ele>
        <time>2021-07-22T11:55:53.281Z</time>
      </trkpt>
      <trkpt lat="48.51089" lon="-3.55439">
        <ele>205</ele>
        <time>2021-07-22T11:55:58.280Z</time>
      </trkpt>
      <trkpt lat="48.51091" lon="-3.55448">
        <ele>205</ele>
        <time>2021-07-22T11:56:03.282Z</time>
      </trkpt>
      <trkpt lat="48.51094" lon="-3.5546">
        <ele>206</ele>
        <time>2021-07-22T11:56:08.274Z</time>
      </trkpt>
      <trkpt lat="48.51096" lon="-3.55469">
        <ele>206</ele>
        <time>2021-07-22T11:56:13.258Z</time>
      </trkpt>
      <trkpt lat="48.51098" lon="-3.55478">
        <ele>207</ele>
        <time>2021-07-22T11:56:18.281Z</time>
      </trkpt>
      <trkpt lat="48.511" lon="-3.55487">
        <ele>208</ele>
        <time>2021-07-22T11:56:23.269Z</time>
      </trkpt>
      <trkpt lat="48.51103" lon="-3.55495">
        <ele>208</ele>
        <time>2021-07-22T11:56:28.264Z</time>
      </trkpt>
      <trkpt lat="48.51105" lon="-3.55504">
        <ele>208</ele>
        <time>2021-07-22T11:56:33.262Z</time>
      </trkpt>
      <trkpt lat="48.51107" lon="-3.55513">
        <ele>208</ele>
        <time>2021-07-22T11:56:38.256Z</time>
      </trkpt>
      <trkpt lat="48.5111" lon="-3.55522">
        <ele>210</ele>
        <time>2021-07-22T11:56:43.263Z</time>
      </trkpt>
      <trkpt lat="48.51113" lon="-3.55531">
        <ele>210</ele>
        <time>2021-07-22T11:56:48.264Z</time>
      </trkpt>
      <trkpt lat="48.51114" lon="-3.5554">
        <ele>210</ele>
        <time>2021-07-22T11:56:53.277Z</time>
      </trkpt>
      <trkpt lat="48.51118" lon="-3.55549">
        <ele>210</ele>
        <time>2021-07-22T11:56:58.280Z</time>
      </trkpt>
      <trkpt lat="48.51119" lon="-3.55559">
        <ele>210</ele>
        <time>2021-07-22T11:57:03.274Z</time>
      </trkpt>
      <trkpt lat="48.51121" lon="-3.55569">
        <ele>210</ele>
        <time>2021-07-22T11:57:08.284Z</time>
      </trkpt>
      <trkpt lat="48.51124" lon="-3.55578">
        <ele>210</ele>
        <time>2021-07-22T11:57:13.265Z</time>
      </trkpt>
      <trkpt lat="48.51127" lon="-3.55586">
        <ele>213</ele>
        <time>2021-07-22T11:57:18.271Z</time>
      </trkpt>
      <trkpt lat="48.51128" lon="-3.55596">
        <ele>213</ele>
        <time>2021-07-22T11:57:23.281Z</time>
      </trkpt>
      <trkpt lat="48.5113" lon="-3.55606">
        <ele>212</ele>
        <time>2021-07-22T11:57:28.280Z</time>
      </trkpt>
      <trkpt lat="48.51132" lon="-3.55615">
        <ele>212</ele>
        <time>2021-07-22T11:57:33.267Z</time>
      </trkpt>
      <trkpt lat="48.51134" lon="-3.55624">
        <ele>212</ele>
        <time>2021-07-22T11:57:38.264Z</time>
      </trkpt>
      <trkpt lat="48.51134" lon="-3.55634">
        <ele>212</ele>
        <time>2021-07-22T11:57:43.256Z</time>
      </trkpt>
      <trkpt lat="48.51134" lon="-3.55643">
        <ele>212</ele>
        <time>2021-07-22T11:57:48.261Z</time>
      </trkpt>
      <trkpt lat="48.51135" lon="-3.5565">
        <ele>212</ele>
        <time>2021-07-22T11:57:52.284Z</time>
      </trkpt>
      <trkpt lat="48.51132" lon="-3.55655">
        <ele>211</ele>
        <time>2021-07-22T11:57:57.282Z</time>
      </trkpt>
      <trkpt lat="48.51129" lon="-3.55659">
        <ele>211</ele>
        <time>2021-07-22T12:01:09.274Z</time>
      </trkpt>
      <trkpt lat="48.51124" lon="-3.55658">
        <ele>212</ele>
        <time>2021-07-22T12:01:13.288Z</time>
      </trkpt>
      <trkpt lat="48.51119" lon="-3.55658">
        <ele>212</ele>
        <time>2021-07-22T12:01:18.276Z</time>
      </trkpt>
      <trkpt lat="48.51113" lon="-3.55658">
        <ele>212</ele>
        <time>2021-07-22T12:01:23.271Z</time>
      </trkpt>
      <trkpt lat="48.51109" lon="-3.55657">
        <ele>212</ele>
        <time>2021-07-22T12:01:28.280Z</time>
      </trkpt>
      <trkpt lat="48.51109" lon="-3.55657">
        <ele>212</ele>
        <time>2021-07-22T12:01:42.275Z</time>
      </trkpt>
      <trkpt lat="48.51113" lon="-3.55655">
        <ele>212</ele>
        <time>2021-07-22T12:01:47.274Z</time>
      </trkpt>
      <trkpt lat="48.51118" lon="-3.55654">
        <ele>212</ele>
        <time>2021-07-22T12:01:52.280Z</time>
      </trkpt>
      <trkpt lat="48.51123" lon="-3.55654">
        <ele>212</ele>
        <time>2021-07-22T12:01:57.279Z</time>
      </trkpt>
      <trkpt lat="48.51127" lon="-3.55654">
        <ele>211</ele>
        <time>2021-07-22T12:02:02.271Z</time>
      </trkpt>
      <trkpt lat="48.51131" lon="-3.55654">
        <ele>211</ele>
        <time>2021-07-22T12:02:07.260Z</time>
      </trkpt>
      <trkpt lat="48.51132" lon="-3.55656">
        <ele>211</ele>
        <time>2021-07-22T12:02:12.261Z</time>
      </trkpt>
      <trkpt lat="48.51135" lon="-3.55664">
        <ele>211</ele>
        <time>2021-07-22T12:02:17.273Z</time>
      </trkpt>
      <trkpt lat="48.51135" lon="-3.55673">
        <ele>211</ele>
        <time>2021-07-22T12:02:22.267Z</time>
      </trkpt>
      <trkpt lat="48.51135" lon="-3.55681">
        <ele>212</ele>
        <time>2021-07-22T12:02:27.262Z</time>
      </trkpt>
      <trkpt lat="48.51134" lon="-3.55691">
        <ele>212</ele>
        <time>2021-07-22T12:02:32.259Z</time>
      </trkpt>
      <trkpt lat="48.51134" lon="-3.55701">
        <ele>212</ele>
        <time>2021-07-22T12:02:37.258Z</time>
      </trkpt>
      <trkpt lat="48.51135" lon="-3.55709">
        <ele>212</ele>
        <time>2021-07-22T12:02:42.275Z</time>
      </trkpt>
      <trkpt lat="48.51134" lon="-3.55717">
        <ele>212</ele>
        <time>2021-07-22T12:02:46.286Z</time>
      </trkpt>
      <trkpt lat="48.51133" lon="-3.55726">
        <ele>212</ele>
        <time>2021-07-22T12:02:51.271Z</time>
      </trkpt>
      <trkpt lat="48.51133" lon="-3.55736">
        <ele>212</ele>
        <time>2021-07-22T12:02:56.274Z</time>
      </trkpt>
      <trkpt lat="48.51133" lon="-3.55743">
        <ele>213</ele>
        <time>2021-07-22T12:03:00.337Z</time>
      </trkpt>
      <trkpt lat="48.51133" lon="-3.55752">
        <ele>213</ele>
        <time>2021-07-22T12:03:05.262Z</time>
      </trkpt>
      <trkpt lat="48.51133" lon="-3.55761">
        <ele>213</ele>
        <time>2021-07-22T12:03:10.274Z</time>
      </trkpt>
      <trkpt lat="48.51132" lon="-3.55771">
        <ele>214</ele>
        <time>2021-07-22T12:03:15.256Z</time>
      </trkpt>
      <trkpt lat="48.51132" lon="-3.55778">
        <ele>214</ele>
        <time>2021-07-22T12:03:19.258Z</time>
      </trkpt>
      <trkpt lat="48.5113" lon="-3.55787">
        <ele>214</ele>
        <time>2021-07-22T12:03:24.272Z</time>
      </trkpt>
      <trkpt lat="48.51129" lon="-3.55799">
        <ele>214</ele>
        <time>2021-07-22T12:03:29.261Z</time>
      </trkpt>
      <trkpt lat="48.51128" lon="-3.55809">
        <ele>214</ele>
        <time>2021-07-22T12:03:34.275Z</time>
      </trkpt>
      <trkpt lat="48.51127" lon="-3.55819">
        <ele>214</ele>
        <time>2021-07-22T12:03:39.273Z</time>
      </trkpt>
      <trkpt lat="48.51125" lon="-3.55828">
        <ele>214</ele>
        <time>2021-07-22T12:03:44.278Z</time>
      </trkpt>
      <trkpt lat="48.51123" lon="-3.55839">
        <ele>215</ele>
        <time>2021-07-22T12:03:49.278Z</time>
      </trkpt>
      <trkpt lat="48.51122" lon="-3.55849">
        <ele>216</ele>
        <time>2021-07-22T12:03:54.276Z</time>
      </trkpt>
      <trkpt lat="48.5112" lon="-3.55858">
        <ele>216</ele>
        <time>2021-07-22T12:03:59.282Z</time>
      </trkpt>
      <trkpt lat="48.51118" lon="-3.55865">
        <ele>216</ele>
        <time>2021-07-22T12:04:04.260Z</time>
      </trkpt>
      <trkpt lat="48.51114" lon="-3.55872">
        <ele>216</ele>
        <time>2021-07-22T12:04:08.278Z</time>
      </trkpt>
      <trkpt lat="48.51112" lon="-3.55882">
        <ele>217</ele>
        <time>2021-07-22T12:04:13.290Z</time>
      </trkpt>
      <trkpt lat="48.51109" lon="-3.55891">
        <ele>217</ele>
        <time>2021-07-22T12:04:18.277Z</time>
      </trkpt>
      <trkpt lat="48.51108" lon="-3.559">
        <ele>217</ele>
        <time>2021-07-22T12:04:23.263Z</time>
      </trkpt>
      <trkpt lat="48.51106" lon="-3.55908">
        <ele>218</ele>
        <time>2021-07-22T12:04:28.273Z</time>
      </trkpt>
      <trkpt lat="48.51103" lon="-3.55917">
        <ele>218</ele>
        <time>2021-07-22T12:04:33.258Z</time>
      </trkpt>
      <trkpt lat="48.51099" lon="-3.55926">
        <ele>218</ele>
        <time>2021-07-22T12:04:38.275Z</time>
      </trkpt>
      <trkpt lat="48.51096" lon="-3.55934">
        <ele>218</ele>
        <time>2021-07-22T12:04:43.258Z</time>
      </trkpt>
      <trkpt lat="48.51094" lon="-3.55943">
        <ele>218</ele>
        <time>2021-07-22T12:04:48.250Z</time>
      </trkpt>
      <trkpt lat="48.51091" lon="-3.55953">
        <ele>218</ele>
        <time>2021-07-22T12:04:53.260Z</time>
      </trkpt>
      <trkpt lat="48.51089" lon="-3.55963">
        <ele>218</ele>
        <time>2021-07-22T12:04:58.284Z</time>
      </trkpt>
      <trkpt lat="48.51086" lon="-3.55972">
        <ele>218</ele>
        <time>2021-07-22T12:05:03.278Z</time>
      </trkpt>
      <trkpt lat="48.51083" lon="-3.5598">
        <ele>218</ele>
        <time>2021-07-22T12:05:08.276Z</time>
      </trkpt>
      <trkpt lat="48.5108" lon="-3.55989">
        <ele>218</ele>
        <time>2021-07-22T12:05:13.282Z</time>
      </trkpt>
      <trkpt lat="48.51078" lon="-3.55998">
        <ele>218</ele>
        <time>2021-07-22T12:05:18.266Z</time>
      </trkpt>
      <trkpt lat="48.51076" lon="-3.56007">
        <ele>218</ele>
        <time>2021-07-22T12:05:23.272Z</time>
      </trkpt>
      <trkpt lat="48.51074" lon="-3.56014">
        <ele>219</ele>
        <time>2021-07-22T12:05:28.285Z</time>
      </trkpt>
      <trkpt lat="48.51073" lon="-3.56024">
        <ele>219</ele>
        <time>2021-07-22T12:05:33.268Z</time>
      </trkpt>
      <trkpt lat="48.5107" lon="-3.56032">
        <ele>219</ele>
        <time>2021-07-22T12:05:38.263Z</time>
      </trkpt>
      <trkpt lat="48.51067" lon="-3.56041">
        <ele>219</ele>
        <time>2021-07-22T12:05:43.271Z</time>
      </trkpt>
      <trkpt lat="48.51065" lon="-3.56051">
        <ele>219</ele>
        <time>2021-07-22T12:05:48.267Z</time>
      </trkpt>
      <trkpt lat="48.51063" lon="-3.56062">
        <ele>219</ele>
        <time>2021-07-22T12:05:53.274Z</time>
      </trkpt>
      <trkpt lat="48.51063" lon="-3.56072">
        <ele>219</ele>
        <time>2021-07-22T12:05:58.278Z</time>
      </trkpt>
      <trkpt lat="48.51062" lon="-3.56081">
        <ele>219</ele>
        <time>2021-07-22T12:06:03.261Z</time>
      </trkpt>
      <trkpt lat="48.51063" lon="-3.56089">
        <ele>219</ele>
        <time>2021-07-22T12:06:07.277Z</time>
      </trkpt>
      <trkpt lat="48.51063" lon="-3.56096">
        <ele>219</ele>
        <time>2021-07-22T12:06:11.272Z</time>
      </trkpt>
      <trkpt lat="48.51064" lon="-3.56103">
        <ele>218</ele>
        <time>2021-07-22T12:06:15.274Z</time>
      </trkpt>
      <trkpt lat="48.51066" lon="-3.56113">
        <ele>218</ele>
        <time>2021-07-22T12:06:20.280Z</time>
      </trkpt>
      <trkpt lat="48.51066" lon="-3.56122">
        <ele>218</ele>
        <time>2021-07-22T12:06:25.282Z</time>
      </trkpt>
      <trkpt lat="48.51066" lon="-3.5613">
        <ele>218</ele>
        <time>2021-07-22T12:06:30.262Z</time>
      </trkpt>
      <trkpt lat="48.51068" lon="-3.5614">
        <ele>218</ele>
        <time>2021-07-22T12:06:35.275Z</time>
      </trkpt>
      <trkpt lat="48.51073" lon="-3.56145">
        <ele>218</ele>
        <time>2021-07-22T12:06:45.271Z</time>
      </trkpt>
      <trkpt lat="48.51072" lon="-3.56147">
        <ele>218</ele>
        <time>2021-07-22T12:06:50.265Z</time>
      </trkpt>
      <trkpt lat="48.51072" lon="-3.56152">
        <ele>218</ele>
        <time>2021-07-22T12:06:55.260Z</time>
      </trkpt>
      <trkpt lat="48.51074" lon="-3.56156">
        <ele>218</ele>
        <time>2021-07-22T12:07:00.264Z</time>
      </trkpt>
      <trkpt lat="48.51076" lon="-3.56162">
        <ele>218</ele>
        <time>2021-07-22T12:07:05.275Z</time>
      </trkpt>
      <trkpt lat="48.51078" lon="-3.56171">
        <ele>218</ele>
        <time>2021-07-22T12:07:10.283Z</time>
      </trkpt>
      <trkpt lat="48.5108" lon="-3.56178">
        <ele>218</ele>
        <time>2021-07-22T12:07:15.272Z</time>
      </trkpt>
      <trkpt lat="48.51085" lon="-3.56181">
        <ele>218</ele>
        <time>2021-07-22T12:07:20.274Z</time>
      </trkpt>
      <trkpt lat="48.5109" lon="-3.56184">
        <ele>218</ele>
        <time>2021-07-22T12:07:25.281Z</time>
      </trkpt>
      <trkpt lat="48.51094" lon="-3.56189">
        <ele>218</ele>
        <time>2021-07-22T12:09:22.257Z</time>
      </trkpt>
      <trkpt lat="48.51094" lon="-3.5619">
        <ele>218</ele>
        <time>2021-07-22T12:09:27.265Z</time>
      </trkpt>
      <trkpt lat="48.51093" lon="-3.56191">
        <ele>218</ele>
        <time>2021-07-22T12:09:42.259Z</time>
      </trkpt>
      <trkpt lat="48.51091" lon="-3.56195">
        <ele>218</ele>
        <time>2021-07-22T12:09:46.275Z</time>
      </trkpt>
      <trkpt lat="48.51092" lon="-3.56199">
        <ele>218</ele>
        <time>2021-07-22T12:09:50.315Z</time>
      </trkpt>
      <trkpt lat="48.51096" lon="-3.56206">
        <ele>218</ele>
        <time>2021-07-22T12:09:55.258Z</time>
      </trkpt>
      <trkpt lat="48.51096" lon="-3.56213">
        <ele>219</ele>
        <time>2021-07-22T12:09:59.262Z</time>
      </trkpt>
      <trkpt lat="48.51098" lon="-3.56217">
        <ele>219</ele>
        <time>2021-07-22T12:10:04.258Z</time>
      </trkpt>
      <trkpt lat="48.511" lon="-3.56219">
        <ele>219</ele>
        <time>2021-07-22T12:10:09.276Z</time>
      </trkpt>
      <trkpt lat="48.51095" lon="-3.56224">
        <ele>219</ele>
        <time>2021-07-22T12:10:14.263Z</time>
      </trkpt>
      <trkpt lat="48.5109" lon="-3.56228">
        <ele>219</ele>
        <time>2021-07-22T12:10:19.260Z</time>
      </trkpt>
      <trkpt lat="48.51087" lon="-3.56235">
        <ele>219</ele>
        <time>2021-07-22T12:10:24.271Z</time>
      </trkpt>
      <trkpt lat="48.51085" lon="-3.56242">
        <ele>220</ele>
        <time>2021-07-22T12:10:29.283Z</time>
      </trkpt>
      <trkpt lat="48.51082" lon="-3.5625">
        <ele>220</ele>
        <time>2021-07-22T12:10:34.273Z</time>
      </trkpt>
      <trkpt lat="48.51079" lon="-3.56256">
        <ele>220</ele>
        <time>2021-07-22T12:10:38.264Z</time>
      </trkpt>
      <trkpt lat="48.51078" lon="-3.56263">
        <ele>220</ele>
        <time>2021-07-22T12:10:43.287Z</time>
      </trkpt>
      <trkpt lat="48.51078" lon="-3.5627">
        <ele>220</ele>
        <time>2021-07-22T12:10:48.274Z</time>
      </trkpt>
      <trkpt lat="48.51079" lon="-3.56273">
        <ele>220</ele>
        <time>2021-07-22T12:10:53.278Z</time>
      </trkpt>
      <trkpt lat="48.51078" lon="-3.56263">
        <ele>220</ele>
        <time>2021-07-22T12:10:58.246Z</time>
      </trkpt>
      <trkpt lat="48.51079" lon="-3.56253">
        <ele>220</ele>
        <time>2021-07-22T12:11:03.251Z</time>
      </trkpt>
      <trkpt lat="48.51081" lon="-3.56245">
        <ele>220</ele>
        <time>2021-07-22T12:11:07.258Z</time>
      </trkpt>
      <trkpt lat="48.51084" lon="-3.56235">
        <ele>219</ele>
        <time>2021-07-22T12:11:12.260Z</time>
      </trkpt>
      <trkpt lat="48.51089" lon="-3.5623">
        <ele>219</ele>
        <time>2021-07-22T12:11:17.251Z</time>
      </trkpt>
      <trkpt lat="48.51094" lon="-3.56227">
        <ele>219</ele>
        <time>2021-07-22T12:11:22.264Z</time>
      </trkpt>
      <trkpt lat="48.51099" lon="-3.56227">
        <ele>219</ele>
        <time>2021-07-22T12:11:27.264Z</time>
      </trkpt>
      <trkpt lat="48.51103" lon="-3.56231">
        <ele>219</ele>
        <time>2021-07-22T12:11:32.284Z</time>
      </trkpt>
      <trkpt lat="48.51109" lon="-3.56232">
        <ele>219</ele>
        <time>2021-07-22T12:11:37.266Z</time>
      </trkpt>
      <trkpt lat="48.51115" lon="-3.5623">
        <ele>219</ele>
        <time>2021-07-22T12:11:42.269Z</time>
      </trkpt>
      <trkpt lat="48.51118" lon="-3.56229">
        <ele>219</ele>
        <time>2021-07-22T12:11:46.272Z</time>
      </trkpt>
      <trkpt lat="48.51117" lon="-3.56225">
        <ele>219</ele>
        <time>2021-07-22T12:11:51.276Z</time>
      </trkpt>
      <trkpt lat="48.51114" lon="-3.56217">
        <ele>219</ele>
        <time>2021-07-22T12:11:56.258Z</time>
      </trkpt>
      <trkpt lat="48.51113" lon="-3.56208">
        <ele>219</ele>
        <time>2021-07-22T12:12:00.280Z</time>
      </trkpt>
      <trkpt lat="48.51113" lon="-3.56201">
        <ele>219</ele>
        <time>2021-07-22T12:12:04.274Z</time>
      </trkpt>
      <trkpt lat="48.51116" lon="-3.56193">
        <ele>219</ele>
        <time>2021-07-22T12:12:09.268Z</time>
      </trkpt>
      <trkpt lat="48.51122" lon="-3.56191">
        <ele>219</ele>
        <time>2021-07-22T12:12:14.274Z</time>
      </trkpt>
      <trkpt lat="48.51128" lon="-3.56191">
        <ele>219</ele>
        <time>2021-07-22T12:12:19.267Z</time>
      </trkpt>
      <trkpt lat="48.51135" lon="-3.56192">
        <ele>219</ele>
        <time>2021-07-22T12:12:24.254Z</time>
      </trkpt>
      <trkpt lat="48.51132" lon="-3.5619">
        <ele>219</ele>
        <time>2021-07-22T12:32:57.268Z</time>
      </trkpt>
      <trkpt lat="48.51131" lon="-3.56187">
        <ele>219</ele>
        <time>2021-07-22T12:33:02.278Z</time>
      </trkpt>
      <trkpt lat="48.51131" lon="-3.56186">
        <ele>219</ele>
        <time>2021-07-22T12:33:07.273Z</time>
      </trkpt>
      <trkpt lat="48.51131" lon="-3.56184">
        <ele>219</ele>
        <time>2021-07-22T12:33:17.282Z</time>
      </trkpt>
      <trkpt lat="48.51129" lon="-3.56182">
        <ele>219</ele>
        <time>2021-07-22T12:33:22.272Z</time>
      </trkpt>
      <trkpt lat="48.51126" lon="-3.56181">
        <ele>219</ele>
        <time>2021-07-22T12:33:27.263Z</time>
      </trkpt>
      <trkpt lat="48.51122" lon="-3.56181">
        <ele>219</ele>
        <time>2021-07-22T12:33:32.268Z</time>
      </trkpt>
      <trkpt lat="48.51118" lon="-3.56182">
        <ele>219</ele>
        <time>2021-07-22T12:33:37.263Z</time>
      </trkpt>
      <trkpt lat="48.51114" lon="-3.56185">
        <ele>219</ele>
        <time>2021-07-22T12:33:42.273Z</time>
      </trkpt>
      <trkpt lat="48.5111" lon="-3.56189">
        <ele>219</ele>
        <time>2021-07-22T12:33:47.257Z</time>
      </trkpt>
      <trkpt lat="48.51104" lon="-3.56191">
        <ele>219</ele>
        <time>2021-07-22T12:33:52.268Z</time>
      </trkpt>
      <trkpt lat="48.511" lon="-3.56194">
        <ele>219</ele>
        <time>2021-07-22T12:33:57.263Z</time>
      </trkpt>
      <trkpt lat="48.51094" lon="-3.56194">
        <ele>218</ele>
        <time>2021-07-22T12:34:02.254Z</time>
      </trkpt>
      <trkpt lat="48.5109" lon="-3.56188">
        <ele>218</ele>
        <time>2021-07-22T12:34:07.261Z</time>
      </trkpt>
      <trkpt lat="48.5109" lon="-3.56185">
        <ele>218</ele>
        <time>2021-07-22T12:34:12.258Z</time>
      </trkpt>
      <trkpt lat="48.51089" lon="-3.56184">
        <ele>218</ele>
        <time>2021-07-22T12:34:16.282Z</time>
      </trkpt>
      <trkpt lat="48.51086" lon="-3.56178">
        <ele>218</ele>
        <time>2021-07-22T12:34:21.279Z</time>
      </trkpt>
      <trkpt lat="48.51082" lon="-3.56172">
        <ele>218</ele>
        <time>2021-07-22T12:34:26.261Z</time>
      </trkpt>
      <trkpt lat="48.5108" lon="-3.56165">
        <ele>218</ele>
        <time>2021-07-22T12:34:31.262Z</time>
      </trkpt>
      <trkpt lat="48.51078" lon="-3.56158">
        <ele>218</ele>
        <time>2021-07-22T12:34:36.266Z</time>
      </trkpt>
      <trkpt lat="48.51076" lon="-3.56152">
        <ele>218</ele>
        <time>2021-07-22T12:34:41.258Z</time>
      </trkpt>
      <trkpt lat="48.51074" lon="-3.56146">
        <ele>218</ele>
        <time>2021-07-22T12:34:45.261Z</time>
      </trkpt>
      <trkpt lat="48.51074" lon="-3.56144">
        <ele>218</ele>
        <time>2021-07-22T12:34:55.264Z</time>
      </trkpt>
      <trkpt lat="48.51076" lon="-3.56144">
        <ele>218</ele>
        <time>2021-07-22T12:35:00.252Z</time>
      </trkpt>
      <trkpt lat="48.51076" lon="-3.56144">
        <ele>218</ele>
        <time>2021-07-22T12:35:05.253Z</time>
      </trkpt>
      <trkpt lat="48.5108" lon="-3.56144">
        <ele>218</ele>
        <time>2021-07-22T12:35:10.254Z</time>
      </trkpt>
      <trkpt lat="48.51084" lon="-3.56142">
        <ele>218</ele>
        <time>2021-07-22T12:35:14.253Z</time>
      </trkpt>
      <trkpt lat="48.51093" lon="-3.56141">
        <ele>218</ele>
        <time>2021-07-22T12:35:24.266Z</time>
      </trkpt>
      <trkpt lat="48.51091" lon="-3.56135">
        <ele>218</ele>
        <time>2021-07-22T12:35:29.249Z</time>
      </trkpt>
      <trkpt lat="48.51093" lon="-3.56132">
        <ele>218</ele>
        <time>2021-07-22T12:35:33.266Z</time>
      </trkpt>
      <trkpt lat="48.51086" lon="-3.56137">
        <ele>218</ele>
        <time>2021-07-22T12:35:38.272Z</time>
      </trkpt>
      <trkpt lat="48.51082" lon="-3.56139">
        <ele>218</ele>
        <time>2021-07-22T12:35:43.254Z</time>
      </trkpt>
      <trkpt lat="48.51078" lon="-3.56141">
        <ele>218</ele>
        <time>2021-07-22T12:36:13.241Z</time>
      </trkpt>
      <trkpt lat="48.51076" lon="-3.56138">
        <ele>218</ele>
        <time>2021-07-22T12:36:18.263Z</time>
      </trkpt>
      <trkpt lat="48.5107" lon="-3.56141">
        <ele>218</ele>
        <time>2021-07-22T12:36:23.250Z</time>
      </trkpt>
      <trkpt lat="48.51069" lon="-3.56141">
        <ele>218</ele>
        <time>2021-07-22T12:36:27.239Z</time>
      </trkpt>
      <trkpt lat="48.51061" lon="-3.5613">
        <ele>218</ele>
        <time>2021-07-22T12:36:33.254Z</time>
      </trkpt>
      <trkpt lat="48.5108" lon="-3.56131">
        <ele>218</ele>
        <time>2021-07-22T12:48:29.262Z</time>
      </trkpt>
      <trkpt lat="48.51082" lon="-3.56133">
        <ele>218</ele>
        <time>2021-07-22T12:48:34.255Z</time>
      </trkpt>
      <trkpt lat="48.51087" lon="-3.56132">
        <ele>218</ele>
        <time>2021-07-22T12:48:39.251Z</time>
      </trkpt>
      <trkpt lat="48.51089" lon="-3.5613">
        <ele>218</ele>
        <time>2021-07-22T12:48:44.258Z</time>
      </trkpt>
      <trkpt lat="48.51093" lon="-3.5613">
        <ele>218</ele>
        <time>2021-07-22T12:48:49.266Z</time>
      </trkpt>
      <trkpt lat="48.51084" lon="-3.56135">
        <ele>218</ele>
        <time>2021-07-22T12:52:15.250Z</time>
      </trkpt>
      <trkpt lat="48.51083" lon="-3.56138">
        <ele>218</ele>
        <time>2021-07-22T12:52:20.254Z</time>
      </trkpt>
      <trkpt lat="48.51083" lon="-3.56144">
        <ele>218</ele>
        <time>2021-07-22T12:52:25.251Z</time>
      </trkpt>
      <trkpt lat="48.51079" lon="-3.56145">
        <ele>218</ele>
        <time>2021-07-22T12:52:30.259Z</time>
      </trkpt>
      <trkpt lat="48.51079" lon="-3.56146">
        <ele>218</ele>
        <time>2021-07-22T12:52:35.253Z</time>
      </trkpt>
      <trkpt lat="48.51084" lon="-3.56148">
        <ele>218</ele>
        <time>2021-07-22T12:54:08.259Z</time>
      </trkpt>
      <trkpt lat="48.51085" lon="-3.56145">
        <ele>218</ele>
        <time>2021-07-22T12:54:13.257Z</time>
      </trkpt>
      <trkpt lat="48.51085" lon="-3.56145">
        <ele>218</ele>
        <time>2021-07-22T12:54:17.264Z</time>
      </trkpt>
      <trkpt lat="48.51087" lon="-3.56142">
        <ele>218</ele>
        <time>2021-07-22T12:54:22.259Z</time>
      </trkpt>
      <trkpt lat="48.51088" lon="-3.56132">
        <ele>218</ele>
        <time>2021-07-22T12:54:27.270Z</time>
      </trkpt>
      <trkpt lat="48.51087" lon="-3.56128">
        <ele>218</ele>
        <time>2021-07-22T12:54:32.251Z</time>
      </trkpt>
      <trkpt lat="48.51086" lon="-3.56127">
        <ele>218</ele>
        <time>2021-07-22T12:54:37.255Z</time>
      </trkpt>
      <trkpt lat="48.51085" lon="-3.56119">
        <ele>218</ele>
        <time>2021-07-22T12:54:42.267Z</time>
      </trkpt>
      <trkpt lat="48.5109" lon="-3.561">
        <ele>218</ele>
        <time>2021-07-22T12:54:47.243Z</time>
      </trkpt>
      <trkpt lat="48.5109" lon="-3.56113">
        <ele>218</ele>
        <time>2021-07-22T12:54:52.241Z</time>
      </trkpt>
      <trkpt lat="48.5109" lon="-3.56113">
        <ele>218</ele>
        <time>2021-07-22T12:54:57.237Z</time>
      </trkpt>
      <trkpt lat="48.51088" lon="-3.56115">
        <ele>218</ele>
        <time>2021-07-22T12:55:02.233Z</time>
      </trkpt>
      <trkpt lat="48.51094" lon="-3.56113">
        <ele>218</ele>
        <time>2021-07-22T12:55:07.238Z</time>
      </trkpt>
      <trkpt lat="48.51098" lon="-3.56101">
        <ele>219</ele>
        <time>2021-07-22T12:55:12.246Z</time>
      </trkpt>
      <trkpt lat="48.51101" lon="-3.56092">
        <ele>220</ele>
        <time>2021-07-22T12:56:10.245Z</time>
      </trkpt>
      <trkpt lat="48.51098" lon="-3.56096">
        <ele>220</ele>
        <time>2021-07-22T12:56:15.242Z</time>
      </trkpt>
      <trkpt lat="48.51091" lon="-3.56119">
        <ele>218</ele>
        <time>2021-07-22T12:56:20.247Z</time>
      </trkpt>
      <trkpt lat="48.51091" lon="-3.56139">
        <ele>218</ele>
        <time>2021-07-22T12:56:25.253Z</time>
      </trkpt>
      <trkpt lat="48.51088" lon="-3.56152">
        <ele>218</ele>
        <time>2021-07-22T12:56:30.241Z</time>
      </trkpt>
      <trkpt lat="48.51083" lon="-3.56144">
        <ele>218</ele>
        <time>2021-07-22T12:57:34.239Z</time>
      </trkpt>
      <trkpt lat="48.51085" lon="-3.56143">
        <ele>218</ele>
        <time>2021-07-22T12:57:39.242Z</time>
      </trkpt>
      <trkpt lat="48.51086" lon="-3.56142">
        <ele>218</ele>
        <time>2021-07-22T12:57:43.258Z</time>
      </trkpt>
      <trkpt lat="48.51084" lon="-3.5614">
        <ele>218</ele>
        <time>2021-07-22T12:57:48.260Z</time>
      </trkpt>
      <trkpt lat="48.51081" lon="-3.56135">
        <ele>218</ele>
        <time>2021-07-22T12:57:53.252Z</time>
      </trkpt>
      <trkpt lat="48.51083" lon="-3.56151">
        <ele>218</ele>
        <time>2021-07-22T13:01:47.263Z</time>
      </trkpt>
      <trkpt lat="48.51081" lon="-3.56162">
        <ele>218</ele>
        <time>2021-07-22T13:01:52.264Z</time>
      </trkpt>
      <trkpt lat="48.51083" lon="-3.56167">
        <ele>218</ele>
        <time>2021-07-22T13:01:57.255Z</time>
      </trkpt>
      <trkpt lat="48.51084" lon="-3.56172">
        <ele>218</ele>
        <time>2021-07-22T13:02:01.255Z</time>
      </trkpt>
      <trkpt lat="48.51087" lon="-3.5618">
        <ele>218</ele>
        <time>2021-07-22T13:02:06.263Z</time>
      </trkpt>
      <trkpt lat="48.5109" lon="-3.56188">
        <ele>218</ele>
        <time>2021-07-22T13:02:11.258Z</time>
      </trkpt>
      <trkpt lat="48.51091" lon="-3.56195">
        <ele>218</ele>
        <time>2021-07-22T13:02:15.255Z</time>
      </trkpt>
      <trkpt lat="48.51094" lon="-3.56203">
        <ele>218</ele>
        <time>2021-07-22T13:02:20.254Z</time>
      </trkpt>
      <trkpt lat="48.51096" lon="-3.56211">
        <ele>219</ele>
        <time>2021-07-22T13:02:25.261Z</time>
      </trkpt>
      <trkpt lat="48.51098" lon="-3.56217">
        <ele>219</ele>
        <time>2021-07-22T13:02:29.253Z</time>
      </trkpt>
      <trkpt lat="48.511" lon="-3.56225">
        <ele>219</ele>
        <time>2021-07-22T13:02:34.255Z</time>
      </trkpt>
      <trkpt lat="48.51104" lon="-3.5623">
        <ele>219</ele>
        <time>2021-07-22T13:02:39.256Z</time>
      </trkpt>
      <trkpt lat="48.5111" lon="-3.56235">
        <ele>219</ele>
        <time>2021-07-22T13:02:44.267Z</time>
      </trkpt>
      <trkpt lat="48.51113" lon="-3.56239">
        <ele>219</ele>
        <time>2021-07-22T13:02:48.288Z</time>
      </trkpt>
      <trkpt lat="48.51117" lon="-3.56246">
        <ele>219</ele>
        <time>2021-07-22T13:02:53.261Z</time>
      </trkpt>
      <trkpt lat="48.51121" lon="-3.5625">
        <ele>219</ele>
        <time>2021-07-22T13:02:58.275Z</time>
      </trkpt>
      <trkpt lat="48.51126" lon="-3.56253">
        <ele>218</ele>
        <time>2021-07-22T13:03:03.258Z</time>
      </trkpt>
      <trkpt lat="48.5113" lon="-3.56256">
        <ele>218</ele>
        <time>2021-07-22T13:03:08.280Z</time>
      </trkpt>
      <trkpt lat="48.51135" lon="-3.5626">
        <ele>218</ele>
        <time>2021-07-22T13:03:13.251Z</time>
      </trkpt>
      <trkpt lat="48.51139" lon="-3.56263">
        <ele>218</ele>
        <time>2021-07-22T13:03:17.263Z</time>
      </trkpt>
      <trkpt lat="48.51143" lon="-3.56269">
        <ele>218</ele>
        <time>2021-07-22T13:03:21.276Z</time>
      </trkpt>
      <trkpt lat="48.51145" lon="-3.56279">
        <ele>218</ele>
        <time>2021-07-22T13:03:26.257Z</time>
      </trkpt>
      <trkpt lat="48.51147" lon="-3.56288">
        <ele>218</ele>
        <time>2021-07-22T13:03:31.255Z</time>
      </trkpt>
      <trkpt lat="48.5115" lon="-3.56297">
        <ele>217</ele>
        <time>2021-07-22T13:03:36.260Z</time>
      </trkpt>
      <trkpt lat="48.51154" lon="-3.56304">
        <ele>216</ele>
        <time>2021-07-22T13:03:41.260Z</time>
      </trkpt>
      <trkpt lat="48.51155" lon="-3.56312">
        <ele>216</ele>
        <time>2021-07-22T13:03:46.282Z</time>
      </trkpt>
      <trkpt lat="48.51159" lon="-3.5632">
        <ele>216</ele>
        <time>2021-07-22T13:03:51.271Z</time>
      </trkpt>
      <trkpt lat="48.51162" lon="-3.56326">
        <ele>216</ele>
        <time>2021-07-22T13:03:56.263Z</time>
      </trkpt>
      <trkpt lat="48.51163" lon="-3.56334">
        <ele>216</ele>
        <time>2021-07-22T13:04:01.251Z</time>
      </trkpt>
      <trkpt lat="48.51166" lon="-3.56344">
        <ele>216</ele>
        <time>2021-07-22T13:04:06.259Z</time>
      </trkpt>
      <trkpt lat="48.51167" lon="-3.56349">
        <ele>216</ele>
        <time>2021-07-22T13:04:10.275Z</time>
      </trkpt>
      <trkpt lat="48.51167" lon="-3.56353">
        <ele>216</ele>
        <time>2021-07-22T13:04:15.258Z</time>
      </trkpt>
      <trkpt lat="48.51168" lon="-3.56353">
        <ele>216</ele>
        <time>2021-07-22T13:04:19.270Z</time>
      </trkpt>
      <trkpt lat="48.51169" lon="-3.56357">
        <ele>216</ele>
        <time>2021-07-22T13:04:24.258Z</time>
      </trkpt>
      <trkpt lat="48.51171" lon="-3.56364">
        <ele>216</ele>
        <time>2021-07-22T13:04:29.267Z</time>
      </trkpt>
      <trkpt lat="48.51176" lon="-3.5637">
        <ele>216</ele>
        <time>2021-07-22T13:04:34.265Z</time>
      </trkpt>
      <trkpt lat="48.51177" lon="-3.56375">
        <ele>217</ele>
        <time>2021-07-22T13:04:38.281Z</time>
      </trkpt>
      <trkpt lat="48.51179" lon="-3.56382">
        <ele>217</ele>
        <time>2021-07-22T13:04:43.257Z</time>
      </trkpt>
      <trkpt lat="48.51181" lon="-3.5639">
        <ele>217</ele>
        <time>2021-07-22T13:04:48.267Z</time>
      </trkpt>
      <trkpt lat="48.51184" lon="-3.56396">
        <ele>217</ele>
        <time>2021-07-22T13:04:52.268Z</time>
      </trkpt>
      <trkpt lat="48.51186" lon="-3.56404">
        <ele>217</ele>
        <time>2021-07-22T13:04:57.255Z</time>
      </trkpt>
      <trkpt lat="48.51189" lon="-3.56412">
        <ele>217</ele>
        <time>2021-07-22T13:05:02.278Z</time>
      </trkpt>
      <trkpt lat="48.51191" lon="-3.5642">
        <ele>217</ele>
        <time>2021-07-22T13:05:07.259Z</time>
      </trkpt>
      <trkpt lat="48.51193" lon="-3.56429">
        <ele>217</ele>
        <time>2021-07-22T13:05:12.259Z</time>
      </trkpt>
      <trkpt lat="48.51194" lon="-3.56438">
        <ele>217</ele>
        <time>2021-07-22T13:05:17.283Z</time>
      </trkpt>
      <trkpt lat="48.51196" lon="-3.56445">
        <ele>217</ele>
        <time>2021-07-22T13:05:21.251Z</time>
      </trkpt>
      <trkpt lat="48.51199" lon="-3.56454">
        <ele>217</ele>
        <time>2021-07-22T13:05:26.263Z</time>
      </trkpt>
      <trkpt lat="48.51202" lon="-3.56462">
        <ele>217</ele>
        <time>2021-07-22T13:05:31.260Z</time>
      </trkpt>
      <trkpt lat="48.51205" lon="-3.56471">
        <ele>217</ele>
        <time>2021-07-22T13:05:36.257Z</time>
      </trkpt>
      <trkpt lat="48.51207" lon="-3.56479">
        <ele>217</ele>
        <time>2021-07-22T13:05:41.280Z</time>
      </trkpt>
      <trkpt lat="48.51208" lon="-3.56486">
        <ele>216</ele>
        <time>2021-07-22T13:05:46.252Z</time>
      </trkpt>
      <trkpt lat="48.51211" lon="-3.56496">
        <ele>216</ele>
        <time>2021-07-22T13:05:51.252Z</time>
      </trkpt>
      <trkpt lat="48.51213" lon="-3.56503">
        <ele>216</ele>
        <time>2021-07-22T13:05:56.257Z</time>
      </trkpt>
      <trkpt lat="48.51215" lon="-3.56512">
        <ele>216</ele>
        <time>2021-07-22T13:06:01.277Z</time>
      </trkpt>
      <trkpt lat="48.51217" lon="-3.5652">
        <ele>217</ele>
        <time>2021-07-22T13:06:06.263Z</time>
      </trkpt>
      <trkpt lat="48.51219" lon="-3.56529">
        <ele>217</ele>
        <time>2021-07-22T13:06:11.254Z</time>
      </trkpt>
      <trkpt lat="48.51222" lon="-3.56538">
        <ele>217</ele>
        <time>2021-07-22T13:06:16.254Z</time>
      </trkpt>
      <trkpt lat="48.51222" lon="-3.56547">
        <ele>217</ele>
        <time>2021-07-22T13:06:21.261Z</time>
      </trkpt>
      <trkpt lat="48.51225" lon="-3.56555">
        <ele>217</ele>
        <time>2021-07-22T13:06:26.263Z</time>
      </trkpt>
      <trkpt lat="48.51228" lon="-3.56562">
        <ele>217</ele>
        <time>2021-07-22T13:06:31.259Z</time>
      </trkpt>
      <trkpt lat="48.51232" lon="-3.56569">
        <ele>217</ele>
        <time>2021-07-22T13:06:36.266Z</time>
      </trkpt>
      <trkpt lat="48.51237" lon="-3.56577">
        <ele>217</ele>
        <time>2021-07-22T13:06:41.286Z</time>
      </trkpt>
      <trkpt lat="48.51241" lon="-3.56586">
        <ele>217</ele>
        <time>2021-07-22T13:06:46.250Z</time>
      </trkpt>
      <trkpt lat="48.51243" lon="-3.56593">
        <ele>217</ele>
        <time>2021-07-22T13:06:50.274Z</time>
      </trkpt>
      <trkpt lat="48.51246" lon="-3.56601">
        <ele>217</ele>
        <time>2021-07-22T13:06:55.271Z</time>
      </trkpt>
      <trkpt lat="48.51249" lon="-3.5661">
        <ele>217</ele>
        <time>2021-07-22T13:07:00.259Z</time>
      </trkpt>
      <trkpt lat="48.51252" lon="-3.56619">
        <ele>217</ele>
        <time>2021-07-22T13:07:05.280Z</time>
      </trkpt>
      <trkpt lat="48.51256" lon="-3.56627">
        <ele>217</ele>
        <time>2021-07-22T13:07:10.267Z</time>
      </trkpt>
      <trkpt lat="48.5126" lon="-3.56634">
        <ele>217</ele>
        <time>2021-07-22T13:07:15.255Z</time>
      </trkpt>
      <trkpt lat="48.51262" lon="-3.5664">
        <ele>217</ele>
        <time>2021-07-22T13:07:19.265Z</time>
      </trkpt>
      <trkpt lat="48.51265" lon="-3.56648">
        <ele>217</ele>
        <time>2021-07-22T13:07:24.278Z</time>
      </trkpt>
      <trkpt lat="48.51268" lon="-3.56656">
        <ele>217</ele>
        <time>2021-07-22T13:07:29.252Z</time>
      </trkpt>
      <trkpt lat="48.51272" lon="-3.56665">
        <ele>217</ele>
        <time>2021-07-22T13:07:34.263Z</time>
      </trkpt>
      <trkpt lat="48.51275" lon="-3.56673">
        <ele>217</ele>
        <time>2021-07-22T13:07:39.257Z</time>
      </trkpt>
      <trkpt lat="48.51278" lon="-3.56678">
        <ele>217</ele>
        <time>2021-07-22T13:07:43.281Z</time>
      </trkpt>
      <trkpt lat="48.51281" lon="-3.56687">
        <ele>217</ele>
        <time>2021-07-22T13:07:48.260Z</time>
      </trkpt>
      <trkpt lat="48.51284" lon="-3.56696">
        <ele>217</ele>
        <time>2021-07-22T13:07:53.260Z</time>
      </trkpt>
      <trkpt lat="48.51286" lon="-3.56703">
        <ele>217</ele>
        <time>2021-07-22T13:07:57.279Z</time>
      </trkpt>
      <trkpt lat="48.51289" lon="-3.56711">
        <ele>218</ele>
        <time>2021-07-22T13:08:02.279Z</time>
      </trkpt>
      <trkpt lat="48.51292" lon="-3.5672">
        <ele>219</ele>
        <time>2021-07-22T13:08:07.270Z</time>
      </trkpt>
      <trkpt lat="48.51295" lon="-3.56728">
        <ele>219</ele>
        <time>2021-07-22T13:08:12.260Z</time>
      </trkpt>
      <trkpt lat="48.51297" lon="-3.56736">
        <ele>219</ele>
        <time>2021-07-22T13:08:17.264Z</time>
      </trkpt>
      <trkpt lat="48.513" lon="-3.56745">
        <ele>219</ele>
        <time>2021-07-22T13:08:22.269Z</time>
      </trkpt>
      <trkpt lat="48.51302" lon="-3.56754">
        <ele>219</ele>
        <time>2021-07-22T13:08:27.266Z</time>
      </trkpt>
      <trkpt lat="48.51304" lon="-3.56762">
        <ele>219</ele>
        <time>2021-07-22T13:08:32.274Z</time>
      </trkpt>
      <trkpt lat="48.51306" lon="-3.56772">
        <ele>220</ele>
        <time>2021-07-22T13:08:37.259Z</time>
      </trkpt>
      <trkpt lat="48.5131" lon="-3.56779">
        <ele>220</ele>
        <time>2021-07-22T13:08:42.257Z</time>
      </trkpt>
      <trkpt lat="48.51312" lon="-3.56786">
        <ele>220</ele>
        <time>2021-07-22T13:08:46.256Z</time>
      </trkpt>
      <trkpt lat="48.51314" lon="-3.56795">
        <ele>220</ele>
        <time>2021-07-22T13:08:51.259Z</time>
      </trkpt>
      <trkpt lat="48.51315" lon="-3.56803">
        <ele>220</ele>
        <time>2021-07-22T13:08:55.291Z</time>
      </trkpt>
      <trkpt lat="48.51317" lon="-3.56812">
        <ele>220</ele>
        <time>2021-07-22T13:09:00.277Z</time>
      </trkpt>
      <trkpt lat="48.5132" lon="-3.56819">
        <ele>220</ele>
        <time>2021-07-22T13:09:04.296Z</time>
      </trkpt>
      <trkpt lat="48.51322" lon="-3.56827">
        <ele>219</ele>
        <time>2021-07-22T13:09:09.271Z</time>
      </trkpt>
      <trkpt lat="48.51324" lon="-3.56833">
        <ele>219</ele>
        <time>2021-07-22T13:09:13.272Z</time>
      </trkpt>
      <trkpt lat="48.51326" lon="-3.56841">
        <ele>219</ele>
        <time>2021-07-22T13:09:18.276Z</time>
      </trkpt>
      <trkpt lat="48.51329" lon="-3.5685">
        <ele>218</ele>
        <time>2021-07-22T13:09:23.271Z</time>
      </trkpt>
      <trkpt lat="48.51331" lon="-3.56859">
        <ele>218</ele>
        <time>2021-07-22T13:09:28.255Z</time>
      </trkpt>
      <trkpt lat="48.51334" lon="-3.56868">
        <ele>218</ele>
        <time>2021-07-22T13:09:33.263Z</time>
      </trkpt>
      <trkpt lat="48.51335" lon="-3.56876">
        <ele>217</ele>
        <time>2021-07-22T13:09:37.263Z</time>
      </trkpt>
      <trkpt lat="48.51336" lon="-3.56885">
        <ele>217</ele>
        <time>2021-07-22T13:09:42.282Z</time>
      </trkpt>
      <trkpt lat="48.51338" lon="-3.56895">
        <ele>217</ele>
        <time>2021-07-22T13:09:47.263Z</time>
      </trkpt>
      <trkpt lat="48.51341" lon="-3.56904">
        <ele>216</ele>
        <time>2021-07-22T13:09:52.253Z</time>
      </trkpt>
      <trkpt lat="48.51343" lon="-3.56914">
        <ele>216</ele>
        <time>2021-07-22T13:09:57.262Z</time>
      </trkpt>
      <trkpt lat="48.51344" lon="-3.56921">
        <ele>216</ele>
        <time>2021-07-22T13:10:02.259Z</time>
      </trkpt>
      <trkpt lat="48.51345" lon="-3.56929">
        <ele>216</ele>
        <time>2021-07-22T13:10:06.274Z</time>
      </trkpt>
      <trkpt lat="48.51346" lon="-3.56938">
        <ele>215</ele>
        <time>2021-07-22T13:10:11.266Z</time>
      </trkpt>
      <trkpt lat="48.51347" lon="-3.56948">
        <ele>215</ele>
        <time>2021-07-22T13:10:16.264Z</time>
      </trkpt>
      <trkpt lat="48.51348" lon="-3.56955">
        <ele>214</ele>
        <time>2021-07-22T13:10:20.281Z</time>
      </trkpt>
      <trkpt lat="48.51349" lon="-3.56964">
        <ele>213</ele>
        <time>2021-07-22T13:10:25.263Z</time>
      </trkpt>
      <trkpt lat="48.5135" lon="-3.56971">
        <ele>213</ele>
        <time>2021-07-22T13:10:29.283Z</time>
      </trkpt>
      <trkpt lat="48.51352" lon="-3.56983">
        <ele>213</ele>
        <time>2021-07-22T13:10:34.275Z</time>
      </trkpt>
      <trkpt lat="48.51355" lon="-3.56993">
        <ele>212</ele>
        <time>2021-07-22T13:10:39.260Z</time>
      </trkpt>
      <trkpt lat="48.51356" lon="-3.57001">
        <ele>212</ele>
        <time>2021-07-22T13:10:44.262Z</time>
      </trkpt>
      <trkpt lat="48.51358" lon="-3.5701">
        <ele>212</ele>
        <time>2021-07-22T13:10:49.262Z</time>
      </trkpt>
      <trkpt lat="48.5136" lon="-3.57018">
        <ele>211</ele>
        <time>2021-07-22T13:10:54.271Z</time>
      </trkpt>
      <trkpt lat="48.51362" lon="-3.57028">
        <ele>211</ele>
        <time>2021-07-22T13:10:59.287Z</time>
      </trkpt>
      <trkpt lat="48.51364" lon="-3.57037">
        <ele>211</ele>
        <time>2021-07-22T13:11:04.272Z</time>
      </trkpt>
      <trkpt lat="48.51365" lon="-3.57044">
        <ele>210</ele>
        <time>2021-07-22T13:11:09.264Z</time>
      </trkpt>
      <trkpt lat="48.51364" lon="-3.57054">
        <ele>210</ele>
        <time>2021-07-22T13:11:14.268Z</time>
      </trkpt>
      <trkpt lat="48.51366" lon="-3.57063">
        <ele>210</ele>
        <time>2021-07-22T13:11:19.264Z</time>
      </trkpt>
      <trkpt lat="48.51368" lon="-3.5707">
        <ele>209</ele>
        <time>2021-07-22T13:11:23.278Z</time>
      </trkpt>
      <trkpt lat="48.5137" lon="-3.57081">
        <ele>209</ele>
        <time>2021-07-22T13:11:28.277Z</time>
      </trkpt>
      <trkpt lat="48.51374" lon="-3.57091">
        <ele>209</ele>
        <time>2021-07-22T13:11:33.276Z</time>
      </trkpt>
      <trkpt lat="48.51375" lon="-3.571">
        <ele>206</ele>
        <time>2021-07-22T13:11:38.270Z</time>
      </trkpt>
      <trkpt lat="48.51378" lon="-3.57109">
        <ele>206</ele>
        <time>2021-07-22T13:11:43.289Z</time>
      </trkpt>
      <trkpt lat="48.51379" lon="-3.57116">
        <ele>206</ele>
        <time>2021-07-22T13:11:48.259Z</time>
      </trkpt>
      <trkpt lat="48.5138" lon="-3.57126">
        <ele>205</ele>
        <time>2021-07-22T13:11:53.267Z</time>
      </trkpt>
      <trkpt lat="48.51382" lon="-3.57135">
        <ele>205</ele>
        <time>2021-07-22T13:11:58.263Z</time>
      </trkpt>
      <trkpt lat="48.51383" lon="-3.57145">
        <ele>205</ele>
        <time>2021-07-22T13:12:03.283Z</time>
      </trkpt>
      <trkpt lat="48.51385" lon="-3.57154">
        <ele>204</ele>
        <time>2021-07-22T13:12:08.257Z</time>
      </trkpt>
      <trkpt lat="48.51388" lon="-3.57163">
        <ele>204</ele>
        <time>2021-07-22T13:12:13.256Z</time>
      </trkpt>
      <trkpt lat="48.51391" lon="-3.57171">
        <ele>204</ele>
        <time>2021-07-22T13:12:18.279Z</time>
      </trkpt>
      <trkpt lat="48.51394" lon="-3.57179">
        <ele>204</ele>
        <time>2021-07-22T13:12:23.258Z</time>
      </trkpt>
      <trkpt lat="48.51397" lon="-3.57186">
        <ele>205</ele>
        <time>2021-07-22T13:12:27.295Z</time>
      </trkpt>
      <trkpt lat="48.51399" lon="-3.57194">
        <ele>205</ele>
        <time>2021-07-22T13:12:32.278Z</time>
      </trkpt>
      <trkpt lat="48.51402" lon="-3.57202">
        <ele>205</ele>
        <time>2021-07-22T13:12:37.271Z</time>
      </trkpt>
      <trkpt lat="48.51404" lon="-3.5721">
        <ele>201</ele>
        <time>2021-07-22T13:12:42.267Z</time>
      </trkpt>
      <trkpt lat="48.51406" lon="-3.57221">
        <ele>201</ele>
        <time>2021-07-22T13:12:47.288Z</time>
      </trkpt>
      <trkpt lat="48.51409" lon="-3.5723">
        <ele>201</ele>
        <time>2021-07-22T13:12:52.273Z</time>
      </trkpt>
      <trkpt lat="48.51412" lon="-3.57238">
        <ele>201</ele>
        <time>2021-07-22T13:12:57.253Z</time>
      </trkpt>
      <trkpt lat="48.51415" lon="-3.57247">
        <ele>201</ele>
        <time>2021-07-22T13:13:02.256Z</time>
      </trkpt>
      <trkpt lat="48.51417" lon="-3.57257">
        <ele>201</ele>
        <time>2021-07-22T13:13:07.254Z</time>
      </trkpt>
      <trkpt lat="48.5142" lon="-3.57265">
        <ele>200</ele>
        <time>2021-07-22T13:13:12.257Z</time>
      </trkpt>
      <trkpt lat="48.51422" lon="-3.57274">
        <ele>200</ele>
        <time>2021-07-22T13:13:17.256Z</time>
      </trkpt>
      <trkpt lat="48.51426" lon="-3.57282">
        <ele>200</ele>
        <time>2021-07-22T13:13:22.264Z</time>
      </trkpt>
      <trkpt lat="48.51427" lon="-3.57293">
        <ele>200</ele>
        <time>2021-07-22T13:13:27.254Z</time>
      </trkpt>
      <trkpt lat="48.51428" lon="-3.57302">
        <ele>200</ele>
        <time>2021-07-22T13:13:31.269Z</time>
      </trkpt>
      <trkpt lat="48.51429" lon="-3.5731">
        <ele>200</ele>
        <time>2021-07-22T13:13:36.261Z</time>
      </trkpt>
      <trkpt lat="48.5143" lon="-3.57318">
        <ele>200</ele>
        <time>2021-07-22T13:13:40.277Z</time>
      </trkpt>
      <trkpt lat="48.51429" lon="-3.57327">
        <ele>200</ele>
        <time>2021-07-22T13:13:45.275Z</time>
      </trkpt>
      <trkpt lat="48.51431" lon="-3.57335">
        <ele>192</ele>
        <time>2021-07-22T13:13:50.251Z</time>
      </trkpt>
      <trkpt lat="48.5143" lon="-3.57337">
        <ele>200</ele>
        <time>2021-07-22T13:13:55.274Z</time>
      </trkpt>
      <trkpt lat="48.51426" lon="-3.5734">
        <ele>200</ele>
        <time>2021-07-22T13:14:00.273Z</time>
      </trkpt>
      <trkpt lat="48.51425" lon="-3.57346">
        <ele>200</ele>
        <time>2021-07-22T13:14:05.274Z</time>
      </trkpt>
      <trkpt lat="48.51422" lon="-3.57355">
        <ele>200</ele>
        <time>2021-07-22T13:14:10.256Z</time>
      </trkpt>
      <trkpt lat="48.5142" lon="-3.57363">
        <ele>200</ele>
        <time>2021-07-22T13:14:15.263Z</time>
      </trkpt>
      <trkpt lat="48.51421" lon="-3.57372">
        <ele>200</ele>
        <time>2021-07-22T13:14:20.265Z</time>
      </trkpt>
      <trkpt lat="48.51421" lon="-3.57382">
        <ele>198</ele>
        <time>2021-07-22T13:14:25.255Z</time>
      </trkpt>
      <trkpt lat="48.51419" lon="-3.57388">
        <ele>198</ele>
        <time>2021-07-22T13:14:29.258Z</time>
      </trkpt>
      <trkpt lat="48.51416" lon="-3.57394">
        <ele>198</ele>
        <time>2021-07-22T13:14:34.258Z</time>
      </trkpt>
      <trkpt lat="48.51414" lon="-3.57404">
        <ele>194</ele>
        <time>2021-07-22T13:14:39.253Z</time>
      </trkpt>
      <trkpt lat="48.51412" lon="-3.57407">
        <ele>194</ele>
        <time>2021-07-22T13:14:44.262Z</time>
      </trkpt>
      <trkpt lat="48.51411" lon="-3.57416">
        <ele>194</ele>
        <time>2021-07-22T13:14:49.272Z</time>
      </trkpt>
      <trkpt lat="48.51408" lon="-3.57425">
        <ele>194</ele>
        <time>2021-07-22T13:14:54.249Z</time>
      </trkpt>
      <trkpt lat="48.51405" lon="-3.57434">
        <ele>190</ele>
        <time>2021-07-22T13:14:58.246Z</time>
      </trkpt>
      <trkpt lat="48.514" lon="-3.57443">
        <ele>195</ele>
        <time>2021-07-22T13:15:03.243Z</time>
      </trkpt>
      <trkpt lat="48.51398" lon="-3.57449">
        <ele>195</ele>
        <time>2021-07-22T13:15:07.264Z</time>
      </trkpt>
      <trkpt lat="48.51394" lon="-3.57459">
        <ele>190</ele>
        <time>2021-07-22T13:15:12.255Z</time>
      </trkpt>
      <trkpt lat="48.51389" lon="-3.57466">
        <ele>190</ele>
        <time>2021-07-22T13:15:16.262Z</time>
      </trkpt>
      <trkpt lat="48.51382" lon="-3.57472">
        <ele>190</ele>
        <time>2021-07-22T13:15:21.272Z</time>
      </trkpt>
      <trkpt lat="48.51376" lon="-3.57478">
        <ele>190</ele>
        <time>2021-07-22T13:15:26.251Z</time>
      </trkpt>
      <trkpt lat="48.51372" lon="-3.57483">
        <ele>193</ele>
        <time>2021-07-22T13:15:30.266Z</time>
      </trkpt>
      <trkpt lat="48.51365" lon="-3.57487">
        <ele>190</ele>
        <time>2021-07-22T13:15:35.256Z</time>
      </trkpt>
      <trkpt lat="48.51364" lon="-3.57494">
        <ele>190</ele>
        <time>2021-07-22T13:15:40.263Z</time>
      </trkpt>
      <trkpt lat="48.51372" lon="-3.57505">
        <ele>190</ele>
        <time>2021-07-22T13:16:13.276Z</time>
      </trkpt>
      <trkpt lat="48.51376" lon="-3.57503">
        <ele>186</ele>
        <time>2021-07-22T13:16:23.251Z</time>
      </trkpt>
      <trkpt lat="48.5138" lon="-3.57506">
        <ele>186</ele>
        <time>2021-07-22T13:16:28.255Z</time>
      </trkpt>
      <trkpt lat="48.51384" lon="-3.57508">
        <ele>186</ele>
        <time>2021-07-22T13:16:33.257Z</time>
      </trkpt>
      <trkpt lat="48.5139" lon="-3.57512">
        <ele>186</ele>
        <time>2021-07-22T13:16:38.255Z</time>
      </trkpt>
      <trkpt lat="48.51396" lon="-3.57515">
        <ele>185</ele>
        <time>2021-07-22T13:16:43.255Z</time>
      </trkpt>
      <trkpt lat="48.51401" lon="-3.57517">
        <ele>185</ele>
        <time>2021-07-22T13:16:48.273Z</time>
      </trkpt>
      <trkpt lat="48.51406" lon="-3.57521">
        <ele>182</ele>
        <time>2021-07-22T13:16:53.263Z</time>
      </trkpt>
      <trkpt lat="48.51408" lon="-3.57521">
        <ele>182</ele>
        <time>2021-07-22T13:16:58.271Z</time>
      </trkpt>
      <trkpt lat="48.51408" lon="-3.5752">
        <ele>182</ele>
        <time>2021-07-22T13:19:11.319Z</time>
      </trkpt>
      <trkpt lat="48.51407" lon="-3.5752">
        <ele>182</ele>
        <time>2021-07-22T13:19:16.335Z</time>
      </trkpt>
      <trkpt lat="48.51402" lon="-3.5752">
        <ele>185</ele>
        <time>2021-07-22T13:19:21.260Z</time>
      </trkpt>
      <trkpt lat="48.51398" lon="-3.57515">
        <ele>185</ele>
        <time>2021-07-22T13:19:26.269Z</time>
      </trkpt>
      <trkpt lat="48.51395" lon="-3.57514">
        <ele>186</ele>
        <time>2021-07-22T13:19:31.260Z</time>
      </trkpt>
      <trkpt lat="48.51388" lon="-3.5751">
        <ele>186</ele>
        <time>2021-07-22T13:19:36.261Z</time>
      </trkpt>
      <trkpt lat="48.51382" lon="-3.57508">
        <ele>186</ele>
        <time>2021-07-22T13:19:41.255Z</time>
      </trkpt>
      <trkpt lat="48.51376" lon="-3.57503">
        <ele>186</ele>
        <time>2021-07-22T13:19:45.266Z</time>
      </trkpt>
      <trkpt lat="48.51371" lon="-3.57496">
        <ele>190</ele>
        <time>2021-07-22T13:19:50.247Z</time>
      </trkpt>
      <trkpt lat="48.51375" lon="-3.57487">
        <ele>186</ele>
        <time>2021-07-22T13:19:55.244Z</time>
      </trkpt>
      <trkpt lat="48.51382" lon="-3.57486">
        <ele>186</ele>
        <time>2021-07-22T13:20:00.249Z</time>
      </trkpt>
      <trkpt lat="48.51387" lon="-3.57483">
        <ele>190</ele>
        <time>2021-07-22T13:20:05.253Z</time>
      </trkpt>
      <trkpt lat="48.51393" lon="-3.5748">
        <ele>190</ele>
        <time>2021-07-22T13:20:09.264Z</time>
      </trkpt>
      <trkpt lat="48.51401" lon="-3.57475">
        <ele>190</ele>
        <time>2021-07-22T13:20:14.264Z</time>
      </trkpt>
      <trkpt lat="48.51408" lon="-3.57471">
        <ele>187</ele>
        <time>2021-07-22T13:20:19.278Z</time>
      </trkpt>
      <trkpt lat="48.51415" lon="-3.57464">
        <ele>187</ele>
        <time>2021-07-22T13:20:24.259Z</time>
      </trkpt>
      <trkpt lat="48.51421" lon="-3.57457">
        <ele>190</ele>
        <time>2021-07-22T13:20:29.255Z</time>
      </trkpt>
      <trkpt lat="48.51427" lon="-3.57453">
        <ele>190</ele>
        <time>2021-07-22T13:20:34.262Z</time>
      </trkpt>
      <trkpt lat="48.51432" lon="-3.57451">
        <ele>186</ele>
        <time>2021-07-22T13:20:39.256Z</time>
      </trkpt>
      <trkpt lat="48.51435" lon="-3.57448">
        <ele>186</ele>
        <time>2021-07-22T13:20:43.273Z</time>
      </trkpt>
      <trkpt lat="48.5144" lon="-3.57443">
        <ele>186</ele>
        <time>2021-07-22T13:20:48.272Z</time>
      </trkpt>
      <trkpt lat="48.51443" lon="-3.57438">
        <ele>186</ele>
        <time>2021-07-22T13:20:52.275Z</time>
      </trkpt>
      <trkpt lat="48.51449" lon="-3.5743">
        <ele>190</ele>
        <time>2021-07-22T13:20:57.253Z</time>
      </trkpt>
      <trkpt lat="48.51454" lon="-3.5742">
        <ele>190</ele>
        <time>2021-07-22T13:21:02.259Z</time>
      </trkpt>
      <trkpt lat="48.5146" lon="-3.57415">
        <ele>184</ele>
        <time>2021-07-22T13:21:07.252Z</time>
      </trkpt>
      <trkpt lat="48.51466" lon="-3.57408">
        <ele>184</ele>
        <time>2021-07-22T13:21:12.251Z</time>
      </trkpt>
      <trkpt lat="48.51472" lon="-3.57399">
        <ele>186</ele>
        <time>2021-07-22T13:21:17.260Z</time>
      </trkpt>
      <trkpt lat="48.51474" lon="-3.57391">
        <ele>186</ele>
        <time>2021-07-22T13:21:22.253Z</time>
      </trkpt>
      <trkpt lat="48.51475" lon="-3.5738">
        <ele>186</ele>
        <time>2021-07-22T13:21:27.269Z</time>
      </trkpt>
      <trkpt lat="48.51476" lon="-3.57367">
        <ele>186</ele>
        <time>2021-07-22T13:21:32.247Z</time>
      </trkpt>
      <trkpt lat="48.51474" lon="-3.57357">
        <ele>186</ele>
        <time>2021-07-22T13:21:36.251Z</time>
      </trkpt>
      <trkpt lat="48.5147" lon="-3.57345">
        <ele>186</ele>
        <time>2021-07-22T13:21:41.262Z</time>
      </trkpt>
      <trkpt lat="48.51465" lon="-3.57337">
        <ele>186</ele>
        <time>2021-07-22T13:21:45.273Z</time>
      </trkpt>
      <trkpt lat="48.51462" lon="-3.57328">
        <ele>186</ele>
        <time>2021-07-22T13:21:49.259Z</time>
      </trkpt>
      <trkpt lat="48.51458" lon="-3.57318">
        <ele>192</ele>
        <time>2021-07-22T13:21:54.263Z</time>
      </trkpt>
      <trkpt lat="48.51455" lon="-3.57307">
        <ele>192</ele>
        <time>2021-07-22T13:21:59.267Z</time>
      </trkpt>
      <trkpt lat="48.51454" lon="-3.57296">
        <ele>192</ele>
        <time>2021-07-22T13:22:04.273Z</time>
      </trkpt>
      <trkpt lat="48.51454" lon="-3.57283">
        <ele>194</ele>
        <time>2021-07-22T13:22:09.261Z</time>
      </trkpt>
      <trkpt lat="48.51456" lon="-3.57272">
        <ele>194</ele>
        <time>2021-07-22T13:22:14.252Z</time>
      </trkpt>
      <trkpt lat="48.51456" lon="-3.57264">
        <ele>194</ele>
        <time>2021-07-22T13:22:18.266Z</time>
      </trkpt>
      <trkpt lat="48.51456" lon="-3.57253">
        <ele>194</ele>
        <time>2021-07-22T13:22:23.252Z</time>
      </trkpt>
      <trkpt lat="48.51455" lon="-3.57241">
        <ele>194</ele>
        <time>2021-07-22T13:22:28.259Z</time>
      </trkpt>
      <trkpt lat="48.51456" lon="-3.57232">
        <ele>195</ele>
        <time>2021-07-22T13:22:33.262Z</time>
      </trkpt>
      <trkpt lat="48.51455" lon="-3.57222">
        <ele>195</ele>
        <time>2021-07-22T13:22:38.276Z</time>
      </trkpt>
      <trkpt lat="48.51452" lon="-3.57209">
        <ele>195</ele>
        <time>2021-07-22T13:22:43.263Z</time>
      </trkpt>
      <trkpt lat="48.5145" lon="-3.572">
        <ele>195</ele>
        <time>2021-07-22T13:22:48.271Z</time>
      </trkpt>
      <trkpt lat="48.5145" lon="-3.57189">
        <ele>195</ele>
        <time>2021-07-22T13:22:53.266Z</time>
      </trkpt>
      <trkpt lat="48.51453" lon="-3.57179">
        <ele>197</ele>
        <time>2021-07-22T13:22:58.265Z</time>
      </trkpt>
      <trkpt lat="48.51459" lon="-3.57171">
        <ele>192</ele>
        <time>2021-07-22T13:23:02.275Z</time>
      </trkpt>
      <trkpt lat="48.51465" lon="-3.57168">
        <ele>192</ele>
        <time>2021-07-22T13:23:07.265Z</time>
      </trkpt>
      <trkpt lat="48.51474" lon="-3.57168">
        <ele>192</ele>
        <time>2021-07-22T13:23:12.264Z</time>
      </trkpt>
      <trkpt lat="48.51481" lon="-3.57168">
        <ele>192</ele>
        <time>2021-07-22T13:23:17.255Z</time>
      </trkpt>
      <trkpt lat="48.51489" lon="-3.57168">
        <ele>187</ele>
        <time>2021-07-22T13:23:22.267Z</time>
      </trkpt>
      <trkpt lat="48.51496" lon="-3.57163">
        <ele>187</ele>
        <time>2021-07-22T13:23:27.257Z</time>
      </trkpt>
      <trkpt lat="48.51504" lon="-3.57156">
        <ele>187</ele>
        <time>2021-07-22T13:23:32.266Z</time>
      </trkpt>
      <trkpt lat="48.51513" lon="-3.57152">
        <ele>191</ele>
        <time>2021-07-22T13:23:37.263Z</time>
      </trkpt>
      <trkpt lat="48.5152" lon="-3.57148">
        <ele>189</ele>
        <time>2021-07-22T13:23:42.257Z</time>
      </trkpt>
      <trkpt lat="48.51526" lon="-3.57145">
        <ele>189</ele>
        <time>2021-07-22T13:23:46.261Z</time>
      </trkpt>
      <trkpt lat="48.51533" lon="-3.57139">
        <ele>189</ele>
        <time>2021-07-22T13:23:51.250Z</time>
      </trkpt>
      <trkpt lat="48.51541" lon="-3.57135">
        <ele>189</ele>
        <time>2021-07-22T13:23:56.276Z</time>
      </trkpt>
      <trkpt lat="48.51547" lon="-3.5713">
        <ele>189</ele>
        <time>2021-07-22T13:24:01.263Z</time>
      </trkpt>
      <trkpt lat="48.51551" lon="-3.57126">
        <ele>189</ele>
        <time>2021-07-22T13:24:05.271Z</time>
      </trkpt>
      <trkpt lat="48.51556" lon="-3.57118">
        <ele>191</ele>
        <time>2021-07-22T13:24:10.274Z</time>
      </trkpt>
      <trkpt lat="48.51561" lon="-3.5711">
        <ele>191</ele>
        <time>2021-07-22T13:24:15.291Z</time>
      </trkpt>
      <trkpt lat="48.51566" lon="-3.57104">
        <ele>191</ele>
        <time>2021-07-22T13:24:20.279Z</time>
      </trkpt>
      <trkpt lat="48.51572" lon="-3.57099">
        <ele>185</ele>
        <time>2021-07-22T13:24:25.310Z</time>
      </trkpt>
      <trkpt lat="48.51576" lon="-3.57095">
        <ele>188</ele>
        <time>2021-07-22T13:24:30.250Z</time>
      </trkpt>
      <trkpt lat="48.51579" lon="-3.57091">
        <ele>188</ele>
        <time>2021-07-22T13:24:34.275Z</time>
      </trkpt>
      <trkpt lat="48.51584" lon="-3.57087">
        <ele>188</ele>
        <time>2021-07-22T13:24:39.249Z</time>
      </trkpt>
      <trkpt lat="48.51591" lon="-3.57081">
        <ele>188</ele>
        <time>2021-07-22T13:24:44.253Z</time>
      </trkpt>
      <trkpt lat="48.51595" lon="-3.57077">
        <ele>188</ele>
        <time>2021-07-22T13:24:48.273Z</time>
      </trkpt>
      <trkpt lat="48.51599" lon="-3.5707">
        <ele>185</ele>
        <time>2021-07-22T13:24:53.244Z</time>
      </trkpt>
      <trkpt lat="48.51604" lon="-3.57062">
        <ele>188</ele>
        <time>2021-07-22T13:24:57.272Z</time>
      </trkpt>
      <trkpt lat="48.51611" lon="-3.57046">
        <ele>188</ele>
        <time>2021-07-22T13:25:02.262Z</time>
      </trkpt>
      <trkpt lat="48.5162" lon="-3.57034">
        <ele>191</ele>
        <time>2021-07-22T13:25:07.260Z</time>
      </trkpt>
      <trkpt lat="48.51621" lon="-3.57025">
        <ele>191</ele>
        <time>2021-07-22T13:25:12.258Z</time>
      </trkpt>
      <trkpt lat="48.51627" lon="-3.5702">
        <ele>189</ele>
        <time>2021-07-22T13:25:17.248Z</time>
      </trkpt>
      <trkpt lat="48.51632" lon="-3.57019">
        <ele>189</ele>
        <time>2021-07-22T13:25:21.253Z</time>
      </trkpt>
      <trkpt lat="48.51636" lon="-3.57015">
        <ele>189</ele>
        <time>2021-07-22T13:25:26.260Z</time>
      </trkpt>
      <trkpt lat="48.5164" lon="-3.5701">
        <ele>190</ele>
        <time>2021-07-22T13:25:30.270Z</time>
      </trkpt>
      <trkpt lat="48.51644" lon="-3.57006">
        <ele>190</ele>
        <time>2021-07-22T13:25:35.253Z</time>
      </trkpt>
      <trkpt lat="48.51648" lon="-3.57001">
        <ele>190</ele>
        <time>2021-07-22T13:25:40.259Z</time>
      </trkpt>
      <trkpt lat="48.51654" lon="-3.56995">
        <ele>184</ele>
        <time>2021-07-22T13:25:45.259Z</time>
      </trkpt>
      <trkpt lat="48.5166" lon="-3.56987">
        <ele>184</ele>
        <time>2021-07-22T13:25:50.252Z</time>
      </trkpt>
      <trkpt lat="48.51665" lon="-3.5698">
        <ele>186</ele>
        <time>2021-07-22T13:25:55.250Z</time>
      </trkpt>
      <trkpt lat="48.51669" lon="-3.56972">
        <ele>186</ele>
        <time>2021-07-22T13:25:59.277Z</time>
      </trkpt>
      <trkpt lat="48.51674" lon="-3.56963">
        <ele>186</ele>
        <time>2021-07-22T13:26:04.263Z</time>
      </trkpt>
      <trkpt lat="48.5168" lon="-3.56957">
        <ele>191</ele>
        <time>2021-07-22T13:26:09.245Z</time>
      </trkpt>
      <trkpt lat="48.51685" lon="-3.56954">
        <ele>187</ele>
        <time>2021-07-22T13:26:13.252Z</time>
      </trkpt>
      <trkpt lat="48.51691" lon="-3.56951">
        <ele>187</ele>
        <time>2021-07-22T13:26:17.257Z</time>
      </trkpt>
      <trkpt lat="48.51698" lon="-3.56946">
        <ele>187</ele>
        <time>2021-07-22T13:26:22.255Z</time>
      </trkpt>
      <trkpt lat="48.51704" lon="-3.56943">
        <ele>187</ele>
        <time>2021-07-22T13:26:26.275Z</time>
      </trkpt>
      <trkpt lat="48.51715" lon="-3.56936">
        <ele>184</ele>
        <time>2021-07-22T13:26:31.256Z</time>
      </trkpt>
      <trkpt lat="48.5172" lon="-3.56933">
        <ele>184</ele>
        <time>2021-07-22T13:26:35.269Z</time>
      </trkpt>
      <trkpt lat="48.51726" lon="-3.56929">
        <ele>190</ele>
        <time>2021-07-22T13:26:40.254Z</time>
      </trkpt>
      <trkpt lat="48.51732" lon="-3.56923">
        <ele>190</ele>
        <time>2021-07-22T13:26:45.260Z</time>
      </trkpt>
      <trkpt lat="48.5174" lon="-3.56918">
        <ele>189</ele>
        <time>2021-07-22T13:26:50.250Z</time>
      </trkpt>
      <trkpt lat="48.51748" lon="-3.56912">
        <ele>189</ele>
        <time>2021-07-22T13:26:55.249Z</time>
      </trkpt>
      <trkpt lat="48.51755" lon="-3.56908">
        <ele>189</ele>
        <time>2021-07-22T13:27:00.255Z</time>
      </trkpt>
      <trkpt lat="48.5176" lon="-3.56902">
        <ele>194</ele>
        <time>2021-07-22T13:27:05.258Z</time>
      </trkpt>
      <trkpt lat="48.51766" lon="-3.56896">
        <ele>192</ele>
        <time>2021-07-22T13:27:10.250Z</time>
      </trkpt>
      <trkpt lat="48.51771" lon="-3.56889">
        <ele>192</ele>
        <time>2021-07-22T13:27:14.275Z</time>
      </trkpt>
      <trkpt lat="48.51775" lon="-3.56881">
        <ele>192</ele>
        <time>2021-07-22T13:27:19.269Z</time>
      </trkpt>
      <trkpt lat="48.5178" lon="-3.56872">
        <ele>192</ele>
        <time>2021-07-22T13:27:24.272Z</time>
      </trkpt>
      <trkpt lat="48.51785" lon="-3.56865">
        <ele>192</ele>
        <time>2021-07-22T13:27:29.249Z</time>
      </trkpt>
      <trkpt lat="48.51786" lon="-3.56857">
        <ele>192</ele>
        <time>2021-07-22T13:27:33.270Z</time>
      </trkpt>
      <trkpt lat="48.51788" lon="-3.56847">
        <ele>193</ele>
        <time>2021-07-22T13:27:38.269Z</time>
      </trkpt>
      <trkpt lat="48.5179" lon="-3.56836">
        <ele>193</ele>
        <time>2021-07-22T13:27:43.266Z</time>
      </trkpt>
      <trkpt lat="48.51793" lon="-3.56825">
        <ele>183</ele>
        <time>2021-07-22T13:27:48.260Z</time>
      </trkpt>
      <trkpt lat="48.51792" lon="-3.56816">
        <ele>186</ele>
        <time>2021-07-22T13:27:53.261Z</time>
      </trkpt>
      <trkpt lat="48.51794" lon="-3.56804">
        <ele>186</ele>
        <time>2021-07-22T13:27:58.263Z</time>
      </trkpt>
      <trkpt lat="48.51796" lon="-3.56793">
        <ele>186</ele>
        <time>2021-07-22T13:28:03.262Z</time>
      </trkpt>
      <trkpt lat="48.51799" lon="-3.56782">
        <ele>185</ele>
        <time>2021-07-22T13:28:08.260Z</time>
      </trkpt>
      <trkpt lat="48.518" lon="-3.56771">
        <ele>185</ele>
        <time>2021-07-22T13:28:13.270Z</time>
      </trkpt>
      <trkpt lat="48.51803" lon="-3.56759">
        <ele>188</ele>
        <time>2021-07-22T13:28:18.249Z</time>
      </trkpt>
      <trkpt lat="48.51805" lon="-3.56749">
        <ele>188</ele>
        <time>2021-07-22T13:28:23.275Z</time>
      </trkpt>
      <trkpt lat="48.51808" lon="-3.56742">
        <ele>188</ele>
        <time>2021-07-22T13:28:27.275Z</time>
      </trkpt>
      <trkpt lat="48.51811" lon="-3.56735">
        <ele>194</ele>
        <time>2021-07-22T13:28:32.272Z</time>
      </trkpt>
      <trkpt lat="48.51819" lon="-3.56727">
        <ele>194</ele>
        <time>2021-07-22T13:28:37.274Z</time>
      </trkpt>
      <trkpt lat="48.51825" lon="-3.5672">
        <ele>189</ele>
        <time>2021-07-22T13:28:42.270Z</time>
      </trkpt>
      <trkpt lat="48.51832" lon="-3.56713">
        <ele>189</ele>
        <time>2021-07-22T13:28:47.277Z</time>
      </trkpt>
      <trkpt lat="48.51836" lon="-3.56706">
        <ele>195</ele>
        <time>2021-07-22T13:28:51.274Z</time>
      </trkpt>
      <trkpt lat="48.51841" lon="-3.56698">
        <ele>195</ele>
        <time>2021-07-22T13:28:56.251Z</time>
      </trkpt>
      <trkpt lat="48.51845" lon="-3.5669">
        <ele>195</ele>
        <time>2021-07-22T13:29:01.260Z</time>
      </trkpt>
      <trkpt lat="48.51851" lon="-3.56683">
        <ele>183</ele>
        <time>2021-07-22T13:29:06.265Z</time>
      </trkpt>
      <trkpt lat="48.51856" lon="-3.56674">
        <ele>195</ele>
        <time>2021-07-22T13:29:11.247Z</time>
      </trkpt>
      <trkpt lat="48.51862" lon="-3.56667">
        <ele>195</ele>
        <time>2021-07-22T13:29:16.261Z</time>
      </trkpt>
      <trkpt lat="48.51867" lon="-3.56659">
        <ele>195</ele>
        <time>2021-07-22T13:29:21.259Z</time>
      </trkpt>
      <trkpt lat="48.51872" lon="-3.56651">
        <ele>201</ele>
        <time>2021-07-22T13:29:26.246Z</time>
      </trkpt>
      <trkpt lat="48.51877" lon="-3.56644">
        <ele>196</ele>
        <time>2021-07-22T13:29:31.251Z</time>
      </trkpt>
      <trkpt lat="48.51882" lon="-3.56636">
        <ele>196</ele>
        <time>2021-07-22T13:29:36.246Z</time>
      </trkpt>
      <trkpt lat="48.51888" lon="-3.56628">
        <ele>196</ele>
        <time>2021-07-22T13:29:41.242Z</time>
      </trkpt>
      <trkpt lat="48.51893" lon="-3.56621">
        <ele>201</ele>
        <time>2021-07-22T13:29:46.265Z</time>
      </trkpt>
      <trkpt lat="48.51899" lon="-3.56614">
        <ele>201</ele>
        <time>2021-07-22T13:29:51.256Z</time>
      </trkpt>
      <trkpt lat="48.51905" lon="-3.56607">
        <ele>192</ele>
        <time>2021-07-22T13:29:56.251Z</time>
      </trkpt>
      <trkpt lat="48.51911" lon="-3.56601">
        <ele>192</ele>
        <time>2021-07-22T13:30:01.271Z</time>
      </trkpt>
      <trkpt lat="48.51919" lon="-3.56595">
        <ele>197</ele>
        <time>2021-07-22T13:30:06.258Z</time>
      </trkpt>
      <trkpt lat="48.51925" lon="-3.56588">
        <ele>197</ele>
        <time>2021-07-22T13:30:11.248Z</time>
      </trkpt>
      <trkpt lat="48.51929" lon="-3.56585">
        <ele>197</ele>
        <time>2021-07-22T13:30:15.253Z</time>
      </trkpt>
      <trkpt lat="48.51936" lon="-3.56578">
        <ele>189</ele>
        <time>2021-07-22T13:30:20.257Z</time>
      </trkpt>
      <trkpt lat="48.51942" lon="-3.56572">
        <ele>189</ele>
        <time>2021-07-22T13:30:25.246Z</time>
      </trkpt>
      <trkpt lat="48.51947" lon="-3.56568">
        <ele>192</ele>
        <time>2021-07-22T13:30:29.263Z</time>
      </trkpt>
      <trkpt lat="48.51953" lon="-3.56561">
        <ele>192</ele>
        <time>2021-07-22T13:30:34.254Z</time>
      </trkpt>
      <trkpt lat="48.51958" lon="-3.56553">
        <ele>192</ele>
        <time>2021-07-22T13:30:39.261Z</time>
      </trkpt>
      <trkpt lat="48.51962" lon="-3.56543">
        <ele>183</ele>
        <time>2021-07-22T13:30:44.249Z</time>
      </trkpt>
      <trkpt lat="48.51967" lon="-3.56533">
        <ele>191</ele>
        <time>2021-07-22T13:30:49.258Z</time>
      </trkpt>
      <trkpt lat="48.51971" lon="-3.56522">
        <ele>191</ele>
        <time>2021-07-22T13:30:54.268Z</time>
      </trkpt>
      <trkpt lat="48.51975" lon="-3.56513">
        <ele>196</ele>
        <time>2021-07-22T13:30:59.274Z</time>
      </trkpt>
      <trkpt lat="48.51978" lon="-3.56505">
        <ele>196</ele>
        <time>2021-07-22T13:31:04.271Z</time>
      </trkpt>
      <trkpt lat="48.51983" lon="-3.56497">
        <ele>196</ele>
        <time>2021-07-22T13:31:09.267Z</time>
      </trkpt>
      <trkpt lat="48.51988" lon="-3.56493">
        <ele>191</ele>
        <time>2021-07-22T13:31:14.271Z</time>
      </trkpt>
      <trkpt lat="48.51994" lon="-3.56486">
        <ele>194</ele>
        <time>2021-07-22T13:31:19.271Z</time>
      </trkpt>
      <trkpt lat="48.52" lon="-3.56478">
        <ele>194</ele>
        <time>2021-07-22T13:31:24.265Z</time>
      </trkpt>
      <trkpt lat="48.52006" lon="-3.56471">
        <ele>194</ele>
        <time>2021-07-22T13:31:29.267Z</time>
      </trkpt>
      <trkpt lat="48.52012" lon="-3.56466">
        <ele>194</ele>
        <time>2021-07-22T13:31:33.254Z</time>
      </trkpt>
      <trkpt lat="48.52018" lon="-3.56459">
        <ele>188</ele>
        <time>2021-07-22T13:31:38.253Z</time>
      </trkpt>
      <trkpt lat="48.52025" lon="-3.5645">
        <ele>191</ele>
        <time>2021-07-22T13:31:43.249Z</time>
      </trkpt>
      <trkpt lat="48.52031" lon="-3.56444">
        <ele>191</ele>
        <time>2021-07-22T13:31:48.250Z</time>
      </trkpt>
      <trkpt lat="48.52036" lon="-3.56436">
        <ele>191</ele>
        <time>2021-07-22T13:31:53.253Z</time>
      </trkpt>
      <trkpt lat="48.52039" lon="-3.56429">
        <ele>195</ele>
        <time>2021-07-22T13:31:58.247Z</time>
      </trkpt>
      <trkpt lat="48.52043" lon="-3.56423">
        <ele>189</ele>
        <time>2021-07-22T13:32:02.258Z</time>
      </trkpt>
      <trkpt lat="48.52047" lon="-3.56417">
        <ele>189</ele>
        <time>2021-07-22T13:32:07.244Z</time>
      </trkpt>
      <trkpt lat="48.52052" lon="-3.56411">
        <ele>189</ele>
        <time>2021-07-22T13:32:12.257Z</time>
      </trkpt>
      <trkpt lat="48.52055" lon="-3.56407">
        <ele>189</ele>
        <time>2021-07-22T13:32:17.248Z</time>
      </trkpt>
      <trkpt lat="48.52059" lon="-3.56401">
        <ele>192</ele>
        <time>2021-07-22T13:32:22.266Z</time>
      </trkpt>
      <trkpt lat="48.52061" lon="-3.56398">
        <ele>192</ele>
        <time>2021-07-22T13:32:27.260Z</time>
      </trkpt>
      <trkpt lat="48.52067" lon="-3.56384">
        <ele>192</ele>
        <time>2021-07-22T13:32:32.260Z</time>
      </trkpt>
      <trkpt lat="48.52071" lon="-3.56379">
        <ele>186</ele>
        <time>2021-07-22T13:32:37.271Z</time>
      </trkpt>
      <trkpt lat="48.52074" lon="-3.56378">
        <ele>186</ele>
        <time>2021-07-22T13:32:42.245Z</time>
      </trkpt>
      <trkpt lat="48.52079" lon="-3.56384">
        <ele>186</ele>
        <time>2021-07-22T13:33:24.260Z</time>
      </trkpt>
      <trkpt lat="48.52081" lon="-3.56385">
        <ele>186</ele>
        <time>2021-07-22T13:33:29.239Z</time>
      </trkpt>
      <trkpt lat="48.52081" lon="-3.56387">
        <ele>186</ele>
        <time>2021-07-22T13:33:33.252Z</time>
      </trkpt>
      <trkpt lat="48.52086" lon="-3.56388">
        <ele>186</ele>
        <time>2021-07-22T13:33:38.257Z</time>
      </trkpt>
      <trkpt lat="48.52093" lon="-3.56388">
        <ele>186</ele>
        <time>2021-07-22T13:33:43.253Z</time>
      </trkpt>
      <trkpt lat="48.52088" lon="-3.56392">
        <ele>186</ele>
        <time>2021-07-22T13:35:02.253Z</time>
      </trkpt>
      <trkpt lat="48.52088" lon="-3.56392">
        <ele>186</ele>
        <time>2021-07-22T13:35:06.243Z</time>
      </trkpt>
      <trkpt lat="48.52087" lon="-3.56393">
        <ele>186</ele>
        <time>2021-07-22T13:35:11.260Z</time>
      </trkpt>
      <trkpt lat="48.52086" lon="-3.5639">
        <ele>186</ele>
        <time>2021-07-22T13:35:16.254Z</time>
      </trkpt>
      <trkpt lat="48.52083" lon="-3.5639">
        <ele>186</ele>
        <time>2021-07-22T13:35:20.270Z</time>
      </trkpt>
      <trkpt lat="48.52088" lon="-3.5639">
        <ele>186</ele>
        <time>2021-07-22T13:37:12.270Z</time>
      </trkpt>
      <trkpt lat="48.52092" lon="-3.56394">
        <ele>186</ele>
        <time>2021-07-22T13:37:16.272Z</time>
      </trkpt>
      <trkpt lat="48.52098" lon="-3.56403">
        <ele>183</ele>
        <time>2021-07-22T13:37:21.247Z</time>
      </trkpt>
      <trkpt lat="48.52103" lon="-3.56412">
        <ele>183</ele>
        <time>2021-07-22T13:37:26.269Z</time>
      </trkpt>
      <trkpt lat="48.52109" lon="-3.56419">
        <ele>183</ele>
        <time>2021-07-22T13:37:31.279Z</time>
      </trkpt>
      <trkpt lat="48.52115" lon="-3.56425">
        <ele>183</ele>
        <time>2021-07-22T13:37:36.275Z</time>
      </trkpt>
      <trkpt lat="48.52121" lon="-3.56433">
        <ele>184</ele>
        <time>2021-07-22T13:37:41.270Z</time>
      </trkpt>
      <trkpt lat="48.52127" lon="-3.56439">
        <ele>184</ele>
        <time>2021-07-22T13:37:46.269Z</time>
      </trkpt>
      <trkpt lat="48.52132" lon="-3.56447">
        <ele>184</ele>
        <time>2021-07-22T13:37:51.262Z</time>
      </trkpt>
      <trkpt lat="48.52137" lon="-3.56453">
        <ele>184</ele>
        <time>2021-07-22T13:37:56.272Z</time>
      </trkpt>
      <trkpt lat="48.52142" lon="-3.56455">
        <ele>184</ele>
        <time>2021-07-22T13:38:01.277Z</time>
      </trkpt>
      <trkpt lat="48.52142" lon="-3.56455">
        <ele>184</ele>
        <time>2021-07-22T13:38:06.296Z</time>
      </trkpt>
      <trkpt lat="48.52144" lon="-3.5646">
        <ele>184</ele>
        <time>2021-07-22T13:38:11.248Z</time>
      </trkpt>
      <trkpt lat="48.5215" lon="-3.56467">
        <ele>184</ele>
        <time>2021-07-22T13:38:16.255Z</time>
      </trkpt>
      <trkpt lat="48.52156" lon="-3.56472">
        <ele>184</ele>
        <time>2021-07-22T13:38:21.255Z</time>
      </trkpt>
      <trkpt lat="48.52161" lon="-3.5648">
        <ele>184</ele>
        <time>2021-07-22T13:38:26.257Z</time>
      </trkpt>
      <trkpt lat="48.52167" lon="-3.56489">
        <ele>184</ele>
        <time>2021-07-22T13:38:31.287Z</time>
      </trkpt>
      <trkpt lat="48.52171" lon="-3.56498">
        <ele>184</ele>
        <time>2021-07-22T13:38:36.248Z</time>
      </trkpt>
      <trkpt lat="48.52176" lon="-3.56503">
        <ele>184</ele>
        <time>2021-07-22T13:38:40.280Z</time>
      </trkpt>
      <trkpt lat="48.52183" lon="-3.56511">
        <ele>184</ele>
        <time>2021-07-22T13:38:45.284Z</time>
      </trkpt>
      <trkpt lat="48.52189" lon="-3.56518">
        <ele>184</ele>
        <time>2021-07-22T13:38:50.274Z</time>
      </trkpt>
      <trkpt lat="48.52195" lon="-3.56526">
        <ele>184</ele>
        <time>2021-07-22T13:38:55.272Z</time>
      </trkpt>
      <trkpt lat="48.52201" lon="-3.56533">
        <ele>184</ele>
        <time>2021-07-22T13:39:00.252Z</time>
      </trkpt>
      <trkpt lat="48.52207" lon="-3.5654">
        <ele>184</ele>
        <time>2021-07-22T13:39:05.263Z</time>
      </trkpt>
      <trkpt lat="48.52213" lon="-3.56548">
        <ele>180</ele>
        <time>2021-07-22T13:39:10.254Z</time>
      </trkpt>
      <trkpt lat="48.52217" lon="-3.56554">
        <ele>180</ele>
        <time>2021-07-22T13:39:14.266Z</time>
      </trkpt>
      <trkpt lat="48.52223" lon="-3.56561">
        <ele>180</ele>
        <time>2021-07-22T13:39:19.258Z</time>
      </trkpt>
      <trkpt lat="48.52228" lon="-3.56569">
        <ele>180</ele>
        <time>2021-07-22T13:39:24.282Z</time>
      </trkpt>
      <trkpt lat="48.52236" lon="-3.56576">
        <ele>182</ele>
        <time>2021-07-22T13:39:29.248Z</time>
      </trkpt>
      <trkpt lat="48.52242" lon="-3.56584">
        <ele>183</ele>
        <time>2021-07-22T13:39:34.249Z</time>
      </trkpt>
      <trkpt lat="48.52247" lon="-3.56592">
        <ele>183</ele>
        <time>2021-07-22T13:39:39.256Z</time>
      </trkpt>
      <trkpt lat="48.52252" lon="-3.566">
        <ele>186</ele>
        <time>2021-07-22T13:39:44.250Z</time>
      </trkpt>
      <trkpt lat="48.52257" lon="-3.56608">
        <ele>186</ele>
        <time>2021-07-22T13:39:49.284Z</time>
      </trkpt>
      <trkpt lat="48.52263" lon="-3.56611">
        <ele>186</ele>
        <time>2021-07-22T13:39:54.273Z</time>
      </trkpt>
      <trkpt lat="48.52267" lon="-3.56621">
        <ele>188</ele>
        <time>2021-07-22T13:39:59.271Z</time>
      </trkpt>
      <trkpt lat="48.52269" lon="-3.56629">
        <ele>190</ele>
        <time>2021-07-22T13:40:04.274Z</time>
      </trkpt>
      <trkpt lat="48.52273" lon="-3.56636">
        <ele>190</ele>
        <time>2021-07-22T13:40:09.251Z</time>
      </trkpt>
      <trkpt lat="48.52278" lon="-3.56637">
        <ele>190</ele>
        <time>2021-07-22T13:40:13.270Z</time>
      </trkpt>
      <trkpt lat="48.52281" lon="-3.56642">
        <ele>190</ele>
        <time>2021-07-22T13:40:18.261Z</time>
      </trkpt>
      <trkpt lat="48.52279" lon="-3.56649">
        <ele>190</ele>
        <time>2021-07-22T13:40:22.257Z</time>
      </trkpt>
      <trkpt lat="48.52276" lon="-3.56655">
        <ele>192</ele>
        <time>2021-07-22T13:40:27.252Z</time>
      </trkpt>
      <trkpt lat="48.52271" lon="-3.56663">
        <ele>192</ele>
        <time>2021-07-22T13:40:32.248Z</time>
      </trkpt>
      <trkpt lat="48.52266" lon="-3.56667">
        <ele>192</ele>
        <time>2021-07-22T13:40:36.248Z</time>
      </trkpt>
      <trkpt lat="48.5226" lon="-3.56674">
        <ele>191</ele>
        <time>2021-07-22T13:40:41.254Z</time>
      </trkpt>
      <trkpt lat="48.52251" lon="-3.56683">
        <ele>193</ele>
        <time>2021-07-22T13:40:46.245Z</time>
      </trkpt>
      <trkpt lat="48.52244" lon="-3.56691">
        <ele>193</ele>
        <time>2021-07-22T13:40:51.258Z</time>
      </trkpt>
      <trkpt lat="48.52238" lon="-3.56698">
        <ele>193</ele>
        <time>2021-07-22T13:40:56.271Z</time>
      </trkpt>
      <trkpt lat="48.52235" lon="-3.56706">
        <ele>191</ele>
        <time>2021-07-22T13:41:01.249Z</time>
      </trkpt>
      <trkpt lat="48.52232" lon="-3.56713">
        <ele>191</ele>
        <time>2021-07-22T13:41:05.267Z</time>
      </trkpt>
      <trkpt lat="48.52232" lon="-3.56725">
        <ele>191</ele>
        <time>2021-07-22T13:41:10.258Z</time>
      </trkpt>
      <trkpt lat="48.52232" lon="-3.56736">
        <ele>191</ele>
        <time>2021-07-22T13:41:15.250Z</time>
      </trkpt>
      <trkpt lat="48.5223" lon="-3.56749">
        <ele>191</ele>
        <time>2021-07-22T13:41:20.245Z</time>
      </trkpt>
      <trkpt lat="48.52231" lon="-3.56755">
        <ele>191</ele>
        <time>2021-07-22T13:41:24.272Z</time>
      </trkpt>
      <trkpt lat="48.5223" lon="-3.56763">
        <ele>191</ele>
        <time>2021-07-22T13:41:29.263Z</time>
      </trkpt>
      <trkpt lat="48.52228" lon="-3.56775">
        <ele>191</ele>
        <time>2021-07-22T13:41:34.254Z</time>
      </trkpt>
      <trkpt lat="48.52228" lon="-3.56781">
        <ele>191</ele>
        <time>2021-07-22T13:41:38.259Z</time>
      </trkpt>
      <trkpt lat="48.52225" lon="-3.56789">
        <ele>191</ele>
        <time>2021-07-22T13:41:43.257Z</time>
      </trkpt>
      <trkpt lat="48.52223" lon="-3.56799">
        <ele>193</ele>
        <time>2021-07-22T13:41:48.273Z</time>
      </trkpt>
      <trkpt lat="48.52219" lon="-3.56807">
        <ele>193</ele>
        <time>2021-07-22T13:41:53.255Z</time>
      </trkpt>
      <trkpt lat="48.52216" lon="-3.56816">
        <ele>193</ele>
        <time>2021-07-22T13:41:58.261Z</time>
      </trkpt>
      <trkpt lat="48.52212" lon="-3.56824">
        <ele>195</ele>
        <time>2021-07-22T13:42:03.267Z</time>
      </trkpt>
      <trkpt lat="48.5221" lon="-3.56838">
        <ele>195</ele>
        <time>2021-07-22T13:42:08.272Z</time>
      </trkpt>
      <trkpt lat="48.5221" lon="-3.56846">
        <ele>195</ele>
        <time>2021-07-22T13:42:12.261Z</time>
      </trkpt>
      <trkpt lat="48.52208" lon="-3.56855">
        <ele>194</ele>
        <time>2021-07-22T13:42:17.264Z</time>
      </trkpt>
      <trkpt lat="48.52205" lon="-3.56864">
        <ele>194</ele>
        <time>2021-07-22T13:42:22.255Z</time>
      </trkpt>
      <trkpt lat="48.52203" lon="-3.56872">
        <ele>194</ele>
        <time>2021-07-22T13:42:27.260Z</time>
      </trkpt>
      <trkpt lat="48.52199" lon="-3.56877">
        <ele>197</ele>
        <time>2021-07-22T13:42:32.269Z</time>
      </trkpt>
      <trkpt lat="48.52193" lon="-3.56884">
        <ele>197</ele>
        <time>2021-07-22T13:42:37.256Z</time>
      </trkpt>
      <trkpt lat="48.52189" lon="-3.56888">
        <ele>197</ele>
        <time>2021-07-22T13:42:42.255Z</time>
      </trkpt>
      <trkpt lat="48.52183" lon="-3.56889">
        <ele>197</ele>
        <time>2021-07-22T13:42:47.261Z</time>
      </trkpt>
      <trkpt lat="48.52176" lon="-3.56886">
        <ele>195</ele>
        <time>2021-07-22T13:42:52.260Z</time>
      </trkpt>
      <trkpt lat="48.52168" lon="-3.56887">
        <ele>195</ele>
        <time>2021-07-22T13:42:57.251Z</time>
      </trkpt>
      <trkpt lat="48.52162" lon="-3.56888">
        <ele>195</ele>
        <time>2021-07-22T13:43:02.249Z</time>
      </trkpt>
      <trkpt lat="48.52156" lon="-3.56889">
        <ele>195</ele>
        <time>2021-07-22T13:43:07.258Z</time>
      </trkpt>
      <trkpt lat="48.52147" lon="-3.56888">
        <ele>194</ele>
        <time>2021-07-22T13:43:12.275Z</time>
      </trkpt>
      <trkpt lat="48.52139" lon="-3.56888">
        <ele>194</ele>
        <time>2021-07-22T13:43:17.255Z</time>
      </trkpt>
      <trkpt lat="48.5213" lon="-3.56886">
        <ele>194</ele>
        <time>2021-07-22T13:43:22.274Z</time>
      </trkpt>
      <trkpt lat="48.52121" lon="-3.56888">
        <ele>192</ele>
        <time>2021-07-22T13:43:27.265Z</time>
      </trkpt>
      <trkpt lat="48.52112" lon="-3.56887">
        <ele>192</ele>
        <time>2021-07-22T13:43:32.264Z</time>
      </trkpt>
      <trkpt lat="48.52103" lon="-3.56888">
        <ele>192</ele>
        <time>2021-07-22T13:43:37.272Z</time>
      </trkpt>
      <trkpt lat="48.52095" lon="-3.5689">
        <ele>191</ele>
        <time>2021-07-22T13:43:42.253Z</time>
      </trkpt>
      <trkpt lat="48.5209" lon="-3.56892">
        <ele>191</ele>
        <time>2021-07-22T13:43:46.253Z</time>
      </trkpt>
      <trkpt lat="48.52084" lon="-3.56896">
        <ele>191</ele>
        <time>2021-07-22T13:43:51.244Z</time>
      </trkpt>
      <trkpt lat="48.52081" lon="-3.56895">
        <ele>191</ele>
        <time>2021-07-22T13:43:55.255Z</time>
      </trkpt>
      <trkpt lat="48.52079" lon="-3.56884">
        <ele>191</ele>
        <time>2021-07-22T13:44:00.253Z</time>
      </trkpt>
      <trkpt lat="48.52077" lon="-3.5688">
        <ele>191</ele>
        <time>2021-07-22T13:44:05.256Z</time>
      </trkpt>
      <trkpt lat="48.52077" lon="-3.56879">
        <ele>191</ele>
        <time>2021-07-22T13:44:10.256Z</time>
      </trkpt>
      <trkpt lat="48.52075" lon="-3.56882">
        <ele>191</ele>
        <time>2021-07-22T13:44:14.266Z</time>
      </trkpt>
      <trkpt lat="48.52071" lon="-3.56885">
        <ele>191</ele>
        <time>2021-07-22T13:44:19.255Z</time>
      </trkpt>
      <trkpt lat="48.52063" lon="-3.56892">
        <ele>191</ele>
        <time>2021-07-22T13:44:24.251Z</time>
      </trkpt>
      <trkpt lat="48.52055" lon="-3.56893">
        <ele>191</ele>
        <time>2021-07-22T13:44:29.262Z</time>
      </trkpt>
      <trkpt lat="48.5205" lon="-3.56892">
        <ele>191</ele>
        <time>2021-07-22T13:44:33.263Z</time>
      </trkpt>
      <trkpt lat="48.52046" lon="-3.56894">
        <ele>191</ele>
        <time>2021-07-22T13:44:37.269Z</time>
      </trkpt>
      <trkpt lat="48.5204" lon="-3.56899">
        <ele>192</ele>
        <time>2021-07-22T13:44:42.253Z</time>
      </trkpt>
      <trkpt lat="48.52034" lon="-3.56906">
        <ele>191</ele>
        <time>2021-07-22T13:44:47.258Z</time>
      </trkpt>
      <trkpt lat="48.5203" lon="-3.56916">
        <ele>191</ele>
        <time>2021-07-22T13:44:52.251Z</time>
      </trkpt>
      <trkpt lat="48.52025" lon="-3.56922">
        <ele>191</ele>
        <time>2021-07-22T13:44:57.266Z</time>
      </trkpt>
      <trkpt lat="48.5202" lon="-3.56932">
        <ele>192</ele>
        <time>2021-07-22T13:45:02.260Z</time>
      </trkpt>
      <trkpt lat="48.52014" lon="-3.56941">
        <ele>193</ele>
        <time>2021-07-22T13:45:07.253Z</time>
      </trkpt>
      <trkpt lat="48.5201" lon="-3.56947">
        <ele>193</ele>
        <time>2021-07-22T13:45:11.251Z</time>
      </trkpt>
      <trkpt lat="48.52003" lon="-3.56957">
        <ele>193</ele>
        <time>2021-07-22T13:45:16.254Z</time>
      </trkpt>
      <trkpt lat="48.51998" lon="-3.56966">
        <ele>195</ele>
        <time>2021-07-22T13:45:21.250Z</time>
      </trkpt>
      <trkpt lat="48.51993" lon="-3.56973">
        <ele>195</ele>
        <time>2021-07-22T13:45:26.260Z</time>
      </trkpt>
      <trkpt lat="48.5199" lon="-3.56978">
        <ele>195</ele>
        <time>2021-07-22T13:45:30.270Z</time>
      </trkpt>
      <trkpt lat="48.51983" lon="-3.56987">
        <ele>193</ele>
        <time>2021-07-22T13:45:35.247Z</time>
      </trkpt>
      <trkpt lat="48.51976" lon="-3.56996">
        <ele>193</ele>
        <time>2021-07-22T13:45:40.262Z</time>
      </trkpt>
      <trkpt lat="48.51971" lon="-3.57003">
        <ele>193</ele>
        <time>2021-07-22T13:45:44.261Z</time>
      </trkpt>
      <trkpt lat="48.51963" lon="-3.57012">
        <ele>193</ele>
        <time>2021-07-22T13:45:49.265Z</time>
      </trkpt>
      <trkpt lat="48.51958" lon="-3.5702">
        <ele>195</ele>
        <time>2021-07-22T13:45:54.267Z</time>
      </trkpt>
      <trkpt lat="48.51952" lon="-3.57029">
        <ele>195</ele>
        <time>2021-07-22T13:45:59.273Z</time>
      </trkpt>
      <trkpt lat="48.51947" lon="-3.57037">
        <ele>195</ele>
        <time>2021-07-22T13:46:04.274Z</time>
      </trkpt>
      <trkpt lat="48.51943" lon="-3.57045">
        <ele>198</ele>
        <time>2021-07-22T13:46:09.276Z</time>
      </trkpt>
      <trkpt lat="48.51937" lon="-3.57054">
        <ele>198</ele>
        <time>2021-07-22T13:46:14.253Z</time>
      </trkpt>
      <trkpt lat="48.5193" lon="-3.57063">
        <ele>198</ele>
        <time>2021-07-22T13:46:19.273Z</time>
      </trkpt>
      <trkpt lat="48.51924" lon="-3.5707">
        <ele>197</ele>
        <time>2021-07-22T13:46:24.265Z</time>
      </trkpt>
      <trkpt lat="48.51917" lon="-3.57079">
        <ele>197</ele>
        <time>2021-07-22T13:46:29.251Z</time>
      </trkpt>
      <trkpt lat="48.51911" lon="-3.57085">
        <ele>197</ele>
        <time>2021-07-22T13:46:34.263Z</time>
      </trkpt>
      <trkpt lat="48.51906" lon="-3.57091">
        <ele>197</ele>
        <time>2021-07-22T13:46:39.253Z</time>
      </trkpt>
      <trkpt lat="48.519" lon="-3.57095">
        <ele>194</ele>
        <time>2021-07-22T13:46:43.267Z</time>
      </trkpt>
      <trkpt lat="48.51894" lon="-3.57102">
        <ele>193</ele>
        <time>2021-07-22T13:46:48.256Z</time>
      </trkpt>
      <trkpt lat="48.51887" lon="-3.57106">
        <ele>193</ele>
        <time>2021-07-22T13:46:53.266Z</time>
      </trkpt>
      <trkpt lat="48.5188" lon="-3.57109">
        <ele>193</ele>
        <time>2021-07-22T13:46:58.266Z</time>
      </trkpt>
      <trkpt lat="48.51874" lon="-3.57117">
        <ele>195</ele>
        <time>2021-07-22T13:47:03.248Z</time>
      </trkpt>
      <trkpt lat="48.51871" lon="-3.57126">
        <ele>191</ele>
        <time>2021-07-22T13:47:07.269Z</time>
      </trkpt>
      <trkpt lat="48.51868" lon="-3.57135">
        <ele>191</ele>
        <time>2021-07-22T13:47:12.283Z</time>
      </trkpt>
      <trkpt lat="48.51864" lon="-3.57146">
        <ele>191</ele>
        <time>2021-07-22T13:47:17.274Z</time>
      </trkpt>
      <trkpt lat="48.51863" lon="-3.57159">
        <ele>188</ele>
        <time>2021-07-22T13:47:22.274Z</time>
      </trkpt>
      <trkpt lat="48.51862" lon="-3.57172">
        <ele>188</ele>
        <time>2021-07-22T13:47:27.249Z</time>
      </trkpt>
      <trkpt lat="48.5186" lon="-3.57184">
        <ele>186</ele>
        <time>2021-07-22T13:47:32.251Z</time>
      </trkpt>
      <trkpt lat="48.5186" lon="-3.57194">
        <ele>186</ele>
        <time>2021-07-22T13:47:37.251Z</time>
      </trkpt>
      <trkpt lat="48.51858" lon="-3.57205">
        <ele>186</ele>
        <time>2021-07-22T13:47:42.258Z</time>
      </trkpt>
      <trkpt lat="48.51853" lon="-3.57214">
        <ele>187</ele>
        <time>2021-07-22T13:47:47.260Z</time>
      </trkpt>
      <trkpt lat="48.51848" lon="-3.57224">
        <ele>187</ele>
        <time>2021-07-22T13:47:52.264Z</time>
      </trkpt>
      <trkpt lat="48.51843" lon="-3.57235">
        <ele>186</ele>
        <time>2021-07-22T13:47:57.255Z</time>
      </trkpt>
      <trkpt lat="48.51837" lon="-3.57245">
        <ele>188</ele>
        <time>2021-07-22T13:48:02.261Z</time>
      </trkpt>
      <trkpt lat="48.51833" lon="-3.57254">
        <ele>188</ele>
        <time>2021-07-22T13:48:07.258Z</time>
      </trkpt>
      <trkpt lat="48.51829" lon="-3.57259">
        <ele>188</ele>
        <time>2021-07-22T13:48:11.257Z</time>
      </trkpt>
      <trkpt lat="48.51824" lon="-3.57267">
        <ele>188</ele>
        <time>2021-07-22T13:48:16.254Z</time>
      </trkpt>
      <trkpt lat="48.51819" lon="-3.57275">
        <ele>186</ele>
        <time>2021-07-22T13:48:21.247Z</time>
      </trkpt>
      <trkpt lat="48.51814" lon="-3.57282">
        <ele>186</ele>
        <time>2021-07-22T13:48:25.266Z</time>
      </trkpt>
      <trkpt lat="48.51808" lon="-3.57289">
        <ele>186</ele>
        <time>2021-07-22T13:48:30.258Z</time>
      </trkpt>
      <trkpt lat="48.51803" lon="-3.57299">
        <ele>186</ele>
        <time>2021-07-22T13:48:35.262Z</time>
      </trkpt>
      <trkpt lat="48.51799" lon="-3.57307">
        <ele>186</ele>
        <time>2021-07-22T13:48:40.252Z</time>
      </trkpt>
      <trkpt lat="48.51793" lon="-3.57312">
        <ele>186</ele>
        <time>2021-07-22T13:48:45.257Z</time>
      </trkpt>
      <trkpt lat="48.51787" lon="-3.57318">
        <ele>186</ele>
        <time>2021-07-22T13:48:50.257Z</time>
      </trkpt>
      <trkpt lat="48.51782" lon="-3.57325">
        <ele>186</ele>
        <time>2021-07-22T13:48:55.253Z</time>
      </trkpt>
      <trkpt lat="48.51776" lon="-3.57334">
        <ele>186</ele>
        <time>2021-07-22T13:49:00.255Z</time>
      </trkpt>
      <trkpt lat="48.51772" lon="-3.57341">
        <ele>186</ele>
        <time>2021-07-22T13:49:04.254Z</time>
      </trkpt>
      <trkpt lat="48.51767" lon="-3.57351">
        <ele>187</ele>
        <time>2021-07-22T13:49:09.258Z</time>
      </trkpt>
      <trkpt lat="48.5176" lon="-3.57361">
        <ele>186</ele>
        <time>2021-07-22T13:49:14.252Z</time>
      </trkpt>
      <trkpt lat="48.51756" lon="-3.57371">
        <ele>186</ele>
        <time>2021-07-22T13:49:19.256Z</time>
      </trkpt>
      <trkpt lat="48.51751" lon="-3.57377">
        <ele>187</ele>
        <time>2021-07-22T13:49:24.256Z</time>
      </trkpt>
      <trkpt lat="48.51745" lon="-3.57386">
        <ele>187</ele>
        <time>2021-07-22T13:49:29.255Z</time>
      </trkpt>
      <trkpt lat="48.51741" lon="-3.57393">
        <ele>187</ele>
        <time>2021-07-22T13:49:33.252Z</time>
      </trkpt>
      <trkpt lat="48.51734" lon="-3.57402">
        <ele>188</ele>
        <time>2021-07-22T13:49:38.246Z</time>
      </trkpt>
      <trkpt lat="48.51729" lon="-3.57407">
        <ele>187</ele>
        <time>2021-07-22T13:49:42.260Z</time>
      </trkpt>
      <trkpt lat="48.51724" lon="-3.57415">
        <ele>187</ele>
        <time>2021-07-22T13:49:47.256Z</time>
      </trkpt>
      <trkpt lat="48.51719" lon="-3.57423">
        <ele>187</ele>
        <time>2021-07-22T13:49:52.253Z</time>
      </trkpt>
      <trkpt lat="48.51713" lon="-3.5743">
        <ele>187</ele>
        <time>2021-07-22T13:49:57.251Z</time>
      </trkpt>
      <trkpt lat="48.51708" lon="-3.57436">
        <ele>186</ele>
        <time>2021-07-22T13:50:02.250Z</time>
      </trkpt>
      <trkpt lat="48.51704" lon="-3.57441">
        <ele>186</ele>
        <time>2021-07-22T13:50:07.253Z</time>
      </trkpt>
      <trkpt lat="48.51698" lon="-3.57449">
        <ele>186</ele>
        <time>2021-07-22T13:50:12.255Z</time>
      </trkpt>
      <trkpt lat="48.51694" lon="-3.57457">
        <ele>186</ele>
        <time>2021-07-22T13:50:17.251Z</time>
      </trkpt>
      <trkpt lat="48.51688" lon="-3.5746">
        <ele>187</ele>
        <time>2021-07-22T13:50:22.251Z</time>
      </trkpt>
      <trkpt lat="48.51684" lon="-3.57463">
        <ele>187</ele>
        <time>2021-07-22T13:50:27.252Z</time>
      </trkpt>
      <trkpt lat="48.51678" lon="-3.57469">
        <ele>186</ele>
        <time>2021-07-22T13:50:32.250Z</time>
      </trkpt>
      <trkpt lat="48.51676" lon="-3.57476">
        <ele>186</ele>
        <time>2021-07-22T13:50:36.277Z</time>
      </trkpt>
      <trkpt lat="48.51676" lon="-3.57478">
        <ele>186</ele>
        <time>2021-07-22T13:50:41.269Z</time>
      </trkpt>
      <trkpt lat="48.51675" lon="-3.57483">
        <ele>186</ele>
        <time>2021-07-22T13:50:45.252Z</time>
      </trkpt>
      <trkpt lat="48.51679" lon="-3.57493">
        <ele>189</ele>
        <time>2021-07-22T13:50:50.261Z</time>
      </trkpt>
      <trkpt lat="48.51681" lon="-3.57501">
        <ele>189</ele>
        <time>2021-07-22T13:50:55.254Z</time>
      </trkpt>
      <trkpt lat="48.51682" lon="-3.57509">
        <ele>189</ele>
        <time>2021-07-22T13:50:59.273Z</time>
      </trkpt>
      <trkpt lat="48.51681" lon="-3.57521">
        <ele>191</ele>
        <time>2021-07-22T13:51:04.252Z</time>
      </trkpt>
      <trkpt lat="48.51683" lon="-3.57529">
        <ele>191</ele>
        <time>2021-07-22T13:51:09.261Z</time>
      </trkpt>
      <trkpt lat="48.51682" lon="-3.57541">
        <ele>191</ele>
        <time>2021-07-22T13:51:14.259Z</time>
      </trkpt>
      <trkpt lat="48.51683" lon="-3.57552">
        <ele>192</ele>
        <time>2021-07-22T13:51:19.251Z</time>
      </trkpt>
      <trkpt lat="48.51684" lon="-3.57565">
        <ele>192</ele>
        <time>2021-07-22T13:51:24.251Z</time>
      </trkpt>
      <trkpt lat="48.51684" lon="-3.57575">
        <ele>192</ele>
        <time>2021-07-22T13:51:29.255Z</time>
      </trkpt>
      <trkpt lat="48.51685" lon="-3.57584">
        <ele>192</ele>
        <time>2021-07-22T13:51:34.262Z</time>
      </trkpt>
      <trkpt lat="48.51685" lon="-3.57593">
        <ele>192</ele>
        <time>2021-07-22T13:51:39.258Z</time>
      </trkpt>
      <trkpt lat="48.51687" lon="-3.57602">
        <ele>192</ele>
        <time>2021-07-22T13:51:44.256Z</time>
      </trkpt>
      <trkpt lat="48.51688" lon="-3.57612">
        <ele>192</ele>
        <time>2021-07-22T13:51:49.262Z</time>
      </trkpt>
      <trkpt lat="48.51689" lon="-3.57623">
        <ele>192</ele>
        <time>2021-07-22T13:51:54.269Z</time>
      </trkpt>
      <trkpt lat="48.5169" lon="-3.57633">
        <ele>193</ele>
        <time>2021-07-22T13:51:59.265Z</time>
      </trkpt>
      <trkpt lat="48.51692" lon="-3.57643">
        <ele>193</ele>
        <time>2021-07-22T13:52:04.286Z</time>
      </trkpt>
      <trkpt lat="48.51695" lon="-3.57651">
        <ele>193</ele>
        <time>2021-07-22T13:52:08.269Z</time>
      </trkpt>
      <trkpt lat="48.51697" lon="-3.57661">
        <ele>195</ele>
        <time>2021-07-22T13:52:13.267Z</time>
      </trkpt>
      <trkpt lat="48.51699" lon="-3.57672">
        <ele>195</ele>
        <time>2021-07-22T13:52:18.256Z</time>
      </trkpt>
      <trkpt lat="48.517" lon="-3.57683">
        <ele>197</ele>
        <time>2021-07-22T13:52:23.258Z</time>
      </trkpt>
      <trkpt lat="48.51701" lon="-3.57694">
        <ele>197</ele>
        <time>2021-07-22T13:52:28.250Z</time>
      </trkpt>
      <trkpt lat="48.51704" lon="-3.57704">
        <ele>197</ele>
        <time>2021-07-22T13:52:33.267Z</time>
      </trkpt>
      <trkpt lat="48.51705" lon="-3.57714">
        <ele>197</ele>
        <time>2021-07-22T13:52:38.251Z</time>
      </trkpt>
      <trkpt lat="48.51705" lon="-3.57724">
        <ele>197</ele>
        <time>2021-07-22T13:52:43.264Z</time>
      </trkpt>
      <trkpt lat="48.51706" lon="-3.57736">
        <ele>198</ele>
        <time>2021-07-22T13:52:48.262Z</time>
      </trkpt>
      <trkpt lat="48.51708" lon="-3.57749">
        <ele>198</ele>
        <time>2021-07-22T13:52:53.260Z</time>
      </trkpt>
      <trkpt lat="48.51709" lon="-3.57759">
        <ele>199</ele>
        <time>2021-07-22T13:52:58.263Z</time>
      </trkpt>
      <trkpt lat="48.51712" lon="-3.57769">
        <ele>199</ele>
        <time>2021-07-22T13:53:03.257Z</time>
      </trkpt>
      <trkpt lat="48.51715" lon="-3.5778">
        <ele>199</ele>
        <time>2021-07-22T13:53:08.270Z</time>
      </trkpt>
      <trkpt lat="48.51716" lon="-3.57789">
        <ele>199</ele>
        <time>2021-07-22T13:53:13.274Z</time>
      </trkpt>
      <trkpt lat="48.51718" lon="-3.57799">
        <ele>200</ele>
        <time>2021-07-22T13:53:18.271Z</time>
      </trkpt>
      <trkpt lat="48.51719" lon="-3.5781">
        <ele>200</ele>
        <time>2021-07-22T13:53:23.272Z</time>
      </trkpt>
      <trkpt lat="48.5172" lon="-3.57821">
        <ele>201</ele>
        <time>2021-07-22T13:53:28.266Z</time>
      </trkpt>
      <trkpt lat="48.51722" lon="-3.57832">
        <ele>201</ele>
        <time>2021-07-22T13:53:33.283Z</time>
      </trkpt>
      <trkpt lat="48.51723" lon="-3.57843">
        <ele>201</ele>
        <time>2021-07-22T13:53:38.262Z</time>
      </trkpt>
      <trkpt lat="48.51724" lon="-3.57852">
        <ele>201</ele>
        <time>2021-07-22T13:53:43.249Z</time>
      </trkpt>
      <trkpt lat="48.51727" lon="-3.5786">
        <ele>201</ele>
        <time>2021-07-22T13:53:47.254Z</time>
      </trkpt>
      <trkpt lat="48.51729" lon="-3.57875">
        <ele>202</ele>
        <time>2021-07-22T13:53:52.256Z</time>
      </trkpt>
      <trkpt lat="48.51731" lon="-3.57888">
        <ele>202</ele>
        <time>2021-07-22T13:53:57.256Z</time>
      </trkpt>
      <trkpt lat="48.51733" lon="-3.57901">
        <ele>202</ele>
        <time>2021-07-22T13:54:02.262Z</time>
      </trkpt>
      <trkpt lat="48.51733" lon="-3.57911">
        <ele>203</ele>
        <time>2021-07-22T13:54:07.255Z</time>
      </trkpt>
      <trkpt lat="48.51734" lon="-3.57919">
        <ele>203</ele>
        <time>2021-07-22T13:54:11.275Z</time>
      </trkpt>
      <trkpt lat="48.51735" lon="-3.57926">
        <ele>203</ele>
        <time>2021-07-22T13:54:15.293Z</time>
      </trkpt>
      <trkpt lat="48.5174" lon="-3.57933">
        <ele>203</ele>
        <time>2021-07-22T13:54:20.246Z</time>
      </trkpt>
      <trkpt lat="48.51742" lon="-3.57941">
        <ele>203</ele>
        <time>2021-07-22T13:54:24.273Z</time>
      </trkpt>
      <trkpt lat="48.51744" lon="-3.57948">
        <ele>203</ele>
        <time>2021-07-22T13:54:28.260Z</time>
      </trkpt>
      <trkpt lat="48.51748" lon="-3.57958">
        <ele>203</ele>
        <time>2021-07-22T13:54:33.278Z</time>
      </trkpt>
      <trkpt lat="48.51751" lon="-3.5797">
        <ele>203</ele>
        <time>2021-07-22T13:54:38.274Z</time>
      </trkpt>
      <trkpt lat="48.51753" lon="-3.57981">
        <ele>203</ele>
        <time>2021-07-22T13:54:43.269Z</time>
      </trkpt>
      <trkpt lat="48.51756" lon="-3.57991">
        <ele>203</ele>
        <time>2021-07-22T13:54:48.274Z</time>
      </trkpt>
      <trkpt lat="48.51758" lon="-3.57999">
        <ele>203</ele>
        <time>2021-07-22T13:54:53.263Z</time>
      </trkpt>
      <trkpt lat="48.51761" lon="-3.58009">
        <ele>203</ele>
        <time>2021-07-22T13:54:58.255Z</time>
      </trkpt>
      <trkpt lat="48.51764" lon="-3.58019">
        <ele>203</ele>
        <time>2021-07-22T13:55:02.260Z</time>
      </trkpt>
      <trkpt lat="48.51767" lon="-3.5803">
        <ele>202</ele>
        <time>2021-07-22T13:55:07.248Z</time>
      </trkpt>
      <trkpt lat="48.51771" lon="-3.58042">
        <ele>200</ele>
        <time>2021-07-22T13:55:12.250Z</time>
      </trkpt>
      <trkpt lat="48.51771" lon="-3.58054">
        <ele>200</ele>
        <time>2021-07-22T13:55:17.251Z</time>
      </trkpt>
      <trkpt lat="48.51771" lon="-3.58065">
        <ele>200</ele>
        <time>2021-07-22T13:55:22.249Z</time>
      </trkpt>
      <trkpt lat="48.51769" lon="-3.58075">
        <ele>198</ele>
        <time>2021-07-22T13:55:26.263Z</time>
      </trkpt>
      <trkpt lat="48.51767" lon="-3.58085">
        <ele>198</ele>
        <time>2021-07-22T13:55:31.260Z</time>
      </trkpt>
      <trkpt lat="48.51765" lon="-3.58096">
        <ele>198</ele>
        <time>2021-07-22T13:55:36.260Z</time>
      </trkpt>
      <trkpt lat="48.51764" lon="-3.58107">
        <ele>199</ele>
        <time>2021-07-22T13:55:41.270Z</time>
      </trkpt>
      <trkpt lat="48.51761" lon="-3.5812">
        <ele>199</ele>
        <time>2021-07-22T13:55:46.267Z</time>
      </trkpt>
      <trkpt lat="48.5176" lon="-3.58133">
        <ele>199</ele>
        <time>2021-07-22T13:55:51.248Z</time>
      </trkpt>
      <trkpt lat="48.51759" lon="-3.58143">
        <ele>199</ele>
        <time>2021-07-22T13:55:55.265Z</time>
      </trkpt>
      <trkpt lat="48.51758" lon="-3.58152">
        <ele>199</ele>
        <time>2021-07-22T13:55:59.270Z</time>
      </trkpt>
      <trkpt lat="48.51757" lon="-3.58164">
        <ele>198</ele>
        <time>2021-07-22T13:56:04.277Z</time>
      </trkpt>
      <trkpt lat="48.51755" lon="-3.58176">
        <ele>198</ele>
        <time>2021-07-22T13:56:09.260Z</time>
      </trkpt>
      <trkpt lat="48.51753" lon="-3.58186">
        <ele>197</ele>
        <time>2021-07-22T13:56:14.257Z</time>
      </trkpt>
      <trkpt lat="48.51752" lon="-3.58196">
        <ele>197</ele>
        <time>2021-07-22T13:56:19.254Z</time>
      </trkpt>
      <trkpt lat="48.51751" lon="-3.58208">
        <ele>197</ele>
        <time>2021-07-22T13:56:24.263Z</time>
      </trkpt>
      <trkpt lat="48.5175" lon="-3.58218">
        <ele>196</ele>
        <time>2021-07-22T13:56:29.259Z</time>
      </trkpt>
      <trkpt lat="48.51749" lon="-3.58229">
        <ele>196</ele>
        <time>2021-07-22T13:56:34.255Z</time>
      </trkpt>
      <trkpt lat="48.51748" lon="-3.58239">
        <ele>196</ele>
        <time>2021-07-22T13:56:38.270Z</time>
      </trkpt>
      <trkpt lat="48.51748" lon="-3.5825">
        <ele>196</ele>
        <time>2021-07-22T13:56:43.269Z</time>
      </trkpt>
      <trkpt lat="48.51747" lon="-3.58261">
        <ele>196</ele>
        <time>2021-07-22T13:56:48.261Z</time>
      </trkpt>
      <trkpt lat="48.51745" lon="-3.5827">
        <ele>196</ele>
        <time>2021-07-22T13:56:52.249Z</time>
      </trkpt>
      <trkpt lat="48.51745" lon="-3.5828">
        <ele>196</ele>
        <time>2021-07-22T13:56:57.271Z</time>
      </trkpt>
      <trkpt lat="48.51744" lon="-3.58288">
        <ele>196</ele>
        <time>2021-07-22T13:57:01.281Z</time>
      </trkpt>
      <trkpt lat="48.51744" lon="-3.58299">
        <ele>196</ele>
        <time>2021-07-22T13:57:06.259Z</time>
      </trkpt>
      <trkpt lat="48.51742" lon="-3.58312">
        <ele>196</ele>
        <time>2021-07-22T13:57:11.248Z</time>
      </trkpt>
      <trkpt lat="48.5174" lon="-3.58324">
        <ele>197</ele>
        <time>2021-07-22T13:57:15.263Z</time>
      </trkpt>
      <trkpt lat="48.51738" lon="-3.58336">
        <ele>197</ele>
        <time>2021-07-22T13:57:20.261Z</time>
      </trkpt>
      <trkpt lat="48.51735" lon="-3.58344">
        <ele>196</ele>
        <time>2021-07-22T13:57:25.246Z</time>
      </trkpt>
      <trkpt lat="48.51731" lon="-3.58353">
        <ele>197</ele>
        <time>2021-07-22T13:57:30.246Z</time>
      </trkpt>
      <trkpt lat="48.51726" lon="-3.58361">
        <ele>197</ele>
        <time>2021-07-22T13:57:35.253Z</time>
      </trkpt>
      <trkpt lat="48.5172" lon="-3.58369">
        <ele>197</ele>
        <time>2021-07-22T13:57:40.256Z</time>
      </trkpt>
      <trkpt lat="48.51712" lon="-3.58372">
        <ele>197</ele>
        <time>2021-07-22T13:57:44.280Z</time>
      </trkpt>
      <trkpt lat="48.51711" lon="-3.58379">
        <ele>197</ele>
        <time>2021-07-22T13:57:49.256Z</time>
      </trkpt>
      <trkpt lat="48.51712" lon="-3.58391">
        <ele>197</ele>
        <time>2021-07-22T13:57:54.258Z</time>
      </trkpt>
      <trkpt lat="48.51713" lon="-3.58404">
        <ele>197</ele>
        <time>2021-07-22T13:57:59.263Z</time>
      </trkpt>
      <trkpt lat="48.51713" lon="-3.58416">
        <ele>197</ele>
        <time>2021-07-22T13:58:04.275Z</time>
      </trkpt>
      <trkpt lat="48.51714" lon="-3.58427">
        <ele>197</ele>
        <time>2021-07-22T13:58:09.263Z</time>
      </trkpt>
      <trkpt lat="48.51715" lon="-3.58436">
        <ele>196</ele>
        <time>2021-07-22T13:58:13.282Z</time>
      </trkpt>
      <trkpt lat="48.51717" lon="-3.58447">
        <ele>196</ele>
        <time>2021-07-22T13:58:18.271Z</time>
      </trkpt>
      <trkpt lat="48.51716" lon="-3.58458">
        <ele>196</ele>
        <time>2021-07-22T13:58:23.266Z</time>
      </trkpt>
      <trkpt lat="48.51719" lon="-3.58469">
        <ele>197</ele>
        <time>2021-07-22T13:58:28.270Z</time>
      </trkpt>
      <trkpt lat="48.51721" lon="-3.58479">
        <ele>197</ele>
        <time>2021-07-22T13:58:33.270Z</time>
      </trkpt>
      <trkpt lat="48.51724" lon="-3.58489">
        <ele>197</ele>
        <time>2021-07-22T13:58:38.260Z</time>
      </trkpt>
      <trkpt lat="48.51726" lon="-3.58501">
        <ele>197</ele>
        <time>2021-07-22T13:58:43.259Z</time>
      </trkpt>
      <trkpt lat="48.51727" lon="-3.58511">
        <ele>197</ele>
        <time>2021-07-22T13:58:48.258Z</time>
      </trkpt>
      <trkpt lat="48.51728" lon="-3.58523">
        <ele>197</ele>
        <time>2021-07-22T13:58:53.246Z</time>
      </trkpt>
      <trkpt lat="48.51729" lon="-3.58531">
        <ele>197</ele>
        <time>2021-07-22T13:58:57.264Z</time>
      </trkpt>
      <trkpt lat="48.51732" lon="-3.58543">
        <ele>197</ele>
        <time>2021-07-22T13:59:02.264Z</time>
      </trkpt>
      <trkpt lat="48.51733" lon="-3.58553">
        <ele>197</ele>
        <time>2021-07-22T13:59:07.254Z</time>
      </trkpt>
      <trkpt lat="48.51736" lon="-3.58562">
        <ele>197</ele>
        <time>2021-07-22T13:59:12.263Z</time>
      </trkpt>
      <trkpt lat="48.51739" lon="-3.58572">
        <ele>198</ele>
        <time>2021-07-22T13:59:17.255Z</time>
      </trkpt>
      <trkpt lat="48.51742" lon="-3.58583">
        <ele>198</ele>
        <time>2021-07-22T13:59:22.250Z</time>
      </trkpt>
      <trkpt lat="48.51744" lon="-3.58592">
        <ele>198</ele>
        <time>2021-07-22T13:59:26.274Z</time>
      </trkpt>
      <trkpt lat="48.51747" lon="-3.58601">
        <ele>198</ele>
        <time>2021-07-22T13:59:31.263Z</time>
      </trkpt>
      <trkpt lat="48.51748" lon="-3.58611">
        <ele>198</ele>
        <time>2021-07-22T13:59:35.274Z</time>
      </trkpt>
      <trkpt lat="48.51747" lon="-3.58623">
        <ele>198</ele>
        <time>2021-07-22T13:59:40.285Z</time>
      </trkpt>
      <trkpt lat="48.51749" lon="-3.58632">
        <ele>199</ele>
        <time>2021-07-22T13:59:45.266Z</time>
      </trkpt>
      <trkpt lat="48.5175" lon="-3.58638">
        <ele>199</ele>
        <time>2021-07-22T13:59:50.263Z</time>
      </trkpt>
      <trkpt lat="48.5175" lon="-3.58638">
        <ele>199</ele>
        <time>2021-07-22T13:59:54.274Z</time>
      </trkpt>
      <trkpt lat="48.51754" lon="-3.58641">
        <ele>199</ele>
        <time>2021-07-22T13:59:59.258Z</time>
      </trkpt>
      <trkpt lat="48.51759" lon="-3.5864">
        <ele>199</ele>
        <time>2021-07-22T14:00:04.254Z</time>
      </trkpt>
      <trkpt lat="48.51759" lon="-3.5864">
        <ele>199</ele>
        <time>2021-07-22T14:00:09.262Z</time>
      </trkpt>
      <trkpt lat="48.51759" lon="-3.5865">
        <ele>199</ele>
        <time>2021-07-22T14:00:14.252Z</time>
      </trkpt>
      <trkpt lat="48.51761" lon="-3.58659">
        <ele>200</ele>
        <time>2021-07-22T14:00:19.256Z</time>
      </trkpt>
      <trkpt lat="48.51761" lon="-3.58666">
        <ele>200</ele>
        <time>2021-07-22T14:00:23.268Z</time>
      </trkpt>
      <trkpt lat="48.51758" lon="-3.58672">
        <ele>200</ele>
        <time>2021-07-22T14:00:28.265Z</time>
      </trkpt>
      <trkpt lat="48.51762" lon="-3.58673">
        <ele>200</ele>
        <time>2021-07-22T14:00:33.263Z</time>
      </trkpt>
      <trkpt lat="48.51759" lon="-3.58671">
        <ele>200</ele>
        <time>2021-07-22T14:00:38.269Z</time>
      </trkpt>
      <trkpt lat="48.51753" lon="-3.58672">
        <ele>200</ele>
        <time>2021-07-22T14:00:43.257Z</time>
      </trkpt>
      <trkpt lat="48.51747" lon="-3.58675">
        <ele>200</ele>
        <time>2021-07-22T14:00:48.283Z</time>
      </trkpt>
      <trkpt lat="48.51744" lon="-3.58681">
        <ele>201</ele>
        <time>2021-07-22T14:00:52.276Z</time>
      </trkpt>
      <trkpt lat="48.5174" lon="-3.58691">
        <ele>201</ele>
        <time>2021-07-22T14:00:57.269Z</time>
      </trkpt>
      <trkpt lat="48.51737" lon="-3.58701">
        <ele>201</ele>
        <time>2021-07-22T14:01:02.283Z</time>
      </trkpt>
      <trkpt lat="48.51734" lon="-3.5871">
        <ele>202</ele>
        <time>2021-07-22T14:01:07.262Z</time>
      </trkpt>
      <trkpt lat="48.51732" lon="-3.58719">
        <ele>202</ele>
        <time>2021-07-22T14:01:12.274Z</time>
      </trkpt>
      <trkpt lat="48.51731" lon="-3.58729">
        <ele>202</ele>
        <time>2021-07-22T14:01:17.277Z</time>
      </trkpt>
      <trkpt lat="48.5173" lon="-3.58739">
        <ele>202</ele>
        <time>2021-07-22T14:01:22.250Z</time>
      </trkpt>
      <trkpt lat="48.5173" lon="-3.58747">
        <ele>202</ele>
        <time>2021-07-22T14:01:27.247Z</time>
      </trkpt>
      <trkpt lat="48.51731" lon="-3.58751">
        <ele>202</ele>
        <time>2021-07-22T14:01:32.259Z</time>
      </trkpt>
      <trkpt lat="48.51729" lon="-3.5876">
        <ele>202</ele>
        <time>2021-07-22T14:01:37.251Z</time>
      </trkpt>
      <trkpt lat="48.51727" lon="-3.58765">
        <ele>203</ele>
        <time>2021-07-22T14:01:42.256Z</time>
      </trkpt>
      <trkpt lat="48.51729" lon="-3.58769">
        <ele>203</ele>
        <time>2021-07-22T14:01:47.274Z</time>
      </trkpt>
      <trkpt lat="48.51732" lon="-3.58774">
        <ele>203</ele>
        <time>2021-07-22T14:01:52.264Z</time>
      </trkpt>
      <trkpt lat="48.51737" lon="-3.5878">
        <ele>203</ele>
        <time>2021-07-22T14:01:57.255Z</time>
      </trkpt>
      <trkpt lat="48.51741" lon="-3.58783">
        <ele>203</ele>
        <time>2021-07-22T14:02:02.269Z</time>
      </trkpt>
      <trkpt lat="48.51746" lon="-3.58783">
        <ele>203</ele>
        <time>2021-07-22T14:02:06.263Z</time>
      </trkpt>
      <trkpt lat="48.51751" lon="-3.5878">
        <ele>203</ele>
        <time>2021-07-22T14:02:11.250Z</time>
      </trkpt>
      <trkpt lat="48.51751" lon="-3.58771">
        <ele>203</ele>
        <time>2021-07-22T14:02:15.267Z</time>
      </trkpt>
      <trkpt lat="48.51753" lon="-3.58768">
        <ele>203</ele>
        <time>2021-07-22T14:02:19.278Z</time>
      </trkpt>
      <trkpt lat="48.51757" lon="-3.58768">
        <ele>203</ele>
        <time>2021-07-22T14:02:24.270Z</time>
      </trkpt>
      <trkpt lat="48.51756" lon="-3.58764">
        <ele>203</ele>
        <time>2021-07-22T14:02:29.278Z</time>
      </trkpt>
      <trkpt lat="48.51757" lon="-3.58758">
        <ele>202</ele>
        <time>2021-07-22T14:02:34.267Z</time>
      </trkpt>
      <trkpt lat="48.51758" lon="-3.58746">
        <ele>202</ele>
        <time>2021-07-22T14:03:13.252Z</time>
      </trkpt>
      <trkpt lat="48.51763" lon="-3.58745">
        <ele>202</ele>
        <time>2021-07-22T14:03:18.261Z</time>
      </trkpt>
      <trkpt lat="48.51764" lon="-3.58745">
        <ele>203</ele>
        <time>2021-07-22T14:03:23.257Z</time>
      </trkpt>
      <trkpt lat="48.51763" lon="-3.58738">
        <ele>202</ele>
        <time>2021-07-22T14:03:28.261Z</time>
      </trkpt>
      <trkpt lat="48.51763" lon="-3.5873">
        <ele>202</ele>
        <time>2021-07-22T14:03:33.262Z</time>
      </trkpt>
      <trkpt lat="48.51758" lon="-3.58732">
        <ele>202</ele>
        <time>2021-07-22T14:04:37.261Z</time>
      </trkpt>
      <trkpt lat="48.51757" lon="-3.58731">
        <ele>202</ele>
        <time>2021-07-22T14:04:42.252Z</time>
      </trkpt>
      <trkpt lat="48.51757" lon="-3.58735">
        <ele>202</ele>
        <time>2021-07-22T14:04:47.243Z</time>
      </trkpt>
      <trkpt lat="48.5176" lon="-3.58742">
        <ele>202</ele>
        <time>2021-07-22T14:04:52.258Z</time>
      </trkpt>
      <trkpt lat="48.51761" lon="-3.58745">
        <ele>202</ele>
        <time>2021-07-22T14:04:57.247Z</time>
      </trkpt>
      <trkpt lat="48.51754" lon="-3.58744">
        <ele>202</ele>
        <time>2021-07-22T14:05:17.279Z</time>
      </trkpt>
      <trkpt lat="48.51754" lon="-3.58744">
        <ele>202</ele>
        <time>2021-07-22T14:05:22.255Z</time>
      </trkpt>
      <trkpt lat="48.51753" lon="-3.58743">
        <ele>202</ele>
        <time>2021-07-22T14:05:41.248Z</time>
      </trkpt>
      <trkpt lat="48.51752" lon="-3.58742">
        <ele>202</ele>
        <time>2021-07-22T14:05:46.237Z</time>
      </trkpt>
      <trkpt lat="48.5175" lon="-3.58741">
        <ele>202</ele>
        <time>2021-07-22T14:05:50.253Z</time>
      </trkpt>
      <trkpt lat="48.51751" lon="-3.58736">
        <ele>202</ele>
        <time>2021-07-22T14:12:04.259Z</time>
      </trkpt>
      <trkpt lat="48.51754" lon="-3.58746">
        <ele>202</ele>
        <time>2021-07-22T14:12:09.237Z</time>
      </trkpt>
      <trkpt lat="48.51756" lon="-3.58748">
        <ele>202</ele>
        <time>2021-07-22T14:12:14.250Z</time>
      </trkpt>
      <trkpt lat="48.51757" lon="-3.58748">
        <ele>202</ele>
        <time>2021-07-22T14:12:19.243Z</time>
      </trkpt>
      <trkpt lat="48.51759" lon="-3.5875">
        <ele>202</ele>
        <time>2021-07-22T14:12:24.247Z</time>
      </trkpt>
      <trkpt lat="48.51755" lon="-3.58747">
        <ele>202</ele>
        <time>2021-07-22T14:15:19.255Z</time>
      </trkpt>
      <trkpt lat="48.51755" lon="-3.58747">
        <ele>202</ele>
        <time>2021-07-22T14:15:24.266Z</time>
      </trkpt>
      <trkpt lat="48.51753" lon="-3.58751">
        <ele>202</ele>
        <time>2021-07-22T14:15:28.270Z</time>
      </trkpt>
      <trkpt lat="48.51757" lon="-3.5876">
        <ele>202</ele>
        <time>2021-07-22T14:15:33.275Z</time>
      </trkpt>
      <trkpt lat="48.51754" lon="-3.58764">
        <ele>203</ele>
        <time>2021-07-22T14:15:38.267Z</time>
      </trkpt>
      <trkpt lat="48.5175" lon="-3.58771">
        <ele>203</ele>
        <time>2021-07-22T14:15:43.274Z</time>
      </trkpt>
      <trkpt lat="48.51749" lon="-3.58776">
        <ele>203</ele>
        <time>2021-07-22T14:15:48.277Z</time>
      </trkpt>
      <trkpt lat="48.51748" lon="-3.58782">
        <ele>203</ele>
        <time>2021-07-22T14:15:52.273Z</time>
      </trkpt>
      <trkpt lat="48.51748" lon="-3.58787">
        <ele>203</ele>
        <time>2021-07-22T14:15:57.271Z</time>
      </trkpt>
      <trkpt lat="48.51746" lon="-3.58791">
        <ele>203</ele>
        <time>2021-07-22T14:16:02.265Z</time>
      </trkpt>
      <trkpt lat="48.51745" lon="-3.58798">
        <ele>205</ele>
        <time>2021-07-22T14:16:07.249Z</time>
      </trkpt>
      <trkpt lat="48.51743" lon="-3.58803">
        <ele>205</ele>
        <time>2021-07-22T14:16:12.250Z</time>
      </trkpt>
      <trkpt lat="48.51741" lon="-3.58809">
        <ele>205</ele>
        <time>2021-07-22T14:16:17.260Z</time>
      </trkpt>
      <trkpt lat="48.51739" lon="-3.5881">
        <ele>205</ele>
        <time>2021-07-22T14:16:22.265Z</time>
      </trkpt>
      <trkpt lat="48.51744" lon="-3.58813">
        <ele>205</ele>
        <time>2021-07-22T14:16:27.252Z</time>
      </trkpt>
      <trkpt lat="48.51746" lon="-3.58819">
        <ele>205</ele>
        <time>2021-07-22T14:16:32.264Z</time>
      </trkpt>
      <trkpt lat="48.51748" lon="-3.58827">
        <ele>206</ele>
        <time>2021-07-22T14:16:37.249Z</time>
      </trkpt>
      <trkpt lat="48.51749" lon="-3.58838">
        <ele>206</ele>
        <time>2021-07-22T14:16:42.252Z</time>
      </trkpt>
      <trkpt lat="48.5175" lon="-3.58847">
        <ele>206</ele>
        <time>2021-07-22T14:16:47.243Z</time>
      </trkpt>
      <trkpt lat="48.51748" lon="-3.58853">
        <ele>208</ele>
        <time>2021-07-22T14:16:51.256Z</time>
      </trkpt>
      <trkpt lat="48.51746" lon="-3.58861">
        <ele>208</ele>
        <time>2021-07-22T14:16:56.248Z</time>
      </trkpt>
      <trkpt lat="48.51747" lon="-3.58869">
        <ele>208</ele>
        <time>2021-07-22T14:17:01.267Z</time>
      </trkpt>
      <trkpt lat="48.51746" lon="-3.58876">
        <ele>209</ele>
        <time>2021-07-22T14:17:06.244Z</time>
      </trkpt>
      <trkpt lat="48.51745" lon="-3.58882">
        <ele>209</ele>
        <time>2021-07-22T14:17:10.261Z</time>
      </trkpt>
      <trkpt lat="48.51743" lon="-3.58889">
        <ele>209</ele>
        <time>2021-07-22T14:17:14.274Z</time>
      </trkpt>
      <trkpt lat="48.51743" lon="-3.58897">
        <ele>209</ele>
        <time>2021-07-22T14:17:19.273Z</time>
      </trkpt>
      <trkpt lat="48.51742" lon="-3.58906">
        <ele>210</ele>
        <time>2021-07-22T14:17:24.259Z</time>
      </trkpt>
      <trkpt lat="48.51742" lon="-3.58914">
        <ele>210</ele>
        <time>2021-07-22T14:17:29.257Z</time>
      </trkpt>
      <trkpt lat="48.5174" lon="-3.58918">
        <ele>210</ele>
        <time>2021-07-22T14:17:34.253Z</time>
      </trkpt>
      <trkpt lat="48.5173" lon="-3.58926">
        <ele>209</ele>
        <time>2021-07-22T14:18:03.242Z</time>
      </trkpt>
      <trkpt lat="48.51722" lon="-3.58921">
        <ele>209</ele>
        <time>2021-07-22T14:18:08.257Z</time>
      </trkpt>
      <trkpt lat="48.51718" lon="-3.58908">
        <ele>209</ele>
        <time>2021-07-22T14:18:13.252Z</time>
      </trkpt>
      <trkpt lat="48.51712" lon="-3.58905">
        <ele>209</ele>
        <time>2021-07-22T14:18:19.252Z</time>
      </trkpt>
      <trkpt lat="48.51708" lon="-3.58904">
        <ele>210</ele>
        <time>2021-07-22T14:18:24.255Z</time>
      </trkpt>
      <trkpt lat="48.51731" lon="-3.5894">
        <ele>210</ele>
        <time>2021-07-22T14:20:45.247Z</time>
      </trkpt>
      <trkpt lat="48.51733" lon="-3.58941">
        <ele>210</ele>
        <time>2021-07-22T14:20:49.250Z</time>
      </trkpt>
      <trkpt lat="48.51736" lon="-3.58944">
        <ele>210</ele>
        <time>2021-07-22T14:20:53.255Z</time>
      </trkpt>
      <trkpt lat="48.51733" lon="-3.58951">
        <ele>210</ele>
        <time>2021-07-22T14:20:58.255Z</time>
      </trkpt>
      <trkpt lat="48.51732" lon="-3.58957">
        <ele>210</ele>
        <time>2021-07-22T14:21:02.267Z</time>
      </trkpt>
      <trkpt lat="48.51729" lon="-3.58964">
        <ele>212</ele>
        <time>2021-07-22T14:21:07.264Z</time>
      </trkpt>
      <trkpt lat="48.51729" lon="-3.58972">
        <ele>212</ele>
        <time>2021-07-22T14:21:12.265Z</time>
      </trkpt>
      <trkpt lat="48.51728" lon="-3.58979">
        <ele>212</ele>
        <time>2021-07-22T14:21:17.262Z</time>
      </trkpt>
      <trkpt lat="48.51727" lon="-3.58987">
        <ele>213</ele>
        <time>2021-07-22T14:21:22.255Z</time>
      </trkpt>
      <trkpt lat="48.51726" lon="-3.58994">
        <ele>213</ele>
        <time>2021-07-22T14:21:27.263Z</time>
      </trkpt>
      <trkpt lat="48.51725" lon="-3.59001">
        <ele>213</ele>
        <time>2021-07-22T14:21:32.255Z</time>
      </trkpt>
      <trkpt lat="48.51724" lon="-3.59011">
        <ele>213</ele>
        <time>2021-07-22T14:21:37.251Z</time>
      </trkpt>
      <trkpt lat="48.51721" lon="-3.59019">
        <ele>213</ele>
        <time>2021-07-22T14:21:42.257Z</time>
      </trkpt>
      <trkpt lat="48.51719" lon="-3.59026">
        <ele>213</ele>
        <time>2021-07-22T14:21:47.251Z</time>
      </trkpt>
      <trkpt lat="48.51718" lon="-3.59034">
        <ele>213</ele>
        <time>2021-07-22T14:21:52.253Z</time>
      </trkpt>
      <trkpt lat="48.51718" lon="-3.59041">
        <ele>213</ele>
        <time>2021-07-22T14:21:56.257Z</time>
      </trkpt>
      <trkpt lat="48.51714" lon="-3.59049">
        <ele>213</ele>
        <time>2021-07-22T14:22:01.251Z</time>
      </trkpt>
      <trkpt lat="48.51711" lon="-3.59057">
        <ele>213</ele>
        <time>2021-07-22T14:22:06.268Z</time>
      </trkpt>
      <trkpt lat="48.51711" lon="-3.59065">
        <ele>213</ele>
        <time>2021-07-22T14:22:11.252Z</time>
      </trkpt>
      <trkpt lat="48.5171" lon="-3.59072">
        <ele>214</ele>
        <time>2021-07-22T14:22:15.269Z</time>
      </trkpt>
      <trkpt lat="48.51711" lon="-3.5908">
        <ele>214</ele>
        <time>2021-07-22T14:22:20.269Z</time>
      </trkpt>
      <trkpt lat="48.51711" lon="-3.59089">
        <ele>214</ele>
        <time>2021-07-22T14:22:25.280Z</time>
      </trkpt>
      <trkpt lat="48.51711" lon="-3.59099">
        <ele>215</ele>
        <time>2021-07-22T14:22:30.270Z</time>
      </trkpt>
      <trkpt lat="48.51708" lon="-3.59108">
        <ele>216</ele>
        <time>2021-07-22T14:22:35.272Z</time>
      </trkpt>
      <trkpt lat="48.51705" lon="-3.59115">
        <ele>216</ele>
        <time>2021-07-22T14:22:40.256Z</time>
      </trkpt>
      <trkpt lat="48.51702" lon="-3.5912">
        <ele>216</ele>
        <time>2021-07-22T14:22:45.277Z</time>
      </trkpt>
      <trkpt lat="48.51702" lon="-3.5912">
        <ele>216</ele>
        <time>2021-07-22T14:22:50.264Z</time>
      </trkpt>
      <trkpt lat="48.51703" lon="-3.59123">
        <ele>216</ele>
        <time>2021-07-22T14:23:00.246Z</time>
      </trkpt>
      <trkpt lat="48.51704" lon="-3.5913">
        <ele>217</ele>
        <time>2021-07-22T14:23:05.250Z</time>
      </trkpt>
      <trkpt lat="48.51706" lon="-3.59136">
        <ele>217</ele>
        <time>2021-07-22T14:23:09.274Z</time>
      </trkpt>
      <trkpt lat="48.51707" lon="-3.59143">
        <ele>217</ele>
        <time>2021-07-22T14:23:14.243Z</time>
      </trkpt>
      <trkpt lat="48.51708" lon="-3.59149">
        <ele>217</ele>
        <time>2021-07-22T14:23:18.258Z</time>
      </trkpt>
      <trkpt lat="48.51708" lon="-3.59157">
        <ele>218</ele>
        <time>2021-07-22T14:23:23.270Z</time>
      </trkpt>
      <trkpt lat="48.51709" lon="-3.59164">
        <ele>217</ele>
        <time>2021-07-22T14:23:28.270Z</time>
      </trkpt>
      <trkpt lat="48.5171" lon="-3.59172">
        <ele>217</ele>
        <time>2021-07-22T14:23:33.278Z</time>
      </trkpt>
      <trkpt lat="48.51711" lon="-3.59181">
        <ele>219</ele>
        <time>2021-07-22T14:23:38.241Z</time>
      </trkpt>
      <trkpt lat="48.5171" lon="-3.59189">
        <ele>219</ele>
        <time>2021-07-22T14:23:43.247Z</time>
      </trkpt>
      <trkpt lat="48.51712" lon="-3.59196">
        <ele>219</ele>
        <time>2021-07-22T14:23:48.243Z</time>
      </trkpt>
      <trkpt lat="48.51715" lon="-3.59202">
        <ele>219</ele>
        <time>2021-07-22T14:23:53.251Z</time>
      </trkpt>
      <trkpt lat="48.51715" lon="-3.59211">
        <ele>221</ele>
        <time>2021-07-22T14:23:58.264Z</time>
      </trkpt>
      <trkpt lat="48.51715" lon="-3.59219">
        <ele>221</ele>
        <time>2021-07-22T14:24:03.248Z</time>
      </trkpt>
      <trkpt lat="48.51716" lon="-3.59226">
        <ele>221</ele>
        <time>2021-07-22T14:24:08.254Z</time>
      </trkpt>
      <trkpt lat="48.51716" lon="-3.59235">
        <ele>221</ele>
        <time>2021-07-22T14:24:13.264Z</time>
      </trkpt>
      <trkpt lat="48.51718" lon="-3.59242">
        <ele>223</ele>
        <time>2021-07-22T14:24:18.247Z</time>
      </trkpt>
      <trkpt lat="48.51719" lon="-3.5925">
        <ele>223</ele>
        <time>2021-07-22T14:24:23.267Z</time>
      </trkpt>
      <trkpt lat="48.5172" lon="-3.59256">
        <ele>223</ele>
        <time>2021-07-22T14:24:28.241Z</time>
      </trkpt>
      <trkpt lat="48.51722" lon="-3.59265">
        <ele>226</ele>
        <time>2021-07-22T14:24:33.270Z</time>
      </trkpt>
      <trkpt lat="48.51723" lon="-3.59273">
        <ele>226</ele>
        <time>2021-07-22T14:24:38.252Z</time>
      </trkpt>
      <trkpt lat="48.51725" lon="-3.59279">
        <ele>226</ele>
        <time>2021-07-22T14:24:42.246Z</time>
      </trkpt>
      <trkpt lat="48.51725" lon="-3.59286">
        <ele>226</ele>
        <time>2021-07-22T14:24:47.250Z</time>
      </trkpt>
      <trkpt lat="48.51727" lon="-3.59292">
        <ele>226</ele>
        <time>2021-07-22T14:24:51.273Z</time>
      </trkpt>
      <trkpt lat="48.51729" lon="-3.59299">
        <ele>228</ele>
        <time>2021-07-22T14:24:56.251Z</time>
      </trkpt>
      <trkpt lat="48.51733" lon="-3.59305">
        <ele>228</ele>
        <time>2021-07-22T14:25:01.248Z</time>
      </trkpt>
      <trkpt lat="48.51736" lon="-3.59313">
        <ele>228</ele>
        <time>2021-07-22T14:25:06.257Z</time>
      </trkpt>
      <trkpt lat="48.51739" lon="-3.59319">
        <ele>229</ele>
        <time>2021-07-22T14:25:11.263Z</time>
      </trkpt>
      <trkpt lat="48.5174" lon="-3.59325">
        <ele>231</ele>
        <time>2021-07-22T14:25:15.260Z</time>
      </trkpt>
      <trkpt lat="48.51742" lon="-3.59332">
        <ele>231</ele>
        <time>2021-07-22T14:25:20.262Z</time>
      </trkpt>
      <trkpt lat="48.51745" lon="-3.5934">
        <ele>231</ele>
        <time>2021-07-22T14:25:25.247Z</time>
      </trkpt>
      <trkpt lat="48.51747" lon="-3.59345">
        <ele>231</ele>
        <time>2021-07-22T14:25:29.268Z</time>
      </trkpt>
      <trkpt lat="48.51748" lon="-3.59353">
        <ele>233</ele>
        <time>2021-07-22T14:25:34.284Z</time>
      </trkpt>
      <trkpt lat="48.5175" lon="-3.5936">
        <ele>233</ele>
        <time>2021-07-22T14:25:39.272Z</time>
      </trkpt>
      <trkpt lat="48.51752" lon="-3.59367">
        <ele>233</ele>
        <time>2021-07-22T14:25:44.267Z</time>
      </trkpt>
      <trkpt lat="48.51754" lon="-3.59374">
        <ele>233</ele>
        <time>2021-07-22T14:25:49.270Z</time>
      </trkpt>
      <trkpt lat="48.51755" lon="-3.59382">
        <ele>235</ele>
        <time>2021-07-22T14:25:54.264Z</time>
      </trkpt>
      <trkpt lat="48.51756" lon="-3.59388">
        <ele>235</ele>
        <time>2021-07-22T14:25:59.272Z</time>
      </trkpt>
      <trkpt lat="48.51758" lon="-3.59396">
        <ele>235</ele>
        <time>2021-07-22T14:26:04.264Z</time>
      </trkpt>
      <trkpt lat="48.5176" lon="-3.59403">
        <ele>235</ele>
        <time>2021-07-22T14:26:09.246Z</time>
      </trkpt>
      <trkpt lat="48.51761" lon="-3.5941">
        <ele>236</ele>
        <time>2021-07-22T14:26:14.257Z</time>
      </trkpt>
      <trkpt lat="48.51763" lon="-3.59418">
        <ele>236</ele>
        <time>2021-07-22T14:26:19.269Z</time>
      </trkpt>
      <trkpt lat="48.51764" lon="-3.59425">
        <ele>237</ele>
        <time>2021-07-22T14:26:24.257Z</time>
      </trkpt>
      <trkpt lat="48.51766" lon="-3.59432">
        <ele>239</ele>
        <time>2021-07-22T14:26:29.250Z</time>
      </trkpt>
      <trkpt lat="48.51768" lon="-3.59438">
        <ele>239</ele>
        <time>2021-07-22T14:26:33.255Z</time>
      </trkpt>
      <trkpt lat="48.51771" lon="-3.59446">
        <ele>239</ele>
        <time>2021-07-22T14:26:38.254Z</time>
      </trkpt>
      <trkpt lat="48.51772" lon="-3.59451">
        <ele>239</ele>
        <time>2021-07-22T14:26:42.270Z</time>
      </trkpt>
      <trkpt lat="48.51773" lon="-3.59458">
        <ele>239</ele>
        <time>2021-07-22T14:26:47.263Z</time>
      </trkpt>
      <trkpt lat="48.51775" lon="-3.59465">
        <ele>241</ele>
        <time>2021-07-22T14:26:52.263Z</time>
      </trkpt>
      <trkpt lat="48.51777" lon="-3.59472">
        <ele>241</ele>
        <time>2021-07-22T14:26:57.274Z</time>
      </trkpt>
      <trkpt lat="48.51778" lon="-3.5948">
        <ele>241</ele>
        <time>2021-07-22T14:27:02.267Z</time>
      </trkpt>
      <trkpt lat="48.51781" lon="-3.59488">
        <ele>242</ele>
        <time>2021-07-22T14:27:07.274Z</time>
      </trkpt>
      <trkpt lat="48.51782" lon="-3.59496">
        <ele>242</ele>
        <time>2021-07-22T14:27:12.275Z</time>
      </trkpt>
      <trkpt lat="48.51785" lon="-3.59501">
        <ele>242</ele>
        <time>2021-07-22T14:27:17.265Z</time>
      </trkpt>
      <trkpt lat="48.51786" lon="-3.59507">
        <ele>242</ele>
        <time>2021-07-22T14:27:21.271Z</time>
      </trkpt>
      <trkpt lat="48.51787" lon="-3.59515">
        <ele>244</ele>
        <time>2021-07-22T14:27:26.256Z</time>
      </trkpt>
      <trkpt lat="48.51789" lon="-3.59524">
        <ele>244</ele>
        <time>2021-07-22T14:27:31.252Z</time>
      </trkpt>
      <trkpt lat="48.51789" lon="-3.59531">
        <ele>244</ele>
        <time>2021-07-22T14:27:35.261Z</time>
      </trkpt>
      <trkpt lat="48.51791" lon="-3.59538">
        <ele>244</ele>
        <time>2021-07-22T14:27:40.250Z</time>
      </trkpt>
      <trkpt lat="48.51793" lon="-3.59545">
        <ele>247</ele>
        <time>2021-07-22T14:27:44.258Z</time>
      </trkpt>
      <trkpt lat="48.51793" lon="-3.59553">
        <ele>247</ele>
        <time>2021-07-22T14:27:49.250Z</time>
      </trkpt>
      <trkpt lat="48.51794" lon="-3.59561">
        <ele>247</ele>
        <time>2021-07-22T14:27:53.270Z</time>
      </trkpt>
      <trkpt lat="48.51794" lon="-3.59569">
        <ele>247</ele>
        <time>2021-07-22T14:27:58.250Z</time>
      </trkpt>
      <trkpt lat="48.51796" lon="-3.59578">
        <ele>249</ele>
        <time>2021-07-22T14:28:03.258Z</time>
      </trkpt>
      <trkpt lat="48.51797" lon="-3.59587">
        <ele>249</ele>
        <time>2021-07-22T14:28:08.273Z</time>
      </trkpt>
      <trkpt lat="48.51797" lon="-3.59596">
        <ele>249</ele>
        <time>2021-07-22T14:28:13.269Z</time>
      </trkpt>
      <trkpt lat="48.51797" lon="-3.59604">
        <ele>249</ele>
        <time>2021-07-22T14:28:18.264Z</time>
      </trkpt>
      <trkpt lat="48.51796" lon="-3.59613">
        <ele>249</ele>
        <time>2021-07-22T14:28:23.250Z</time>
      </trkpt>
      <trkpt lat="48.51795" lon="-3.59621">
        <ele>249</ele>
        <time>2021-07-22T14:28:28.268Z</time>
      </trkpt>
      <trkpt lat="48.51795" lon="-3.59631">
        <ele>249</ele>
        <time>2021-07-22T14:28:33.256Z</time>
      </trkpt>
      <trkpt lat="48.51795" lon="-3.59637">
        <ele>249</ele>
        <time>2021-07-22T14:28:37.281Z</time>
      </trkpt>
      <trkpt lat="48.51797" lon="-3.59645">
        <ele>249</ele>
        <time>2021-07-22T14:28:42.269Z</time>
      </trkpt>
      <trkpt lat="48.51799" lon="-3.59651">
        <ele>249</ele>
        <time>2021-07-22T14:28:46.263Z</time>
      </trkpt>
      <trkpt lat="48.518" lon="-3.59661">
        <ele>249</ele>
        <time>2021-07-22T14:28:51.253Z</time>
      </trkpt>
      <trkpt lat="48.518" lon="-3.5967">
        <ele>249</ele>
        <time>2021-07-22T14:28:56.251Z</time>
      </trkpt>
      <trkpt lat="48.51801" lon="-3.59678">
        <ele>249</ele>
        <time>2021-07-22T14:29:01.252Z</time>
      </trkpt>
      <trkpt lat="48.518" lon="-3.59687">
        <ele>249</ele>
        <time>2021-07-22T14:29:06.261Z</time>
      </trkpt>
      <trkpt lat="48.518" lon="-3.59695">
        <ele>249</ele>
        <time>2021-07-22T14:29:10.255Z</time>
      </trkpt>
      <trkpt lat="48.51799" lon="-3.59705">
        <ele>249</ele>
        <time>2021-07-22T14:29:15.256Z</time>
      </trkpt>
      <trkpt lat="48.518" lon="-3.59713">
        <ele>248</ele>
        <time>2021-07-22T14:29:20.263Z</time>
      </trkpt>
      <trkpt lat="48.518" lon="-3.59725">
        <ele>248</ele>
        <time>2021-07-22T14:29:25.259Z</time>
      </trkpt>
      <trkpt lat="48.518" lon="-3.59735">
        <ele>248</ele>
        <time>2021-07-22T14:29:30.278Z</time>
      </trkpt>
      <trkpt lat="48.51799" lon="-3.59745">
        <ele>248</ele>
        <time>2021-07-22T14:29:35.272Z</time>
      </trkpt>
      <trkpt lat="48.51798" lon="-3.59755">
        <ele>248</ele>
        <time>2021-07-22T14:29:40.253Z</time>
      </trkpt>
      <trkpt lat="48.51797" lon="-3.59765">
        <ele>249</ele>
        <time>2021-07-22T14:29:45.269Z</time>
      </trkpt>
      <trkpt lat="48.51796" lon="-3.59773">
        <ele>249</ele>
        <time>2021-07-22T14:29:50.257Z</time>
      </trkpt>
      <trkpt lat="48.51796" lon="-3.59784">
        <ele>249</ele>
        <time>2021-07-22T14:29:55.269Z</time>
      </trkpt>
      <trkpt lat="48.51796" lon="-3.59793">
        <ele>251</ele>
        <time>2021-07-22T14:30:00.247Z</time>
      </trkpt>
      <trkpt lat="48.51797" lon="-3.59803">
        <ele>251</ele>
        <time>2021-07-22T14:30:05.264Z</time>
      </trkpt>
      <trkpt lat="48.51796" lon="-3.59812">
        <ele>251</ele>
        <time>2021-07-22T14:30:10.258Z</time>
      </trkpt>
      <trkpt lat="48.51794" lon="-3.59822">
        <ele>251</ele>
        <time>2021-07-22T14:30:15.278Z</time>
      </trkpt>
      <trkpt lat="48.51793" lon="-3.59829">
        <ele>251</ele>
        <time>2021-07-22T14:30:20.252Z</time>
      </trkpt>
      <trkpt lat="48.51792" lon="-3.59838">
        <ele>251</ele>
        <time>2021-07-22T14:30:25.257Z</time>
      </trkpt>
      <trkpt lat="48.51793" lon="-3.5985">
        <ele>251</ele>
        <time>2021-07-22T14:30:30.268Z</time>
      </trkpt>
      <trkpt lat="48.51792" lon="-3.59859">
        <ele>251</ele>
        <time>2021-07-22T14:30:35.259Z</time>
      </trkpt>
      <trkpt lat="48.51791" lon="-3.59868">
        <ele>254</ele>
        <time>2021-07-22T14:30:40.276Z</time>
      </trkpt>
      <trkpt lat="48.51789" lon="-3.59877">
        <ele>253</ele>
        <time>2021-07-22T14:30:45.273Z</time>
      </trkpt>
      <trkpt lat="48.51789" lon="-3.59887">
        <ele>253</ele>
        <time>2021-07-22T14:30:50.261Z</time>
      </trkpt>
      <trkpt lat="48.51788" lon="-3.59895">
        <ele>253</ele>
        <time>2021-07-22T14:30:55.263Z</time>
      </trkpt>
      <trkpt lat="48.51786" lon="-3.59905">
        <ele>252</ele>
        <time>2021-07-22T14:31:00.262Z</time>
      </trkpt>
      <trkpt lat="48.51783" lon="-3.59912">
        <ele>252</ele>
        <time>2021-07-22T14:31:05.275Z</time>
      </trkpt>
      <trkpt lat="48.51781" lon="-3.59922">
        <ele>252</ele>
        <time>2021-07-22T14:31:10.253Z</time>
      </trkpt>
      <trkpt lat="48.5178" lon="-3.59929">
        <ele>252</ele>
        <time>2021-07-22T14:31:15.261Z</time>
      </trkpt>
      <trkpt lat="48.51777" lon="-3.5994">
        <ele>252</ele>
        <time>2021-07-22T14:31:20.264Z</time>
      </trkpt>
      <trkpt lat="48.51775" lon="-3.59947">
        <ele>252</ele>
        <time>2021-07-22T14:31:25.250Z</time>
      </trkpt>
      <trkpt lat="48.51772" lon="-3.59956">
        <ele>252</ele>
        <time>2021-07-22T14:31:30.263Z</time>
      </trkpt>
      <trkpt lat="48.5177" lon="-3.59966">
        <ele>252</ele>
        <time>2021-07-22T14:31:35.258Z</time>
      </trkpt>
      <trkpt lat="48.51767" lon="-3.59975">
        <ele>252</ele>
        <time>2021-07-22T14:31:40.265Z</time>
      </trkpt>
      <trkpt lat="48.51764" lon="-3.59985">
        <ele>252</ele>
        <time>2021-07-22T14:31:45.271Z</time>
      </trkpt>
      <trkpt lat="48.51763" lon="-3.59992">
        <ele>253</ele>
        <time>2021-07-22T14:31:49.270Z</time>
      </trkpt>
      <trkpt lat="48.51764" lon="-3.60001">
        <ele>253</ele>
        <time>2021-07-22T14:31:54.250Z</time>
      </trkpt>
      <trkpt lat="48.51763" lon="-3.60008">
        <ele>253</ele>
        <time>2021-07-22T14:31:58.277Z</time>
      </trkpt>
      <trkpt lat="48.51763" lon="-3.6002">
        <ele>253</ele>
        <time>2021-07-22T14:32:03.270Z</time>
      </trkpt>
      <trkpt lat="48.51763" lon="-3.6003">
        <ele>253</ele>
        <time>2021-07-22T14:32:08.275Z</time>
      </trkpt>
      <trkpt lat="48.51762" lon="-3.60041">
        <ele>253</ele>
        <time>2021-07-22T14:32:13.266Z</time>
      </trkpt>
      <trkpt lat="48.51762" lon="-3.60051">
        <ele>252</ele>
        <time>2021-07-22T14:32:18.247Z</time>
      </trkpt>
      <trkpt lat="48.51762" lon="-3.60059">
        <ele>252</ele>
        <time>2021-07-22T14:32:23.263Z</time>
      </trkpt>
      <trkpt lat="48.51764" lon="-3.60069">
        <ele>252</ele>
        <time>2021-07-22T14:32:28.261Z</time>
      </trkpt>
      <trkpt lat="48.51764" lon="-3.6008">
        <ele>252</ele>
        <time>2021-07-22T14:32:33.266Z</time>
      </trkpt>
      <trkpt lat="48.51766" lon="-3.6009">
        <ele>251</ele>
        <time>2021-07-22T14:32:38.253Z</time>
      </trkpt>
      <trkpt lat="48.51764" lon="-3.60099">
        <ele>250</ele>
        <time>2021-07-22T14:32:43.252Z</time>
      </trkpt>
      <trkpt lat="48.51766" lon="-3.6011">
        <ele>250</ele>
        <time>2021-07-22T14:32:48.248Z</time>
      </trkpt>
      <trkpt lat="48.51767" lon="-3.60119">
        <ele>250</ele>
        <time>2021-07-22T14:32:53.253Z</time>
      </trkpt>
      <trkpt lat="48.51768" lon="-3.60126">
        <ele>250</ele>
        <time>2021-07-22T14:32:58.251Z</time>
      </trkpt>
      <trkpt lat="48.51768" lon="-3.60138">
        <ele>250</ele>
        <time>2021-07-22T14:33:03.258Z</time>
      </trkpt>
      <trkpt lat="48.51767" lon="-3.6015">
        <ele>250</ele>
        <time>2021-07-22T14:33:08.259Z</time>
      </trkpt>
      <trkpt lat="48.51769" lon="-3.6016">
        <ele>250</ele>
        <time>2021-07-22T14:33:13.267Z</time>
      </trkpt>
      <trkpt lat="48.51767" lon="-3.60171">
        <ele>250</ele>
        <time>2021-07-22T14:33:18.274Z</time>
      </trkpt>
      <trkpt lat="48.51767" lon="-3.60181">
        <ele>250</ele>
        <time>2021-07-22T14:33:23.246Z</time>
      </trkpt>
      <trkpt lat="48.51768" lon="-3.60188">
        <ele>250</ele>
        <time>2021-07-22T14:33:27.271Z</time>
      </trkpt>
      <trkpt lat="48.51767" lon="-3.60198">
        <ele>250</ele>
        <time>2021-07-22T14:33:32.277Z</time>
      </trkpt>
      <trkpt lat="48.51767" lon="-3.60208">
        <ele>250</ele>
        <time>2021-07-22T14:33:37.278Z</time>
      </trkpt>
      <trkpt lat="48.51768" lon="-3.60218">
        <ele>250</ele>
        <time>2021-07-22T14:33:42.268Z</time>
      </trkpt>
      <trkpt lat="48.51768" lon="-3.60229">
        <ele>250</ele>
        <time>2021-07-22T14:33:47.264Z</time>
      </trkpt>
      <trkpt lat="48.51768" lon="-3.6024">
        <ele>248</ele>
        <time>2021-07-22T14:33:52.259Z</time>
      </trkpt>
      <trkpt lat="48.51767" lon="-3.6025">
        <ele>248</ele>
        <time>2021-07-22T14:33:57.264Z</time>
      </trkpt>
      <trkpt lat="48.51766" lon="-3.60261">
        <ele>248</ele>
        <time>2021-07-22T14:34:02.266Z</time>
      </trkpt>
      <trkpt lat="48.51765" lon="-3.60271">
        <ele>246</ele>
        <time>2021-07-22T14:34:07.262Z</time>
      </trkpt>
      <trkpt lat="48.51763" lon="-3.60281">
        <ele>250</ele>
        <time>2021-07-22T14:34:12.272Z</time>
      </trkpt>
      <trkpt lat="48.51762" lon="-3.6029">
        <ele>250</ele>
        <time>2021-07-22T14:34:17.262Z</time>
      </trkpt>
      <trkpt lat="48.5176" lon="-3.603">
        <ele>247</ele>
        <time>2021-07-22T14:34:22.256Z</time>
      </trkpt>
      <trkpt lat="48.51761" lon="-3.60309">
        <ele>247</ele>
        <time>2021-07-22T14:34:27.260Z</time>
      </trkpt>
      <trkpt lat="48.51759" lon="-3.60319">
        <ele>247</ele>
        <time>2021-07-22T14:34:32.261Z</time>
      </trkpt>
      <trkpt lat="48.51756" lon="-3.60328">
        <ele>245</ele>
        <time>2021-07-22T14:34:37.274Z</time>
      </trkpt>
      <trkpt lat="48.51754" lon="-3.60337">
        <ele>245</ele>
        <time>2021-07-22T14:34:42.273Z</time>
      </trkpt>
      <trkpt lat="48.51753" lon="-3.60346">
        <ele>245</ele>
        <time>2021-07-22T14:34:47.270Z</time>
      </trkpt>
      <trkpt lat="48.5175" lon="-3.60356">
        <ele>245</ele>
        <time>2021-07-22T14:34:52.267Z</time>
      </trkpt>
      <trkpt lat="48.5175" lon="-3.60366">
        <ele>245</ele>
        <time>2021-07-22T14:34:57.266Z</time>
      </trkpt>
      <trkpt lat="48.51748" lon="-3.60376">
        <ele>244</ele>
        <time>2021-07-22T14:35:02.259Z</time>
      </trkpt>
      <trkpt lat="48.51748" lon="-3.60387">
        <ele>244</ele>
        <time>2021-07-22T14:35:07.256Z</time>
      </trkpt>
      <trkpt lat="48.51748" lon="-3.60396">
        <ele>244</ele>
        <time>2021-07-22T14:35:12.255Z</time>
      </trkpt>
      <trkpt lat="48.51747" lon="-3.60406">
        <ele>244</ele>
        <time>2021-07-22T14:35:17.253Z</time>
      </trkpt>
      <trkpt lat="48.51748" lon="-3.60413">
        <ele>244</ele>
        <time>2021-07-22T14:35:21.254Z</time>
      </trkpt>
      <trkpt lat="48.51749" lon="-3.60422">
        <ele>244</ele>
        <time>2021-07-22T14:35:26.252Z</time>
      </trkpt>
      <trkpt lat="48.51749" lon="-3.60429">
        <ele>244</ele>
        <time>2021-07-22T14:35:30.275Z</time>
      </trkpt>
      <trkpt lat="48.51751" lon="-3.60436">
        <ele>245</ele>
        <time>2021-07-22T14:35:34.258Z</time>
      </trkpt>
      <trkpt lat="48.51753" lon="-3.60445">
        <ele>245</ele>
        <time>2021-07-22T14:35:39.255Z</time>
      </trkpt>
      <trkpt lat="48.51754" lon="-3.60454">
        <ele>245</ele>
        <time>2021-07-22T14:35:44.242Z</time>
      </trkpt>
      <trkpt lat="48.51756" lon="-3.60462">
        <ele>246</ele>
        <time>2021-07-22T14:35:48.253Z</time>
      </trkpt>
      <trkpt lat="48.51758" lon="-3.6047">
        <ele>246</ele>
        <time>2021-07-22T14:35:53.259Z</time>
      </trkpt>
      <trkpt lat="48.51761" lon="-3.60479">
        <ele>246</ele>
        <time>2021-07-22T14:35:58.273Z</time>
      </trkpt>
      <trkpt lat="48.51762" lon="-3.60487">
        <ele>247</ele>
        <time>2021-07-22T14:36:03.266Z</time>
      </trkpt>
      <trkpt lat="48.51763" lon="-3.60497">
        <ele>247</ele>
        <time>2021-07-22T14:36:08.268Z</time>
      </trkpt>
      <trkpt lat="48.51765" lon="-3.60505">
        <ele>247</ele>
        <time>2021-07-22T14:36:13.268Z</time>
      </trkpt>
      <trkpt lat="48.51765" lon="-3.60514">
        <ele>247</ele>
        <time>2021-07-22T14:36:18.277Z</time>
      </trkpt>
      <trkpt lat="48.51765" lon="-3.60522">
        <ele>248</ele>
        <time>2021-07-22T14:36:23.267Z</time>
      </trkpt>
      <trkpt lat="48.51766" lon="-3.60531">
        <ele>248</ele>
        <time>2021-07-22T14:36:28.256Z</time>
      </trkpt>
      <trkpt lat="48.51768" lon="-3.6054">
        <ele>248</ele>
        <time>2021-07-22T14:36:33.259Z</time>
      </trkpt>
      <trkpt lat="48.51769" lon="-3.60548">
        <ele>249</ele>
        <time>2021-07-22T14:36:38.248Z</time>
      </trkpt>
      <trkpt lat="48.51769" lon="-3.60556">
        <ele>249</ele>
        <time>2021-07-22T14:36:42.254Z</time>
      </trkpt>
      <trkpt lat="48.51769" lon="-3.60564">
        <ele>249</ele>
        <time>2021-07-22T14:36:47.267Z</time>
      </trkpt>
      <trkpt lat="48.5177" lon="-3.60571">
        <ele>252</ele>
        <time>2021-07-22T14:36:52.258Z</time>
      </trkpt>
      <trkpt lat="48.51771" lon="-3.6058">
        <ele>252</ele>
        <time>2021-07-22T14:36:57.250Z</time>
      </trkpt>
      <trkpt lat="48.51772" lon="-3.60587">
        <ele>252</ele>
        <time>2021-07-22T14:37:02.256Z</time>
      </trkpt>
      <trkpt lat="48.51773" lon="-3.60596">
        <ele>252</ele>
        <time>2021-07-22T14:37:07.271Z</time>
      </trkpt>
      <trkpt lat="48.51774" lon="-3.60604">
        <ele>253</ele>
        <time>2021-07-22T14:37:12.250Z</time>
      </trkpt>
      <trkpt lat="48.51775" lon="-3.60613">
        <ele>253</ele>
        <time>2021-07-22T14:37:17.246Z</time>
      </trkpt>
      <trkpt lat="48.51777" lon="-3.60621">
        <ele>253</ele>
        <time>2021-07-22T14:37:22.263Z</time>
      </trkpt>
      <trkpt lat="48.51781" lon="-3.60629">
        <ele>254</ele>
        <time>2021-07-22T14:37:27.244Z</time>
      </trkpt>
      <trkpt lat="48.51782" lon="-3.60637">
        <ele>254</ele>
        <time>2021-07-22T14:37:32.273Z</time>
      </trkpt>
      <trkpt lat="48.51784" lon="-3.60645">
        <ele>254</ele>
        <time>2021-07-22T14:37:37.259Z</time>
      </trkpt>
      <trkpt lat="48.51785" lon="-3.60653">
        <ele>254</ele>
        <time>2021-07-22T14:37:42.270Z</time>
      </trkpt>
      <trkpt lat="48.51785" lon="-3.60663">
        <ele>253</ele>
        <time>2021-07-22T14:37:47.254Z</time>
      </trkpt>
      <trkpt lat="48.51787" lon="-3.60673">
        <ele>253</ele>
        <time>2021-07-22T14:37:52.251Z</time>
      </trkpt>
      <trkpt lat="48.5179" lon="-3.60681">
        <ele>253</ele>
        <time>2021-07-22T14:37:57.249Z</time>
      </trkpt>
      <trkpt lat="48.51792" lon="-3.6069">
        <ele>252</ele>
        <time>2021-07-22T14:38:02.265Z</time>
      </trkpt>
      <trkpt lat="48.51794" lon="-3.60699">
        <ele>252</ele>
        <time>2021-07-22T14:38:07.248Z</time>
      </trkpt>
      <trkpt lat="48.51796" lon="-3.60708">
        <ele>252</ele>
        <time>2021-07-22T14:38:12.248Z</time>
      </trkpt>
      <trkpt lat="48.51797" lon="-3.60716">
        <ele>251</ele>
        <time>2021-07-22T14:38:17.275Z</time>
      </trkpt>
      <trkpt lat="48.518" lon="-3.60724">
        <ele>251</ele>
        <time>2021-07-22T14:38:22.267Z</time>
      </trkpt>
      <trkpt lat="48.51801" lon="-3.60732">
        <ele>251</ele>
        <time>2021-07-22T14:38:26.262Z</time>
      </trkpt>
      <trkpt lat="48.51802" lon="-3.60741">
        <ele>250</ele>
        <time>2021-07-22T14:38:31.271Z</time>
      </trkpt>
      <trkpt lat="48.51803" lon="-3.60751">
        <ele>250</ele>
        <time>2021-07-22T14:38:36.270Z</time>
      </trkpt>
      <trkpt lat="48.51805" lon="-3.60761">
        <ele>250</ele>
        <time>2021-07-22T14:38:41.269Z</time>
      </trkpt>
      <trkpt lat="48.51806" lon="-3.60771">
        <ele>250</ele>
        <time>2021-07-22T14:38:46.251Z</time>
      </trkpt>
      <trkpt lat="48.51809" lon="-3.6078">
        <ele>250</ele>
        <time>2021-07-22T14:38:51.250Z</time>
      </trkpt>
      <trkpt lat="48.51809" lon="-3.60789">
        <ele>250</ele>
        <time>2021-07-22T14:38:56.256Z</time>
      </trkpt>
      <trkpt lat="48.5181" lon="-3.60794">
        <ele>249</ele>
        <time>2021-07-22T14:39:00.250Z</time>
      </trkpt>
      <trkpt lat="48.51809" lon="-3.60803">
        <ele>249</ele>
        <time>2021-07-22T14:39:05.265Z</time>
      </trkpt>
      <trkpt lat="48.51809" lon="-3.60812">
        <ele>249</ele>
        <time>2021-07-22T14:39:10.251Z</time>
      </trkpt>
      <trkpt lat="48.51808" lon="-3.60824">
        <ele>247</ele>
        <time>2021-07-22T14:39:15.259Z</time>
      </trkpt>
      <trkpt lat="48.51806" lon="-3.60836">
        <ele>247</ele>
        <time>2021-07-22T14:39:20.250Z</time>
      </trkpt>
      <trkpt lat="48.51807" lon="-3.60846">
        <ele>247</ele>
        <time>2021-07-22T14:39:25.257Z</time>
      </trkpt>
      <trkpt lat="48.51806" lon="-3.60853">
        <ele>246</ele>
        <time>2021-07-22T14:39:29.281Z</time>
      </trkpt>
      <trkpt lat="48.51805" lon="-3.60863">
        <ele>246</ele>
        <time>2021-07-22T14:39:34.279Z</time>
      </trkpt>
      <trkpt lat="48.51805" lon="-3.60872">
        <ele>246</ele>
        <time>2021-07-22T14:39:38.257Z</time>
      </trkpt>
      <trkpt lat="48.51804" lon="-3.60882">
        <ele>244</ele>
        <time>2021-07-22T14:39:43.280Z</time>
      </trkpt>
      <trkpt lat="48.51804" lon="-3.6089">
        <ele>244</ele>
        <time>2021-07-22T14:39:48.280Z</time>
      </trkpt>
      <trkpt lat="48.51804" lon="-3.60898">
        <ele>244</ele>
        <time>2021-07-22T14:39:53.265Z</time>
      </trkpt>
      <trkpt lat="48.51804" lon="-3.60907">
        <ele>241</ele>
        <time>2021-07-22T14:39:58.255Z</time>
      </trkpt>
      <trkpt lat="48.51805" lon="-3.60917">
        <ele>241</ele>
        <time>2021-07-22T14:40:03.265Z</time>
      </trkpt>
      <trkpt lat="48.51807" lon="-3.60928">
        <ele>241</ele>
        <time>2021-07-22T14:40:08.255Z</time>
      </trkpt>
      <trkpt lat="48.51808" lon="-3.60935">
        <ele>240</ele>
        <time>2021-07-22T14:40:13.247Z</time>
      </trkpt>
      <trkpt lat="48.51809" lon="-3.60946">
        <ele>240</ele>
        <time>2021-07-22T14:40:18.252Z</time>
      </trkpt>
      <trkpt lat="48.5181" lon="-3.60955">
        <ele>240</ele>
        <time>2021-07-22T14:40:23.254Z</time>
      </trkpt>
      <trkpt lat="48.5181" lon="-3.60967">
        <ele>239</ele>
        <time>2021-07-22T14:40:28.249Z</time>
      </trkpt>
      <trkpt lat="48.5181" lon="-3.60979">
        <ele>239</ele>
        <time>2021-07-22T14:40:33.261Z</time>
      </trkpt>
      <trkpt lat="48.51808" lon="-3.60988">
        <ele>239</ele>
        <time>2021-07-22T14:40:38.255Z</time>
      </trkpt>
      <trkpt lat="48.51805" lon="-3.60993">
        <ele>239</ele>
        <time>2021-07-22T14:40:42.267Z</time>
      </trkpt>
      <trkpt lat="48.51803" lon="-3.61">
        <ele>239</ele>
        <time>2021-07-22T14:40:46.258Z</time>
      </trkpt>
      <trkpt lat="48.51799" lon="-3.61008">
        <ele>239</ele>
        <time>2021-07-22T14:40:51.244Z</time>
      </trkpt>
      <trkpt lat="48.51797" lon="-3.61015">
        <ele>239</ele>
        <time>2021-07-22T14:40:56.270Z</time>
      </trkpt>
      <trkpt lat="48.51793" lon="-3.61021">
        <ele>239</ele>
        <time>2021-07-22T14:41:01.243Z</time>
      </trkpt>
      <trkpt lat="48.5179" lon="-3.6103">
        <ele>236</ele>
        <time>2021-07-22T14:41:06.251Z</time>
      </trkpt>
      <trkpt lat="48.51786" lon="-3.61038">
        <ele>236</ele>
        <time>2021-07-22T14:41:11.249Z</time>
      </trkpt>
      <trkpt lat="48.51783" lon="-3.61045">
        <ele>235</ele>
        <time>2021-07-22T14:41:16.251Z</time>
      </trkpt>
      <trkpt lat="48.51779" lon="-3.61051">
        <ele>235</ele>
        <time>2021-07-22T14:41:21.243Z</time>
      </trkpt>
      <trkpt lat="48.51778" lon="-3.61056">
        <ele>235</ele>
        <time>2021-07-22T14:41:25.251Z</time>
      </trkpt>
      <trkpt lat="48.51774" lon="-3.61062">
        <ele>235</ele>
        <time>2021-07-22T14:41:30.258Z</time>
      </trkpt>
      <trkpt lat="48.51771" lon="-3.61069">
        <ele>235</ele>
        <time>2021-07-22T14:41:35.252Z</time>
      </trkpt>
      <trkpt lat="48.51768" lon="-3.61077">
        <ele>236</ele>
        <time>2021-07-22T14:41:40.254Z</time>
      </trkpt>
      <trkpt lat="48.51766" lon="-3.61084">
        <ele>236</ele>
        <time>2021-07-22T14:41:45.253Z</time>
      </trkpt>
      <trkpt lat="48.51764" lon="-3.61091">
        <ele>236</ele>
        <time>2021-07-22T14:41:50.256Z</time>
      </trkpt>
      <trkpt lat="48.51763" lon="-3.61098">
        <ele>235</ele>
        <time>2021-07-22T14:41:54.279Z</time>
      </trkpt>
      <trkpt lat="48.51762" lon="-3.61104">
        <ele>235</ele>
        <time>2021-07-22T14:41:59.268Z</time>
      </trkpt>
      <trkpt lat="48.5176" lon="-3.6111">
        <ele>235</ele>
        <time>2021-07-22T14:42:04.254Z</time>
      </trkpt>
      <trkpt lat="48.51757" lon="-3.61114">
        <ele>235</ele>
        <time>2021-07-22T14:42:09.267Z</time>
      </trkpt>
      <trkpt lat="48.51757" lon="-3.61119">
        <ele>235</ele>
        <time>2021-07-22T14:42:14.249Z</time>
      </trkpt>
      <trkpt lat="48.51755" lon="-3.61125">
        <ele>235</ele>
        <time>2021-07-22T14:42:19.248Z</time>
      </trkpt>
      <trkpt lat="48.51754" lon="-3.6113">
        <ele>239</ele>
        <time>2021-07-22T14:42:24.249Z</time>
      </trkpt>
      <trkpt lat="48.5175" lon="-3.61137">
        <ele>239</ele>
        <time>2021-07-22T14:42:29.244Z</time>
      </trkpt>
      <trkpt lat="48.51747" lon="-3.61145">
        <ele>239</ele>
        <time>2021-07-22T14:42:34.266Z</time>
      </trkpt>
      <trkpt lat="48.51743" lon="-3.61149">
        <ele>239</ele>
        <time>2021-07-22T14:42:39.243Z</time>
      </trkpt>
      <trkpt lat="48.51741" lon="-3.61152">
        <ele>239</ele>
        <time>2021-07-22T14:42:43.247Z</time>
      </trkpt>
      <trkpt lat="48.51737" lon="-3.61152">
        <ele>239</ele>
        <time>2021-07-22T14:42:47.247Z</time>
      </trkpt>
      <trkpt lat="48.51733" lon="-3.6116">
        <ele>240</ele>
        <time>2021-07-22T14:42:52.241Z</time>
      </trkpt>
      <trkpt lat="48.51731" lon="-3.61166">
        <ele>240</ele>
        <time>2021-07-22T14:42:57.258Z</time>
      </trkpt>
      <trkpt lat="48.5173" lon="-3.6117">
        <ele>240</ele>
        <time>2021-07-22T14:43:02.266Z</time>
      </trkpt>
      <trkpt lat="48.5173" lon="-3.61174">
        <ele>240</ele>
        <time>2021-07-22T14:43:07.261Z</time>
      </trkpt>
      <trkpt lat="48.51727" lon="-3.61182">
        <ele>245</ele>
        <time>2021-07-22T14:43:12.257Z</time>
      </trkpt>
      <trkpt lat="48.51724" lon="-3.61187">
        <ele>245</ele>
        <time>2021-07-22T14:43:17.262Z</time>
      </trkpt>
      <trkpt lat="48.51722" lon="-3.61191">
        <ele>245</ele>
        <time>2021-07-22T14:43:22.266Z</time>
      </trkpt>
      <trkpt lat="48.51721" lon="-3.61198">
        <ele>245</ele>
        <time>2021-07-22T14:43:27.244Z</time>
      </trkpt>
      <trkpt lat="48.5172" lon="-3.61205">
        <ele>245</ele>
        <time>2021-07-22T14:43:32.250Z</time>
      </trkpt>
      <trkpt lat="48.5172" lon="-3.61211">
        <ele>246</ele>
        <time>2021-07-22T14:43:37.270Z</time>
      </trkpt>
      <trkpt lat="48.5172" lon="-3.61212">
        <ele>246</ele>
        <time>2021-07-22T14:43:42.245Z</time>
      </trkpt>
      <trkpt lat="48.51721" lon="-3.6122">
        <ele>246</ele>
        <time>2021-07-22T14:43:47.257Z</time>
      </trkpt>
      <trkpt lat="48.51722" lon="-3.61226">
        <ele>246</ele>
        <time>2021-07-22T14:43:52.271Z</time>
      </trkpt>
      <trkpt lat="48.51723" lon="-3.61234">
        <ele>246</ele>
        <time>2021-07-22T14:43:57.252Z</time>
      </trkpt>
      <trkpt lat="48.51712" lon="-3.61268">
        <ele>245</ele>
        <time>2021-07-22T14:45:09.245Z</time>
      </trkpt>
      <trkpt lat="48.51712" lon="-3.61268">
        <ele>245</ele>
        <time>2021-07-22T14:45:14.258Z</time>
      </trkpt>
      <trkpt lat="48.51713" lon="-3.61268">
        <ele>245</ele>
        <time>2021-07-22T14:45:19.267Z</time>
      </trkpt>
      <trkpt lat="48.51712" lon="-3.61268">
        <ele>245</ele>
        <time>2021-07-22T14:45:28.248Z</time>
      </trkpt>
      <trkpt lat="48.51711" lon="-3.6127">
        <ele>245</ele>
        <time>2021-07-22T14:45:33.262Z</time>
      </trkpt>
      <trkpt lat="48.51711" lon="-3.61273">
        <ele>245</ele>
        <time>2021-07-22T14:45:43.258Z</time>
      </trkpt>
      <trkpt lat="48.5171" lon="-3.61273">
        <ele>245</ele>
        <time>2021-07-22T14:45:48.246Z</time>
      </trkpt>
      <trkpt lat="48.51711" lon="-3.61276">
        <ele>245</ele>
        <time>2021-07-22T14:45:52.266Z</time>
      </trkpt>
      <trkpt lat="48.51712" lon="-3.61285">
        <ele>245</ele>
        <time>2021-07-22T14:45:57.262Z</time>
      </trkpt>
      <trkpt lat="48.51714" lon="-3.61289">
        <ele>245</ele>
        <time>2021-07-22T14:46:02.246Z</time>
      </trkpt>
      <trkpt lat="48.51714" lon="-3.61287">
        <ele>245</ele>
        <time>2021-07-22T14:46:37.257Z</time>
      </trkpt>
      <trkpt lat="48.51716" lon="-3.61285">
        <ele>245</ele>
        <time>2021-07-22T14:46:41.258Z</time>
      </trkpt>
      <trkpt lat="48.51718" lon="-3.61289">
        <ele>245</ele>
        <time>2021-07-22T14:46:51.247Z</time>
      </trkpt>
      <trkpt lat="48.5172" lon="-3.61297">
        <ele>243</ele>
        <time>2021-07-22T14:46:56.263Z</time>
      </trkpt>
      <trkpt lat="48.5172" lon="-3.61301">
        <ele>243</ele>
        <time>2021-07-22T14:47:01.242Z</time>
      </trkpt>
      <trkpt lat="48.5172" lon="-3.61302">
        <ele>243</ele>
        <time>2021-07-22T14:47:06.242Z</time>
      </trkpt>
      <trkpt lat="48.51721" lon="-3.61305">
        <ele>243</ele>
        <time>2021-07-22T14:47:11.238Z</time>
      </trkpt>
      <trkpt lat="48.51723" lon="-3.6131">
        <ele>243</ele>
        <time>2021-07-22T14:47:16.243Z</time>
      </trkpt>
      <trkpt lat="48.51724" lon="-3.61318">
        <ele>243</ele>
        <time>2021-07-22T14:47:21.240Z</time>
      </trkpt>
      <trkpt lat="48.51727" lon="-3.61325">
        <ele>238</ele>
        <time>2021-07-22T14:47:26.244Z</time>
      </trkpt>
      <trkpt lat="48.51728" lon="-3.61331">
        <ele>238</ele>
        <time>2021-07-22T14:47:31.258Z</time>
      </trkpt>
      <trkpt lat="48.5173" lon="-3.61338">
        <ele>238</ele>
        <time>2021-07-22T14:47:36.248Z</time>
      </trkpt>
      <trkpt lat="48.51733" lon="-3.61345">
        <ele>238</ele>
        <time>2021-07-22T14:47:41.245Z</time>
      </trkpt>
      <trkpt lat="48.51737" lon="-3.6135">
        <ele>237</ele>
        <time>2021-07-22T14:47:46.243Z</time>
      </trkpt>
      <trkpt lat="48.51742" lon="-3.61355">
        <ele>237</ele>
        <time>2021-07-22T14:47:51.241Z</time>
      </trkpt>
      <trkpt lat="48.51745" lon="-3.6136">
        <ele>237</ele>
        <time>2021-07-22T14:47:56.258Z</time>
      </trkpt>
      <trkpt lat="48.51751" lon="-3.61362">
        <ele>237</ele>
        <time>2021-07-22T14:48:01.245Z</time>
      </trkpt>
      <trkpt lat="48.51755" lon="-3.61367">
        <ele>237</ele>
        <time>2021-07-22T14:48:05.274Z</time>
      </trkpt>
      <trkpt lat="48.51759" lon="-3.61371">
        <ele>237</ele>
        <time>2021-07-22T14:48:10.262Z</time>
      </trkpt>
      <trkpt lat="48.5176" lon="-3.61377">
        <ele>232</ele>
        <time>2021-07-22T14:48:15.273Z</time>
      </trkpt>
      <trkpt lat="48.51765" lon="-3.6138">
        <ele>236</ele>
        <time>2021-07-22T14:48:20.242Z</time>
      </trkpt>
      <trkpt lat="48.51767" lon="-3.6138">
        <ele>236</ele>
        <time>2021-07-22T14:48:25.257Z</time>
      </trkpt>
      <trkpt lat="48.51769" lon="-3.61383">
        <ele>236</ele>
        <time>2021-07-22T14:48:30.246Z</time>
      </trkpt>
      <trkpt lat="48.51773" lon="-3.61382">
        <ele>236</ele>
        <time>2021-07-22T14:48:35.249Z</time>
      </trkpt>
      <trkpt lat="48.51775" lon="-3.61384">
        <ele>236</ele>
        <time>2021-07-22T14:48:40.246Z</time>
      </trkpt>
      <trkpt lat="48.5178" lon="-3.61386">
        <ele>236</ele>
        <time>2021-07-22T14:48:44.248Z</time>
      </trkpt>
      <trkpt lat="48.51784" lon="-3.61386">
        <ele>236</ele>
        <time>2021-07-22T14:48:49.245Z</time>
      </trkpt>
      <trkpt lat="48.51789" lon="-3.61385">
        <ele>236</ele>
        <time>2021-07-22T14:48:54.245Z</time>
      </trkpt>
      <trkpt lat="48.51793" lon="-3.61389">
        <ele>238</ele>
        <time>2021-07-22T14:48:59.254Z</time>
      </trkpt>
      <trkpt lat="48.518" lon="-3.61388">
        <ele>238</ele>
        <time>2021-07-22T14:49:04.245Z</time>
      </trkpt>
      <trkpt lat="48.51804" lon="-3.61383">
        <ele>238</ele>
        <time>2021-07-22T14:49:09.270Z</time>
      </trkpt>
      <trkpt lat="48.51806" lon="-3.6138">
        <ele>238</ele>
        <time>2021-07-22T14:49:14.257Z</time>
      </trkpt>
      <trkpt lat="48.51816" lon="-3.6138">
        <ele>238</ele>
        <time>2021-07-22T14:49:19.259Z</time>
      </trkpt>
      <trkpt lat="48.51823" lon="-3.61382">
        <ele>238</ele>
        <time>2021-07-22T14:49:24.268Z</time>
      </trkpt>
      <trkpt lat="48.51828" lon="-3.61381">
        <ele>238</ele>
        <time>2021-07-22T14:49:29.255Z</time>
      </trkpt>
      <trkpt lat="48.51833" lon="-3.61385">
        <ele>238</ele>
        <time>2021-07-22T14:49:34.246Z</time>
      </trkpt>
      <trkpt lat="48.51839" lon="-3.61387">
        <ele>238</ele>
        <time>2021-07-22T14:49:39.244Z</time>
      </trkpt>
      <trkpt lat="48.51841" lon="-3.61386">
        <ele>238</ele>
        <time>2021-07-22T14:49:43.246Z</time>
      </trkpt>
      <trkpt lat="48.51846" lon="-3.61389">
        <ele>238</ele>
        <time>2021-07-22T14:49:48.246Z</time>
      </trkpt>
      <trkpt lat="48.51853" lon="-3.61392">
        <ele>237</ele>
        <time>2021-07-22T14:49:53.243Z</time>
      </trkpt>
      <trkpt lat="48.51861" lon="-3.61392">
        <ele>237</ele>
        <time>2021-07-22T14:49:58.245Z</time>
      </trkpt>
      <trkpt lat="48.51867" lon="-3.61394">
        <ele>237</ele>
        <time>2021-07-22T14:50:03.249Z</time>
      </trkpt>
      <trkpt lat="48.51871" lon="-3.61395">
        <ele>237</ele>
        <time>2021-07-22T14:50:08.258Z</time>
      </trkpt>
      <trkpt lat="48.51874" lon="-3.61398">
        <ele>237</ele>
        <time>2021-07-22T14:50:12.271Z</time>
      </trkpt>
      <trkpt lat="48.51879" lon="-3.614">
        <ele>235</ele>
        <time>2021-07-22T14:50:17.280Z</time>
      </trkpt>
      <trkpt lat="48.51883" lon="-3.61404">
        <ele>230</ele>
        <time>2021-07-22T14:50:21.277Z</time>
      </trkpt>
      <trkpt lat="48.51885" lon="-3.61408">
        <ele>230</ele>
        <time>2021-07-22T14:50:26.240Z</time>
      </trkpt>
      <trkpt lat="48.51888" lon="-3.61411">
        <ele>230</ele>
        <time>2021-07-22T14:50:30.271Z</time>
      </trkpt>
      <trkpt lat="48.5189" lon="-3.61414">
        <ele>230</ele>
        <time>2021-07-22T14:50:35.264Z</time>
      </trkpt>
      <trkpt lat="48.51895" lon="-3.61415">
        <ele>230</ele>
        <time>2021-07-22T14:50:40.256Z</time>
      </trkpt>
      <trkpt lat="48.51899" lon="-3.6142">
        <ele>230</ele>
        <time>2021-07-22T14:50:45.246Z</time>
      </trkpt>
      <trkpt lat="48.51903" lon="-3.61424">
        <ele>228</ele>
        <time>2021-07-22T14:50:50.245Z</time>
      </trkpt>
      <trkpt lat="48.51908" lon="-3.61429">
        <ele>228</ele>
        <time>2021-07-22T14:50:55.247Z</time>
      </trkpt>
      <trkpt lat="48.51914" lon="-3.61433">
        <ele>223</ele>
        <time>2021-07-22T14:51:00.246Z</time>
      </trkpt>
      <trkpt lat="48.51919" lon="-3.61435">
        <ele>223</ele>
        <time>2021-07-22T14:51:05.246Z</time>
      </trkpt>
      <trkpt lat="48.51922" lon="-3.61437">
        <ele>223</ele>
        <time>2021-07-22T14:51:10.243Z</time>
      </trkpt>
      <trkpt lat="48.51924" lon="-3.6144">
        <ele>223</ele>
        <time>2021-07-22T14:51:15.257Z</time>
      </trkpt>
      <trkpt lat="48.51927" lon="-3.61445">
        <ele>223</ele>
        <time>2021-07-22T14:51:20.260Z</time>
      </trkpt>
      <trkpt lat="48.51929" lon="-3.61448">
        <ele>223</ele>
        <time>2021-07-22T14:51:25.270Z</time>
      </trkpt>
      <trkpt lat="48.51934" lon="-3.61452">
        <ele>224</ele>
        <time>2021-07-22T14:51:30.261Z</time>
      </trkpt>
      <trkpt lat="48.51935" lon="-3.61457">
        <ele>224</ele>
        <time>2021-07-22T14:51:35.262Z</time>
      </trkpt>
      <trkpt lat="48.51936" lon="-3.61458">
        <ele>224</ele>
        <time>2021-07-22T14:51:40.243Z</time>
      </trkpt>
      <trkpt lat="48.51939" lon="-3.61461">
        <ele>217</ele>
        <time>2021-07-22T14:51:45.247Z</time>
      </trkpt>
      <trkpt lat="48.51941" lon="-3.61466">
        <ele>217</ele>
        <time>2021-07-22T14:51:50.245Z</time>
      </trkpt>
      <trkpt lat="48.51944" lon="-3.61472">
        <ele>217</ele>
        <time>2021-07-22T14:51:55.271Z</time>
      </trkpt>
      <trkpt lat="48.51946" lon="-3.61474">
        <ele>217</ele>
        <time>2021-07-22T14:52:00.255Z</time>
      </trkpt>
      <trkpt lat="48.51946" lon="-3.61481">
        <ele>217</ele>
        <time>2021-07-22T14:52:05.250Z</time>
      </trkpt>
      <trkpt lat="48.51947" lon="-3.6149">
        <ele>210</ele>
        <time>2021-07-22T14:52:10.240Z</time>
      </trkpt>
      <trkpt lat="48.5195" lon="-3.61497">
        <ele>210</ele>
        <time>2021-07-22T14:52:15.251Z</time>
      </trkpt>
      <trkpt lat="48.51951" lon="-3.61499">
        <ele>210</ele>
        <time>2021-07-22T14:52:20.247Z</time>
      </trkpt>
      <trkpt lat="48.51954" lon="-3.61502">
        <ele>210</ele>
        <time>2021-07-22T14:52:25.247Z</time>
      </trkpt>
      <trkpt lat="48.51956" lon="-3.6151">
        <ele>210</ele>
        <time>2021-07-22T14:52:30.245Z</time>
      </trkpt>
      <trkpt lat="48.51956" lon="-3.61511">
        <ele>210</ele>
        <time>2021-07-22T14:52:35.270Z</time>
      </trkpt>
      <trkpt lat="48.51955" lon="-3.61518">
        <ele>205</ele>
        <time>2021-07-22T14:52:40.255Z</time>
      </trkpt>
      <trkpt lat="48.51956" lon="-3.61523">
        <ele>205</ele>
        <time>2021-07-22T14:52:44.267Z</time>
      </trkpt>
      <trkpt lat="48.51957" lon="-3.61528">
        <ele>205</ele>
        <time>2021-07-22T14:52:49.247Z</time>
      </trkpt>
      <trkpt lat="48.51957" lon="-3.61534">
        <ele>205</ele>
        <time>2021-07-22T14:52:54.274Z</time>
      </trkpt>
      <trkpt lat="48.51952" lon="-3.61537">
        <ele>205</ele>
        <time>2021-07-22T14:52:59.253Z</time>
      </trkpt>
      <trkpt lat="48.51949" lon="-3.61536">
        <ele>205</ele>
        <time>2021-07-22T14:53:03.250Z</time>
      </trkpt>
      <trkpt lat="48.51947" lon="-3.61534">
        <ele>205</ele>
        <time>2021-07-22T14:53:08.251Z</time>
      </trkpt>
      <trkpt lat="48.51941" lon="-3.61537">
        <ele>205</ele>
        <time>2021-07-22T14:53:13.247Z</time>
      </trkpt>
      <trkpt lat="48.51938" lon="-3.61541">
        <ele>205</ele>
        <time>2021-07-22T14:53:18.244Z</time>
      </trkpt>
      <trkpt lat="48.51933" lon="-3.61545">
        <ele>199</ele>
        <time>2021-07-22T14:53:23.255Z</time>
      </trkpt>
      <trkpt lat="48.5193" lon="-3.61544">
        <ele>200</ele>
        <time>2021-07-22T14:53:28.260Z</time>
      </trkpt>
      <trkpt lat="48.51924" lon="-3.61546">
        <ele>200</ele>
        <time>2021-07-22T14:53:33.271Z</time>
      </trkpt>
      <trkpt lat="48.51918" lon="-3.61549">
        <ele>200</ele>
        <time>2021-07-22T14:53:38.252Z</time>
      </trkpt>
      <trkpt lat="48.51911" lon="-3.6155">
        <ele>200</ele>
        <time>2021-07-22T14:53:43.243Z</time>
      </trkpt>
      <trkpt lat="48.51885" lon="-3.61575">
        <ele>196</ele>
        <time>2021-07-22T14:53:49.263Z</time>
      </trkpt>
      <trkpt lat="48.51881" lon="-3.6157">
        <ele>196</ele>
        <time>2021-07-22T14:53:54.268Z</time>
      </trkpt>
      <trkpt lat="48.51878" lon="-3.6157">
        <ele>196</ele>
        <time>2021-07-22T14:53:59.265Z</time>
      </trkpt>
      <trkpt lat="48.51875" lon="-3.61569">
        <ele>202</ele>
        <time>2021-07-22T14:54:04.274Z</time>
      </trkpt>
      <trkpt lat="48.51871" lon="-3.6157">
        <ele>197</ele>
        <time>2021-07-22T14:54:09.275Z</time>
      </trkpt>
      <trkpt lat="48.51865" lon="-3.61573">
        <ele>197</ele>
        <time>2021-07-22T14:54:14.266Z</time>
      </trkpt>
      <trkpt lat="48.51896" lon="-3.6158">
        <ele>196</ele>
        <time>2021-07-22T14:54:19.248Z</time>
      </trkpt>
      <trkpt lat="48.51859" lon="-3.61578">
        <ele>197</ele>
        <time>2021-07-22T14:54:23.253Z</time>
      </trkpt>
      <trkpt lat="48.5185" lon="-3.6158">
        <ele>197</ele>
        <time>2021-07-22T14:54:28.240Z</time>
      </trkpt>
      <trkpt lat="48.51846" lon="-3.6158">
        <ele>195</ele>
        <time>2021-07-22T14:54:33.246Z</time>
      </trkpt>
      <trkpt lat="48.51842" lon="-3.61588">
        <ele>195</ele>
        <time>2021-07-22T14:54:38.244Z</time>
      </trkpt>
      <trkpt lat="48.51837" lon="-3.61592">
        <ele>195</ele>
        <time>2021-07-22T14:54:43.245Z</time>
      </trkpt>
      <trkpt lat="48.51833" lon="-3.61594">
        <ele>195</ele>
        <time>2021-07-22T14:54:48.245Z</time>
      </trkpt>
      <trkpt lat="48.51829" lon="-3.61598">
        <ele>191</ele>
        <time>2021-07-22T14:54:53.245Z</time>
      </trkpt>
      <trkpt lat="48.51826" lon="-3.61602">
        <ele>191</ele>
        <time>2021-07-22T14:54:58.251Z</time>
      </trkpt>
      <trkpt lat="48.51822" lon="-3.61607">
        <ele>191</ele>
        <time>2021-07-22T14:55:13.262Z</time>
      </trkpt>
      <trkpt lat="48.51822" lon="-3.61608">
        <ele>191</ele>
        <time>2021-07-22T14:55:18.268Z</time>
      </trkpt>
      <trkpt lat="48.51818" lon="-3.61609">
        <ele>191</ele>
        <time>2021-07-22T14:55:23.244Z</time>
      </trkpt>
      <trkpt lat="48.51817" lon="-3.6161">
        <ele>191</ele>
        <time>2021-07-22T14:55:27.265Z</time>
      </trkpt>
      <trkpt lat="48.51813" lon="-3.61607">
        <ele>191</ele>
        <time>2021-07-22T14:55:32.247Z</time>
      </trkpt>
      <trkpt lat="48.51814" lon="-3.6161">
        <ele>191</ele>
        <time>2021-07-22T14:55:37.253Z</time>
      </trkpt>
      <trkpt lat="48.51817" lon="-3.61611">
        <ele>191</ele>
        <time>2021-07-22T14:55:42.271Z</time>
      </trkpt>
      <trkpt lat="48.51819" lon="-3.61611">
        <ele>191</ele>
        <time>2021-07-22T14:55:47.243Z</time>
      </trkpt>
      <trkpt lat="48.51819" lon="-3.61611">
        <ele>191</ele>
        <time>2021-07-22T14:55:52.243Z</time>
      </trkpt>
      <trkpt lat="48.51838" lon="-3.61649">
        <ele>188</ele>
        <time>2021-07-22T14:56:07.244Z</time>
      </trkpt>
      <trkpt lat="48.51828" lon="-3.61675">
        <ele>186</ele>
        <time>2021-07-22T14:56:12.240Z</time>
      </trkpt>
      <trkpt lat="48.51829" lon="-3.61632">
        <ele>188</ele>
        <time>2021-07-22T14:56:17.255Z</time>
      </trkpt>
      <trkpt lat="48.51821" lon="-3.61619">
        <ele>191</ele>
        <time>2021-07-22T14:56:22.245Z</time>
      </trkpt>
      <trkpt lat="48.51816" lon="-3.6162">
        <ele>191</ele>
        <time>2021-07-22T14:56:27.270Z</time>
      </trkpt>
      <trkpt lat="48.51823" lon="-3.61614">
        <ele>191</ele>
        <time>2021-07-22T14:57:10.237Z</time>
      </trkpt>
      <trkpt lat="48.51825" lon="-3.61619">
        <ele>191</ele>
        <time>2021-07-22T14:57:15.242Z</time>
      </trkpt>
      <trkpt lat="48.51825" lon="-3.61617">
        <ele>191</ele>
        <time>2021-07-22T14:57:20.262Z</time>
      </trkpt>
      <trkpt lat="48.51828" lon="-3.61622">
        <ele>191</ele>
        <time>2021-07-22T14:57:25.255Z</time>
      </trkpt>
      <trkpt lat="48.51829" lon="-3.61626">
        <ele>188</ele>
        <time>2021-07-22T14:57:30.259Z</time>
      </trkpt>
      <trkpt lat="48.5182" lon="-3.61625">
        <ele>191</ele>
        <time>2021-07-22T14:58:22.259Z</time>
      </trkpt>
      <trkpt lat="48.51819" lon="-3.61622">
        <ele>191</ele>
        <time>2021-07-22T14:58:27.256Z</time>
      </trkpt>
      <trkpt lat="48.51818" lon="-3.61621">
        <ele>191</ele>
        <time>2021-07-22T14:58:32.244Z</time>
      </trkpt>
      <trkpt lat="48.51817" lon="-3.61619">
        <ele>191</ele>
        <time>2021-07-22T14:58:37.245Z</time>
      </trkpt>
      <trkpt lat="48.51817" lon="-3.61616">
        <ele>191</ele>
        <time>2021-07-22T14:58:41.240Z</time>
      </trkpt>
      <trkpt lat="48.51819" lon="-3.61617">
        <ele>191</ele>
        <time>2021-07-22T14:58:46.239Z</time>
      </trkpt>
      <trkpt lat="48.51818" lon="-3.61625">
        <ele>188</ele>
        <time>2021-07-22T14:58:51.242Z</time>
      </trkpt>
      <trkpt lat="48.51819" lon="-3.61632">
        <ele>188</ele>
        <time>2021-07-22T14:58:56.244Z</time>
      </trkpt>
      <trkpt lat="48.51817" lon="-3.61638">
        <ele>188</ele>
        <time>2021-07-22T14:59:00.240Z</time>
      </trkpt>
      <trkpt lat="48.51814" lon="-3.61646">
        <ele>188</ele>
        <time>2021-07-22T14:59:05.246Z</time>
      </trkpt>
      <trkpt lat="48.51815" lon="-3.61653">
        <ele>185</ele>
        <time>2021-07-22T14:59:10.258Z</time>
      </trkpt>
      <trkpt lat="48.51818" lon="-3.61662">
        <ele>185</ele>
        <time>2021-07-22T14:59:15.255Z</time>
      </trkpt>
      <trkpt lat="48.5182" lon="-3.61672">
        <ele>186</ele>
        <time>2021-07-22T14:59:20.249Z</time>
      </trkpt>
      <trkpt lat="48.51822" lon="-3.61681">
        <ele>182</ele>
        <time>2021-07-22T14:59:25.238Z</time>
      </trkpt>
      <trkpt lat="48.51822" lon="-3.61687">
        <ele>182</ele>
        <time>2021-07-22T14:59:29.263Z</time>
      </trkpt>
      <trkpt lat="48.51823" lon="-3.61696">
        <ele>182</ele>
        <time>2021-07-22T14:59:34.262Z</time>
      </trkpt>
      <trkpt lat="48.51824" lon="-3.61704">
        <ele>182</ele>
        <time>2021-07-22T14:59:39.253Z</time>
      </trkpt>
      <trkpt lat="48.51828" lon="-3.61712">
        <ele>178</ele>
        <time>2021-07-22T14:59:44.239Z</time>
      </trkpt>
      <trkpt lat="48.51831" lon="-3.61716">
        <ele>178</ele>
        <time>2021-07-22T14:59:49.247Z</time>
      </trkpt>
      <trkpt lat="48.51834" lon="-3.61723">
        <ele>178</ele>
        <time>2021-07-22T14:59:54.251Z</time>
      </trkpt>
      <trkpt lat="48.51836" lon="-3.6173">
        <ele>178</ele>
        <time>2021-07-22T14:59:59.242Z</time>
      </trkpt>
      <trkpt lat="48.51837" lon="-3.61738">
        <ele>173</ele>
        <time>2021-07-22T15:00:04.244Z</time>
      </trkpt>
      <trkpt lat="48.5184" lon="-3.61745">
        <ele>173</ele>
        <time>2021-07-22T15:00:09.238Z</time>
      </trkpt>
      <trkpt lat="48.51843" lon="-3.6175">
        <ele>173</ele>
        <time>2021-07-22T15:00:13.250Z</time>
      </trkpt>
      <trkpt lat="48.51847" lon="-3.61759">
        <ele>174</ele>
        <time>2021-07-22T15:00:18.243Z</time>
      </trkpt>
      <trkpt lat="48.51849" lon="-3.61762">
        <ele>174</ele>
        <time>2021-07-22T15:00:23.253Z</time>
      </trkpt>
      <trkpt lat="48.51851" lon="-3.61764">
        <ele>168</ele>
        <time>2021-07-22T15:00:28.262Z</time>
      </trkpt>
      <trkpt lat="48.51852" lon="-3.61773">
        <ele>168</ele>
        <time>2021-07-22T15:00:33.270Z</time>
      </trkpt>
      <trkpt lat="48.51853" lon="-3.61778">
        <ele>168</ele>
        <time>2021-07-22T15:00:38.243Z</time>
      </trkpt>
      <trkpt lat="48.51858" lon="-3.61785">
        <ele>168</ele>
        <time>2021-07-22T15:00:43.259Z</time>
      </trkpt>
      <trkpt lat="48.51861" lon="-3.61792">
        <ele>168</ele>
        <time>2021-07-22T15:00:48.241Z</time>
      </trkpt>
      <trkpt lat="48.51863" lon="-3.61796">
        <ele>167</ele>
        <time>2021-07-22T15:00:53.248Z</time>
      </trkpt>
      <trkpt lat="48.51863" lon="-3.61806">
        <ele>167</ele>
        <time>2021-07-22T15:00:58.249Z</time>
      </trkpt>
      <trkpt lat="48.51865" lon="-3.61814">
        <ele>167</ele>
        <time>2021-07-22T15:01:03.246Z</time>
      </trkpt>
      <trkpt lat="48.51859" lon="-3.61824">
        <ele>168</ele>
        <time>2021-07-22T15:01:08.246Z</time>
      </trkpt>
      <trkpt lat="48.5186" lon="-3.6183">
        <ele>168</ele>
        <time>2021-07-22T15:01:13.236Z</time>
      </trkpt>
      <trkpt lat="48.51856" lon="-3.61833">
        <ele>168</ele>
        <time>2021-07-22T15:01:18.250Z</time>
      </trkpt>
      <trkpt lat="48.51848" lon="-3.6184">
        <ele>168</ele>
        <time>2021-07-22T15:01:42.248Z</time>
      </trkpt>
      <trkpt lat="48.51843" lon="-3.61837">
        <ele>167</ele>
        <time>2021-07-22T15:01:46.236Z</time>
      </trkpt>
      <trkpt lat="48.51838" lon="-3.61835">
        <ele>167</ele>
        <time>2021-07-22T15:01:51.234Z</time>
      </trkpt>
      <trkpt lat="48.51833" lon="-3.61832">
        <ele>167</ele>
        <time>2021-07-22T15:01:55.281Z</time>
      </trkpt>
      <trkpt lat="48.51828" lon="-3.61831">
        <ele>167</ele>
        <time>2021-07-22T15:02:00.237Z</time>
      </trkpt>
      <trkpt lat="48.51825" lon="-3.61834">
        <ele>167</ele>
        <time>2021-07-22T15:02:04.244Z</time>
      </trkpt>
      <trkpt lat="48.51819" lon="-3.61835">
        <ele>167</ele>
        <time>2021-07-22T15:02:09.241Z</time>
      </trkpt>
      <trkpt lat="48.51813" lon="-3.61836">
        <ele>167</ele>
        <time>2021-07-22T15:02:14.252Z</time>
      </trkpt>
      <trkpt lat="48.51809" lon="-3.61836">
        <ele>167</ele>
        <time>2021-07-22T15:02:19.233Z</time>
      </trkpt>
      <trkpt lat="48.51795" lon="-3.61801">
        <ele>166</ele>
        <time>2021-07-22T15:02:33.255Z</time>
      </trkpt>
      <trkpt lat="48.51798" lon="-3.61815">
        <ele>166</ele>
        <time>2021-07-22T15:02:38.236Z</time>
      </trkpt>
      <trkpt lat="48.51794" lon="-3.6186">
        <ele>169</ele>
        <time>2021-07-22T15:02:43.259Z</time>
      </trkpt>
      <trkpt lat="48.51792" lon="-3.61973">
        <ele>177</ele>
        <time>2021-07-22T15:02:48.249Z</time>
      </trkpt>
      <trkpt lat="48.51795" lon="-3.62096">
        <ele>167</ele>
        <time>2021-07-22T15:02:53.257Z</time>
      </trkpt>
      <trkpt lat="48.51795" lon="-3.62111">
        <ele>170</ele>
        <time>2021-07-22T15:02:58.263Z</time>
      </trkpt>
      <trkpt lat="48.51801" lon="-3.62066">
        <ele>167</ele>
        <time>2021-07-22T15:03:03.254Z</time>
      </trkpt>
      <trkpt lat="48.51812" lon="-3.62024">
        <ele>168</ele>
        <time>2021-07-22T15:03:08.269Z</time>
      </trkpt>
      <trkpt lat="48.51817" lon="-3.61978">
        <ele>174</ele>
        <time>2021-07-22T15:03:13.250Z</time>
      </trkpt>
      <trkpt lat="48.51819" lon="-3.61961">
        <ele>174</ele>
        <time>2021-07-22T15:03:18.239Z</time>
      </trkpt>
      <trkpt lat="48.51827" lon="-3.61923">
        <ele>175</ele>
        <time>2021-07-22T15:03:23.251Z</time>
      </trkpt>
      <trkpt lat="48.51833" lon="-3.61897">
        <ele>173</ele>
        <time>2021-07-22T15:03:28.246Z</time>
      </trkpt>
      <trkpt lat="48.51836" lon="-3.61887">
        <ele>173</ele>
        <time>2021-07-22T15:03:32.248Z</time>
      </trkpt>
      <trkpt lat="48.51826" lon="-3.61874">
        <ele>170</ele>
        <time>2021-07-22T15:03:52.246Z</time>
      </trkpt>
      <trkpt lat="48.51824" lon="-3.61876">
        <ele>173</ele>
        <time>2021-07-22T15:03:57.267Z</time>
      </trkpt>
      <trkpt lat="48.51822" lon="-3.61876">
        <ele>173</ele>
        <time>2021-07-22T15:04:02.260Z</time>
      </trkpt>
      <trkpt lat="48.51817" lon="-3.61878">
        <ele>173</ele>
        <time>2021-07-22T15:04:07.262Z</time>
      </trkpt>
      <trkpt lat="48.51814" lon="-3.61884">
        <ele>173</ele>
        <time>2021-07-22T15:04:12.261Z</time>
      </trkpt>
      <trkpt lat="48.51809" lon="-3.61889">
        <ele>173</ele>
        <time>2021-07-22T15:04:17.239Z</time>
      </trkpt>
      <trkpt lat="48.51805" lon="-3.61894">
        <ele>173</ele>
        <time>2021-07-22T15:04:21.260Z</time>
      </trkpt>
      <trkpt lat="48.51802" lon="-3.61895">
        <ele>173</ele>
        <time>2021-07-22T15:04:26.239Z</time>
      </trkpt>
      <trkpt lat="48.51799" lon="-3.61896">
        <ele>173</ele>
        <time>2021-07-22T15:04:31.239Z</time>
      </trkpt>
      <trkpt lat="48.51797" lon="-3.61899">
        <ele>173</ele>
        <time>2021-07-22T15:04:41.249Z</time>
      </trkpt>
      <trkpt lat="48.51793" lon="-3.61901">
        <ele>173</ele>
        <time>2021-07-22T15:04:46.243Z</time>
      </trkpt>
      <trkpt lat="48.51791" lon="-3.619">
        <ele>173</ele>
        <time>2021-07-22T15:04:51.237Z</time>
      </trkpt>
      <trkpt lat="48.51791" lon="-3.61899">
        <ele>173</ele>
        <time>2021-07-22T15:04:55.249Z</time>
      </trkpt>
      <trkpt lat="48.51787" lon="-3.619">
        <ele>173</ele>
        <time>2021-07-22T15:05:00.248Z</time>
      </trkpt>
      <trkpt lat="48.51782" lon="-3.61902">
        <ele>173</ele>
        <time>2021-07-22T15:05:05.259Z</time>
      </trkpt>
      <trkpt lat="48.5178" lon="-3.61904">
        <ele>176</ele>
        <time>2021-07-22T15:05:10.238Z</time>
      </trkpt>
      <trkpt lat="48.51778" lon="-3.61905">
        <ele>176</ele>
        <time>2021-07-22T15:05:14.265Z</time>
      </trkpt>
      <trkpt lat="48.51772" lon="-3.61905">
        <ele>176</ele>
        <time>2021-07-22T15:05:18.259Z</time>
      </trkpt>
      <trkpt lat="48.51767" lon="-3.61904">
        <ele>176</ele>
        <time>2021-07-22T15:05:23.258Z</time>
      </trkpt>
      <trkpt lat="48.51761" lon="-3.61905">
        <ele>177</ele>
        <time>2021-07-22T15:05:28.267Z</time>
      </trkpt>
      <trkpt lat="48.51755" lon="-3.61907">
        <ele>177</ele>
        <time>2021-07-22T15:05:33.256Z</time>
      </trkpt>
      <trkpt lat="48.51749" lon="-3.61909">
        <ele>177</ele>
        <time>2021-07-22T15:05:38.262Z</time>
      </trkpt>
      <trkpt lat="48.51743" lon="-3.61915">
        <ele>177</ele>
        <time>2021-07-22T15:05:43.266Z</time>
      </trkpt>
      <trkpt lat="48.5174" lon="-3.61917">
        <ele>177</ele>
        <time>2021-07-22T15:05:47.278Z</time>
      </trkpt>
      <trkpt lat="48.51737" lon="-3.61917">
        <ele>177</ele>
        <time>2021-07-22T15:05:52.237Z</time>
      </trkpt>
      <trkpt lat="48.51731" lon="-3.61923">
        <ele>177</ele>
        <time>2021-07-22T15:05:57.249Z</time>
      </trkpt>
      <trkpt lat="48.51726" lon="-3.61928">
        <ele>177</ele>
        <time>2021-07-22T15:06:02.239Z</time>
      </trkpt>
      <trkpt lat="48.51722" lon="-3.6193">
        <ele>177</ele>
        <time>2021-07-22T15:06:07.249Z</time>
      </trkpt>
      <trkpt lat="48.51722" lon="-3.61931">
        <ele>178</ele>
        <time>2021-07-22T15:06:12.246Z</time>
      </trkpt>
      <trkpt lat="48.51718" lon="-3.61932">
        <ele>178</ele>
        <time>2021-07-22T15:06:17.240Z</time>
      </trkpt>
      <trkpt lat="48.51713" lon="-3.6193">
        <ele>177</ele>
        <time>2021-07-22T15:06:22.266Z</time>
      </trkpt>
      <trkpt lat="48.51712" lon="-3.61929">
        <ele>177</ele>
        <time>2021-07-22T15:06:27.267Z</time>
      </trkpt>
      <trkpt lat="48.51709" lon="-3.61932">
        <ele>178</ele>
        <time>2021-07-22T15:06:32.266Z</time>
      </trkpt>
      <trkpt lat="48.51706" lon="-3.6193">
        <ele>177</ele>
        <time>2021-07-22T15:06:37.268Z</time>
      </trkpt>
      <trkpt lat="48.51703" lon="-3.61933">
        <ele>179</ele>
        <time>2021-07-22T15:06:42.247Z</time>
      </trkpt>
      <trkpt lat="48.51699" lon="-3.61932">
        <ele>179</ele>
        <time>2021-07-22T15:06:47.235Z</time>
      </trkpt>
      <trkpt lat="48.51688" lon="-3.61935">
        <ele>179</ele>
        <time>2021-07-22T15:06:52.253Z</time>
      </trkpt>
      <trkpt lat="48.51684" lon="-3.6193">
        <ele>177</ele>
        <time>2021-07-22T15:06:57.251Z</time>
      </trkpt>
      <trkpt lat="48.51682" lon="-3.61928">
        <ele>177</ele>
        <time>2021-07-22T15:07:02.243Z</time>
      </trkpt>
      <trkpt lat="48.51682" lon="-3.61929">
        <ele>177</ele>
        <time>2021-07-22T15:07:55.245Z</time>
      </trkpt>
      <trkpt lat="48.51677" lon="-3.61929">
        <ele>177</ele>
        <time>2021-07-22T15:08:00.258Z</time>
      </trkpt>
      <trkpt lat="48.51673" lon="-3.61933">
        <ele>180</ele>
        <time>2021-07-22T15:08:05.245Z</time>
      </trkpt>
      <trkpt lat="48.51671" lon="-3.61934">
        <ele>180</ele>
        <time>2021-07-22T15:08:10.247Z</time>
      </trkpt>
      <trkpt lat="48.51666" lon="-3.61933">
        <ele>180</ele>
        <time>2021-07-22T15:08:15.257Z</time>
      </trkpt>
      <trkpt lat="48.51666" lon="-3.61938">
        <ele>180</ele>
        <time>2021-07-22T15:08:20.246Z</time>
      </trkpt>
      <trkpt lat="48.51666" lon="-3.61939">
        <ele>180</ele>
        <time>2021-07-22T15:08:25.248Z</time>
      </trkpt>
      <trkpt lat="48.51663" lon="-3.6194">
        <ele>180</ele>
        <time>2021-07-22T15:08:30.256Z</time>
      </trkpt>
      <trkpt lat="48.51657" lon="-3.61941">
        <ele>180</ele>
        <time>2021-07-22T15:08:35.244Z</time>
      </trkpt>
      <trkpt lat="48.51653" lon="-3.6194">
        <ele>180</ele>
        <time>2021-07-22T15:08:40.247Z</time>
      </trkpt>
      <trkpt lat="48.51647" lon="-3.6194">
        <ele>181</ele>
        <time>2021-07-22T15:08:45.252Z</time>
      </trkpt>
      <trkpt lat="48.51641" lon="-3.61943">
        <ele>181</ele>
        <time>2021-07-22T15:08:50.259Z</time>
      </trkpt>
      <trkpt lat="48.51635" lon="-3.61944">
        <ele>181</ele>
        <time>2021-07-22T15:08:55.279Z</time>
      </trkpt>
      <trkpt lat="48.51631" lon="-3.61943">
        <ele>181</ele>
        <time>2021-07-22T15:09:00.273Z</time>
      </trkpt>
      <trkpt lat="48.51626" lon="-3.61943">
        <ele>181</ele>
        <time>2021-07-22T15:09:05.269Z</time>
      </trkpt>
      <trkpt lat="48.51626" lon="-3.61942">
        <ele>181</ele>
        <time>2021-07-22T15:09:10.265Z</time>
      </trkpt>
      <trkpt lat="48.51622" lon="-3.61939">
        <ele>180</ele>
        <time>2021-07-22T15:09:15.272Z</time>
      </trkpt>
      <trkpt lat="48.51618" lon="-3.61935">
        <ele>180</ele>
        <time>2021-07-22T15:09:20.243Z</time>
      </trkpt>
      <trkpt lat="48.51612" lon="-3.61931">
        <ele>180</ele>
        <time>2021-07-22T15:09:25.253Z</time>
      </trkpt>
      <trkpt lat="48.51609" lon="-3.61932">
        <ele>180</ele>
        <time>2021-07-22T15:09:30.242Z</time>
      </trkpt>
      <trkpt lat="48.51605" lon="-3.61933">
        <ele>180</ele>
        <time>2021-07-22T15:09:34.253Z</time>
      </trkpt>
      <trkpt lat="48.51599" lon="-3.61931">
        <ele>180</ele>
        <time>2021-07-22T15:09:39.245Z</time>
      </trkpt>
      <trkpt lat="48.51595" lon="-3.61933">
        <ele>179</ele>
        <time>2021-07-22T15:09:44.240Z</time>
      </trkpt>
      <trkpt lat="48.51598" lon="-3.61978">
        <ele>181</ele>
        <time>2021-07-22T15:09:49.251Z</time>
      </trkpt>
      <trkpt lat="48.51585" lon="-3.61975">
        <ele>180</ele>
        <time>2021-07-22T15:09:54.249Z</time>
      </trkpt>
      <trkpt lat="48.51585" lon="-3.61953">
        <ele>179</ele>
        <time>2021-07-22T15:09:59.240Z</time>
      </trkpt>
      <trkpt lat="48.51581" lon="-3.61948">
        <ele>179</ele>
        <time>2021-07-22T15:10:04.260Z</time>
      </trkpt>
      <trkpt lat="48.51576" lon="-3.61944">
        <ele>179</ele>
        <time>2021-07-22T15:10:09.268Z</time>
      </trkpt>
      <trkpt lat="48.51572" lon="-3.61941">
        <ele>179</ele>
        <time>2021-07-22T15:10:14.261Z</time>
      </trkpt>
      <trkpt lat="48.51564" lon="-3.6194">
        <ele>179</ele>
        <time>2021-07-22T15:10:19.263Z</time>
      </trkpt>
      <trkpt lat="48.51562" lon="-3.61941">
        <ele>179</ele>
        <time>2021-07-22T15:10:24.259Z</time>
      </trkpt>
      <trkpt lat="48.51557" lon="-3.61944">
        <ele>179</ele>
        <time>2021-07-22T15:10:29.280Z</time>
      </trkpt>
      <trkpt lat="48.51553" lon="-3.61948">
        <ele>179</ele>
        <time>2021-07-22T15:10:34.258Z</time>
      </trkpt>
      <trkpt lat="48.51546" lon="-3.61961">
        <ele>180</ele>
        <time>2021-07-22T15:11:32.266Z</time>
      </trkpt>
      <trkpt lat="48.51546" lon="-3.61961">
        <ele>180</ele>
        <time>2021-07-22T15:11:37.260Z</time>
      </trkpt>
      <trkpt lat="48.51544" lon="-3.61957">
        <ele>179</ele>
        <time>2021-07-22T15:11:52.262Z</time>
      </trkpt>
      <trkpt lat="48.51544" lon="-3.6196">
        <ele>180</ele>
        <time>2021-07-22T15:12:02.269Z</time>
      </trkpt>
      <trkpt lat="48.51542" lon="-3.61963">
        <ele>180</ele>
        <time>2021-07-22T15:12:07.259Z</time>
      </trkpt>
      <trkpt lat="48.51541" lon="-3.61968">
        <ele>179</ele>
        <time>2021-07-22T15:12:11.257Z</time>
      </trkpt>
      <trkpt lat="48.51542" lon="-3.61972">
        <ele>180</ele>
        <time>2021-07-22T15:12:16.267Z</time>
      </trkpt>
      <trkpt lat="48.51544" lon="-3.61974">
        <ele>180</ele>
        <time>2021-07-22T15:12:21.244Z</time>
      </trkpt>
      <trkpt lat="48.51545" lon="-3.61982">
        <ele>180</ele>
        <time>2021-07-22T15:12:26.248Z</time>
      </trkpt>
      <trkpt lat="48.51551" lon="-3.61987">
        <ele>181</ele>
        <time>2021-07-22T15:13:42.250Z</time>
      </trkpt>
      <trkpt lat="48.51556" lon="-3.61988">
        <ele>181</ele>
        <time>2021-07-22T15:13:47.248Z</time>
      </trkpt>
      <trkpt lat="48.51557" lon="-3.61997">
        <ele>181</ele>
        <time>2021-07-22T15:13:52.246Z</time>
      </trkpt>
      <trkpt lat="48.51555" lon="-3.62005">
        <ele>181</ele>
        <time>2021-07-22T15:13:57.235Z</time>
      </trkpt>
      <trkpt lat="48.51557" lon="-3.6201">
        <ele>181</ele>
        <time>2021-07-22T15:14:02.242Z</time>
      </trkpt>
      <trkpt lat="48.51556" lon="-3.62008">
        <ele>181</ele>
        <time>2021-07-22T15:14:12.240Z</time>
      </trkpt>
      <trkpt lat="48.51555" lon="-3.62005">
        <ele>181</ele>
        <time>2021-07-22T15:14:16.245Z</time>
      </trkpt>
      <trkpt lat="48.51557" lon="-3.62004">
        <ele>181</ele>
        <time>2021-07-22T15:14:21.253Z</time>
      </trkpt>
      <trkpt lat="48.5156" lon="-3.62001">
        <ele>181</ele>
        <time>2021-07-22T15:14:26.231Z</time>
      </trkpt>
      <trkpt lat="48.51558" lon="-3.61993">
        <ele>181</ele>
        <time>2021-07-22T15:14:31.251Z</time>
      </trkpt>
      <trkpt lat="48.51556" lon="-3.61992">
        <ele>181</ele>
        <time>2021-07-22T15:14:36.231Z</time>
      </trkpt>
      <trkpt lat="48.51564" lon="-3.61958">
        <ele>179</ele>
        <time>2021-07-22T15:14:41.255Z</time>
      </trkpt>
      <trkpt lat="48.51571" lon="-3.61953">
        <ele>179</ele>
        <time>2021-07-22T15:14:46.240Z</time>
      </trkpt>
      <trkpt lat="48.51573" lon="-3.61951">
        <ele>179</ele>
        <time>2021-07-22T15:14:50.232Z</time>
      </trkpt>
      <trkpt lat="48.5157" lon="-3.61965">
        <ele>180</ele>
        <time>2021-07-22T15:14:55.233Z</time>
      </trkpt>
      <trkpt lat="48.5157" lon="-3.61972">
        <ele>180</ele>
        <time>2021-07-22T15:14:59.251Z</time>
      </trkpt>
      <trkpt lat="48.51569" lon="-3.61978">
        <ele>180</ele>
        <time>2021-07-22T15:15:04.235Z</time>
      </trkpt>
      <trkpt lat="48.51568" lon="-3.61991">
        <ele>181</ele>
        <time>2021-07-22T15:15:08.242Z</time>
      </trkpt>
      <trkpt lat="48.5157" lon="-3.62001">
        <ele>180</ele>
        <time>2021-07-22T15:15:13.241Z</time>
      </trkpt>
      <trkpt lat="48.51574" lon="-3.62008">
        <ele>180</ele>
        <time>2021-07-22T15:15:18.240Z</time>
      </trkpt>
      <trkpt lat="48.51577" lon="-3.62013">
        <ele>180</ele>
        <time>2021-07-22T15:15:23.239Z</time>
      </trkpt>
      <trkpt lat="48.51582" lon="-3.6202">
        <ele>181</ele>
        <time>2021-07-22T15:15:28.250Z</time>
      </trkpt>
      <trkpt lat="48.5159" lon="-3.62025">
        <ele>181</ele>
        <time>2021-07-22T15:16:12.242Z</time>
      </trkpt>
      <trkpt lat="48.5159" lon="-3.62031">
        <ele>181</ele>
        <time>2021-07-22T15:16:17.248Z</time>
      </trkpt>
      <trkpt lat="48.5159" lon="-3.62041">
        <ele>181</ele>
        <time>2021-07-22T15:16:22.243Z</time>
      </trkpt>
      <trkpt lat="48.51588" lon="-3.62044">
        <ele>183</ele>
        <time>2021-07-22T15:16:27.246Z</time>
      </trkpt>
      <trkpt lat="48.51587" lon="-3.62046">
        <ele>183</ele>
        <time>2021-07-22T15:16:32.240Z</time>
      </trkpt>
      <trkpt lat="48.51585" lon="-3.62051">
        <ele>183</ele>
        <time>2021-07-22T15:16:36.262Z</time>
      </trkpt>
      <trkpt lat="48.51583" lon="-3.62059">
        <ele>183</ele>
        <time>2021-07-22T15:16:41.245Z</time>
      </trkpt>
      <trkpt lat="48.51582" lon="-3.62068">
        <ele>183</ele>
        <time>2021-07-22T15:16:46.243Z</time>
      </trkpt>
      <trkpt lat="48.51582" lon="-3.62076">
        <ele>185</ele>
        <time>2021-07-22T15:16:51.249Z</time>
      </trkpt>
      <trkpt lat="48.51583" lon="-3.62081">
        <ele>185</ele>
        <time>2021-07-22T15:16:56.264Z</time>
      </trkpt>
      <trkpt lat="48.51582" lon="-3.62091">
        <ele>185</ele>
        <time>2021-07-22T15:17:01.243Z</time>
      </trkpt>
      <trkpt lat="48.51583" lon="-3.62097">
        <ele>185</ele>
        <time>2021-07-22T15:17:06.245Z</time>
      </trkpt>
      <trkpt lat="48.5158" lon="-3.62099">
        <ele>187</ele>
        <time>2021-07-22T15:17:10.266Z</time>
      </trkpt>
      <trkpt lat="48.51582" lon="-3.62103">
        <ele>187</ele>
        <time>2021-07-22T15:17:15.256Z</time>
      </trkpt>
      <trkpt lat="48.51583" lon="-3.62112">
        <ele>187</ele>
        <time>2021-07-22T15:17:20.242Z</time>
      </trkpt>
      <trkpt lat="48.51583" lon="-3.62117">
        <ele>187</ele>
        <time>2021-07-22T15:17:24.259Z</time>
      </trkpt>
      <trkpt lat="48.51583" lon="-3.62124">
        <ele>187</ele>
        <time>2021-07-22T15:17:34.247Z</time>
      </trkpt>
      <trkpt lat="48.51585" lon="-3.62124">
        <ele>187</ele>
        <time>2021-07-22T15:17:39.255Z</time>
      </trkpt>
      <trkpt lat="48.51587" lon="-3.6213">
        <ele>187</ele>
        <time>2021-07-22T15:17:44.253Z</time>
      </trkpt>
      <trkpt lat="48.51585" lon="-3.62134">
        <ele>187</ele>
        <time>2021-07-22T15:17:49.261Z</time>
      </trkpt>
      <trkpt lat="48.51584" lon="-3.62141">
        <ele>187</ele>
        <time>2021-07-22T15:17:54.262Z</time>
      </trkpt>
      <trkpt lat="48.51583" lon="-3.6215">
        <ele>187</ele>
        <time>2021-07-22T15:18:22.252Z</time>
      </trkpt>
      <trkpt lat="48.51591" lon="-3.6215">
        <ele>187</ele>
        <time>2021-07-22T15:18:27.270Z</time>
      </trkpt>
      <trkpt lat="48.51594" lon="-3.62149">
        <ele>187</ele>
        <time>2021-07-22T15:18:32.259Z</time>
      </trkpt>
      <trkpt lat="48.51596" lon="-3.62153">
        <ele>187</ele>
        <time>2021-07-22T15:18:37.257Z</time>
      </trkpt>
      <trkpt lat="48.51596" lon="-3.62157">
        <ele>186</ele>
        <time>2021-07-22T15:18:42.250Z</time>
      </trkpt>
      <trkpt lat="48.51598" lon="-3.62159">
        <ele>182</ele>
        <time>2021-07-22T15:18:47.244Z</time>
      </trkpt>
      <trkpt lat="48.516" lon="-3.62164">
        <ele>182</ele>
        <time>2021-07-22T15:18:52.250Z</time>
      </trkpt>
      <trkpt lat="48.51599" lon="-3.62165">
        <ele>182</ele>
        <time>2021-07-22T15:18:57.241Z</time>
      </trkpt>
      <trkpt lat="48.51597" lon="-3.62171">
        <ele>186</ele>
        <time>2021-07-22T15:19:02.245Z</time>
      </trkpt>
      <trkpt lat="48.51598" lon="-3.62176">
        <ele>182</ele>
        <time>2021-07-22T15:19:07.244Z</time>
      </trkpt>
      <trkpt lat="48.51596" lon="-3.62183">
        <ele>183</ele>
        <time>2021-07-22T15:19:27.258Z</time>
      </trkpt>
      <trkpt lat="48.51597" lon="-3.62184">
        <ele>183</ele>
        <time>2021-07-22T15:19:32.264Z</time>
      </trkpt>
      <trkpt lat="48.51594" lon="-3.62185">
        <ele>183</ele>
        <time>2021-07-22T15:19:37.260Z</time>
      </trkpt>
      <trkpt lat="48.51593" lon="-3.62188">
        <ele>183</ele>
        <time>2021-07-22T15:19:41.270Z</time>
      </trkpt>
      <trkpt lat="48.51591" lon="-3.62192">
        <ele>183</ele>
        <time>2021-07-22T15:19:46.249Z</time>
      </trkpt>
      <trkpt lat="48.5159" lon="-3.62195">
        <ele>183</ele>
        <time>2021-07-22T15:19:50.242Z</time>
      </trkpt>
      <trkpt lat="48.51588" lon="-3.62203">
        <ele>183</ele>
        <time>2021-07-22T15:19:55.239Z</time>
      </trkpt>
      <trkpt lat="48.51585" lon="-3.62213">
        <ele>179</ele>
        <time>2021-07-22T15:20:00.247Z</time>
      </trkpt>
      <trkpt lat="48.51584" lon="-3.62221">
        <ele>179</ele>
        <time>2021-07-22T15:20:05.260Z</time>
      </trkpt>
      <trkpt lat="48.51581" lon="-3.62229">
        <ele>179</ele>
        <time>2021-07-22T15:20:10.244Z</time>
      </trkpt>
      <trkpt lat="48.51581" lon="-3.62232">
        <ele>179</ele>
        <time>2021-07-22T15:20:15.250Z</time>
      </trkpt>
      <trkpt lat="48.5158" lon="-3.62239">
        <ele>178</ele>
        <time>2021-07-22T15:20:20.243Z</time>
      </trkpt>
      <trkpt lat="48.51577" lon="-3.62245">
        <ele>178</ele>
        <time>2021-07-22T15:20:25.251Z</time>
      </trkpt>
      <trkpt lat="48.51578" lon="-3.62248">
        <ele>178</ele>
        <time>2021-07-22T15:20:30.245Z</time>
      </trkpt>
      <trkpt lat="48.51578" lon="-3.62251">
        <ele>178</ele>
        <time>2021-07-22T15:20:35.257Z</time>
      </trkpt>
      <trkpt lat="48.51575" lon="-3.62265">
        <ele>178</ele>
        <time>2021-07-22T15:20:40.243Z</time>
      </trkpt>
      <trkpt lat="48.51571" lon="-3.6228">
        <ele>178</ele>
        <time>2021-07-22T15:20:45.277Z</time>
      </trkpt>
      <trkpt lat="48.51568" lon="-3.62286">
        <ele>182</ele>
        <time>2021-07-22T15:20:50.254Z</time>
      </trkpt>
      <trkpt lat="48.51564" lon="-3.62294">
        <ele>184</ele>
        <time>2021-07-22T15:20:55.268Z</time>
      </trkpt>
      <trkpt lat="48.5156" lon="-3.623">
        <ele>184</ele>
        <time>2021-07-22T15:21:00.246Z</time>
      </trkpt>
      <trkpt lat="48.51557" lon="-3.62306">
        <ele>184</ele>
        <time>2021-07-22T15:21:04.262Z</time>
      </trkpt>
      <trkpt lat="48.51557" lon="-3.62307">
        <ele>184</ele>
        <time>2021-07-22T15:21:09.247Z</time>
      </trkpt>
      <trkpt lat="48.51558" lon="-3.62316">
        <ele>184</ele>
        <time>2021-07-22T15:21:14.245Z</time>
      </trkpt>
      <trkpt lat="48.51558" lon="-3.62323">
        <ele>186</ele>
        <time>2021-07-22T15:21:19.246Z</time>
      </trkpt>
      <trkpt lat="48.51556" lon="-3.62333">
        <ele>186</ele>
        <time>2021-07-22T15:21:24.253Z</time>
      </trkpt>
      <trkpt lat="48.51551" lon="-3.62339">
        <ele>186</ele>
        <time>2021-07-22T15:21:29.255Z</time>
      </trkpt>
      <trkpt lat="48.51547" lon="-3.62344">
        <ele>186</ele>
        <time>2021-07-22T15:21:34.247Z</time>
      </trkpt>
      <trkpt lat="48.51545" lon="-3.62346">
        <ele>186</ele>
        <time>2021-07-22T15:21:38.250Z</time>
      </trkpt>
      <trkpt lat="48.51543" lon="-3.62354">
        <ele>185</ele>
        <time>2021-07-22T15:21:43.253Z</time>
      </trkpt>
      <trkpt lat="48.51542" lon="-3.62359">
        <ele>186</ele>
        <time>2021-07-22T15:21:48.239Z</time>
      </trkpt>
      <trkpt lat="48.51541" lon="-3.62367">
        <ele>186</ele>
        <time>2021-07-22T15:21:52.252Z</time>
      </trkpt>
      <trkpt lat="48.5154" lon="-3.62377">
        <ele>188</ele>
        <time>2021-07-22T15:21:57.261Z</time>
      </trkpt>
      <trkpt lat="48.51538" lon="-3.62387">
        <ele>188</ele>
        <time>2021-07-22T15:22:02.240Z</time>
      </trkpt>
      <trkpt lat="48.51537" lon="-3.62397">
        <ele>188</ele>
        <time>2021-07-22T15:22:06.255Z</time>
      </trkpt>
      <trkpt lat="48.51539" lon="-3.62402">
        <ele>188</ele>
        <time>2021-07-22T15:22:10.248Z</time>
      </trkpt>
      <trkpt lat="48.51537" lon="-3.62408">
        <ele>189</ele>
        <time>2021-07-22T15:22:15.239Z</time>
      </trkpt>
      <trkpt lat="48.51535" lon="-3.62411">
        <ele>189</ele>
        <time>2021-07-22T15:22:19.259Z</time>
      </trkpt>
      <trkpt lat="48.51537" lon="-3.62431">
        <ele>190</ele>
        <time>2021-07-22T15:23:01.245Z</time>
      </trkpt>
      <trkpt lat="48.51539" lon="-3.62444">
        <ele>190</ele>
        <time>2021-07-22T15:23:06.247Z</time>
      </trkpt>
      <trkpt lat="48.51539" lon="-3.62456">
        <ele>190</ele>
        <time>2021-07-22T15:23:10.247Z</time>
      </trkpt>
      <trkpt lat="48.5154" lon="-3.62468">
        <ele>191</ele>
        <time>2021-07-22T15:23:15.262Z</time>
      </trkpt>
      <trkpt lat="48.51544" lon="-3.62485">
        <ele>189</ele>
        <time>2021-07-22T15:23:20.256Z</time>
      </trkpt>
      <trkpt lat="48.51546" lon="-3.62496">
        <ele>190</ele>
        <time>2021-07-22T15:23:25.267Z</time>
      </trkpt>
      <trkpt lat="48.51548" lon="-3.62507">
        <ele>190</ele>
        <time>2021-07-22T15:23:30.244Z</time>
      </trkpt>
      <trkpt lat="48.51551" lon="-3.62513">
        <ele>190</ele>
        <time>2021-07-22T15:23:35.266Z</time>
      </trkpt>
      <trkpt lat="48.51555" lon="-3.6252">
        <ele>193</ele>
        <time>2021-07-22T15:23:40.245Z</time>
      </trkpt>
      <trkpt lat="48.51555" lon="-3.62521">
        <ele>193</ele>
        <time>2021-07-22T15:23:45.258Z</time>
      </trkpt>
      <trkpt lat="48.51555" lon="-3.62521">
        <ele>193</ele>
        <time>2021-07-22T15:23:50.253Z</time>
      </trkpt>
      <trkpt lat="48.51551" lon="-3.62519">
        <ele>193</ele>
        <time>2021-07-22T15:23:55.258Z</time>
      </trkpt>
      <trkpt lat="48.51546" lon="-3.62518">
        <ele>193</ele>
        <time>2021-07-22T15:24:00.243Z</time>
      </trkpt>
      <trkpt lat="48.51541" lon="-3.62512">
        <ele>192</ele>
        <time>2021-07-22T15:24:05.252Z</time>
      </trkpt>
      <trkpt lat="48.51534" lon="-3.62511">
        <ele>192</ele>
        <time>2021-07-22T15:24:10.243Z</time>
      </trkpt>
      <trkpt lat="48.51531" lon="-3.62506">
        <ele>192</ele>
        <time>2021-07-22T15:24:15.262Z</time>
      </trkpt>
      <trkpt lat="48.51528" lon="-3.62505">
        <ele>192</ele>
        <time>2021-07-22T15:24:20.246Z</time>
      </trkpt>
      <trkpt lat="48.51527" lon="-3.6251">
        <ele>192</ele>
        <time>2021-07-22T15:24:25.261Z</time>
      </trkpt>
      <trkpt lat="48.51528" lon="-3.62511">
        <ele>192</ele>
        <time>2021-07-22T15:24:30.246Z</time>
      </trkpt>
      <trkpt lat="48.51526" lon="-3.62518">
        <ele>194</ele>
        <time>2021-07-22T15:24:35.273Z</time>
      </trkpt>
      <trkpt lat="48.51524" lon="-3.62527">
        <ele>194</ele>
        <time>2021-07-22T15:24:40.241Z</time>
      </trkpt>
      <trkpt lat="48.51524" lon="-3.6253">
        <ele>194</ele>
        <time>2021-07-22T15:24:45.261Z</time>
      </trkpt>
      <trkpt lat="48.51524" lon="-3.62537">
        <ele>194</ele>
        <time>2021-07-22T15:24:50.250Z</time>
      </trkpt>
      <trkpt lat="48.51526" lon="-3.62542">
        <ele>198</ele>
        <time>2021-07-22T15:24:55.242Z</time>
      </trkpt>
      <trkpt lat="48.51526" lon="-3.62545">
        <ele>198</ele>
        <time>2021-07-22T15:24:59.251Z</time>
      </trkpt>
      <trkpt lat="48.51523" lon="-3.62551">
        <ele>198</ele>
        <time>2021-07-22T15:25:04.237Z</time>
      </trkpt>
      <trkpt lat="48.51518" lon="-3.6256">
        <ele>198</ele>
        <time>2021-07-22T15:25:09.240Z</time>
      </trkpt>
      <trkpt lat="48.51514" lon="-3.62568">
        <ele>200</ele>
        <time>2021-07-22T15:25:13.257Z</time>
      </trkpt>
      <trkpt lat="48.51513" lon="-3.62571">
        <ele>203</ele>
        <time>2021-07-22T15:25:18.240Z</time>
      </trkpt>
      <trkpt lat="48.51516" lon="-3.62573">
        <ele>200</ele>
        <time>2021-07-22T15:25:23.243Z</time>
      </trkpt>
      <trkpt lat="48.51516" lon="-3.6258">
        <ele>200</ele>
        <time>2021-07-22T15:25:28.251Z</time>
      </trkpt>
      <trkpt lat="48.51513" lon="-3.62588">
        <ele>203</ele>
        <time>2021-07-22T15:25:33.240Z</time>
      </trkpt>
      <trkpt lat="48.51511" lon="-3.62596">
        <ele>203</ele>
        <time>2021-07-22T15:25:37.273Z</time>
      </trkpt>
      <trkpt lat="48.51511" lon="-3.62602">
        <ele>205</ele>
        <time>2021-07-22T15:25:42.262Z</time>
      </trkpt>
      <trkpt lat="48.51509" lon="-3.62605">
        <ele>205</ele>
        <time>2021-07-22T15:25:47.253Z</time>
      </trkpt>
      <trkpt lat="48.5151" lon="-3.62611">
        <ele>205</ele>
        <time>2021-07-22T15:25:52.258Z</time>
      </trkpt>
      <trkpt lat="48.51508" lon="-3.62618">
        <ele>205</ele>
        <time>2021-07-22T15:25:57.264Z</time>
      </trkpt>
      <trkpt lat="48.51507" lon="-3.62625">
        <ele>207</ele>
        <time>2021-07-22T15:26:02.259Z</time>
      </trkpt>
      <trkpt lat="48.51504" lon="-3.62632">
        <ele>207</ele>
        <time>2021-07-22T15:26:07.261Z</time>
      </trkpt>
      <trkpt lat="48.51503" lon="-3.62641">
        <ele>207</ele>
        <time>2021-07-22T15:26:12.264Z</time>
      </trkpt>
      <trkpt lat="48.51499" lon="-3.6265">
        <ele>207</ele>
        <time>2021-07-22T15:26:17.246Z</time>
      </trkpt>
      <trkpt lat="48.51498" lon="-3.62653">
        <ele>211</ele>
        <time>2021-07-22T15:26:22.254Z</time>
      </trkpt>
      <trkpt lat="48.51497" lon="-3.62659">
        <ele>211</ele>
        <time>2021-07-22T15:26:27.280Z</time>
      </trkpt>
      <trkpt lat="48.51495" lon="-3.62662">
        <ele>211</ele>
        <time>2021-07-22T15:26:32.242Z</time>
      </trkpt>
      <trkpt lat="48.51493" lon="-3.62663">
        <ele>211</ele>
        <time>2021-07-22T15:26:36.243Z</time>
      </trkpt>
      <trkpt lat="48.5149" lon="-3.62663">
        <ele>211</ele>
        <time>2021-07-22T15:26:41.252Z</time>
      </trkpt>
      <trkpt lat="48.51485" lon="-3.62664">
        <ele>211</ele>
        <time>2021-07-22T15:26:46.247Z</time>
      </trkpt>
      <trkpt lat="48.51484" lon="-3.62664">
        <ele>211</ele>
        <time>2021-07-22T15:26:51.238Z</time>
      </trkpt>
      <trkpt lat="48.51482" lon="-3.62664">
        <ele>211</ele>
        <time>2021-07-22T15:26:56.243Z</time>
      </trkpt>
      <trkpt lat="48.51481" lon="-3.62662">
        <ele>211</ele>
        <time>2021-07-22T15:27:00.245Z</time>
      </trkpt>
      <trkpt lat="48.51477" lon="-3.62658">
        <ele>211</ele>
        <time>2021-07-22T15:27:05.261Z</time>
      </trkpt>
      <trkpt lat="48.5146" lon="-3.62649">
        <ele>208</ele>
        <time>2021-07-22T15:29:20.263Z</time>
      </trkpt>
      <trkpt lat="48.51457" lon="-3.62649">
        <ele>209</ele>
        <time>2021-07-22T15:29:25.239Z</time>
      </trkpt>
      <trkpt lat="48.51457" lon="-3.62648">
        <ele>209</ele>
        <time>2021-07-22T15:29:29.255Z</time>
      </trkpt>
      <trkpt lat="48.51455" lon="-3.62648">
        <ele>209</ele>
        <time>2021-07-22T15:29:34.241Z</time>
      </trkpt>
      <trkpt lat="48.51451" lon="-3.62646">
        <ele>209</ele>
        <time>2021-07-22T15:29:39.261Z</time>
      </trkpt>
      <trkpt lat="48.51448" lon="-3.62645">
        <ele>209</ele>
        <time>2021-07-22T15:29:44.246Z</time>
      </trkpt>
      <trkpt lat="48.51446" lon="-3.62643">
        <ele>209</ele>
        <time>2021-07-22T15:29:48.250Z</time>
      </trkpt>
      <trkpt lat="48.51438" lon="-3.6264">
        <ele>209</ele>
        <time>2021-07-22T15:29:53.262Z</time>
      </trkpt>
      <trkpt lat="48.51431" lon="-3.62635">
        <ele>209</ele>
        <time>2021-07-22T15:29:58.254Z</time>
      </trkpt>
      <trkpt lat="48.51426" lon="-3.62632">
        <ele>210</ele>
        <time>2021-07-22T15:30:02.265Z</time>
      </trkpt>
      <trkpt lat="48.5142" lon="-3.62631">
        <ele>210</ele>
        <time>2021-07-22T15:30:07.241Z</time>
      </trkpt>
      <trkpt lat="48.51415" lon="-3.62629">
        <ele>210</ele>
        <time>2021-07-22T15:30:12.246Z</time>
      </trkpt>
      <trkpt lat="48.5141" lon="-3.62628">
        <ele>210</ele>
        <time>2021-07-22T15:30:17.246Z</time>
      </trkpt>
      <trkpt lat="48.51406" lon="-3.62627">
        <ele>210</ele>
        <time>2021-07-22T15:30:22.255Z</time>
      </trkpt>
      <trkpt lat="48.514" lon="-3.62628">
        <ele>210</ele>
        <time>2021-07-22T15:30:27.256Z</time>
      </trkpt>
      <trkpt lat="48.51395" lon="-3.62628">
        <ele>210</ele>
        <time>2021-07-22T15:30:32.257Z</time>
      </trkpt>
      <trkpt lat="48.51387" lon="-3.62626">
        <ele>210</ele>
        <time>2021-07-22T15:30:37.253Z</time>
      </trkpt>
      <trkpt lat="48.51382" lon="-3.62622">
        <ele>209</ele>
        <time>2021-07-22T15:30:42.252Z</time>
      </trkpt>
      <trkpt lat="48.51377" lon="-3.6262">
        <ele>209</ele>
        <time>2021-07-22T15:30:47.248Z</time>
      </trkpt>
      <trkpt lat="48.51375" lon="-3.62618">
        <ele>209</ele>
        <time>2021-07-22T15:30:52.240Z</time>
      </trkpt>
      <trkpt lat="48.51374" lon="-3.62618">
        <ele>209</ele>
        <time>2021-07-22T15:30:57.242Z</time>
      </trkpt>
      <trkpt lat="48.51369" lon="-3.62618">
        <ele>209</ele>
        <time>2021-07-22T15:31:02.249Z</time>
      </trkpt>
      <trkpt lat="48.51358" lon="-3.62618">
        <ele>209</ele>
        <time>2021-07-22T15:31:32.257Z</time>
      </trkpt>
      <trkpt lat="48.51356" lon="-3.6262">
        <ele>209</ele>
        <time>2021-07-22T15:31:42.253Z</time>
      </trkpt>
      <trkpt lat="48.51352" lon="-3.62618">
        <ele>209</ele>
        <time>2021-07-22T15:31:47.256Z</time>
      </trkpt>
      <trkpt lat="48.51349" lon="-3.62617">
        <ele>209</ele>
        <time>2021-07-22T15:31:52.262Z</time>
      </trkpt>
      <trkpt lat="48.51347" lon="-3.62618">
        <ele>210</ele>
        <time>2021-07-22T15:31:57.252Z</time>
      </trkpt>
      <trkpt lat="48.51339" lon="-3.62618">
        <ele>210</ele>
        <time>2021-07-22T15:32:26.255Z</time>
      </trkpt>
      <trkpt lat="48.51337" lon="-3.62618">
        <ele>210</ele>
        <time>2021-07-22T15:33:00.254Z</time>
      </trkpt>
      <trkpt lat="48.51331" lon="-3.62618">
        <ele>210</ele>
        <time>2021-07-22T15:33:05.251Z</time>
      </trkpt>
      <trkpt lat="48.51327" lon="-3.62619">
        <ele>210</ele>
        <time>2021-07-22T15:33:10.260Z</time>
      </trkpt>
      <trkpt lat="48.51321" lon="-3.62621">
        <ele>210</ele>
        <time>2021-07-22T15:33:15.257Z</time>
      </trkpt>
      <trkpt lat="48.51315" lon="-3.62621">
        <ele>209</ele>
        <time>2021-07-22T15:33:20.258Z</time>
      </trkpt>
      <trkpt lat="48.51309" lon="-3.62621">
        <ele>209</ele>
        <time>2021-07-22T15:33:25.262Z</time>
      </trkpt>
      <trkpt lat="48.51305" lon="-3.62621">
        <ele>209</ele>
        <time>2021-07-22T15:33:29.266Z</time>
      </trkpt>
      <trkpt lat="48.51301" lon="-3.62625">
        <ele>209</ele>
        <time>2021-07-22T15:33:34.245Z</time>
      </trkpt>
      <trkpt lat="48.513" lon="-3.62627">
        <ele>211</ele>
        <time>2021-07-22T15:33:38.275Z</time>
      </trkpt>
      <trkpt lat="48.51301" lon="-3.62626">
        <ele>211</ele>
        <time>2021-07-22T15:33:43.260Z</time>
      </trkpt>
      <trkpt lat="48.51302" lon="-3.62625">
        <ele>209</ele>
        <time>2021-07-22T15:33:48.266Z</time>
      </trkpt>
      <trkpt lat="48.51303" lon="-3.62618">
        <ele>209</ele>
        <time>2021-07-22T15:33:53.270Z</time>
      </trkpt>
      <trkpt lat="48.51306" lon="-3.62611">
        <ele>209</ele>
        <time>2021-07-22T15:33:58.269Z</time>
      </trkpt>
      <trkpt lat="48.51309" lon="-3.62611">
        <ele>209</ele>
        <time>2021-07-22T15:34:03.262Z</time>
      </trkpt>
      <trkpt lat="48.51307" lon="-3.6261">
        <ele>209</ele>
        <time>2021-07-22T15:34:08.249Z</time>
      </trkpt>
      <trkpt lat="48.51306" lon="-3.62614">
        <ele>209</ele>
        <time>2021-07-22T15:34:13.238Z</time>
      </trkpt>
      <trkpt lat="48.51304" lon="-3.6262">
        <ele>209</ele>
        <time>2021-07-22T15:34:17.260Z</time>
      </trkpt>
      <trkpt lat="48.51302" lon="-3.62627">
        <ele>211</ele>
        <time>2021-07-22T15:34:22.255Z</time>
      </trkpt>
    </trkseg>
  </trk>
</gpx>